<?xml version="1.0" encoding="UTF-8" standalone="no" ?>
<gpx xmlns="http://www.topografix.com/GPX/1/1" xmlns:xsi="http://www.w3.org/2001/XMLSchema-instance" xsi:schemaLocation="http://www.topografix.com/GPX/1/1 http://www.topografix.com/GPX/1/1/gpx.xsd" version="1.1" creator="VisuGPX - https://www.visugpx.com">
  <metadata>
    <name>Le Désert depuis la Morte</name>
  </metadata>
  <trk>
    <name><![CDATA[Le Désert depuis la Morte.gpx]]></name>
    <trkseg>
      <trkpt lat="45.0283" lon="5.85731">
        <ele>1402</ele>
        <time>2022-06-05T08:47:02Z</time>
      </trkpt>
      <trkpt lat="45.0283" lon="5.85731">
        <ele>1402</ele>
        <time>2022-06-05T08:47:03Z</time>
      </trkpt>
      <trkpt lat="45.0283" lon="5.85731">
        <ele>1402</ele>
        <time>2022-06-05T08:47:04Z</time>
      </trkpt>
      <trkpt lat="45.0283" lon="5.85731">
        <ele>1402</ele>
        <time>2022-06-05T08:47:05Z</time>
      </trkpt>
      <trkpt lat="45.02831" lon="5.85729">
        <ele>1403</ele>
        <time>2022-06-05T08:47:06Z</time>
      </trkpt>
      <trkpt lat="45.02832" lon="5.85725">
        <ele>1403</ele>
        <time>2022-06-05T08:47:08Z</time>
      </trkpt>
      <trkpt lat="45.02831" lon="5.85722">
        <ele>1401</ele>
        <time>2022-06-05T08:47:10Z</time>
      </trkpt>
      <trkpt lat="45.02832" lon="5.8572">
        <ele>1399</ele>
        <time>2022-06-05T08:47:12Z</time>
      </trkpt>
      <trkpt lat="45.02832" lon="5.85719">
        <ele>1398</ele>
        <time>2022-06-05T08:47:13Z</time>
      </trkpt>
      <trkpt lat="45.02832" lon="5.85719">
        <ele>1398</ele>
        <time>2022-06-05T08:47:14Z</time>
      </trkpt>
      <trkpt lat="45.02832" lon="5.85718">
        <ele>1398</ele>
        <time>2022-06-05T08:47:15Z</time>
      </trkpt>
      <trkpt lat="45.02832" lon="5.85718">
        <ele>1398</ele>
        <time>2022-06-05T08:47:16Z</time>
      </trkpt>
      <trkpt lat="45.02832" lon="5.85718">
        <ele>1397</ele>
        <time>2022-06-05T08:47:17Z</time>
      </trkpt>
      <trkpt lat="45.02832" lon="5.85718">
        <ele>1397</ele>
        <time>2022-06-05T08:47:18Z</time>
      </trkpt>
      <trkpt lat="45.02832" lon="5.85718">
        <ele>1397</ele>
        <time>2022-06-05T08:47:19Z</time>
      </trkpt>
      <trkpt lat="45.02832" lon="5.85718">
        <ele>1397</ele>
        <time>2022-06-05T08:47:20Z</time>
      </trkpt>
      <trkpt lat="45.02832" lon="5.85718">
        <ele>1397</ele>
        <time>2022-06-05T08:47:21Z</time>
      </trkpt>
      <trkpt lat="45.02832" lon="5.85718">
        <ele>1397</ele>
        <time>2022-06-05T08:47:22Z</time>
      </trkpt>
      <trkpt lat="45.02832" lon="5.85718">
        <ele>1397</ele>
        <time>2022-06-05T08:47:23Z</time>
      </trkpt>
      <trkpt lat="45.02832" lon="5.85718">
        <ele>1397</ele>
        <time>2022-06-05T08:47:24Z</time>
      </trkpt>
      <trkpt lat="45.02832" lon="5.85718">
        <ele>1397</ele>
        <time>2022-06-05T08:47:25Z</time>
      </trkpt>
      <trkpt lat="45.02832" lon="5.85718">
        <ele>1397</ele>
        <time>2022-06-05T08:47:26Z</time>
      </trkpt>
      <trkpt lat="45.02832" lon="5.85718">
        <ele>1397</ele>
        <time>2022-06-05T08:47:27Z</time>
      </trkpt>
      <trkpt lat="45.02831" lon="5.85719">
        <ele>1398</ele>
        <time>2022-06-05T08:47:28Z</time>
      </trkpt>
      <trkpt lat="45.0283" lon="5.85719">
        <ele>1398</ele>
        <time>2022-06-05T08:47:29Z</time>
      </trkpt>
      <trkpt lat="45.02829" lon="5.85719">
        <ele>1398</ele>
        <time>2022-06-05T08:47:30Z</time>
      </trkpt>
      <trkpt lat="45.02828" lon="5.8572">
        <ele>1398</ele>
        <time>2022-06-05T08:47:31Z</time>
      </trkpt>
      <trkpt lat="45.02828" lon="5.8572">
        <ele>1398</ele>
        <time>2022-06-05T08:47:32Z</time>
      </trkpt>
      <trkpt lat="45.02828" lon="5.8572">
        <ele>1398</ele>
        <time>2022-06-05T08:47:33Z</time>
      </trkpt>
      <trkpt lat="45.02828" lon="5.8572">
        <ele>1398</ele>
        <time>2022-06-05T08:47:34Z</time>
      </trkpt>
      <trkpt lat="45.02828" lon="5.8572">
        <ele>1398</ele>
        <time>2022-06-05T08:47:35Z</time>
      </trkpt>
      <trkpt lat="45.02828" lon="5.8572">
        <ele>1398</ele>
        <time>2022-06-05T08:47:36Z</time>
      </trkpt>
      <trkpt lat="45.02828" lon="5.8572">
        <ele>1398</ele>
        <time>2022-06-05T08:47:37Z</time>
      </trkpt>
      <trkpt lat="45.02828" lon="5.8572">
        <ele>1398</ele>
        <time>2022-06-05T08:47:38Z</time>
      </trkpt>
      <trkpt lat="45.02827" lon="5.85721">
        <ele>1398</ele>
        <time>2022-06-05T08:47:39Z</time>
      </trkpt>
      <trkpt lat="45.02826" lon="5.85723">
        <ele>1398</ele>
        <time>2022-06-05T08:47:40Z</time>
      </trkpt>
      <trkpt lat="45.02825" lon="5.85723">
        <ele>1398</ele>
        <time>2022-06-05T08:47:41Z</time>
      </trkpt>
      <trkpt lat="45.02824" lon="5.85724">
        <ele>1398</ele>
        <time>2022-06-05T08:47:42Z</time>
      </trkpt>
      <trkpt lat="45.02823" lon="5.85726">
        <ele>1397</ele>
        <time>2022-06-05T08:47:43Z</time>
      </trkpt>
      <trkpt lat="45.02822" lon="5.85727">
        <ele>1397</ele>
        <time>2022-06-05T08:47:44Z</time>
      </trkpt>
      <trkpt lat="45.02822" lon="5.85727">
        <ele>1397</ele>
        <time>2022-06-05T08:47:45Z</time>
      </trkpt>
      <trkpt lat="45.02822" lon="5.85727">
        <ele>1397</ele>
        <time>2022-06-05T08:47:46Z</time>
      </trkpt>
      <trkpt lat="45.02822" lon="5.85727">
        <ele>1397</ele>
        <time>2022-06-05T08:47:47Z</time>
      </trkpt>
      <trkpt lat="45.02822" lon="5.85727">
        <ele>1397</ele>
        <time>2022-06-05T08:47:48Z</time>
      </trkpt>
      <trkpt lat="45.02822" lon="5.85727">
        <ele>1397</ele>
        <time>2022-06-05T08:47:49Z</time>
      </trkpt>
      <trkpt lat="45.02822" lon="5.85727">
        <ele>1397</ele>
        <time>2022-06-05T08:47:50Z</time>
      </trkpt>
      <trkpt lat="45.02822" lon="5.85727">
        <ele>1397</ele>
        <time>2022-06-05T08:47:51Z</time>
      </trkpt>
      <trkpt lat="45.02822" lon="5.85727">
        <ele>1397</ele>
        <time>2022-06-05T08:47:52Z</time>
      </trkpt>
      <trkpt lat="45.02822" lon="5.85727">
        <ele>1397</ele>
        <time>2022-06-05T08:47:53Z</time>
      </trkpt>
      <trkpt lat="45.02822" lon="5.85727">
        <ele>1397</ele>
        <time>2022-06-05T08:47:54Z</time>
      </trkpt>
      <trkpt lat="45.02822" lon="5.85727">
        <ele>1397</ele>
        <time>2022-06-05T08:47:55Z</time>
      </trkpt>
      <trkpt lat="45.02821" lon="5.85728">
        <ele>1397</ele>
        <time>2022-06-05T08:47:56Z</time>
      </trkpt>
      <trkpt lat="45.02821" lon="5.85729">
        <ele>1397</ele>
        <time>2022-06-05T08:47:57Z</time>
      </trkpt>
      <trkpt lat="45.02819" lon="5.8573">
        <ele>1397</ele>
        <time>2022-06-05T08:47:58Z</time>
      </trkpt>
      <trkpt lat="45.02818" lon="5.85731">
        <ele>1396</ele>
        <time>2022-06-05T08:47:59Z</time>
      </trkpt>
      <trkpt lat="45.02818" lon="5.85731">
        <ele>1396</ele>
        <time>2022-06-05T08:48:00Z</time>
      </trkpt>
      <trkpt lat="45.02818" lon="5.85731">
        <ele>1396</ele>
        <time>2022-06-05T08:48:01Z</time>
      </trkpt>
      <trkpt lat="45.02816" lon="5.85731">
        <ele>1396</ele>
        <time>2022-06-05T08:48:02Z</time>
      </trkpt>
      <trkpt lat="45.02815" lon="5.85733">
        <ele>1396</ele>
        <time>2022-06-05T08:48:03Z</time>
      </trkpt>
      <trkpt lat="45.02814" lon="5.85734">
        <ele>1396</ele>
        <time>2022-06-05T08:48:04Z</time>
      </trkpt>
      <trkpt lat="45.02813" lon="5.85736">
        <ele>1396</ele>
        <time>2022-06-05T08:48:05Z</time>
      </trkpt>
      <trkpt lat="45.02813" lon="5.85736">
        <ele>1396</ele>
        <time>2022-06-05T08:48:06Z</time>
      </trkpt>
      <trkpt lat="45.02813" lon="5.85736">
        <ele>1396</ele>
        <time>2022-06-05T08:48:07Z</time>
      </trkpt>
      <trkpt lat="45.02811" lon="5.85737">
        <ele>1396</ele>
        <time>2022-06-05T08:48:08Z</time>
      </trkpt>
      <trkpt lat="45.02811" lon="5.85739">
        <ele>1396</ele>
        <time>2022-06-05T08:48:09Z</time>
      </trkpt>
      <trkpt lat="45.0281" lon="5.8574">
        <ele>1396</ele>
        <time>2022-06-05T08:48:10Z</time>
      </trkpt>
      <trkpt lat="45.02808" lon="5.85742">
        <ele>1396</ele>
        <time>2022-06-05T08:48:11Z</time>
      </trkpt>
      <trkpt lat="45.02808" lon="5.85744">
        <ele>1396</ele>
        <time>2022-06-05T08:48:12Z</time>
      </trkpt>
      <trkpt lat="45.02808" lon="5.85745">
        <ele>1397</ele>
        <time>2022-06-05T08:48:13Z</time>
      </trkpt>
      <trkpt lat="45.02807" lon="5.85747">
        <ele>1397</ele>
        <time>2022-06-05T08:48:14Z</time>
      </trkpt>
      <trkpt lat="45.02807" lon="5.85747">
        <ele>1397</ele>
        <time>2022-06-05T08:48:15Z</time>
      </trkpt>
      <trkpt lat="45.02807" lon="5.85747">
        <ele>1397</ele>
        <time>2022-06-05T08:48:16Z</time>
      </trkpt>
      <trkpt lat="45.02805" lon="5.8575">
        <ele>1397</ele>
        <time>2022-06-05T08:48:17Z</time>
      </trkpt>
      <trkpt lat="45.02803" lon="5.85751">
        <ele>1397</ele>
        <time>2022-06-05T08:48:18Z</time>
      </trkpt>
      <trkpt lat="45.02803" lon="5.85752">
        <ele>1397</ele>
        <time>2022-06-05T08:48:19Z</time>
      </trkpt>
      <trkpt lat="45.02802" lon="5.85753">
        <ele>1397</ele>
        <time>2022-06-05T08:48:20Z</time>
      </trkpt>
      <trkpt lat="45.02802" lon="5.85753">
        <ele>1397</ele>
        <time>2022-06-05T08:48:21Z</time>
      </trkpt>
      <trkpt lat="45.02802" lon="5.85753">
        <ele>1397</ele>
        <time>2022-06-05T08:48:22Z</time>
      </trkpt>
      <trkpt lat="45.028" lon="5.85756">
        <ele>1397</ele>
        <time>2022-06-05T08:48:23Z</time>
      </trkpt>
      <trkpt lat="45.02799" lon="5.85756">
        <ele>1397</ele>
        <time>2022-06-05T08:48:24Z</time>
      </trkpt>
      <trkpt lat="45.02798" lon="5.85757">
        <ele>1397</ele>
        <time>2022-06-05T08:48:25Z</time>
      </trkpt>
      <trkpt lat="45.02797" lon="5.85757">
        <ele>1398</ele>
        <time>2022-06-05T08:48:26Z</time>
      </trkpt>
      <trkpt lat="45.02795" lon="5.85759">
        <ele>1397</ele>
        <time>2022-06-05T08:48:27Z</time>
      </trkpt>
      <trkpt lat="45.02795" lon="5.85759">
        <ele>1397</ele>
        <time>2022-06-05T08:48:28Z</time>
      </trkpt>
      <trkpt lat="45.02795" lon="5.85759">
        <ele>1397</ele>
        <time>2022-06-05T08:48:29Z</time>
      </trkpt>
      <trkpt lat="45.02794" lon="5.85762">
        <ele>1398</ele>
        <time>2022-06-05T08:48:30Z</time>
      </trkpt>
      <trkpt lat="45.02794" lon="5.85764">
        <ele>1397</ele>
        <time>2022-06-05T08:48:31Z</time>
      </trkpt>
      <trkpt lat="45.02792" lon="5.85765">
        <ele>1397</ele>
        <time>2022-06-05T08:48:32Z</time>
      </trkpt>
      <trkpt lat="45.02791" lon="5.85767">
        <ele>1396</ele>
        <time>2022-06-05T08:48:33Z</time>
      </trkpt>
      <trkpt lat="45.02791" lon="5.85767">
        <ele>1396</ele>
        <time>2022-06-05T08:48:34Z</time>
      </trkpt>
      <trkpt lat="45.02791" lon="5.85767">
        <ele>1396</ele>
        <time>2022-06-05T08:48:35Z</time>
      </trkpt>
      <trkpt lat="45.02788" lon="5.85769">
        <ele>1395</ele>
        <time>2022-06-05T08:48:36Z</time>
      </trkpt>
      <trkpt lat="45.02788" lon="5.8577">
        <ele>1395</ele>
        <time>2022-06-05T08:48:37Z</time>
      </trkpt>
      <trkpt lat="45.02787" lon="5.85772">
        <ele>1395</ele>
        <time>2022-06-05T08:48:38Z</time>
      </trkpt>
      <trkpt lat="45.02787" lon="5.85773">
        <ele>1394</ele>
        <time>2022-06-05T08:48:39Z</time>
      </trkpt>
      <trkpt lat="45.02787" lon="5.85773">
        <ele>1394</ele>
        <time>2022-06-05T08:48:40Z</time>
      </trkpt>
      <trkpt lat="45.02787" lon="5.85773">
        <ele>1394</ele>
        <time>2022-06-05T08:48:41Z</time>
      </trkpt>
      <trkpt lat="45.02784" lon="5.85778">
        <ele>1394</ele>
        <time>2022-06-05T08:48:42Z</time>
      </trkpt>
      <trkpt lat="45.02784" lon="5.85779">
        <ele>1394</ele>
        <time>2022-06-05T08:48:43Z</time>
      </trkpt>
      <trkpt lat="45.02783" lon="5.8578">
        <ele>1394</ele>
        <time>2022-06-05T08:48:44Z</time>
      </trkpt>
      <trkpt lat="45.02782" lon="5.85781">
        <ele>1394</ele>
        <time>2022-06-05T08:48:45Z</time>
      </trkpt>
      <trkpt lat="45.02782" lon="5.85781">
        <ele>1394</ele>
        <time>2022-06-05T08:48:46Z</time>
      </trkpt>
      <trkpt lat="45.02782" lon="5.85781">
        <ele>1394</ele>
        <time>2022-06-05T08:48:47Z</time>
      </trkpt>
      <trkpt lat="45.02781" lon="5.85784">
        <ele>1395</ele>
        <time>2022-06-05T08:48:48Z</time>
      </trkpt>
      <trkpt lat="45.0278" lon="5.85785">
        <ele>1395</ele>
        <time>2022-06-05T08:48:49Z</time>
      </trkpt>
      <trkpt lat="45.02779" lon="5.85786">
        <ele>1396</ele>
        <time>2022-06-05T08:48:50Z</time>
      </trkpt>
      <trkpt lat="45.02779" lon="5.85786">
        <ele>1396</ele>
        <time>2022-06-05T08:48:51Z</time>
      </trkpt>
      <trkpt lat="45.02779" lon="5.85786">
        <ele>1396</ele>
        <time>2022-06-05T08:48:52Z</time>
      </trkpt>
      <trkpt lat="45.02779" lon="5.85786">
        <ele>1396</ele>
        <time>2022-06-05T08:48:53Z</time>
      </trkpt>
      <trkpt lat="45.02776" lon="5.85789">
        <ele>1397</ele>
        <time>2022-06-05T08:48:54Z</time>
      </trkpt>
      <trkpt lat="45.02776" lon="5.8579">
        <ele>1397</ele>
        <time>2022-06-05T08:48:55Z</time>
      </trkpt>
      <trkpt lat="45.02775" lon="5.8579">
        <ele>1396</ele>
        <time>2022-06-05T08:48:56Z</time>
      </trkpt>
      <trkpt lat="45.02774" lon="5.8579">
        <ele>1396</ele>
        <time>2022-06-05T08:48:57Z</time>
      </trkpt>
      <trkpt lat="45.02774" lon="5.8579">
        <ele>1396</ele>
        <time>2022-06-05T08:48:58Z</time>
      </trkpt>
      <trkpt lat="45.02774" lon="5.8579">
        <ele>1396</ele>
        <time>2022-06-05T08:48:59Z</time>
      </trkpt>
      <trkpt lat="45.02771" lon="5.85791">
        <ele>1397</ele>
        <time>2022-06-05T08:49:00Z</time>
      </trkpt>
      <trkpt lat="45.02771" lon="5.85792">
        <ele>1397</ele>
        <time>2022-06-05T08:49:01Z</time>
      </trkpt>
      <trkpt lat="45.0277" lon="5.85792">
        <ele>1397</ele>
        <time>2022-06-05T08:49:02Z</time>
      </trkpt>
      <trkpt lat="45.02769" lon="5.85792">
        <ele>1397</ele>
        <time>2022-06-05T08:49:03Z</time>
      </trkpt>
      <trkpt lat="45.02769" lon="5.85792">
        <ele>1397</ele>
        <time>2022-06-05T08:49:04Z</time>
      </trkpt>
      <trkpt lat="45.02769" lon="5.85792">
        <ele>1397</ele>
        <time>2022-06-05T08:49:05Z</time>
      </trkpt>
      <trkpt lat="45.02766" lon="5.85793">
        <ele>1397</ele>
        <time>2022-06-05T08:49:06Z</time>
      </trkpt>
      <trkpt lat="45.02765" lon="5.85793">
        <ele>1397</ele>
        <time>2022-06-05T08:49:07Z</time>
      </trkpt>
      <trkpt lat="45.02764" lon="5.85794">
        <ele>1397</ele>
        <time>2022-06-05T08:49:08Z</time>
      </trkpt>
      <trkpt lat="45.02763" lon="5.85795">
        <ele>1398</ele>
        <time>2022-06-05T08:49:09Z</time>
      </trkpt>
      <trkpt lat="45.02763" lon="5.85795">
        <ele>1398</ele>
        <time>2022-06-05T08:49:10Z</time>
      </trkpt>
      <trkpt lat="45.02763" lon="5.85795">
        <ele>1398</ele>
        <time>2022-06-05T08:49:11Z</time>
      </trkpt>
      <trkpt lat="45.02761" lon="5.85796">
        <ele>1399</ele>
        <time>2022-06-05T08:49:12Z</time>
      </trkpt>
      <trkpt lat="45.0276" lon="5.85796">
        <ele>1400</ele>
        <time>2022-06-05T08:49:13Z</time>
      </trkpt>
      <trkpt lat="45.02758" lon="5.85797">
        <ele>1400</ele>
        <time>2022-06-05T08:49:14Z</time>
      </trkpt>
      <trkpt lat="45.02758" lon="5.85797">
        <ele>1400</ele>
        <time>2022-06-05T08:49:15Z</time>
      </trkpt>
      <trkpt lat="45.02757" lon="5.85797">
        <ele>1400</ele>
        <time>2022-06-05T08:49:16Z</time>
      </trkpt>
      <trkpt lat="45.02756" lon="5.85797">
        <ele>1400</ele>
        <time>2022-06-05T08:49:17Z</time>
      </trkpt>
      <trkpt lat="45.02755" lon="5.85798">
        <ele>1401</ele>
        <time>2022-06-05T08:49:18Z</time>
      </trkpt>
      <trkpt lat="45.02755" lon="5.85798">
        <ele>1401</ele>
        <time>2022-06-05T08:49:19Z</time>
      </trkpt>
      <trkpt lat="45.02755" lon="5.85799">
        <ele>1402</ele>
        <time>2022-06-05T08:49:20Z</time>
      </trkpt>
      <trkpt lat="45.02755" lon="5.85799">
        <ele>1402</ele>
        <time>2022-06-05T08:49:21Z</time>
      </trkpt>
      <trkpt lat="45.02755" lon="5.85799">
        <ele>1402</ele>
        <time>2022-06-05T08:49:22Z</time>
      </trkpt>
      <trkpt lat="45.02753" lon="5.85799">
        <ele>1402</ele>
        <time>2022-06-05T08:49:23Z</time>
      </trkpt>
      <trkpt lat="45.02752" lon="5.85799">
        <ele>1402</ele>
        <time>2022-06-05T08:49:24Z</time>
      </trkpt>
      <trkpt lat="45.02751" lon="5.85799">
        <ele>1402</ele>
        <time>2022-06-05T08:49:25Z</time>
      </trkpt>
      <trkpt lat="45.0275" lon="5.858">
        <ele>1403</ele>
        <time>2022-06-05T08:49:26Z</time>
      </trkpt>
      <trkpt lat="45.0275" lon="5.858">
        <ele>1403</ele>
        <time>2022-06-05T08:49:27Z</time>
      </trkpt>
      <trkpt lat="45.0275" lon="5.858">
        <ele>1403</ele>
        <time>2022-06-05T08:49:28Z</time>
      </trkpt>
      <trkpt lat="45.02748" lon="5.85798">
        <ele>1404</ele>
        <time>2022-06-05T08:49:29Z</time>
      </trkpt>
      <trkpt lat="45.02747" lon="5.85798">
        <ele>1404</ele>
        <time>2022-06-05T08:49:30Z</time>
      </trkpt>
      <trkpt lat="45.02747" lon="5.85797">
        <ele>1405</ele>
        <time>2022-06-05T08:49:31Z</time>
      </trkpt>
      <trkpt lat="45.02745" lon="5.85797">
        <ele>1405</ele>
        <time>2022-06-05T08:49:32Z</time>
      </trkpt>
      <trkpt lat="45.02744" lon="5.85798">
        <ele>1405</ele>
        <time>2022-06-05T08:49:33Z</time>
      </trkpt>
      <trkpt lat="45.02744" lon="5.85798">
        <ele>1405</ele>
        <time>2022-06-05T08:49:34Z</time>
      </trkpt>
      <trkpt lat="45.02744" lon="5.85798">
        <ele>1405</ele>
        <time>2022-06-05T08:49:35Z</time>
      </trkpt>
      <trkpt lat="45.02743" lon="5.85797">
        <ele>1405</ele>
        <time>2022-06-05T08:49:36Z</time>
      </trkpt>
      <trkpt lat="45.02742" lon="5.85797">
        <ele>1405</ele>
        <time>2022-06-05T08:49:37Z</time>
      </trkpt>
      <trkpt lat="45.02741" lon="5.85797">
        <ele>1405</ele>
        <time>2022-06-05T08:49:38Z</time>
      </trkpt>
      <trkpt lat="45.02741" lon="5.85797">
        <ele>1405</ele>
        <time>2022-06-05T08:49:39Z</time>
      </trkpt>
      <trkpt lat="45.02741" lon="5.85797">
        <ele>1405</ele>
        <time>2022-06-05T08:49:40Z</time>
      </trkpt>
      <trkpt lat="45.02738" lon="5.85798">
        <ele>1405</ele>
        <time>2022-06-05T08:49:41Z</time>
      </trkpt>
      <trkpt lat="45.02737" lon="5.85797">
        <ele>1405</ele>
        <time>2022-06-05T08:49:42Z</time>
      </trkpt>
      <trkpt lat="45.02737" lon="5.85797">
        <ele>1406</ele>
        <time>2022-06-05T08:49:43Z</time>
      </trkpt>
      <trkpt lat="45.02737" lon="5.85798">
        <ele>1406</ele>
        <time>2022-06-05T08:49:44Z</time>
      </trkpt>
      <trkpt lat="45.02736" lon="5.85798">
        <ele>1406</ele>
        <time>2022-06-05T08:49:45Z</time>
      </trkpt>
      <trkpt lat="45.02735" lon="5.85798">
        <ele>1406</ele>
        <time>2022-06-05T08:49:46Z</time>
      </trkpt>
      <trkpt lat="45.02735" lon="5.85798">
        <ele>1406</ele>
        <time>2022-06-05T08:49:47Z</time>
      </trkpt>
      <trkpt lat="45.02735" lon="5.85798">
        <ele>1406</ele>
        <time>2022-06-05T08:49:48Z</time>
      </trkpt>
      <trkpt lat="45.02733" lon="5.85798">
        <ele>1407</ele>
        <time>2022-06-05T08:49:49Z</time>
      </trkpt>
      <trkpt lat="45.02731" lon="5.85798">
        <ele>1407</ele>
        <time>2022-06-05T08:49:50Z</time>
      </trkpt>
      <trkpt lat="45.02729" lon="5.85798">
        <ele>1407</ele>
        <time>2022-06-05T08:49:51Z</time>
      </trkpt>
      <trkpt lat="45.02728" lon="5.85798">
        <ele>1407</ele>
        <time>2022-06-05T08:49:52Z</time>
      </trkpt>
      <trkpt lat="45.02727" lon="5.85798">
        <ele>1407</ele>
        <time>2022-06-05T08:49:53Z</time>
      </trkpt>
      <trkpt lat="45.02726" lon="5.85798">
        <ele>1408</ele>
        <time>2022-06-05T08:49:54Z</time>
      </trkpt>
      <trkpt lat="45.02725" lon="5.85797">
        <ele>1408</ele>
        <time>2022-06-05T08:49:55Z</time>
      </trkpt>
      <trkpt lat="45.02723" lon="5.85797">
        <ele>1408</ele>
        <time>2022-06-05T08:49:56Z</time>
      </trkpt>
      <trkpt lat="45.02722" lon="5.85798">
        <ele>1407</ele>
        <time>2022-06-05T08:49:57Z</time>
      </trkpt>
      <trkpt lat="45.02721" lon="5.85799">
        <ele>1407</ele>
        <time>2022-06-05T08:49:58Z</time>
      </trkpt>
      <trkpt lat="45.02721" lon="5.85799">
        <ele>1407</ele>
        <time>2022-06-05T08:49:59Z</time>
      </trkpt>
      <trkpt lat="45.02721" lon="5.85799">
        <ele>1407</ele>
        <time>2022-06-05T08:50:00Z</time>
      </trkpt>
      <trkpt lat="45.02718" lon="5.85798">
        <ele>1408</ele>
        <time>2022-06-05T08:50:01Z</time>
      </trkpt>
      <trkpt lat="45.02718" lon="5.85798">
        <ele>1408</ele>
        <time>2022-06-05T08:50:02Z</time>
      </trkpt>
      <trkpt lat="45.02717" lon="5.85798">
        <ele>1408</ele>
        <time>2022-06-05T08:50:03Z</time>
      </trkpt>
      <trkpt lat="45.02716" lon="5.85798">
        <ele>1408</ele>
        <time>2022-06-05T08:50:04Z</time>
      </trkpt>
      <trkpt lat="45.02716" lon="5.85798">
        <ele>1408</ele>
        <time>2022-06-05T08:50:05Z</time>
      </trkpt>
      <trkpt lat="45.02716" lon="5.85798">
        <ele>1408</ele>
        <time>2022-06-05T08:50:06Z</time>
      </trkpt>
      <trkpt lat="45.02714" lon="5.85799">
        <ele>1409</ele>
        <time>2022-06-05T08:50:07Z</time>
      </trkpt>
      <trkpt lat="45.02713" lon="5.85799">
        <ele>1409</ele>
        <time>2022-06-05T08:50:08Z</time>
      </trkpt>
      <trkpt lat="45.02712" lon="5.85799">
        <ele>1409</ele>
        <time>2022-06-05T08:50:09Z</time>
      </trkpt>
      <trkpt lat="45.02712" lon="5.858">
        <ele>1410</ele>
        <time>2022-06-05T08:50:10Z</time>
      </trkpt>
      <trkpt lat="45.02712" lon="5.858">
        <ele>1410</ele>
        <time>2022-06-05T08:50:11Z</time>
      </trkpt>
      <trkpt lat="45.02712" lon="5.858">
        <ele>1410</ele>
        <time>2022-06-05T08:50:12Z</time>
      </trkpt>
      <trkpt lat="45.02708" lon="5.858">
        <ele>1410</ele>
        <time>2022-06-05T08:50:13Z</time>
      </trkpt>
      <trkpt lat="45.02707" lon="5.858">
        <ele>1411</ele>
        <time>2022-06-05T08:50:14Z</time>
      </trkpt>
      <trkpt lat="45.02706" lon="5.858">
        <ele>1411</ele>
        <time>2022-06-05T08:50:15Z</time>
      </trkpt>
      <trkpt lat="45.02705" lon="5.85801">
        <ele>1411</ele>
        <time>2022-06-05T08:50:16Z</time>
      </trkpt>
      <trkpt lat="45.02705" lon="5.85801">
        <ele>1411</ele>
        <time>2022-06-05T08:50:17Z</time>
      </trkpt>
      <trkpt lat="45.02705" lon="5.85801">
        <ele>1411</ele>
        <time>2022-06-05T08:50:18Z</time>
      </trkpt>
      <trkpt lat="45.02702" lon="5.858">
        <ele>1411</ele>
        <time>2022-06-05T08:50:19Z</time>
      </trkpt>
      <trkpt lat="45.02701" lon="5.858">
        <ele>1411</ele>
        <time>2022-06-05T08:50:20Z</time>
      </trkpt>
      <trkpt lat="45.027" lon="5.858">
        <ele>1411</ele>
        <time>2022-06-05T08:50:21Z</time>
      </trkpt>
      <trkpt lat="45.02699" lon="5.858">
        <ele>1411</ele>
        <time>2022-06-05T08:50:22Z</time>
      </trkpt>
      <trkpt lat="45.02699" lon="5.858">
        <ele>1411</ele>
        <time>2022-06-05T08:50:23Z</time>
      </trkpt>
      <trkpt lat="45.02699" lon="5.858">
        <ele>1411</ele>
        <time>2022-06-05T08:50:24Z</time>
      </trkpt>
      <trkpt lat="45.02696" lon="5.85798">
        <ele>1411</ele>
        <time>2022-06-05T08:50:25Z</time>
      </trkpt>
      <trkpt lat="45.02695" lon="5.85797">
        <ele>1411</ele>
        <time>2022-06-05T08:50:26Z</time>
      </trkpt>
      <trkpt lat="45.02695" lon="5.85797">
        <ele>1411</ele>
        <time>2022-06-05T08:50:27Z</time>
      </trkpt>
      <trkpt lat="45.02694" lon="5.85796">
        <ele>1411</ele>
        <time>2022-06-05T08:50:28Z</time>
      </trkpt>
      <trkpt lat="45.02694" lon="5.85796">
        <ele>1411</ele>
        <time>2022-06-05T08:50:29Z</time>
      </trkpt>
      <trkpt lat="45.02694" lon="5.85796">
        <ele>1411</ele>
        <time>2022-06-05T08:50:30Z</time>
      </trkpt>
      <trkpt lat="45.02692" lon="5.85794">
        <ele>1411</ele>
        <time>2022-06-05T08:50:31Z</time>
      </trkpt>
      <trkpt lat="45.02692" lon="5.85794">
        <ele>1411</ele>
        <time>2022-06-05T08:50:32Z</time>
      </trkpt>
      <trkpt lat="45.02691" lon="5.85793">
        <ele>1411</ele>
        <time>2022-06-05T08:50:33Z</time>
      </trkpt>
      <trkpt lat="45.02691" lon="5.85792">
        <ele>1411</ele>
        <time>2022-06-05T08:50:34Z</time>
      </trkpt>
      <trkpt lat="45.02691" lon="5.85791">
        <ele>1411</ele>
        <time>2022-06-05T08:50:35Z</time>
      </trkpt>
      <trkpt lat="45.02691" lon="5.8579">
        <ele>1411</ele>
        <time>2022-06-05T08:50:36Z</time>
      </trkpt>
      <trkpt lat="45.02691" lon="5.8579">
        <ele>1411</ele>
        <time>2022-06-05T08:50:37Z</time>
      </trkpt>
      <trkpt lat="45.02691" lon="5.8579">
        <ele>1411</ele>
        <time>2022-06-05T08:50:38Z</time>
      </trkpt>
      <trkpt lat="45.0269" lon="5.85787">
        <ele>1411</ele>
        <time>2022-06-05T08:50:39Z</time>
      </trkpt>
      <trkpt lat="45.0269" lon="5.85786">
        <ele>1411</ele>
        <time>2022-06-05T08:50:40Z</time>
      </trkpt>
      <trkpt lat="45.0269" lon="5.85785">
        <ele>1411</ele>
        <time>2022-06-05T08:50:41Z</time>
      </trkpt>
      <trkpt lat="45.02689" lon="5.85783">
        <ele>1411</ele>
        <time>2022-06-05T08:50:42Z</time>
      </trkpt>
      <trkpt lat="45.02689" lon="5.85783">
        <ele>1411</ele>
        <time>2022-06-05T08:50:43Z</time>
      </trkpt>
      <trkpt lat="45.02689" lon="5.85783">
        <ele>1411</ele>
        <time>2022-06-05T08:50:44Z</time>
      </trkpt>
      <trkpt lat="45.02689" lon="5.8578">
        <ele>1412</ele>
        <time>2022-06-05T08:50:45Z</time>
      </trkpt>
      <trkpt lat="45.02688" lon="5.85779">
        <ele>1411</ele>
        <time>2022-06-05T08:50:46Z</time>
      </trkpt>
      <trkpt lat="45.02689" lon="5.85777">
        <ele>1411</ele>
        <time>2022-06-05T08:50:47Z</time>
      </trkpt>
      <trkpt lat="45.02688" lon="5.85776">
        <ele>1411</ele>
        <time>2022-06-05T08:50:48Z</time>
      </trkpt>
      <trkpt lat="45.02688" lon="5.85776">
        <ele>1411</ele>
        <time>2022-06-05T08:50:49Z</time>
      </trkpt>
      <trkpt lat="45.02688" lon="5.85776">
        <ele>1411</ele>
        <time>2022-06-05T08:50:50Z</time>
      </trkpt>
      <trkpt lat="45.02688" lon="5.85773">
        <ele>1410</ele>
        <time>2022-06-05T08:50:51Z</time>
      </trkpt>
      <trkpt lat="45.02688" lon="5.85771">
        <ele>1410</ele>
        <time>2022-06-05T08:50:52Z</time>
      </trkpt>
      <trkpt lat="45.02688" lon="5.8577">
        <ele>1411</ele>
        <time>2022-06-05T08:50:53Z</time>
      </trkpt>
      <trkpt lat="45.02688" lon="5.85769">
        <ele>1411</ele>
        <time>2022-06-05T08:50:54Z</time>
      </trkpt>
      <trkpt lat="45.02688" lon="5.85769">
        <ele>1411</ele>
        <time>2022-06-05T08:50:55Z</time>
      </trkpt>
      <trkpt lat="45.02688" lon="5.85769">
        <ele>1411</ele>
        <time>2022-06-05T08:50:56Z</time>
      </trkpt>
      <trkpt lat="45.02687" lon="5.85766">
        <ele>1411</ele>
        <time>2022-06-05T08:50:57Z</time>
      </trkpt>
      <trkpt lat="45.02687" lon="5.85764">
        <ele>1411</ele>
        <time>2022-06-05T08:50:58Z</time>
      </trkpt>
      <trkpt lat="45.02687" lon="5.85763">
        <ele>1410</ele>
        <time>2022-06-05T08:50:59Z</time>
      </trkpt>
      <trkpt lat="45.02686" lon="5.85762">
        <ele>1411</ele>
        <time>2022-06-05T08:51:00Z</time>
      </trkpt>
      <trkpt lat="45.02686" lon="5.8576">
        <ele>1410</ele>
        <time>2022-06-05T08:51:01Z</time>
      </trkpt>
      <trkpt lat="45.02687" lon="5.85759">
        <ele>1410</ele>
        <time>2022-06-05T08:51:02Z</time>
      </trkpt>
      <trkpt lat="45.02687" lon="5.85758">
        <ele>1409</ele>
        <time>2022-06-05T08:51:03Z</time>
      </trkpt>
      <trkpt lat="45.02687" lon="5.85757">
        <ele>1409</ele>
        <time>2022-06-05T08:51:04Z</time>
      </trkpt>
      <trkpt lat="45.02687" lon="5.85755">
        <ele>1409</ele>
        <time>2022-06-05T08:51:05Z</time>
      </trkpt>
      <trkpt lat="45.02688" lon="5.85754">
        <ele>1410</ele>
        <time>2022-06-05T08:51:06Z</time>
      </trkpt>
      <trkpt lat="45.02688" lon="5.85752">
        <ele>1410</ele>
        <time>2022-06-05T08:51:07Z</time>
      </trkpt>
      <trkpt lat="45.02688" lon="5.85751">
        <ele>1410</ele>
        <time>2022-06-05T08:51:08Z</time>
      </trkpt>
      <trkpt lat="45.02688" lon="5.85749">
        <ele>1410</ele>
        <time>2022-06-05T08:51:09Z</time>
      </trkpt>
      <trkpt lat="45.02688" lon="5.85748">
        <ele>1410</ele>
        <time>2022-06-05T08:51:10Z</time>
      </trkpt>
      <trkpt lat="45.02688" lon="5.85748">
        <ele>1410</ele>
        <time>2022-06-05T08:51:11Z</time>
      </trkpt>
      <trkpt lat="45.02688" lon="5.85748">
        <ele>1410</ele>
        <time>2022-06-05T08:51:12Z</time>
      </trkpt>
      <trkpt lat="45.02688" lon="5.85745">
        <ele>1410</ele>
        <time>2022-06-05T08:51:13Z</time>
      </trkpt>
      <trkpt lat="45.02689" lon="5.85744">
        <ele>1410</ele>
        <time>2022-06-05T08:51:14Z</time>
      </trkpt>
      <trkpt lat="45.02689" lon="5.85742">
        <ele>1411</ele>
        <time>2022-06-05T08:51:15Z</time>
      </trkpt>
      <trkpt lat="45.02689" lon="5.85741">
        <ele>1411</ele>
        <time>2022-06-05T08:51:16Z</time>
      </trkpt>
      <trkpt lat="45.02689" lon="5.85741">
        <ele>1411</ele>
        <time>2022-06-05T08:51:17Z</time>
      </trkpt>
      <trkpt lat="45.02689" lon="5.85741">
        <ele>1411</ele>
        <time>2022-06-05T08:51:18Z</time>
      </trkpt>
      <trkpt lat="45.02689" lon="5.85738">
        <ele>1411</ele>
        <time>2022-06-05T08:51:19Z</time>
      </trkpt>
      <trkpt lat="45.02689" lon="5.85737">
        <ele>1410</ele>
        <time>2022-06-05T08:51:20Z</time>
      </trkpt>
      <trkpt lat="45.02689" lon="5.85736">
        <ele>1410</ele>
        <time>2022-06-05T08:51:21Z</time>
      </trkpt>
      <trkpt lat="45.02689" lon="5.85735">
        <ele>1410</ele>
        <time>2022-06-05T08:51:22Z</time>
      </trkpt>
      <trkpt lat="45.02689" lon="5.85735">
        <ele>1410</ele>
        <time>2022-06-05T08:51:23Z</time>
      </trkpt>
      <trkpt lat="45.02689" lon="5.85735">
        <ele>1410</ele>
        <time>2022-06-05T08:51:24Z</time>
      </trkpt>
      <trkpt lat="45.0269" lon="5.85731">
        <ele>1410</ele>
        <time>2022-06-05T08:51:25Z</time>
      </trkpt>
      <trkpt lat="45.0269" lon="5.8573">
        <ele>1410</ele>
        <time>2022-06-05T08:51:26Z</time>
      </trkpt>
      <trkpt lat="45.0269" lon="5.85729">
        <ele>1410</ele>
        <time>2022-06-05T08:51:27Z</time>
      </trkpt>
      <trkpt lat="45.0269" lon="5.85727">
        <ele>1410</ele>
        <time>2022-06-05T08:51:28Z</time>
      </trkpt>
      <trkpt lat="45.0269" lon="5.85727">
        <ele>1410</ele>
        <time>2022-06-05T08:51:29Z</time>
      </trkpt>
      <trkpt lat="45.0269" lon="5.85727">
        <ele>1410</ele>
        <time>2022-06-05T08:51:30Z</time>
      </trkpt>
      <trkpt lat="45.02689" lon="5.85723">
        <ele>1411</ele>
        <time>2022-06-05T08:51:31Z</time>
      </trkpt>
      <trkpt lat="45.02689" lon="5.85722">
        <ele>1411</ele>
        <time>2022-06-05T08:51:32Z</time>
      </trkpt>
      <trkpt lat="45.02689" lon="5.8572">
        <ele>1411</ele>
        <time>2022-06-05T08:51:33Z</time>
      </trkpt>
      <trkpt lat="45.02689" lon="5.85719">
        <ele>1411</ele>
        <time>2022-06-05T08:51:34Z</time>
      </trkpt>
      <trkpt lat="45.02689" lon="5.85719">
        <ele>1411</ele>
        <time>2022-06-05T08:51:35Z</time>
      </trkpt>
      <trkpt lat="45.02689" lon="5.85719">
        <ele>1411</ele>
        <time>2022-06-05T08:51:36Z</time>
      </trkpt>
      <trkpt lat="45.0269" lon="5.85715">
        <ele>1411</ele>
        <time>2022-06-05T08:51:37Z</time>
      </trkpt>
      <trkpt lat="45.0269" lon="5.85713">
        <ele>1411</ele>
        <time>2022-06-05T08:51:38Z</time>
      </trkpt>
      <trkpt lat="45.0269" lon="5.85712">
        <ele>1411</ele>
        <time>2022-06-05T08:51:39Z</time>
      </trkpt>
      <trkpt lat="45.0269" lon="5.8571">
        <ele>1411</ele>
        <time>2022-06-05T08:51:40Z</time>
      </trkpt>
      <trkpt lat="45.0269" lon="5.8571">
        <ele>1411</ele>
        <time>2022-06-05T08:51:41Z</time>
      </trkpt>
      <trkpt lat="45.0269" lon="5.8571">
        <ele>1411</ele>
        <time>2022-06-05T08:51:42Z</time>
      </trkpt>
      <trkpt lat="45.0269" lon="5.85706">
        <ele>1410</ele>
        <time>2022-06-05T08:51:43Z</time>
      </trkpt>
      <trkpt lat="45.0269" lon="5.85705">
        <ele>1411</ele>
        <time>2022-06-05T08:51:44Z</time>
      </trkpt>
      <trkpt lat="45.02689" lon="5.85703">
        <ele>1411</ele>
        <time>2022-06-05T08:51:45Z</time>
      </trkpt>
      <trkpt lat="45.02689" lon="5.85701">
        <ele>1411</ele>
        <time>2022-06-05T08:51:46Z</time>
      </trkpt>
      <trkpt lat="45.02689" lon="5.85699">
        <ele>1411</ele>
        <time>2022-06-05T08:51:47Z</time>
      </trkpt>
      <trkpt lat="45.02689" lon="5.85697">
        <ele>1411</ele>
        <time>2022-06-05T08:51:48Z</time>
      </trkpt>
      <trkpt lat="45.02689" lon="5.85697">
        <ele>1411</ele>
        <time>2022-06-05T08:51:49Z</time>
      </trkpt>
      <trkpt lat="45.02689" lon="5.85697">
        <ele>1411</ele>
        <time>2022-06-05T08:51:50Z</time>
      </trkpt>
      <trkpt lat="45.02689" lon="5.85693">
        <ele>1411</ele>
        <time>2022-06-05T08:51:51Z</time>
      </trkpt>
      <trkpt lat="45.02689" lon="5.85692">
        <ele>1411</ele>
        <time>2022-06-05T08:51:52Z</time>
      </trkpt>
      <trkpt lat="45.02689" lon="5.8569">
        <ele>1411</ele>
        <time>2022-06-05T08:51:53Z</time>
      </trkpt>
      <trkpt lat="45.0269" lon="5.85689">
        <ele>1412</ele>
        <time>2022-06-05T08:51:54Z</time>
      </trkpt>
      <trkpt lat="45.0269" lon="5.85689">
        <ele>1412</ele>
        <time>2022-06-05T08:51:55Z</time>
      </trkpt>
      <trkpt lat="45.0269" lon="5.85689">
        <ele>1412</ele>
        <time>2022-06-05T08:51:56Z</time>
      </trkpt>
      <trkpt lat="45.02691" lon="5.85685">
        <ele>1412</ele>
        <time>2022-06-05T08:51:57Z</time>
      </trkpt>
      <trkpt lat="45.02691" lon="5.85684">
        <ele>1412</ele>
        <time>2022-06-05T08:51:58Z</time>
      </trkpt>
      <trkpt lat="45.02691" lon="5.85682">
        <ele>1412</ele>
        <time>2022-06-05T08:51:59Z</time>
      </trkpt>
      <trkpt lat="45.02691" lon="5.8568">
        <ele>1412</ele>
        <time>2022-06-05T08:52:00Z</time>
      </trkpt>
      <trkpt lat="45.02691" lon="5.85678">
        <ele>1413</ele>
        <time>2022-06-05T08:52:01Z</time>
      </trkpt>
      <trkpt lat="45.02691" lon="5.85678">
        <ele>1413</ele>
        <time>2022-06-05T08:52:02Z</time>
      </trkpt>
      <trkpt lat="45.02691" lon="5.85678">
        <ele>1413</ele>
        <time>2022-06-05T08:52:03Z</time>
      </trkpt>
      <trkpt lat="45.02692" lon="5.85674">
        <ele>1413</ele>
        <time>2022-06-05T08:52:04Z</time>
      </trkpt>
      <trkpt lat="45.02692" lon="5.85673">
        <ele>1413</ele>
        <time>2022-06-05T08:52:05Z</time>
      </trkpt>
      <trkpt lat="45.02693" lon="5.85672">
        <ele>1414</ele>
        <time>2022-06-05T08:52:06Z</time>
      </trkpt>
      <trkpt lat="45.02694" lon="5.8567">
        <ele>1414</ele>
        <time>2022-06-05T08:52:07Z</time>
      </trkpt>
      <trkpt lat="45.02694" lon="5.8567">
        <ele>1414</ele>
        <time>2022-06-05T08:52:08Z</time>
      </trkpt>
      <trkpt lat="45.02694" lon="5.8567">
        <ele>1414</ele>
        <time>2022-06-05T08:52:09Z</time>
      </trkpt>
      <trkpt lat="45.02694" lon="5.85667">
        <ele>1413</ele>
        <time>2022-06-05T08:52:10Z</time>
      </trkpt>
      <trkpt lat="45.02694" lon="5.85666">
        <ele>1413</ele>
        <time>2022-06-05T08:52:11Z</time>
      </trkpt>
      <trkpt lat="45.02694" lon="5.85665">
        <ele>1413</ele>
        <time>2022-06-05T08:52:12Z</time>
      </trkpt>
      <trkpt lat="45.02694" lon="5.85664">
        <ele>1413</ele>
        <time>2022-06-05T08:52:13Z</time>
      </trkpt>
      <trkpt lat="45.02695" lon="5.85662">
        <ele>1413</ele>
        <time>2022-06-05T08:52:14Z</time>
      </trkpt>
      <trkpt lat="45.02696" lon="5.85661">
        <ele>1414</ele>
        <time>2022-06-05T08:52:15Z</time>
      </trkpt>
      <trkpt lat="45.02696" lon="5.8566">
        <ele>1414</ele>
        <time>2022-06-05T08:52:16Z</time>
      </trkpt>
      <trkpt lat="45.02696" lon="5.85659">
        <ele>1414</ele>
        <time>2022-06-05T08:52:17Z</time>
      </trkpt>
      <trkpt lat="45.02696" lon="5.85657">
        <ele>1414</ele>
        <time>2022-06-05T08:52:18Z</time>
      </trkpt>
      <trkpt lat="45.02696" lon="5.85656">
        <ele>1414</ele>
        <time>2022-06-05T08:52:19Z</time>
      </trkpt>
      <trkpt lat="45.02696" lon="5.85655">
        <ele>1413</ele>
        <time>2022-06-05T08:52:20Z</time>
      </trkpt>
      <trkpt lat="45.02696" lon="5.85653">
        <ele>1413</ele>
        <time>2022-06-05T08:52:21Z</time>
      </trkpt>
      <trkpt lat="45.02697" lon="5.85652">
        <ele>1413</ele>
        <time>2022-06-05T08:52:22Z</time>
      </trkpt>
      <trkpt lat="45.02697" lon="5.85651">
        <ele>1414</ele>
        <time>2022-06-05T08:52:23Z</time>
      </trkpt>
      <trkpt lat="45.02697" lon="5.85649">
        <ele>1414</ele>
        <time>2022-06-05T08:52:24Z</time>
      </trkpt>
      <trkpt lat="45.02697" lon="5.85648">
        <ele>1414</ele>
        <time>2022-06-05T08:52:25Z</time>
      </trkpt>
      <trkpt lat="45.02698" lon="5.85646">
        <ele>1415</ele>
        <time>2022-06-05T08:52:26Z</time>
      </trkpt>
      <trkpt lat="45.02698" lon="5.85645">
        <ele>1415</ele>
        <time>2022-06-05T08:52:27Z</time>
      </trkpt>
      <trkpt lat="45.02698" lon="5.85644">
        <ele>1416</ele>
        <time>2022-06-05T08:52:28Z</time>
      </trkpt>
      <trkpt lat="45.02699" lon="5.85643">
        <ele>1416</ele>
        <time>2022-06-05T08:52:29Z</time>
      </trkpt>
      <trkpt lat="45.02699" lon="5.85641">
        <ele>1416</ele>
        <time>2022-06-05T08:52:30Z</time>
      </trkpt>
      <trkpt lat="45.02699" lon="5.8564">
        <ele>1416</ele>
        <time>2022-06-05T08:52:31Z</time>
      </trkpt>
      <trkpt lat="45.02699" lon="5.8564">
        <ele>1415</ele>
        <time>2022-06-05T08:52:32Z</time>
      </trkpt>
      <trkpt lat="45.02698" lon="5.8564">
        <ele>1415</ele>
        <time>2022-06-05T08:52:33Z</time>
      </trkpt>
      <trkpt lat="45.02699" lon="5.85639">
        <ele>1415</ele>
        <time>2022-06-05T08:52:34Z</time>
      </trkpt>
      <trkpt lat="45.02699" lon="5.85639">
        <ele>1415</ele>
        <time>2022-06-05T08:52:35Z</time>
      </trkpt>
      <trkpt lat="45.027" lon="5.85637">
        <ele>1415</ele>
        <time>2022-06-05T08:52:36Z</time>
      </trkpt>
      <trkpt lat="45.027" lon="5.85636">
        <ele>1415</ele>
        <time>2022-06-05T08:52:37Z</time>
      </trkpt>
      <trkpt lat="45.027" lon="5.85634">
        <ele>1415</ele>
        <time>2022-06-05T08:52:38Z</time>
      </trkpt>
      <trkpt lat="45.02701" lon="5.85633">
        <ele>1416</ele>
        <time>2022-06-05T08:52:39Z</time>
      </trkpt>
      <trkpt lat="45.02701" lon="5.85632">
        <ele>1416</ele>
        <time>2022-06-05T08:52:40Z</time>
      </trkpt>
      <trkpt lat="45.02702" lon="5.8563">
        <ele>1417</ele>
        <time>2022-06-05T08:52:41Z</time>
      </trkpt>
      <trkpt lat="45.02702" lon="5.85629">
        <ele>1417</ele>
        <time>2022-06-05T08:52:42Z</time>
      </trkpt>
      <trkpt lat="45.02702" lon="5.85628">
        <ele>1417</ele>
        <time>2022-06-05T08:52:43Z</time>
      </trkpt>
      <trkpt lat="45.02702" lon="5.85626">
        <ele>1417</ele>
        <time>2022-06-05T08:52:44Z</time>
      </trkpt>
      <trkpt lat="45.02702" lon="5.85625">
        <ele>1416</ele>
        <time>2022-06-05T08:52:45Z</time>
      </trkpt>
      <trkpt lat="45.02702" lon="5.85624">
        <ele>1417</ele>
        <time>2022-06-05T08:52:46Z</time>
      </trkpt>
      <trkpt lat="45.02702" lon="5.85623">
        <ele>1417</ele>
        <time>2022-06-05T08:52:47Z</time>
      </trkpt>
      <trkpt lat="45.02702" lon="5.85622">
        <ele>1417</ele>
        <time>2022-06-05T08:52:48Z</time>
      </trkpt>
      <trkpt lat="45.02703" lon="5.85621">
        <ele>1417</ele>
        <time>2022-06-05T08:52:49Z</time>
      </trkpt>
      <trkpt lat="45.02703" lon="5.8562">
        <ele>1418</ele>
        <time>2022-06-05T08:52:50Z</time>
      </trkpt>
      <trkpt lat="45.02703" lon="5.85619">
        <ele>1418</ele>
        <time>2022-06-05T08:52:51Z</time>
      </trkpt>
      <trkpt lat="45.02703" lon="5.85618">
        <ele>1418</ele>
        <time>2022-06-05T08:52:52Z</time>
      </trkpt>
      <trkpt lat="45.02703" lon="5.85616">
        <ele>1418</ele>
        <time>2022-06-05T08:52:53Z</time>
      </trkpt>
      <trkpt lat="45.02704" lon="5.85615">
        <ele>1418</ele>
        <time>2022-06-05T08:52:54Z</time>
      </trkpt>
      <trkpt lat="45.02703" lon="5.85615">
        <ele>1418</ele>
        <time>2022-06-05T08:52:55Z</time>
      </trkpt>
      <trkpt lat="45.02703" lon="5.85614">
        <ele>1418</ele>
        <time>2022-06-05T08:52:56Z</time>
      </trkpt>
      <trkpt lat="45.02703" lon="5.85612">
        <ele>1418</ele>
        <time>2022-06-05T08:52:57Z</time>
      </trkpt>
      <trkpt lat="45.02704" lon="5.85611">
        <ele>1418</ele>
        <time>2022-06-05T08:52:58Z</time>
      </trkpt>
      <trkpt lat="45.02704" lon="5.8561">
        <ele>1419</ele>
        <time>2022-06-05T08:52:59Z</time>
      </trkpt>
      <trkpt lat="45.02705" lon="5.85609">
        <ele>1418</ele>
        <time>2022-06-05T08:53:00Z</time>
      </trkpt>
      <trkpt lat="45.02705" lon="5.85607">
        <ele>1418</ele>
        <time>2022-06-05T08:53:01Z</time>
      </trkpt>
      <trkpt lat="45.02705" lon="5.85606">
        <ele>1419</ele>
        <time>2022-06-05T08:53:02Z</time>
      </trkpt>
      <trkpt lat="45.02706" lon="5.85604">
        <ele>1419</ele>
        <time>2022-06-05T08:53:03Z</time>
      </trkpt>
      <trkpt lat="45.02706" lon="5.85603">
        <ele>1419</ele>
        <time>2022-06-05T08:53:04Z</time>
      </trkpt>
      <trkpt lat="45.02706" lon="5.85602">
        <ele>1420</ele>
        <time>2022-06-05T08:53:05Z</time>
      </trkpt>
      <trkpt lat="45.02707" lon="5.856">
        <ele>1420</ele>
        <time>2022-06-05T08:53:06Z</time>
      </trkpt>
      <trkpt lat="45.02707" lon="5.85598">
        <ele>1420</ele>
        <time>2022-06-05T08:53:07Z</time>
      </trkpt>
      <trkpt lat="45.02707" lon="5.85597">
        <ele>1421</ele>
        <time>2022-06-05T08:53:08Z</time>
      </trkpt>
      <trkpt lat="45.02707" lon="5.85595">
        <ele>1421</ele>
        <time>2022-06-05T08:53:09Z</time>
      </trkpt>
      <trkpt lat="45.02707" lon="5.85594">
        <ele>1421</ele>
        <time>2022-06-05T08:53:10Z</time>
      </trkpt>
      <trkpt lat="45.02707" lon="5.85593">
        <ele>1421</ele>
        <time>2022-06-05T08:53:11Z</time>
      </trkpt>
      <trkpt lat="45.02708" lon="5.85591">
        <ele>1421</ele>
        <time>2022-06-05T08:53:12Z</time>
      </trkpt>
      <trkpt lat="45.02708" lon="5.8559">
        <ele>1421</ele>
        <time>2022-06-05T08:53:13Z</time>
      </trkpt>
      <trkpt lat="45.02708" lon="5.85588">
        <ele>1421</ele>
        <time>2022-06-05T08:53:14Z</time>
      </trkpt>
      <trkpt lat="45.02708" lon="5.85587">
        <ele>1421</ele>
        <time>2022-06-05T08:53:15Z</time>
      </trkpt>
      <trkpt lat="45.02708" lon="5.85585">
        <ele>1420</ele>
        <time>2022-06-05T08:53:16Z</time>
      </trkpt>
      <trkpt lat="45.02707" lon="5.85583">
        <ele>1420</ele>
        <time>2022-06-05T08:53:17Z</time>
      </trkpt>
      <trkpt lat="45.02707" lon="5.85581">
        <ele>1420</ele>
        <time>2022-06-05T08:53:18Z</time>
      </trkpt>
      <trkpt lat="45.02707" lon="5.8558">
        <ele>1420</ele>
        <time>2022-06-05T08:53:19Z</time>
      </trkpt>
      <trkpt lat="45.02707" lon="5.85579">
        <ele>1420</ele>
        <time>2022-06-05T08:53:20Z</time>
      </trkpt>
      <trkpt lat="45.02708" lon="5.85578">
        <ele>1420</ele>
        <time>2022-06-05T08:53:21Z</time>
      </trkpt>
      <trkpt lat="45.02707" lon="5.85577">
        <ele>1420</ele>
        <time>2022-06-05T08:53:22Z</time>
      </trkpt>
      <trkpt lat="45.02707" lon="5.85575">
        <ele>1420</ele>
        <time>2022-06-05T08:53:23Z</time>
      </trkpt>
      <trkpt lat="45.02707" lon="5.85574">
        <ele>1420</ele>
        <time>2022-06-05T08:53:24Z</time>
      </trkpt>
      <trkpt lat="45.02707" lon="5.85572">
        <ele>1420</ele>
        <time>2022-06-05T08:53:25Z</time>
      </trkpt>
      <trkpt lat="45.02707" lon="5.85571">
        <ele>1420</ele>
        <time>2022-06-05T08:53:26Z</time>
      </trkpt>
      <trkpt lat="45.02707" lon="5.85569">
        <ele>1420</ele>
        <time>2022-06-05T08:53:27Z</time>
      </trkpt>
      <trkpt lat="45.02707" lon="5.85568">
        <ele>1420</ele>
        <time>2022-06-05T08:53:28Z</time>
      </trkpt>
      <trkpt lat="45.02706" lon="5.85567">
        <ele>1419</ele>
        <time>2022-06-05T08:53:29Z</time>
      </trkpt>
      <trkpt lat="45.02706" lon="5.85566">
        <ele>1419</ele>
        <time>2022-06-05T08:53:30Z</time>
      </trkpt>
      <trkpt lat="45.02706" lon="5.85565">
        <ele>1419</ele>
        <time>2022-06-05T08:53:31Z</time>
      </trkpt>
      <trkpt lat="45.02706" lon="5.85564">
        <ele>1419</ele>
        <time>2022-06-05T08:53:32Z</time>
      </trkpt>
      <trkpt lat="45.02707" lon="5.85562">
        <ele>1419</ele>
        <time>2022-06-05T08:53:33Z</time>
      </trkpt>
      <trkpt lat="45.02707" lon="5.85561">
        <ele>1420</ele>
        <time>2022-06-05T08:53:34Z</time>
      </trkpt>
      <trkpt lat="45.02707" lon="5.85559">
        <ele>1420</ele>
        <time>2022-06-05T08:53:35Z</time>
      </trkpt>
      <trkpt lat="45.02707" lon="5.85558">
        <ele>1420</ele>
        <time>2022-06-05T08:53:36Z</time>
      </trkpt>
      <trkpt lat="45.02707" lon="5.85556">
        <ele>1420</ele>
        <time>2022-06-05T08:53:37Z</time>
      </trkpt>
      <trkpt lat="45.02707" lon="5.85555">
        <ele>1421</ele>
        <time>2022-06-05T08:53:38Z</time>
      </trkpt>
      <trkpt lat="45.02707" lon="5.85554">
        <ele>1421</ele>
        <time>2022-06-05T08:53:39Z</time>
      </trkpt>
      <trkpt lat="45.02707" lon="5.85552">
        <ele>1421</ele>
        <time>2022-06-05T08:53:40Z</time>
      </trkpt>
      <trkpt lat="45.02707" lon="5.85551">
        <ele>1421</ele>
        <time>2022-06-05T08:53:41Z</time>
      </trkpt>
      <trkpt lat="45.02707" lon="5.8555">
        <ele>1420</ele>
        <time>2022-06-05T08:53:42Z</time>
      </trkpt>
      <trkpt lat="45.02707" lon="5.85549">
        <ele>1420</ele>
        <time>2022-06-05T08:53:43Z</time>
      </trkpt>
      <trkpt lat="45.02707" lon="5.8555">
        <ele>1420</ele>
        <time>2022-06-05T08:53:44Z</time>
      </trkpt>
      <trkpt lat="45.02707" lon="5.8555">
        <ele>1420</ele>
        <time>2022-06-05T08:53:45Z</time>
      </trkpt>
      <trkpt lat="45.02707" lon="5.8555">
        <ele>1420</ele>
        <time>2022-06-05T08:53:46Z</time>
      </trkpt>
      <trkpt lat="45.02707" lon="5.8555">
        <ele>1420</ele>
        <time>2022-06-05T08:53:46Z</time>
      </trkpt>
      <trkpt lat="45.02707" lon="5.8555">
        <ele>1420</ele>
        <time>2022-06-05T08:53:46Z</time>
      </trkpt>
      <trkpt lat="45.02705" lon="5.85544">
        <ele>1420</ele>
        <time>2022-06-05T08:54:18Z</time>
      </trkpt>
      <trkpt lat="45.02705" lon="5.85543">
        <ele>1420</ele>
        <time>2022-06-05T08:54:19Z</time>
      </trkpt>
      <trkpt lat="45.02705" lon="5.85542">
        <ele>1420</ele>
        <time>2022-06-05T08:54:20Z</time>
      </trkpt>
      <trkpt lat="45.02705" lon="5.85541">
        <ele>1420</ele>
        <time>2022-06-05T08:54:21Z</time>
      </trkpt>
      <trkpt lat="45.02705" lon="5.85539">
        <ele>1419</ele>
        <time>2022-06-05T08:54:22Z</time>
      </trkpt>
      <trkpt lat="45.02705" lon="5.85537">
        <ele>1419</ele>
        <time>2022-06-05T08:54:23Z</time>
      </trkpt>
      <trkpt lat="45.02705" lon="5.85536">
        <ele>1420</ele>
        <time>2022-06-05T08:54:24Z</time>
      </trkpt>
      <trkpt lat="45.02705" lon="5.85535">
        <ele>1420</ele>
        <time>2022-06-05T08:54:25Z</time>
      </trkpt>
      <trkpt lat="45.02705" lon="5.85533">
        <ele>1419</ele>
        <time>2022-06-05T08:54:26Z</time>
      </trkpt>
      <trkpt lat="45.02705" lon="5.85532">
        <ele>1419</ele>
        <time>2022-06-05T08:54:27Z</time>
      </trkpt>
      <trkpt lat="45.02705" lon="5.8553">
        <ele>1420</ele>
        <time>2022-06-05T08:54:28Z</time>
      </trkpt>
      <trkpt lat="45.02706" lon="5.85529">
        <ele>1419</ele>
        <time>2022-06-05T08:54:29Z</time>
      </trkpt>
      <trkpt lat="45.02706" lon="5.85528">
        <ele>1419</ele>
        <time>2022-06-05T08:54:30Z</time>
      </trkpt>
      <trkpt lat="45.02706" lon="5.85527">
        <ele>1419</ele>
        <time>2022-06-05T08:54:31Z</time>
      </trkpt>
      <trkpt lat="45.02706" lon="5.85525">
        <ele>1419</ele>
        <time>2022-06-05T08:54:32Z</time>
      </trkpt>
      <trkpt lat="45.02706" lon="5.85525">
        <ele>1420</ele>
        <time>2022-06-05T08:54:33Z</time>
      </trkpt>
      <trkpt lat="45.02706" lon="5.85524">
        <ele>1420</ele>
        <time>2022-06-05T08:54:34Z</time>
      </trkpt>
      <trkpt lat="45.02706" lon="5.85523">
        <ele>1420</ele>
        <time>2022-06-05T08:54:35Z</time>
      </trkpt>
      <trkpt lat="45.02706" lon="5.85522">
        <ele>1420</ele>
        <time>2022-06-05T08:54:36Z</time>
      </trkpt>
      <trkpt lat="45.02707" lon="5.85521">
        <ele>1420</ele>
        <time>2022-06-05T08:54:37Z</time>
      </trkpt>
      <trkpt lat="45.02707" lon="5.8552">
        <ele>1421</ele>
        <time>2022-06-05T08:54:38Z</time>
      </trkpt>
      <trkpt lat="45.02707" lon="5.85519">
        <ele>1421</ele>
        <time>2022-06-05T08:54:39Z</time>
      </trkpt>
      <trkpt lat="45.02707" lon="5.85518">
        <ele>1421</ele>
        <time>2022-06-05T08:54:40Z</time>
      </trkpt>
      <trkpt lat="45.02707" lon="5.85517">
        <ele>1422</ele>
        <time>2022-06-05T08:54:41Z</time>
      </trkpt>
      <trkpt lat="45.02707" lon="5.85516">
        <ele>1422</ele>
        <time>2022-06-05T08:54:42Z</time>
      </trkpt>
      <trkpt lat="45.02707" lon="5.85514">
        <ele>1422</ele>
        <time>2022-06-05T08:54:43Z</time>
      </trkpt>
      <trkpt lat="45.02707" lon="5.85513">
        <ele>1422</ele>
        <time>2022-06-05T08:54:44Z</time>
      </trkpt>
      <trkpt lat="45.02707" lon="5.85512">
        <ele>1422</ele>
        <time>2022-06-05T08:54:45Z</time>
      </trkpt>
      <trkpt lat="45.02707" lon="5.85511">
        <ele>1422</ele>
        <time>2022-06-05T08:54:46Z</time>
      </trkpt>
      <trkpt lat="45.02707" lon="5.8551">
        <ele>1423</ele>
        <time>2022-06-05T08:54:47Z</time>
      </trkpt>
      <trkpt lat="45.02707" lon="5.85509">
        <ele>1423</ele>
        <time>2022-06-05T08:54:48Z</time>
      </trkpt>
      <trkpt lat="45.02707" lon="5.85508">
        <ele>1423</ele>
        <time>2022-06-05T08:54:49Z</time>
      </trkpt>
      <trkpt lat="45.02708" lon="5.85507">
        <ele>1423</ele>
        <time>2022-06-05T08:54:50Z</time>
      </trkpt>
      <trkpt lat="45.02708" lon="5.85506">
        <ele>1423</ele>
        <time>2022-06-05T08:54:51Z</time>
      </trkpt>
      <trkpt lat="45.02708" lon="5.85504">
        <ele>1423</ele>
        <time>2022-06-05T08:54:52Z</time>
      </trkpt>
      <trkpt lat="45.02708" lon="5.85502">
        <ele>1423</ele>
        <time>2022-06-05T08:54:53Z</time>
      </trkpt>
      <trkpt lat="45.02708" lon="5.85501">
        <ele>1423</ele>
        <time>2022-06-05T08:54:54Z</time>
      </trkpt>
      <trkpt lat="45.02708" lon="5.855">
        <ele>1423</ele>
        <time>2022-06-05T08:54:55Z</time>
      </trkpt>
      <trkpt lat="45.02709" lon="5.85498">
        <ele>1422</ele>
        <time>2022-06-05T08:54:56Z</time>
      </trkpt>
      <trkpt lat="45.02709" lon="5.85497">
        <ele>1422</ele>
        <time>2022-06-05T08:54:57Z</time>
      </trkpt>
      <trkpt lat="45.0271" lon="5.85496">
        <ele>1422</ele>
        <time>2022-06-05T08:54:58Z</time>
      </trkpt>
      <trkpt lat="45.0271" lon="5.85495">
        <ele>1422</ele>
        <time>2022-06-05T08:54:59Z</time>
      </trkpt>
      <trkpt lat="45.0271" lon="5.85493">
        <ele>1421</ele>
        <time>2022-06-05T08:55:00Z</time>
      </trkpt>
      <trkpt lat="45.0271" lon="5.85492">
        <ele>1421</ele>
        <time>2022-06-05T08:55:01Z</time>
      </trkpt>
      <trkpt lat="45.0271" lon="5.8549">
        <ele>1421</ele>
        <time>2022-06-05T08:55:02Z</time>
      </trkpt>
      <trkpt lat="45.0271" lon="5.85488">
        <ele>1421</ele>
        <time>2022-06-05T08:55:03Z</time>
      </trkpt>
      <trkpt lat="45.0271" lon="5.85487">
        <ele>1420</ele>
        <time>2022-06-05T08:55:04Z</time>
      </trkpt>
      <trkpt lat="45.02711" lon="5.85485">
        <ele>1421</ele>
        <time>2022-06-05T08:55:05Z</time>
      </trkpt>
      <trkpt lat="45.02711" lon="5.85484">
        <ele>1421</ele>
        <time>2022-06-05T08:55:06Z</time>
      </trkpt>
      <trkpt lat="45.02711" lon="5.85482">
        <ele>1421</ele>
        <time>2022-06-05T08:55:07Z</time>
      </trkpt>
      <trkpt lat="45.02711" lon="5.85481">
        <ele>1421</ele>
        <time>2022-06-05T08:55:08Z</time>
      </trkpt>
      <trkpt lat="45.02711" lon="5.8548">
        <ele>1420</ele>
        <time>2022-06-05T08:55:09Z</time>
      </trkpt>
      <trkpt lat="45.02712" lon="5.85478">
        <ele>1420</ele>
        <time>2022-06-05T08:55:10Z</time>
      </trkpt>
      <trkpt lat="45.02712" lon="5.85477">
        <ele>1419</ele>
        <time>2022-06-05T08:55:11Z</time>
      </trkpt>
      <trkpt lat="45.02713" lon="5.85475">
        <ele>1419</ele>
        <time>2022-06-05T08:55:12Z</time>
      </trkpt>
      <trkpt lat="45.02713" lon="5.85474">
        <ele>1419</ele>
        <time>2022-06-05T08:55:13Z</time>
      </trkpt>
      <trkpt lat="45.02713" lon="5.85473">
        <ele>1419</ele>
        <time>2022-06-05T08:55:14Z</time>
      </trkpt>
      <trkpt lat="45.02713" lon="5.85472">
        <ele>1419</ele>
        <time>2022-06-05T08:55:15Z</time>
      </trkpt>
      <trkpt lat="45.02714" lon="5.85471">
        <ele>1419</ele>
        <time>2022-06-05T08:55:16Z</time>
      </trkpt>
      <trkpt lat="45.02715" lon="5.8547">
        <ele>1419</ele>
        <time>2022-06-05T08:55:17Z</time>
      </trkpt>
      <trkpt lat="45.02715" lon="5.85469">
        <ele>1419</ele>
        <time>2022-06-05T08:55:18Z</time>
      </trkpt>
      <trkpt lat="45.02716" lon="5.85468">
        <ele>1419</ele>
        <time>2022-06-05T08:55:19Z</time>
      </trkpt>
      <trkpt lat="45.02716" lon="5.85467">
        <ele>1419</ele>
        <time>2022-06-05T08:55:20Z</time>
      </trkpt>
      <trkpt lat="45.02717" lon="5.85466">
        <ele>1419</ele>
        <time>2022-06-05T08:55:21Z</time>
      </trkpt>
      <trkpt lat="45.02718" lon="5.85465">
        <ele>1419</ele>
        <time>2022-06-05T08:55:22Z</time>
      </trkpt>
      <trkpt lat="45.02718" lon="5.85464">
        <ele>1419</ele>
        <time>2022-06-05T08:55:23Z</time>
      </trkpt>
      <trkpt lat="45.02719" lon="5.85463">
        <ele>1419</ele>
        <time>2022-06-05T08:55:24Z</time>
      </trkpt>
      <trkpt lat="45.0272" lon="5.85462">
        <ele>1419</ele>
        <time>2022-06-05T08:55:25Z</time>
      </trkpt>
      <trkpt lat="45.0272" lon="5.85461">
        <ele>1419</ele>
        <time>2022-06-05T08:55:26Z</time>
      </trkpt>
      <trkpt lat="45.02721" lon="5.8546">
        <ele>1419</ele>
        <time>2022-06-05T08:55:27Z</time>
      </trkpt>
      <trkpt lat="45.02721" lon="5.85459">
        <ele>1419</ele>
        <time>2022-06-05T08:55:28Z</time>
      </trkpt>
      <trkpt lat="45.02721" lon="5.85458">
        <ele>1418</ele>
        <time>2022-06-05T08:55:29Z</time>
      </trkpt>
      <trkpt lat="45.02722" lon="5.85458">
        <ele>1418</ele>
        <time>2022-06-05T08:55:30Z</time>
      </trkpt>
      <trkpt lat="45.02722" lon="5.85458">
        <ele>1418</ele>
        <time>2022-06-05T08:55:31Z</time>
      </trkpt>
      <trkpt lat="45.02723" lon="5.85457">
        <ele>1418</ele>
        <time>2022-06-05T08:55:32Z</time>
      </trkpt>
      <trkpt lat="45.02723" lon="5.85457">
        <ele>1418</ele>
        <time>2022-06-05T08:55:33Z</time>
      </trkpt>
      <trkpt lat="45.02723" lon="5.85457">
        <ele>1419</ele>
        <time>2022-06-05T08:55:34Z</time>
      </trkpt>
      <trkpt lat="45.02723" lon="5.85456">
        <ele>1419</ele>
        <time>2022-06-05T08:55:35Z</time>
      </trkpt>
      <trkpt lat="45.02723" lon="5.85456">
        <ele>1419</ele>
        <time>2022-06-05T08:55:36Z</time>
      </trkpt>
      <trkpt lat="45.02724" lon="5.85456">
        <ele>1419</ele>
        <time>2022-06-05T08:55:37Z</time>
      </trkpt>
      <trkpt lat="45.02724" lon="5.85456">
        <ele>1419</ele>
        <time>2022-06-05T08:55:37Z</time>
      </trkpt>
      <trkpt lat="45.02724" lon="5.85456">
        <ele>1419</ele>
        <time>2022-06-05T08:55:37Z</time>
      </trkpt>
      <trkpt lat="45.02722" lon="5.8545">
        <ele>1418</ele>
        <time>2022-06-05T08:55:47Z</time>
      </trkpt>
      <trkpt lat="45.02723" lon="5.85449">
        <ele>1418</ele>
        <time>2022-06-05T08:55:48Z</time>
      </trkpt>
      <trkpt lat="45.02723" lon="5.85448">
        <ele>1418</ele>
        <time>2022-06-05T08:55:49Z</time>
      </trkpt>
      <trkpt lat="45.02723" lon="5.85447">
        <ele>1418</ele>
        <time>2022-06-05T08:55:50Z</time>
      </trkpt>
      <trkpt lat="45.02724" lon="5.85446">
        <ele>1418</ele>
        <time>2022-06-05T08:55:51Z</time>
      </trkpt>
      <trkpt lat="45.02725" lon="5.85446">
        <ele>1418</ele>
        <time>2022-06-05T08:55:52Z</time>
      </trkpt>
      <trkpt lat="45.02725" lon="5.85445">
        <ele>1419</ele>
        <time>2022-06-05T08:55:53Z</time>
      </trkpt>
      <trkpt lat="45.02725" lon="5.85444">
        <ele>1418</ele>
        <time>2022-06-05T08:55:54Z</time>
      </trkpt>
      <trkpt lat="45.02726" lon="5.85443">
        <ele>1418</ele>
        <time>2022-06-05T08:55:55Z</time>
      </trkpt>
      <trkpt lat="45.02726" lon="5.85442">
        <ele>1418</ele>
        <time>2022-06-05T08:55:56Z</time>
      </trkpt>
      <trkpt lat="45.02726" lon="5.85441">
        <ele>1418</ele>
        <time>2022-06-05T08:55:57Z</time>
      </trkpt>
      <trkpt lat="45.02727" lon="5.85441">
        <ele>1418</ele>
        <time>2022-06-05T08:55:58Z</time>
      </trkpt>
      <trkpt lat="45.02728" lon="5.8544">
        <ele>1418</ele>
        <time>2022-06-05T08:55:59Z</time>
      </trkpt>
      <trkpt lat="45.02728" lon="5.85439">
        <ele>1418</ele>
        <time>2022-06-05T08:56:00Z</time>
      </trkpt>
      <trkpt lat="45.02729" lon="5.85438">
        <ele>1418</ele>
        <time>2022-06-05T08:56:01Z</time>
      </trkpt>
      <trkpt lat="45.02729" lon="5.85436">
        <ele>1418</ele>
        <time>2022-06-05T08:56:02Z</time>
      </trkpt>
      <trkpt lat="45.0273" lon="5.85435">
        <ele>1418</ele>
        <time>2022-06-05T08:56:03Z</time>
      </trkpt>
      <trkpt lat="45.0273" lon="5.85434">
        <ele>1419</ele>
        <time>2022-06-05T08:56:04Z</time>
      </trkpt>
      <trkpt lat="45.02731" lon="5.85434">
        <ele>1420</ele>
        <time>2022-06-05T08:56:05Z</time>
      </trkpt>
      <trkpt lat="45.02731" lon="5.85433">
        <ele>1420</ele>
        <time>2022-06-05T08:56:06Z</time>
      </trkpt>
      <trkpt lat="45.02732" lon="5.85432">
        <ele>1420</ele>
        <time>2022-06-05T08:56:07Z</time>
      </trkpt>
      <trkpt lat="45.02732" lon="5.85431">
        <ele>1420</ele>
        <time>2022-06-05T08:56:08Z</time>
      </trkpt>
      <trkpt lat="45.02733" lon="5.8543">
        <ele>1420</ele>
        <time>2022-06-05T08:56:09Z</time>
      </trkpt>
      <trkpt lat="45.02733" lon="5.85429">
        <ele>1421</ele>
        <time>2022-06-05T08:56:10Z</time>
      </trkpt>
      <trkpt lat="45.02733" lon="5.85428">
        <ele>1421</ele>
        <time>2022-06-05T08:56:11Z</time>
      </trkpt>
      <trkpt lat="45.02734" lon="5.85426">
        <ele>1421</ele>
        <time>2022-06-05T08:56:12Z</time>
      </trkpt>
      <trkpt lat="45.02735" lon="5.85426">
        <ele>1421</ele>
        <time>2022-06-05T08:56:13Z</time>
      </trkpt>
      <trkpt lat="45.02736" lon="5.85425">
        <ele>1421</ele>
        <time>2022-06-05T08:56:14Z</time>
      </trkpt>
      <trkpt lat="45.02737" lon="5.85424">
        <ele>1421</ele>
        <time>2022-06-05T08:56:15Z</time>
      </trkpt>
      <trkpt lat="45.02738" lon="5.85424">
        <ele>1421</ele>
        <time>2022-06-05T08:56:16Z</time>
      </trkpt>
      <trkpt lat="45.02739" lon="5.85423">
        <ele>1421</ele>
        <time>2022-06-05T08:56:17Z</time>
      </trkpt>
      <trkpt lat="45.0274" lon="5.85422">
        <ele>1421</ele>
        <time>2022-06-05T08:56:18Z</time>
      </trkpt>
      <trkpt lat="45.02741" lon="5.8542">
        <ele>1421</ele>
        <time>2022-06-05T08:56:19Z</time>
      </trkpt>
      <trkpt lat="45.02741" lon="5.85419">
        <ele>1422</ele>
        <time>2022-06-05T08:56:20Z</time>
      </trkpt>
      <trkpt lat="45.02741" lon="5.85417">
        <ele>1421</ele>
        <time>2022-06-05T08:56:21Z</time>
      </trkpt>
      <trkpt lat="45.02742" lon="5.85416">
        <ele>1421</ele>
        <time>2022-06-05T08:56:22Z</time>
      </trkpt>
      <trkpt lat="45.02742" lon="5.85415">
        <ele>1421</ele>
        <time>2022-06-05T08:56:23Z</time>
      </trkpt>
      <trkpt lat="45.02742" lon="5.85413">
        <ele>1421</ele>
        <time>2022-06-05T08:56:24Z</time>
      </trkpt>
      <trkpt lat="45.02742" lon="5.85412">
        <ele>1421</ele>
        <time>2022-06-05T08:56:25Z</time>
      </trkpt>
      <trkpt lat="45.02743" lon="5.85411">
        <ele>1421</ele>
        <time>2022-06-05T08:56:26Z</time>
      </trkpt>
      <trkpt lat="45.02744" lon="5.8541">
        <ele>1420</ele>
        <time>2022-06-05T08:56:27Z</time>
      </trkpt>
      <trkpt lat="45.02744" lon="5.85408">
        <ele>1420</ele>
        <time>2022-06-05T08:56:28Z</time>
      </trkpt>
      <trkpt lat="45.02744" lon="5.85407">
        <ele>1420</ele>
        <time>2022-06-05T08:56:29Z</time>
      </trkpt>
      <trkpt lat="45.02744" lon="5.85405">
        <ele>1420</ele>
        <time>2022-06-05T08:56:30Z</time>
      </trkpt>
      <trkpt lat="45.02744" lon="5.85403">
        <ele>1421</ele>
        <time>2022-06-05T08:56:31Z</time>
      </trkpt>
      <trkpt lat="45.02745" lon="5.85402">
        <ele>1421</ele>
        <time>2022-06-05T08:56:32Z</time>
      </trkpt>
      <trkpt lat="45.02745" lon="5.85401">
        <ele>1421</ele>
        <time>2022-06-05T08:56:33Z</time>
      </trkpt>
      <trkpt lat="45.02745" lon="5.85399">
        <ele>1421</ele>
        <time>2022-06-05T08:56:34Z</time>
      </trkpt>
      <trkpt lat="45.02745" lon="5.85398">
        <ele>1421</ele>
        <time>2022-06-05T08:56:35Z</time>
      </trkpt>
      <trkpt lat="45.02745" lon="5.85397">
        <ele>1421</ele>
        <time>2022-06-05T08:56:36Z</time>
      </trkpt>
      <trkpt lat="45.02745" lon="5.85396">
        <ele>1421</ele>
        <time>2022-06-05T08:56:37Z</time>
      </trkpt>
      <trkpt lat="45.02746" lon="5.85395">
        <ele>1421</ele>
        <time>2022-06-05T08:56:38Z</time>
      </trkpt>
      <trkpt lat="45.02746" lon="5.85394">
        <ele>1421</ele>
        <time>2022-06-05T08:56:39Z</time>
      </trkpt>
      <trkpt lat="45.02747" lon="5.85393">
        <ele>1421</ele>
        <time>2022-06-05T08:56:40Z</time>
      </trkpt>
      <trkpt lat="45.02747" lon="5.85392">
        <ele>1422</ele>
        <time>2022-06-05T08:56:41Z</time>
      </trkpt>
      <trkpt lat="45.02747" lon="5.85391">
        <ele>1422</ele>
        <time>2022-06-05T08:56:42Z</time>
      </trkpt>
      <trkpt lat="45.02747" lon="5.8539">
        <ele>1421</ele>
        <time>2022-06-05T08:56:43Z</time>
      </trkpt>
      <trkpt lat="45.02747" lon="5.85389">
        <ele>1421</ele>
        <time>2022-06-05T08:56:44Z</time>
      </trkpt>
      <trkpt lat="45.02747" lon="5.85388">
        <ele>1420</ele>
        <time>2022-06-05T08:56:45Z</time>
      </trkpt>
      <trkpt lat="45.02747" lon="5.85387">
        <ele>1420</ele>
        <time>2022-06-05T08:56:46Z</time>
      </trkpt>
      <trkpt lat="45.02748" lon="5.85387">
        <ele>1420</ele>
        <time>2022-06-05T08:56:47Z</time>
      </trkpt>
      <trkpt lat="45.02748" lon="5.85385">
        <ele>1421</ele>
        <time>2022-06-05T08:56:48Z</time>
      </trkpt>
      <trkpt lat="45.02749" lon="5.85384">
        <ele>1422</ele>
        <time>2022-06-05T08:56:49Z</time>
      </trkpt>
      <trkpt lat="45.02749" lon="5.85383">
        <ele>1422</ele>
        <time>2022-06-05T08:56:50Z</time>
      </trkpt>
      <trkpt lat="45.02749" lon="5.85382">
        <ele>1422</ele>
        <time>2022-06-05T08:56:51Z</time>
      </trkpt>
      <trkpt lat="45.02749" lon="5.85381">
        <ele>1422</ele>
        <time>2022-06-05T08:56:52Z</time>
      </trkpt>
      <trkpt lat="45.0275" lon="5.8538">
        <ele>1422</ele>
        <time>2022-06-05T08:56:53Z</time>
      </trkpt>
      <trkpt lat="45.0275" lon="5.85379">
        <ele>1423</ele>
        <time>2022-06-05T08:56:54Z</time>
      </trkpt>
      <trkpt lat="45.02751" lon="5.85377">
        <ele>1423</ele>
        <time>2022-06-05T08:56:55Z</time>
      </trkpt>
      <trkpt lat="45.02751" lon="5.85376">
        <ele>1422</ele>
        <time>2022-06-05T08:56:56Z</time>
      </trkpt>
      <trkpt lat="45.02752" lon="5.85375">
        <ele>1422</ele>
        <time>2022-06-05T08:56:57Z</time>
      </trkpt>
      <trkpt lat="45.02752" lon="5.85374">
        <ele>1422</ele>
        <time>2022-06-05T08:56:58Z</time>
      </trkpt>
      <trkpt lat="45.02752" lon="5.85373">
        <ele>1423</ele>
        <time>2022-06-05T08:56:59Z</time>
      </trkpt>
      <trkpt lat="45.02752" lon="5.85372">
        <ele>1422</ele>
        <time>2022-06-05T08:57:00Z</time>
      </trkpt>
      <trkpt lat="45.02753" lon="5.85371">
        <ele>1422</ele>
        <time>2022-06-05T08:57:01Z</time>
      </trkpt>
      <trkpt lat="45.02754" lon="5.85371">
        <ele>1422</ele>
        <time>2022-06-05T08:57:02Z</time>
      </trkpt>
      <trkpt lat="45.02754" lon="5.8537">
        <ele>1422</ele>
        <time>2022-06-05T08:57:03Z</time>
      </trkpt>
      <trkpt lat="45.02755" lon="5.85368">
        <ele>1422</ele>
        <time>2022-06-05T08:57:04Z</time>
      </trkpt>
      <trkpt lat="45.02755" lon="5.85367">
        <ele>1422</ele>
        <time>2022-06-05T08:57:05Z</time>
      </trkpt>
      <trkpt lat="45.02755" lon="5.85365">
        <ele>1422</ele>
        <time>2022-06-05T08:57:06Z</time>
      </trkpt>
      <trkpt lat="45.02755" lon="5.85364">
        <ele>1421</ele>
        <time>2022-06-05T08:57:07Z</time>
      </trkpt>
      <trkpt lat="45.02755" lon="5.85363">
        <ele>1421</ele>
        <time>2022-06-05T08:57:08Z</time>
      </trkpt>
      <trkpt lat="45.02755" lon="5.85362">
        <ele>1421</ele>
        <time>2022-06-05T08:57:09Z</time>
      </trkpt>
      <trkpt lat="45.02755" lon="5.85361">
        <ele>1421</ele>
        <time>2022-06-05T08:57:10Z</time>
      </trkpt>
      <trkpt lat="45.02755" lon="5.8536">
        <ele>1421</ele>
        <time>2022-06-05T08:57:11Z</time>
      </trkpt>
      <trkpt lat="45.02756" lon="5.85359">
        <ele>1421</ele>
        <time>2022-06-05T08:57:12Z</time>
      </trkpt>
      <trkpt lat="45.02756" lon="5.85358">
        <ele>1421</ele>
        <time>2022-06-05T08:57:13Z</time>
      </trkpt>
      <trkpt lat="45.02756" lon="5.85357">
        <ele>1421</ele>
        <time>2022-06-05T08:57:14Z</time>
      </trkpt>
      <trkpt lat="45.02757" lon="5.85357">
        <ele>1422</ele>
        <time>2022-06-05T08:57:15Z</time>
      </trkpt>
      <trkpt lat="45.02757" lon="5.85356">
        <ele>1422</ele>
        <time>2022-06-05T08:57:16Z</time>
      </trkpt>
      <trkpt lat="45.02757" lon="5.85355">
        <ele>1423</ele>
        <time>2022-06-05T08:57:17Z</time>
      </trkpt>
      <trkpt lat="45.02757" lon="5.85353">
        <ele>1423</ele>
        <time>2022-06-05T08:57:18Z</time>
      </trkpt>
      <trkpt lat="45.02757" lon="5.85352">
        <ele>1423</ele>
        <time>2022-06-05T08:57:19Z</time>
      </trkpt>
      <trkpt lat="45.02758" lon="5.85351">
        <ele>1423</ele>
        <time>2022-06-05T08:57:20Z</time>
      </trkpt>
      <trkpt lat="45.02758" lon="5.8535">
        <ele>1423</ele>
        <time>2022-06-05T08:57:21Z</time>
      </trkpt>
      <trkpt lat="45.02759" lon="5.85349">
        <ele>1423</ele>
        <time>2022-06-05T08:57:22Z</time>
      </trkpt>
      <trkpt lat="45.02759" lon="5.85348">
        <ele>1423</ele>
        <time>2022-06-05T08:57:23Z</time>
      </trkpt>
      <trkpt lat="45.02759" lon="5.85347">
        <ele>1423</ele>
        <time>2022-06-05T08:57:24Z</time>
      </trkpt>
      <trkpt lat="45.0276" lon="5.85346">
        <ele>1422</ele>
        <time>2022-06-05T08:57:25Z</time>
      </trkpt>
      <trkpt lat="45.0276" lon="5.85345">
        <ele>1422</ele>
        <time>2022-06-05T08:57:26Z</time>
      </trkpt>
      <trkpt lat="45.0276" lon="5.85344">
        <ele>1423</ele>
        <time>2022-06-05T08:57:27Z</time>
      </trkpt>
      <trkpt lat="45.02761" lon="5.85343">
        <ele>1423</ele>
        <time>2022-06-05T08:57:28Z</time>
      </trkpt>
      <trkpt lat="45.02761" lon="5.85341">
        <ele>1423</ele>
        <time>2022-06-05T08:57:29Z</time>
      </trkpt>
      <trkpt lat="45.02762" lon="5.8534">
        <ele>1421</ele>
        <time>2022-06-05T08:57:30Z</time>
      </trkpt>
      <trkpt lat="45.02762" lon="5.85339">
        <ele>1421</ele>
        <time>2022-06-05T08:57:31Z</time>
      </trkpt>
      <trkpt lat="45.02762" lon="5.85339">
        <ele>1421</ele>
        <time>2022-06-05T08:57:32Z</time>
      </trkpt>
      <trkpt lat="45.02762" lon="5.85338">
        <ele>1421</ele>
        <time>2022-06-05T08:57:33Z</time>
      </trkpt>
      <trkpt lat="45.02762" lon="5.85337">
        <ele>1421</ele>
        <time>2022-06-05T08:57:34Z</time>
      </trkpt>
      <trkpt lat="45.02762" lon="5.85335">
        <ele>1421</ele>
        <time>2022-06-05T08:57:35Z</time>
      </trkpt>
      <trkpt lat="45.02762" lon="5.85334">
        <ele>1422</ele>
        <time>2022-06-05T08:57:36Z</time>
      </trkpt>
      <trkpt lat="45.02763" lon="5.85333">
        <ele>1422</ele>
        <time>2022-06-05T08:57:37Z</time>
      </trkpt>
      <trkpt lat="45.02763" lon="5.85332">
        <ele>1422</ele>
        <time>2022-06-05T08:57:38Z</time>
      </trkpt>
      <trkpt lat="45.02764" lon="5.85331">
        <ele>1421</ele>
        <time>2022-06-05T08:57:39Z</time>
      </trkpt>
      <trkpt lat="45.02764" lon="5.8533">
        <ele>1422</ele>
        <time>2022-06-05T08:57:40Z</time>
      </trkpt>
      <trkpt lat="45.02765" lon="5.85329">
        <ele>1422</ele>
        <time>2022-06-05T08:57:41Z</time>
      </trkpt>
      <trkpt lat="45.02765" lon="5.85328">
        <ele>1422</ele>
        <time>2022-06-05T08:57:42Z</time>
      </trkpt>
      <trkpt lat="45.02765" lon="5.85327">
        <ele>1422</ele>
        <time>2022-06-05T08:57:43Z</time>
      </trkpt>
      <trkpt lat="45.02765" lon="5.85326">
        <ele>1423</ele>
        <time>2022-06-05T08:57:44Z</time>
      </trkpt>
      <trkpt lat="45.02766" lon="5.85325">
        <ele>1423</ele>
        <time>2022-06-05T08:57:45Z</time>
      </trkpt>
      <trkpt lat="45.02766" lon="5.85324">
        <ele>1423</ele>
        <time>2022-06-05T08:57:46Z</time>
      </trkpt>
      <trkpt lat="45.02766" lon="5.85323">
        <ele>1423</ele>
        <time>2022-06-05T08:57:47Z</time>
      </trkpt>
      <trkpt lat="45.02766" lon="5.85323">
        <ele>1423</ele>
        <time>2022-06-05T08:57:48Z</time>
      </trkpt>
      <trkpt lat="45.02766" lon="5.85323">
        <ele>1423</ele>
        <time>2022-06-05T08:57:49Z</time>
      </trkpt>
      <trkpt lat="45.02766" lon="5.85322">
        <ele>1423</ele>
        <time>2022-06-05T08:57:50Z</time>
      </trkpt>
      <trkpt lat="45.02766" lon="5.85322">
        <ele>1423</ele>
        <time>2022-06-05T08:57:50Z</time>
      </trkpt>
      <trkpt lat="45.02766" lon="5.85322">
        <ele>1423</ele>
        <time>2022-06-05T08:57:50Z</time>
      </trkpt>
      <trkpt lat="45.02766" lon="5.85322">
        <ele>1423</ele>
        <time>2022-06-05T08:57:50Z</time>
      </trkpt>
      <trkpt lat="45.02768" lon="5.85317">
        <ele>1424</ele>
        <time>2022-06-05T08:57:56Z</time>
      </trkpt>
      <trkpt lat="45.02768" lon="5.85317">
        <ele>1424</ele>
        <time>2022-06-05T08:57:57Z</time>
      </trkpt>
      <trkpt lat="45.02769" lon="5.85316">
        <ele>1424</ele>
        <time>2022-06-05T08:57:58Z</time>
      </trkpt>
      <trkpt lat="45.0277" lon="5.85315">
        <ele>1424</ele>
        <time>2022-06-05T08:57:59Z</time>
      </trkpt>
      <trkpt lat="45.0277" lon="5.85314">
        <ele>1424</ele>
        <time>2022-06-05T08:58:00Z</time>
      </trkpt>
      <trkpt lat="45.02771" lon="5.85313">
        <ele>1424</ele>
        <time>2022-06-05T08:58:01Z</time>
      </trkpt>
      <trkpt lat="45.02771" lon="5.85312">
        <ele>1424</ele>
        <time>2022-06-05T08:58:02Z</time>
      </trkpt>
      <trkpt lat="45.02772" lon="5.85311">
        <ele>1423</ele>
        <time>2022-06-05T08:58:03Z</time>
      </trkpt>
      <trkpt lat="45.02772" lon="5.8531">
        <ele>1423</ele>
        <time>2022-06-05T08:58:04Z</time>
      </trkpt>
      <trkpt lat="45.02773" lon="5.8531">
        <ele>1423</ele>
        <time>2022-06-05T08:58:05Z</time>
      </trkpt>
      <trkpt lat="45.02774" lon="5.85309">
        <ele>1423</ele>
        <time>2022-06-05T08:58:06Z</time>
      </trkpt>
      <trkpt lat="45.02774" lon="5.85308">
        <ele>1423</ele>
        <time>2022-06-05T08:58:07Z</time>
      </trkpt>
      <trkpt lat="45.02774" lon="5.85307">
        <ele>1424</ele>
        <time>2022-06-05T08:58:08Z</time>
      </trkpt>
      <trkpt lat="45.02775" lon="5.85306">
        <ele>1423</ele>
        <time>2022-06-05T08:58:09Z</time>
      </trkpt>
      <trkpt lat="45.02775" lon="5.85306">
        <ele>1423</ele>
        <time>2022-06-05T08:58:10Z</time>
      </trkpt>
      <trkpt lat="45.02776" lon="5.85305">
        <ele>1424</ele>
        <time>2022-06-05T08:58:11Z</time>
      </trkpt>
      <trkpt lat="45.02776" lon="5.85304">
        <ele>1424</ele>
        <time>2022-06-05T08:58:12Z</time>
      </trkpt>
      <trkpt lat="45.02776" lon="5.85304">
        <ele>1424</ele>
        <time>2022-06-05T08:58:13Z</time>
      </trkpt>
      <trkpt lat="45.02776" lon="5.85304">
        <ele>1424</ele>
        <time>2022-06-05T08:58:14Z</time>
      </trkpt>
      <trkpt lat="45.02776" lon="5.85302">
        <ele>1423</ele>
        <time>2022-06-05T08:58:15Z</time>
      </trkpt>
      <trkpt lat="45.02777" lon="5.85302">
        <ele>1423</ele>
        <time>2022-06-05T08:58:16Z</time>
      </trkpt>
      <trkpt lat="45.02777" lon="5.85301">
        <ele>1423</ele>
        <time>2022-06-05T08:58:17Z</time>
      </trkpt>
      <trkpt lat="45.02778" lon="5.85301">
        <ele>1423</ele>
        <time>2022-06-05T08:58:18Z</time>
      </trkpt>
      <trkpt lat="45.02778" lon="5.85301">
        <ele>1423</ele>
        <time>2022-06-05T08:58:19Z</time>
      </trkpt>
      <trkpt lat="45.02779" lon="5.853">
        <ele>1423</ele>
        <time>2022-06-05T08:58:20Z</time>
      </trkpt>
      <trkpt lat="45.02779" lon="5.85299">
        <ele>1423</ele>
        <time>2022-06-05T08:58:21Z</time>
      </trkpt>
      <trkpt lat="45.0278" lon="5.85298">
        <ele>1423</ele>
        <time>2022-06-05T08:58:22Z</time>
      </trkpt>
      <trkpt lat="45.0278" lon="5.85297">
        <ele>1423</ele>
        <time>2022-06-05T08:58:23Z</time>
      </trkpt>
      <trkpt lat="45.02781" lon="5.85296">
        <ele>1424</ele>
        <time>2022-06-05T08:58:24Z</time>
      </trkpt>
      <trkpt lat="45.02782" lon="5.85295">
        <ele>1424</ele>
        <time>2022-06-05T08:58:25Z</time>
      </trkpt>
      <trkpt lat="45.02782" lon="5.85294">
        <ele>1424</ele>
        <time>2022-06-05T08:58:26Z</time>
      </trkpt>
      <trkpt lat="45.02783" lon="5.85293">
        <ele>1424</ele>
        <time>2022-06-05T08:58:27Z</time>
      </trkpt>
      <trkpt lat="45.02783" lon="5.85292">
        <ele>1424</ele>
        <time>2022-06-05T08:58:28Z</time>
      </trkpt>
      <trkpt lat="45.02784" lon="5.85291">
        <ele>1423</ele>
        <time>2022-06-05T08:58:29Z</time>
      </trkpt>
      <trkpt lat="45.02785" lon="5.8529">
        <ele>1423</ele>
        <time>2022-06-05T08:58:30Z</time>
      </trkpt>
      <trkpt lat="45.02786" lon="5.8529">
        <ele>1423</ele>
        <time>2022-06-05T08:58:31Z</time>
      </trkpt>
      <trkpt lat="45.02786" lon="5.85289">
        <ele>1423</ele>
        <time>2022-06-05T08:58:32Z</time>
      </trkpt>
      <trkpt lat="45.02787" lon="5.85288">
        <ele>1422</ele>
        <time>2022-06-05T08:58:33Z</time>
      </trkpt>
      <trkpt lat="45.02787" lon="5.85287">
        <ele>1422</ele>
        <time>2022-06-05T08:58:34Z</time>
      </trkpt>
      <trkpt lat="45.02787" lon="5.85286">
        <ele>1422</ele>
        <time>2022-06-05T08:58:35Z</time>
      </trkpt>
      <trkpt lat="45.02787" lon="5.85286">
        <ele>1422</ele>
        <time>2022-06-05T08:58:36Z</time>
      </trkpt>
      <trkpt lat="45.02788" lon="5.85285">
        <ele>1422</ele>
        <time>2022-06-05T08:58:37Z</time>
      </trkpt>
      <trkpt lat="45.02789" lon="5.85284">
        <ele>1422</ele>
        <time>2022-06-05T08:58:38Z</time>
      </trkpt>
      <trkpt lat="45.02789" lon="5.85283">
        <ele>1422</ele>
        <time>2022-06-05T08:58:39Z</time>
      </trkpt>
      <trkpt lat="45.0279" lon="5.85282">
        <ele>1422</ele>
        <time>2022-06-05T08:58:40Z</time>
      </trkpt>
      <trkpt lat="45.02791" lon="5.85282">
        <ele>1422</ele>
        <time>2022-06-05T08:58:41Z</time>
      </trkpt>
      <trkpt lat="45.02792" lon="5.85281">
        <ele>1422</ele>
        <time>2022-06-05T08:58:42Z</time>
      </trkpt>
      <trkpt lat="45.02792" lon="5.8528">
        <ele>1423</ele>
        <time>2022-06-05T08:58:43Z</time>
      </trkpt>
      <trkpt lat="45.02793" lon="5.8528">
        <ele>1423</ele>
        <time>2022-06-05T08:58:44Z</time>
      </trkpt>
      <trkpt lat="45.02794" lon="5.85279">
        <ele>1423</ele>
        <time>2022-06-05T08:58:45Z</time>
      </trkpt>
      <trkpt lat="45.02794" lon="5.85279">
        <ele>1423</ele>
        <time>2022-06-05T08:58:46Z</time>
      </trkpt>
      <trkpt lat="45.02794" lon="5.85278">
        <ele>1422</ele>
        <time>2022-06-05T08:58:47Z</time>
      </trkpt>
      <trkpt lat="45.02795" lon="5.85277">
        <ele>1422</ele>
        <time>2022-06-05T08:58:48Z</time>
      </trkpt>
      <trkpt lat="45.02795" lon="5.85276">
        <ele>1422</ele>
        <time>2022-06-05T08:58:49Z</time>
      </trkpt>
      <trkpt lat="45.02796" lon="5.85275">
        <ele>1421</ele>
        <time>2022-06-05T08:58:50Z</time>
      </trkpt>
      <trkpt lat="45.02796" lon="5.85273">
        <ele>1421</ele>
        <time>2022-06-05T08:58:51Z</time>
      </trkpt>
      <trkpt lat="45.02797" lon="5.85272">
        <ele>1421</ele>
        <time>2022-06-05T08:58:52Z</time>
      </trkpt>
      <trkpt lat="45.02798" lon="5.85271">
        <ele>1420</ele>
        <time>2022-06-05T08:58:53Z</time>
      </trkpt>
      <trkpt lat="45.02799" lon="5.8527">
        <ele>1421</ele>
        <time>2022-06-05T08:58:54Z</time>
      </trkpt>
      <trkpt lat="45.028" lon="5.85269">
        <ele>1421</ele>
        <time>2022-06-05T08:58:55Z</time>
      </trkpt>
      <trkpt lat="45.028" lon="5.85268">
        <ele>1421</ele>
        <time>2022-06-05T08:58:56Z</time>
      </trkpt>
      <trkpt lat="45.02801" lon="5.85267">
        <ele>1421</ele>
        <time>2022-06-05T08:58:57Z</time>
      </trkpt>
      <trkpt lat="45.02802" lon="5.85266">
        <ele>1421</ele>
        <time>2022-06-05T08:58:58Z</time>
      </trkpt>
      <trkpt lat="45.02802" lon="5.85265">
        <ele>1421</ele>
        <time>2022-06-05T08:58:59Z</time>
      </trkpt>
      <trkpt lat="45.02803" lon="5.85264">
        <ele>1421</ele>
        <time>2022-06-05T08:59:00Z</time>
      </trkpt>
      <trkpt lat="45.02804" lon="5.85263">
        <ele>1421</ele>
        <time>2022-06-05T08:59:01Z</time>
      </trkpt>
      <trkpt lat="45.02805" lon="5.85263">
        <ele>1421</ele>
        <time>2022-06-05T08:59:02Z</time>
      </trkpt>
      <trkpt lat="45.02806" lon="5.85262">
        <ele>1421</ele>
        <time>2022-06-05T08:59:03Z</time>
      </trkpt>
      <trkpt lat="45.02807" lon="5.85261">
        <ele>1421</ele>
        <time>2022-06-05T08:59:04Z</time>
      </trkpt>
      <trkpt lat="45.02808" lon="5.8526">
        <ele>1421</ele>
        <time>2022-06-05T08:59:05Z</time>
      </trkpt>
      <trkpt lat="45.02808" lon="5.85259">
        <ele>1421</ele>
        <time>2022-06-05T08:59:06Z</time>
      </trkpt>
      <trkpt lat="45.02809" lon="5.85258">
        <ele>1421</ele>
        <time>2022-06-05T08:59:07Z</time>
      </trkpt>
      <trkpt lat="45.0281" lon="5.85257">
        <ele>1421</ele>
        <time>2022-06-05T08:59:08Z</time>
      </trkpt>
      <trkpt lat="45.02811" lon="5.85257">
        <ele>1420</ele>
        <time>2022-06-05T08:59:09Z</time>
      </trkpt>
      <trkpt lat="45.02811" lon="5.85256">
        <ele>1420</ele>
        <time>2022-06-05T08:59:10Z</time>
      </trkpt>
      <trkpt lat="45.02812" lon="5.85256">
        <ele>1420</ele>
        <time>2022-06-05T08:59:11Z</time>
      </trkpt>
      <trkpt lat="45.02813" lon="5.85255">
        <ele>1421</ele>
        <time>2022-06-05T08:59:12Z</time>
      </trkpt>
      <trkpt lat="45.02813" lon="5.85254">
        <ele>1421</ele>
        <time>2022-06-05T08:59:13Z</time>
      </trkpt>
      <trkpt lat="45.02814" lon="5.85254">
        <ele>1421</ele>
        <time>2022-06-05T08:59:14Z</time>
      </trkpt>
      <trkpt lat="45.02815" lon="5.85253">
        <ele>1421</ele>
        <time>2022-06-05T08:59:15Z</time>
      </trkpt>
      <trkpt lat="45.02815" lon="5.85252">
        <ele>1420</ele>
        <time>2022-06-05T08:59:16Z</time>
      </trkpt>
      <trkpt lat="45.02816" lon="5.85252">
        <ele>1419</ele>
        <time>2022-06-05T08:59:17Z</time>
      </trkpt>
      <trkpt lat="45.02816" lon="5.85251">
        <ele>1419</ele>
        <time>2022-06-05T08:59:18Z</time>
      </trkpt>
      <trkpt lat="45.02817" lon="5.8525">
        <ele>1419</ele>
        <time>2022-06-05T08:59:19Z</time>
      </trkpt>
      <trkpt lat="45.02818" lon="5.85249">
        <ele>1419</ele>
        <time>2022-06-05T08:59:20Z</time>
      </trkpt>
      <trkpt lat="45.02819" lon="5.85249">
        <ele>1419</ele>
        <time>2022-06-05T08:59:21Z</time>
      </trkpt>
      <trkpt lat="45.0282" lon="5.85248">
        <ele>1418</ele>
        <time>2022-06-05T08:59:22Z</time>
      </trkpt>
      <trkpt lat="45.0282" lon="5.85248">
        <ele>1418</ele>
        <time>2022-06-05T08:59:23Z</time>
      </trkpt>
      <trkpt lat="45.02821" lon="5.85247">
        <ele>1418</ele>
        <time>2022-06-05T08:59:24Z</time>
      </trkpt>
      <trkpt lat="45.02822" lon="5.85247">
        <ele>1418</ele>
        <time>2022-06-05T08:59:25Z</time>
      </trkpt>
      <trkpt lat="45.02823" lon="5.85247">
        <ele>1418</ele>
        <time>2022-06-05T08:59:26Z</time>
      </trkpt>
      <trkpt lat="45.02824" lon="5.85246">
        <ele>1418</ele>
        <time>2022-06-05T08:59:27Z</time>
      </trkpt>
      <trkpt lat="45.02824" lon="5.85245">
        <ele>1418</ele>
        <time>2022-06-05T08:59:28Z</time>
      </trkpt>
      <trkpt lat="45.02825" lon="5.85245">
        <ele>1417</ele>
        <time>2022-06-05T08:59:29Z</time>
      </trkpt>
      <trkpt lat="45.02826" lon="5.85244">
        <ele>1417</ele>
        <time>2022-06-05T08:59:30Z</time>
      </trkpt>
      <trkpt lat="45.02827" lon="5.85244">
        <ele>1417</ele>
        <time>2022-06-05T08:59:31Z</time>
      </trkpt>
      <trkpt lat="45.02828" lon="5.85243">
        <ele>1417</ele>
        <time>2022-06-05T08:59:32Z</time>
      </trkpt>
      <trkpt lat="45.02828" lon="5.85243">
        <ele>1417</ele>
        <time>2022-06-05T08:59:33Z</time>
      </trkpt>
      <trkpt lat="45.02829" lon="5.85242">
        <ele>1418</ele>
        <time>2022-06-05T08:59:34Z</time>
      </trkpt>
      <trkpt lat="45.0283" lon="5.85241">
        <ele>1418</ele>
        <time>2022-06-05T08:59:35Z</time>
      </trkpt>
      <trkpt lat="45.0283" lon="5.85239">
        <ele>1418</ele>
        <time>2022-06-05T08:59:36Z</time>
      </trkpt>
      <trkpt lat="45.02831" lon="5.85239">
        <ele>1418</ele>
        <time>2022-06-05T08:59:37Z</time>
      </trkpt>
      <trkpt lat="45.02832" lon="5.85238">
        <ele>1418</ele>
        <time>2022-06-05T08:59:38Z</time>
      </trkpt>
      <trkpt lat="45.02832" lon="5.85237">
        <ele>1418</ele>
        <time>2022-06-05T08:59:39Z</time>
      </trkpt>
      <trkpt lat="45.02833" lon="5.85237">
        <ele>1418</ele>
        <time>2022-06-05T08:59:40Z</time>
      </trkpt>
      <trkpt lat="45.02834" lon="5.85236">
        <ele>1418</ele>
        <time>2022-06-05T08:59:41Z</time>
      </trkpt>
      <trkpt lat="45.02834" lon="5.85235">
        <ele>1418</ele>
        <time>2022-06-05T08:59:42Z</time>
      </trkpt>
      <trkpt lat="45.02835" lon="5.85234">
        <ele>1418</ele>
        <time>2022-06-05T08:59:43Z</time>
      </trkpt>
      <trkpt lat="45.02836" lon="5.85233">
        <ele>1418</ele>
        <time>2022-06-05T08:59:44Z</time>
      </trkpt>
      <trkpt lat="45.02837" lon="5.85232">
        <ele>1418</ele>
        <time>2022-06-05T08:59:45Z</time>
      </trkpt>
      <trkpt lat="45.02837" lon="5.85232">
        <ele>1417</ele>
        <time>2022-06-05T08:59:46Z</time>
      </trkpt>
      <trkpt lat="45.02838" lon="5.85231">
        <ele>1417</ele>
        <time>2022-06-05T08:59:47Z</time>
      </trkpt>
      <trkpt lat="45.02839" lon="5.8523">
        <ele>1417</ele>
        <time>2022-06-05T08:59:48Z</time>
      </trkpt>
      <trkpt lat="45.02839" lon="5.85229">
        <ele>1417</ele>
        <time>2022-06-05T08:59:49Z</time>
      </trkpt>
      <trkpt lat="45.0284" lon="5.85228">
        <ele>1417</ele>
        <time>2022-06-05T08:59:50Z</time>
      </trkpt>
      <trkpt lat="45.0284" lon="5.85228">
        <ele>1417</ele>
        <time>2022-06-05T08:59:51Z</time>
      </trkpt>
      <trkpt lat="45.0284" lon="5.85227">
        <ele>1416</ele>
        <time>2022-06-05T08:59:52Z</time>
      </trkpt>
      <trkpt lat="45.02841" lon="5.85225">
        <ele>1416</ele>
        <time>2022-06-05T08:59:53Z</time>
      </trkpt>
      <trkpt lat="45.02842" lon="5.85224">
        <ele>1417</ele>
        <time>2022-06-05T08:59:54Z</time>
      </trkpt>
      <trkpt lat="45.02842" lon="5.85223">
        <ele>1417</ele>
        <time>2022-06-05T08:59:55Z</time>
      </trkpt>
      <trkpt lat="45.02843" lon="5.85222">
        <ele>1417</ele>
        <time>2022-06-05T08:59:56Z</time>
      </trkpt>
      <trkpt lat="45.02844" lon="5.85221">
        <ele>1417</ele>
        <time>2022-06-05T08:59:57Z</time>
      </trkpt>
      <trkpt lat="45.02844" lon="5.8522">
        <ele>1417</ele>
        <time>2022-06-05T08:59:58Z</time>
      </trkpt>
      <trkpt lat="45.02844" lon="5.85219">
        <ele>1417</ele>
        <time>2022-06-05T08:59:59Z</time>
      </trkpt>
      <trkpt lat="45.02845" lon="5.85218">
        <ele>1417</ele>
        <time>2022-06-05T09:00:00Z</time>
      </trkpt>
      <trkpt lat="45.02845" lon="5.85217">
        <ele>1417</ele>
        <time>2022-06-05T09:00:01Z</time>
      </trkpt>
      <trkpt lat="45.02846" lon="5.85216">
        <ele>1417</ele>
        <time>2022-06-05T09:00:02Z</time>
      </trkpt>
      <trkpt lat="45.02847" lon="5.85215">
        <ele>1417</ele>
        <time>2022-06-05T09:00:03Z</time>
      </trkpt>
      <trkpt lat="45.02848" lon="5.85215">
        <ele>1417</ele>
        <time>2022-06-05T09:00:04Z</time>
      </trkpt>
      <trkpt lat="45.02849" lon="5.85214">
        <ele>1417</ele>
        <time>2022-06-05T09:00:05Z</time>
      </trkpt>
      <trkpt lat="45.0285" lon="5.85213">
        <ele>1416</ele>
        <time>2022-06-05T09:00:06Z</time>
      </trkpt>
      <trkpt lat="45.02851" lon="5.85212">
        <ele>1416</ele>
        <time>2022-06-05T09:00:07Z</time>
      </trkpt>
      <trkpt lat="45.02852" lon="5.85211">
        <ele>1415</ele>
        <time>2022-06-05T09:00:08Z</time>
      </trkpt>
      <trkpt lat="45.02852" lon="5.8521">
        <ele>1415</ele>
        <time>2022-06-05T09:00:09Z</time>
      </trkpt>
      <trkpt lat="45.02853" lon="5.8521">
        <ele>1415</ele>
        <time>2022-06-05T09:00:10Z</time>
      </trkpt>
      <trkpt lat="45.02854" lon="5.85209">
        <ele>1415</ele>
        <time>2022-06-05T09:00:11Z</time>
      </trkpt>
      <trkpt lat="45.02855" lon="5.85208">
        <ele>1415</ele>
        <time>2022-06-05T09:00:12Z</time>
      </trkpt>
      <trkpt lat="45.02856" lon="5.85207">
        <ele>1416</ele>
        <time>2022-06-05T09:00:13Z</time>
      </trkpt>
      <trkpt lat="45.02856" lon="5.85205">
        <ele>1416</ele>
        <time>2022-06-05T09:00:14Z</time>
      </trkpt>
      <trkpt lat="45.02857" lon="5.85204">
        <ele>1416</ele>
        <time>2022-06-05T09:00:15Z</time>
      </trkpt>
      <trkpt lat="45.02858" lon="5.85204">
        <ele>1416</ele>
        <time>2022-06-05T09:00:16Z</time>
      </trkpt>
      <trkpt lat="45.02858" lon="5.85202">
        <ele>1417</ele>
        <time>2022-06-05T09:00:17Z</time>
      </trkpt>
      <trkpt lat="45.02858" lon="5.85201">
        <ele>1416</ele>
        <time>2022-06-05T09:00:18Z</time>
      </trkpt>
      <trkpt lat="45.02859" lon="5.852">
        <ele>1416</ele>
        <time>2022-06-05T09:00:19Z</time>
      </trkpt>
      <trkpt lat="45.02859" lon="5.85199">
        <ele>1416</ele>
        <time>2022-06-05T09:00:20Z</time>
      </trkpt>
      <trkpt lat="45.0286" lon="5.85198">
        <ele>1416</ele>
        <time>2022-06-05T09:00:21Z</time>
      </trkpt>
      <trkpt lat="45.02861" lon="5.85197">
        <ele>1415</ele>
        <time>2022-06-05T09:00:22Z</time>
      </trkpt>
      <trkpt lat="45.02862" lon="5.85197">
        <ele>1415</ele>
        <time>2022-06-05T09:00:23Z</time>
      </trkpt>
      <trkpt lat="45.02863" lon="5.85196">
        <ele>1415</ele>
        <time>2022-06-05T09:00:24Z</time>
      </trkpt>
      <trkpt lat="45.02864" lon="5.85194">
        <ele>1415</ele>
        <time>2022-06-05T09:00:25Z</time>
      </trkpt>
      <trkpt lat="45.02864" lon="5.85194">
        <ele>1415</ele>
        <time>2022-06-05T09:00:26Z</time>
      </trkpt>
      <trkpt lat="45.02866" lon="5.85192">
        <ele>1415</ele>
        <time>2022-06-05T09:00:28Z</time>
      </trkpt>
      <trkpt lat="45.02867" lon="5.85191">
        <ele>1415</ele>
        <time>2022-06-05T09:00:29Z</time>
      </trkpt>
      <trkpt lat="45.02868" lon="5.8519">
        <ele>1415</ele>
        <time>2022-06-05T09:00:30Z</time>
      </trkpt>
      <trkpt lat="45.02868" lon="5.85189">
        <ele>1414</ele>
        <time>2022-06-05T09:00:31Z</time>
      </trkpt>
      <trkpt lat="45.02869" lon="5.85188">
        <ele>1414</ele>
        <time>2022-06-05T09:00:32Z</time>
      </trkpt>
      <trkpt lat="45.02869" lon="5.85187">
        <ele>1414</ele>
        <time>2022-06-05T09:00:33Z</time>
      </trkpt>
      <trkpt lat="45.02869" lon="5.85186">
        <ele>1414</ele>
        <time>2022-06-05T09:00:34Z</time>
      </trkpt>
      <trkpt lat="45.0287" lon="5.85185">
        <ele>1414</ele>
        <time>2022-06-05T09:00:35Z</time>
      </trkpt>
      <trkpt lat="45.02871" lon="5.85184">
        <ele>1413</ele>
        <time>2022-06-05T09:00:36Z</time>
      </trkpt>
      <trkpt lat="45.02872" lon="5.85183">
        <ele>1413</ele>
        <time>2022-06-05T09:00:37Z</time>
      </trkpt>
      <trkpt lat="45.02873" lon="5.85182">
        <ele>1413</ele>
        <time>2022-06-05T09:00:38Z</time>
      </trkpt>
      <trkpt lat="45.02873" lon="5.85181">
        <ele>1413</ele>
        <time>2022-06-05T09:00:39Z</time>
      </trkpt>
      <trkpt lat="45.02874" lon="5.8518">
        <ele>1413</ele>
        <time>2022-06-05T09:00:40Z</time>
      </trkpt>
      <trkpt lat="45.02874" lon="5.8518">
        <ele>1413</ele>
        <time>2022-06-05T09:00:41Z</time>
      </trkpt>
      <trkpt lat="45.02875" lon="5.85178">
        <ele>1413</ele>
        <time>2022-06-05T09:00:42Z</time>
      </trkpt>
      <trkpt lat="45.02876" lon="5.85178">
        <ele>1413</ele>
        <time>2022-06-05T09:00:43Z</time>
      </trkpt>
      <trkpt lat="45.02877" lon="5.85177">
        <ele>1412</ele>
        <time>2022-06-05T09:00:44Z</time>
      </trkpt>
      <trkpt lat="45.02877" lon="5.85176">
        <ele>1412</ele>
        <time>2022-06-05T09:00:45Z</time>
      </trkpt>
      <trkpt lat="45.02878" lon="5.85175">
        <ele>1412</ele>
        <time>2022-06-05T09:00:46Z</time>
      </trkpt>
      <trkpt lat="45.02878" lon="5.85175">
        <ele>1412</ele>
        <time>2022-06-05T09:00:47Z</time>
      </trkpt>
      <trkpt lat="45.02879" lon="5.85174">
        <ele>1412</ele>
        <time>2022-06-05T09:00:48Z</time>
      </trkpt>
      <trkpt lat="45.0288" lon="5.85173">
        <ele>1412</ele>
        <time>2022-06-05T09:00:49Z</time>
      </trkpt>
      <trkpt lat="45.02881" lon="5.85173">
        <ele>1412</ele>
        <time>2022-06-05T09:00:50Z</time>
      </trkpt>
      <trkpt lat="45.02881" lon="5.85172">
        <ele>1413</ele>
        <time>2022-06-05T09:00:51Z</time>
      </trkpt>
      <trkpt lat="45.02882" lon="5.85171">
        <ele>1413</ele>
        <time>2022-06-05T09:00:52Z</time>
      </trkpt>
      <trkpt lat="45.02883" lon="5.8517">
        <ele>1413</ele>
        <time>2022-06-05T09:00:53Z</time>
      </trkpt>
      <trkpt lat="45.02884" lon="5.8517">
        <ele>1413</ele>
        <time>2022-06-05T09:00:54Z</time>
      </trkpt>
      <trkpt lat="45.02884" lon="5.85169">
        <ele>1413</ele>
        <time>2022-06-05T09:00:55Z</time>
      </trkpt>
      <trkpt lat="45.02884" lon="5.85169">
        <ele>1413</ele>
        <time>2022-06-05T09:00:56Z</time>
      </trkpt>
      <trkpt lat="45.02885" lon="5.85168">
        <ele>1413</ele>
        <time>2022-06-05T09:00:57Z</time>
      </trkpt>
      <trkpt lat="45.02885" lon="5.85167">
        <ele>1413</ele>
        <time>2022-06-05T09:00:58Z</time>
      </trkpt>
      <trkpt lat="45.02886" lon="5.85166">
        <ele>1413</ele>
        <time>2022-06-05T09:00:59Z</time>
      </trkpt>
      <trkpt lat="45.02887" lon="5.85165">
        <ele>1413</ele>
        <time>2022-06-05T09:01:00Z</time>
      </trkpt>
      <trkpt lat="45.02888" lon="5.85164">
        <ele>1413</ele>
        <time>2022-06-05T09:01:01Z</time>
      </trkpt>
      <trkpt lat="45.02889" lon="5.85163">
        <ele>1413</ele>
        <time>2022-06-05T09:01:02Z</time>
      </trkpt>
      <trkpt lat="45.02889" lon="5.85162">
        <ele>1413</ele>
        <time>2022-06-05T09:01:03Z</time>
      </trkpt>
      <trkpt lat="45.02889" lon="5.85161">
        <ele>1412</ele>
        <time>2022-06-05T09:01:04Z</time>
      </trkpt>
      <trkpt lat="45.0289" lon="5.85161">
        <ele>1412</ele>
        <time>2022-06-05T09:01:05Z</time>
      </trkpt>
      <trkpt lat="45.02891" lon="5.8516">
        <ele>1412</ele>
        <time>2022-06-05T09:01:06Z</time>
      </trkpt>
      <trkpt lat="45.02892" lon="5.85159">
        <ele>1412</ele>
        <time>2022-06-05T09:01:07Z</time>
      </trkpt>
      <trkpt lat="45.02893" lon="5.85158">
        <ele>1413</ele>
        <time>2022-06-05T09:01:08Z</time>
      </trkpt>
      <trkpt lat="45.02893" lon="5.85157">
        <ele>1412</ele>
        <time>2022-06-05T09:01:09Z</time>
      </trkpt>
      <trkpt lat="45.02895" lon="5.85156">
        <ele>1413</ele>
        <time>2022-06-05T09:01:10Z</time>
      </trkpt>
      <trkpt lat="45.02895" lon="5.85156">
        <ele>1413</ele>
        <time>2022-06-05T09:01:11Z</time>
      </trkpt>
      <trkpt lat="45.02897" lon="5.85155">
        <ele>1413</ele>
        <time>2022-06-05T09:01:12Z</time>
      </trkpt>
      <trkpt lat="45.02897" lon="5.85154">
        <ele>1413</ele>
        <time>2022-06-05T09:01:13Z</time>
      </trkpt>
      <trkpt lat="45.02898" lon="5.85153">
        <ele>1413</ele>
        <time>2022-06-05T09:01:14Z</time>
      </trkpt>
      <trkpt lat="45.02898" lon="5.85152">
        <ele>1413</ele>
        <time>2022-06-05T09:01:15Z</time>
      </trkpt>
      <trkpt lat="45.02899" lon="5.85151">
        <ele>1413</ele>
        <time>2022-06-05T09:01:16Z</time>
      </trkpt>
      <trkpt lat="45.029" lon="5.8515">
        <ele>1413</ele>
        <time>2022-06-05T09:01:17Z</time>
      </trkpt>
      <trkpt lat="45.029" lon="5.85149">
        <ele>1413</ele>
        <time>2022-06-05T09:01:18Z</time>
      </trkpt>
      <trkpt lat="45.02901" lon="5.85148">
        <ele>1413</ele>
        <time>2022-06-05T09:01:19Z</time>
      </trkpt>
      <trkpt lat="45.02902" lon="5.85147">
        <ele>1413</ele>
        <time>2022-06-05T09:01:20Z</time>
      </trkpt>
      <trkpt lat="45.02903" lon="5.85146">
        <ele>1413</ele>
        <time>2022-06-05T09:01:21Z</time>
      </trkpt>
      <trkpt lat="45.02903" lon="5.85145">
        <ele>1413</ele>
        <time>2022-06-05T09:01:22Z</time>
      </trkpt>
      <trkpt lat="45.02903" lon="5.85144">
        <ele>1412</ele>
        <time>2022-06-05T09:01:23Z</time>
      </trkpt>
      <trkpt lat="45.02904" lon="5.85143">
        <ele>1412</ele>
        <time>2022-06-05T09:01:24Z</time>
      </trkpt>
      <trkpt lat="45.02904" lon="5.85142">
        <ele>1412</ele>
        <time>2022-06-05T09:01:25Z</time>
      </trkpt>
      <trkpt lat="45.02904" lon="5.85143">
        <ele>1412</ele>
        <time>2022-06-05T09:01:26Z</time>
      </trkpt>
      <trkpt lat="45.02905" lon="5.85143">
        <ele>1412</ele>
        <time>2022-06-05T09:01:27Z</time>
      </trkpt>
      <trkpt lat="45.02905" lon="5.85143">
        <ele>1412</ele>
        <time>2022-06-05T09:01:28Z</time>
      </trkpt>
      <trkpt lat="45.02905" lon="5.85143">
        <ele>1413</ele>
        <time>2022-06-05T09:01:29Z</time>
      </trkpt>
      <trkpt lat="45.02905" lon="5.85143">
        <ele>1413</ele>
        <time>2022-06-05T09:01:30Z</time>
      </trkpt>
      <trkpt lat="45.02906" lon="5.85142">
        <ele>1413</ele>
        <time>2022-06-05T09:01:31Z</time>
      </trkpt>
      <trkpt lat="45.02906" lon="5.85141">
        <ele>1413</ele>
        <time>2022-06-05T09:01:32Z</time>
      </trkpt>
      <trkpt lat="45.02906" lon="5.8514">
        <ele>1413</ele>
        <time>2022-06-05T09:01:33Z</time>
      </trkpt>
      <trkpt lat="45.02907" lon="5.8514">
        <ele>1413</ele>
        <time>2022-06-05T09:01:34Z</time>
      </trkpt>
      <trkpt lat="45.02908" lon="5.85139">
        <ele>1413</ele>
        <time>2022-06-05T09:01:35Z</time>
      </trkpt>
      <trkpt lat="45.02909" lon="5.85138">
        <ele>1412</ele>
        <time>2022-06-05T09:01:36Z</time>
      </trkpt>
      <trkpt lat="45.0291" lon="5.85137">
        <ele>1412</ele>
        <time>2022-06-05T09:01:37Z</time>
      </trkpt>
      <trkpt lat="45.0291" lon="5.85136">
        <ele>1412</ele>
        <time>2022-06-05T09:01:38Z</time>
      </trkpt>
      <trkpt lat="45.02911" lon="5.85135">
        <ele>1412</ele>
        <time>2022-06-05T09:01:39Z</time>
      </trkpt>
      <trkpt lat="45.02911" lon="5.85135">
        <ele>1412</ele>
        <time>2022-06-05T09:01:40Z</time>
      </trkpt>
      <trkpt lat="45.02912" lon="5.85134">
        <ele>1412</ele>
        <time>2022-06-05T09:01:41Z</time>
      </trkpt>
      <trkpt lat="45.02913" lon="5.85133">
        <ele>1413</ele>
        <time>2022-06-05T09:01:42Z</time>
      </trkpt>
      <trkpt lat="45.02914" lon="5.85132">
        <ele>1413</ele>
        <time>2022-06-05T09:01:43Z</time>
      </trkpt>
      <trkpt lat="45.02914" lon="5.85131">
        <ele>1412</ele>
        <time>2022-06-05T09:01:44Z</time>
      </trkpt>
      <trkpt lat="45.02915" lon="5.8513">
        <ele>1411</ele>
        <time>2022-06-05T09:01:45Z</time>
      </trkpt>
      <trkpt lat="45.02915" lon="5.85129">
        <ele>1411</ele>
        <time>2022-06-05T09:01:46Z</time>
      </trkpt>
      <trkpt lat="45.02916" lon="5.85129">
        <ele>1411</ele>
        <time>2022-06-05T09:01:47Z</time>
      </trkpt>
      <trkpt lat="45.02917" lon="5.85128">
        <ele>1411</ele>
        <time>2022-06-05T09:01:48Z</time>
      </trkpt>
      <trkpt lat="45.02918" lon="5.85127">
        <ele>1411</ele>
        <time>2022-06-05T09:01:49Z</time>
      </trkpt>
      <trkpt lat="45.02918" lon="5.85126">
        <ele>1411</ele>
        <time>2022-06-05T09:01:50Z</time>
      </trkpt>
      <trkpt lat="45.02919" lon="5.85125">
        <ele>1411</ele>
        <time>2022-06-05T09:01:51Z</time>
      </trkpt>
      <trkpt lat="45.02919" lon="5.85124">
        <ele>1411</ele>
        <time>2022-06-05T09:01:52Z</time>
      </trkpt>
      <trkpt lat="45.0292" lon="5.85124">
        <ele>1410</ele>
        <time>2022-06-05T09:01:53Z</time>
      </trkpt>
      <trkpt lat="45.0292" lon="5.85124">
        <ele>1410</ele>
        <time>2022-06-05T09:01:54Z</time>
      </trkpt>
      <trkpt lat="45.0292" lon="5.85124">
        <ele>1410</ele>
        <time>2022-06-05T09:01:55Z</time>
      </trkpt>
      <trkpt lat="45.0292" lon="5.85124">
        <ele>1410</ele>
        <time>2022-06-05T09:01:56Z</time>
      </trkpt>
      <trkpt lat="45.0292" lon="5.85124">
        <ele>1410</ele>
        <time>2022-06-05T09:01:57Z</time>
      </trkpt>
      <trkpt lat="45.02919" lon="5.85124">
        <ele>1411</ele>
        <time>2022-06-05T09:01:58Z</time>
      </trkpt>
      <trkpt lat="45.0292" lon="5.85123">
        <ele>1411</ele>
        <time>2022-06-05T09:01:59Z</time>
      </trkpt>
      <trkpt lat="45.0292" lon="5.85123">
        <ele>1411</ele>
        <time>2022-06-05T09:02:00Z</time>
      </trkpt>
      <trkpt lat="45.02921" lon="5.85122">
        <ele>1411</ele>
        <time>2022-06-05T09:02:01Z</time>
      </trkpt>
      <trkpt lat="45.02921" lon="5.85121">
        <ele>1411</ele>
        <time>2022-06-05T09:02:02Z</time>
      </trkpt>
      <trkpt lat="45.02921" lon="5.85121">
        <ele>1411</ele>
        <time>2022-06-05T09:02:03Z</time>
      </trkpt>
      <trkpt lat="45.02921" lon="5.85121">
        <ele>1411</ele>
        <time>2022-06-05T09:02:04Z</time>
      </trkpt>
      <trkpt lat="45.02921" lon="5.85121">
        <ele>1411</ele>
        <time>2022-06-05T09:02:05Z</time>
      </trkpt>
      <trkpt lat="45.02921" lon="5.85121">
        <ele>1411</ele>
        <time>2022-06-05T09:02:06Z</time>
      </trkpt>
      <trkpt lat="45.02921" lon="5.85121">
        <ele>1411</ele>
        <time>2022-06-05T09:02:07Z</time>
      </trkpt>
      <trkpt lat="45.02921" lon="5.85121">
        <ele>1411</ele>
        <time>2022-06-05T09:02:07Z</time>
      </trkpt>
      <trkpt lat="45.02921" lon="5.85121">
        <ele>1411</ele>
        <time>2022-06-05T09:02:07Z</time>
      </trkpt>
      <trkpt lat="45.02921" lon="5.85121">
        <ele>1411</ele>
        <time>2022-06-05T09:02:07Z</time>
      </trkpt>
      <trkpt lat="45.02924" lon="5.85116">
        <ele>1412</ele>
        <time>2022-06-05T09:02:14Z</time>
      </trkpt>
      <trkpt lat="45.02925" lon="5.85115">
        <ele>1411</ele>
        <time>2022-06-05T09:02:15Z</time>
      </trkpt>
      <trkpt lat="45.02926" lon="5.85114">
        <ele>1411</ele>
        <time>2022-06-05T09:02:16Z</time>
      </trkpt>
      <trkpt lat="45.02926" lon="5.85113">
        <ele>1410</ele>
        <time>2022-06-05T09:02:17Z</time>
      </trkpt>
      <trkpt lat="45.02927" lon="5.85113">
        <ele>1410</ele>
        <time>2022-06-05T09:02:18Z</time>
      </trkpt>
      <trkpt lat="45.02928" lon="5.85112">
        <ele>1411</ele>
        <time>2022-06-05T09:02:19Z</time>
      </trkpt>
      <trkpt lat="45.02929" lon="5.85111">
        <ele>1411</ele>
        <time>2022-06-05T09:02:20Z</time>
      </trkpt>
      <trkpt lat="45.02929" lon="5.85111">
        <ele>1411</ele>
        <time>2022-06-05T09:02:21Z</time>
      </trkpt>
      <trkpt lat="45.0293" lon="5.8511">
        <ele>1412</ele>
        <time>2022-06-05T09:02:22Z</time>
      </trkpt>
      <trkpt lat="45.02931" lon="5.85109">
        <ele>1412</ele>
        <time>2022-06-05T09:02:23Z</time>
      </trkpt>
      <trkpt lat="45.02932" lon="5.85109">
        <ele>1412</ele>
        <time>2022-06-05T09:02:24Z</time>
      </trkpt>
      <trkpt lat="45.02932" lon="5.85108">
        <ele>1412</ele>
        <time>2022-06-05T09:02:25Z</time>
      </trkpt>
      <trkpt lat="45.02933" lon="5.85107">
        <ele>1412</ele>
        <time>2022-06-05T09:02:26Z</time>
      </trkpt>
      <trkpt lat="45.02934" lon="5.85107">
        <ele>1412</ele>
        <time>2022-06-05T09:02:27Z</time>
      </trkpt>
      <trkpt lat="45.02935" lon="5.85106">
        <ele>1412</ele>
        <time>2022-06-05T09:02:28Z</time>
      </trkpt>
      <trkpt lat="45.02935" lon="5.85105">
        <ele>1412</ele>
        <time>2022-06-05T09:02:29Z</time>
      </trkpt>
      <trkpt lat="45.02936" lon="5.85105">
        <ele>1412</ele>
        <time>2022-06-05T09:02:30Z</time>
      </trkpt>
      <trkpt lat="45.02937" lon="5.85104">
        <ele>1412</ele>
        <time>2022-06-05T09:02:31Z</time>
      </trkpt>
      <trkpt lat="45.02938" lon="5.85104">
        <ele>1412</ele>
        <time>2022-06-05T09:02:32Z</time>
      </trkpt>
      <trkpt lat="45.02939" lon="5.85104">
        <ele>1412</ele>
        <time>2022-06-05T09:02:33Z</time>
      </trkpt>
      <trkpt lat="45.0294" lon="5.85103">
        <ele>1412</ele>
        <time>2022-06-05T09:02:34Z</time>
      </trkpt>
      <trkpt lat="45.0294" lon="5.85102">
        <ele>1412</ele>
        <time>2022-06-05T09:02:35Z</time>
      </trkpt>
      <trkpt lat="45.02941" lon="5.85102">
        <ele>1411</ele>
        <time>2022-06-05T09:02:36Z</time>
      </trkpt>
      <trkpt lat="45.02942" lon="5.85101">
        <ele>1411</ele>
        <time>2022-06-05T09:02:37Z</time>
      </trkpt>
      <trkpt lat="45.02943" lon="5.851">
        <ele>1411</ele>
        <time>2022-06-05T09:02:38Z</time>
      </trkpt>
      <trkpt lat="45.02944" lon="5.851">
        <ele>1411</ele>
        <time>2022-06-05T09:02:39Z</time>
      </trkpt>
      <trkpt lat="45.02945" lon="5.85099">
        <ele>1412</ele>
        <time>2022-06-05T09:02:40Z</time>
      </trkpt>
      <trkpt lat="45.02946" lon="5.85098">
        <ele>1411</ele>
        <time>2022-06-05T09:02:41Z</time>
      </trkpt>
      <trkpt lat="45.02947" lon="5.85097">
        <ele>1412</ele>
        <time>2022-06-05T09:02:42Z</time>
      </trkpt>
      <trkpt lat="45.02948" lon="5.85097">
        <ele>1412</ele>
        <time>2022-06-05T09:02:43Z</time>
      </trkpt>
      <trkpt lat="45.02948" lon="5.85096">
        <ele>1411</ele>
        <time>2022-06-05T09:02:44Z</time>
      </trkpt>
      <trkpt lat="45.02949" lon="5.85096">
        <ele>1411</ele>
        <time>2022-06-05T09:02:45Z</time>
      </trkpt>
      <trkpt lat="45.0295" lon="5.85095">
        <ele>1411</ele>
        <time>2022-06-05T09:02:46Z</time>
      </trkpt>
      <trkpt lat="45.02951" lon="5.85094">
        <ele>1411</ele>
        <time>2022-06-05T09:02:47Z</time>
      </trkpt>
      <trkpt lat="45.02951" lon="5.85094">
        <ele>1411</ele>
        <time>2022-06-05T09:02:48Z</time>
      </trkpt>
      <trkpt lat="45.02952" lon="5.85093">
        <ele>1410</ele>
        <time>2022-06-05T09:02:49Z</time>
      </trkpt>
      <trkpt lat="45.02953" lon="5.85092">
        <ele>1410</ele>
        <time>2022-06-05T09:02:50Z</time>
      </trkpt>
      <trkpt lat="45.02954" lon="5.85092">
        <ele>1410</ele>
        <time>2022-06-05T09:02:51Z</time>
      </trkpt>
      <trkpt lat="45.02955" lon="5.85091">
        <ele>1410</ele>
        <time>2022-06-05T09:02:52Z</time>
      </trkpt>
      <trkpt lat="45.02956" lon="5.85091">
        <ele>1409</ele>
        <time>2022-06-05T09:02:53Z</time>
      </trkpt>
      <trkpt lat="45.02957" lon="5.8509">
        <ele>1409</ele>
        <time>2022-06-05T09:02:54Z</time>
      </trkpt>
      <trkpt lat="45.02958" lon="5.8509">
        <ele>1408</ele>
        <time>2022-06-05T09:02:55Z</time>
      </trkpt>
      <trkpt lat="45.02958" lon="5.8509">
        <ele>1408</ele>
        <time>2022-06-05T09:02:56Z</time>
      </trkpt>
      <trkpt lat="45.02959" lon="5.85089">
        <ele>1408</ele>
        <time>2022-06-05T09:02:57Z</time>
      </trkpt>
      <trkpt lat="45.0296" lon="5.85088">
        <ele>1409</ele>
        <time>2022-06-05T09:02:58Z</time>
      </trkpt>
      <trkpt lat="45.02961" lon="5.85087">
        <ele>1409</ele>
        <time>2022-06-05T09:02:59Z</time>
      </trkpt>
      <trkpt lat="45.02961" lon="5.85087">
        <ele>1409</ele>
        <time>2022-06-05T09:03:00Z</time>
      </trkpt>
      <trkpt lat="45.02962" lon="5.85086">
        <ele>1408</ele>
        <time>2022-06-05T09:03:01Z</time>
      </trkpt>
      <trkpt lat="45.02963" lon="5.85086">
        <ele>1408</ele>
        <time>2022-06-05T09:03:02Z</time>
      </trkpt>
      <trkpt lat="45.02964" lon="5.85085">
        <ele>1408</ele>
        <time>2022-06-05T09:03:03Z</time>
      </trkpt>
      <trkpt lat="45.02964" lon="5.85085">
        <ele>1408</ele>
        <time>2022-06-05T09:03:04Z</time>
      </trkpt>
      <trkpt lat="45.02965" lon="5.85084">
        <ele>1408</ele>
        <time>2022-06-05T09:03:05Z</time>
      </trkpt>
      <trkpt lat="45.02966" lon="5.85084">
        <ele>1408</ele>
        <time>2022-06-05T09:03:06Z</time>
      </trkpt>
      <trkpt lat="45.02967" lon="5.85083">
        <ele>1408</ele>
        <time>2022-06-05T09:03:07Z</time>
      </trkpt>
      <trkpt lat="45.02968" lon="5.85082">
        <ele>1408</ele>
        <time>2022-06-05T09:03:08Z</time>
      </trkpt>
      <trkpt lat="45.02969" lon="5.85081">
        <ele>1408</ele>
        <time>2022-06-05T09:03:09Z</time>
      </trkpt>
      <trkpt lat="45.0297" lon="5.8508">
        <ele>1408</ele>
        <time>2022-06-05T09:03:10Z</time>
      </trkpt>
      <trkpt lat="45.02971" lon="5.85079">
        <ele>1408</ele>
        <time>2022-06-05T09:03:11Z</time>
      </trkpt>
      <trkpt lat="45.02971" lon="5.85078">
        <ele>1408</ele>
        <time>2022-06-05T09:03:12Z</time>
      </trkpt>
      <trkpt lat="45.02972" lon="5.85078">
        <ele>1408</ele>
        <time>2022-06-05T09:03:13Z</time>
      </trkpt>
      <trkpt lat="45.02972" lon="5.85076">
        <ele>1408</ele>
        <time>2022-06-05T09:03:14Z</time>
      </trkpt>
      <trkpt lat="45.02972" lon="5.85075">
        <ele>1409</ele>
        <time>2022-06-05T09:03:15Z</time>
      </trkpt>
      <trkpt lat="45.02973" lon="5.85074">
        <ele>1409</ele>
        <time>2022-06-05T09:03:16Z</time>
      </trkpt>
      <trkpt lat="45.02974" lon="5.85073">
        <ele>1409</ele>
        <time>2022-06-05T09:03:17Z</time>
      </trkpt>
      <trkpt lat="45.02974" lon="5.85071">
        <ele>1409</ele>
        <time>2022-06-05T09:03:18Z</time>
      </trkpt>
      <trkpt lat="45.02975" lon="5.85071">
        <ele>1409</ele>
        <time>2022-06-05T09:03:19Z</time>
      </trkpt>
      <trkpt lat="45.02975" lon="5.8507">
        <ele>1410</ele>
        <time>2022-06-05T09:03:20Z</time>
      </trkpt>
      <trkpt lat="45.02976" lon="5.85069">
        <ele>1410</ele>
        <time>2022-06-05T09:03:21Z</time>
      </trkpt>
      <trkpt lat="45.02976" lon="5.85068">
        <ele>1410</ele>
        <time>2022-06-05T09:03:22Z</time>
      </trkpt>
      <trkpt lat="45.02977" lon="5.85067">
        <ele>1410</ele>
        <time>2022-06-05T09:03:23Z</time>
      </trkpt>
      <trkpt lat="45.02978" lon="5.85067">
        <ele>1410</ele>
        <time>2022-06-05T09:03:24Z</time>
      </trkpt>
      <trkpt lat="45.02979" lon="5.85066">
        <ele>1410</ele>
        <time>2022-06-05T09:03:25Z</time>
      </trkpt>
      <trkpt lat="45.02979" lon="5.85065">
        <ele>1410</ele>
        <time>2022-06-05T09:03:26Z</time>
      </trkpt>
      <trkpt lat="45.0298" lon="5.85064">
        <ele>1410</ele>
        <time>2022-06-05T09:03:27Z</time>
      </trkpt>
      <trkpt lat="45.02981" lon="5.85062">
        <ele>1410</ele>
        <time>2022-06-05T09:03:28Z</time>
      </trkpt>
      <trkpt lat="45.02982" lon="5.85062">
        <ele>1410</ele>
        <time>2022-06-05T09:03:29Z</time>
      </trkpt>
      <trkpt lat="45.02982" lon="5.8506">
        <ele>1411</ele>
        <time>2022-06-05T09:03:30Z</time>
      </trkpt>
      <trkpt lat="45.02982" lon="5.85059">
        <ele>1411</ele>
        <time>2022-06-05T09:03:31Z</time>
      </trkpt>
      <trkpt lat="45.02983" lon="5.85058">
        <ele>1412</ele>
        <time>2022-06-05T09:03:32Z</time>
      </trkpt>
      <trkpt lat="45.02983" lon="5.85057">
        <ele>1411</ele>
        <time>2022-06-05T09:03:33Z</time>
      </trkpt>
      <trkpt lat="45.02984" lon="5.85055">
        <ele>1412</ele>
        <time>2022-06-05T09:03:34Z</time>
      </trkpt>
      <trkpt lat="45.02984" lon="5.85054">
        <ele>1411</ele>
        <time>2022-06-05T09:03:35Z</time>
      </trkpt>
      <trkpt lat="45.02984" lon="5.85053">
        <ele>1411</ele>
        <time>2022-06-05T09:03:36Z</time>
      </trkpt>
      <trkpt lat="45.02984" lon="5.85053">
        <ele>1410</ele>
        <time>2022-06-05T09:03:37Z</time>
      </trkpt>
      <trkpt lat="45.02984" lon="5.85053">
        <ele>1410</ele>
        <time>2022-06-05T09:03:38Z</time>
      </trkpt>
      <trkpt lat="45.02984" lon="5.85053">
        <ele>1410</ele>
        <time>2022-06-05T09:03:39Z</time>
      </trkpt>
      <trkpt lat="45.02984" lon="5.85053">
        <ele>1410</ele>
        <time>2022-06-05T09:03:40Z</time>
      </trkpt>
      <trkpt lat="45.02984" lon="5.85053">
        <ele>1410</ele>
        <time>2022-06-05T09:03:40Z</time>
      </trkpt>
      <trkpt lat="45.02984" lon="5.85053">
        <ele>1410</ele>
        <time>2022-06-05T09:03:40Z</time>
      </trkpt>
      <trkpt lat="45.02985" lon="5.85048">
        <ele>1411</ele>
        <time>2022-06-05T09:04:01Z</time>
      </trkpt>
      <trkpt lat="45.02985" lon="5.85047">
        <ele>1410</ele>
        <time>2022-06-05T09:04:02Z</time>
      </trkpt>
      <trkpt lat="45.02986" lon="5.85046">
        <ele>1410</ele>
        <time>2022-06-05T09:04:03Z</time>
      </trkpt>
      <trkpt lat="45.02987" lon="5.85046">
        <ele>1409</ele>
        <time>2022-06-05T09:04:04Z</time>
      </trkpt>
      <trkpt lat="45.02987" lon="5.85045">
        <ele>1410</ele>
        <time>2022-06-05T09:04:05Z</time>
      </trkpt>
      <trkpt lat="45.02988" lon="5.85044">
        <ele>1410</ele>
        <time>2022-06-05T09:04:06Z</time>
      </trkpt>
      <trkpt lat="45.02988" lon="5.85043">
        <ele>1409</ele>
        <time>2022-06-05T09:04:07Z</time>
      </trkpt>
      <trkpt lat="45.02989" lon="5.85042">
        <ele>1409</ele>
        <time>2022-06-05T09:04:08Z</time>
      </trkpt>
      <trkpt lat="45.0299" lon="5.85041">
        <ele>1409</ele>
        <time>2022-06-05T09:04:09Z</time>
      </trkpt>
      <trkpt lat="45.0299" lon="5.8504">
        <ele>1409</ele>
        <time>2022-06-05T09:04:10Z</time>
      </trkpt>
      <trkpt lat="45.02991" lon="5.85039">
        <ele>1409</ele>
        <time>2022-06-05T09:04:11Z</time>
      </trkpt>
      <trkpt lat="45.02992" lon="5.85038">
        <ele>1410</ele>
        <time>2022-06-05T09:04:12Z</time>
      </trkpt>
      <trkpt lat="45.02992" lon="5.85038">
        <ele>1410</ele>
        <time>2022-06-05T09:04:13Z</time>
      </trkpt>
      <trkpt lat="45.02992" lon="5.85037">
        <ele>1410</ele>
        <time>2022-06-05T09:04:14Z</time>
      </trkpt>
      <trkpt lat="45.02993" lon="5.85036">
        <ele>1410</ele>
        <time>2022-06-05T09:04:15Z</time>
      </trkpt>
      <trkpt lat="45.02993" lon="5.85035">
        <ele>1410</ele>
        <time>2022-06-05T09:04:16Z</time>
      </trkpt>
      <trkpt lat="45.02993" lon="5.85034">
        <ele>1410</ele>
        <time>2022-06-05T09:04:17Z</time>
      </trkpt>
      <trkpt lat="45.02994" lon="5.85033">
        <ele>1410</ele>
        <time>2022-06-05T09:04:18Z</time>
      </trkpt>
      <trkpt lat="45.02994" lon="5.85032">
        <ele>1410</ele>
        <time>2022-06-05T09:04:19Z</time>
      </trkpt>
      <trkpt lat="45.02995" lon="5.85031">
        <ele>1410</ele>
        <time>2022-06-05T09:04:20Z</time>
      </trkpt>
      <trkpt lat="45.02995" lon="5.8503">
        <ele>1409</ele>
        <time>2022-06-05T09:04:21Z</time>
      </trkpt>
      <trkpt lat="45.02996" lon="5.85029">
        <ele>1409</ele>
        <time>2022-06-05T09:04:22Z</time>
      </trkpt>
      <trkpt lat="45.02997" lon="5.85027">
        <ele>1409</ele>
        <time>2022-06-05T09:04:23Z</time>
      </trkpt>
      <trkpt lat="45.02998" lon="5.85027">
        <ele>1408</ele>
        <time>2022-06-05T09:04:24Z</time>
      </trkpt>
      <trkpt lat="45.02999" lon="5.85026">
        <ele>1408</ele>
        <time>2022-06-05T09:04:25Z</time>
      </trkpt>
      <trkpt lat="45.03" lon="5.85025">
        <ele>1408</ele>
        <time>2022-06-05T09:04:26Z</time>
      </trkpt>
      <trkpt lat="45.03" lon="5.85025">
        <ele>1409</ele>
        <time>2022-06-05T09:04:27Z</time>
      </trkpt>
      <trkpt lat="45.03001" lon="5.85024">
        <ele>1409</ele>
        <time>2022-06-05T09:04:28Z</time>
      </trkpt>
      <trkpt lat="45.03001" lon="5.85023">
        <ele>1409</ele>
        <time>2022-06-05T09:04:29Z</time>
      </trkpt>
      <trkpt lat="45.03002" lon="5.85022">
        <ele>1409</ele>
        <time>2022-06-05T09:04:30Z</time>
      </trkpt>
      <trkpt lat="45.03003" lon="5.8502">
        <ele>1409</ele>
        <time>2022-06-05T09:04:31Z</time>
      </trkpt>
      <trkpt lat="45.03003" lon="5.8502">
        <ele>1409</ele>
        <time>2022-06-05T09:04:32Z</time>
      </trkpt>
      <trkpt lat="45.03004" lon="5.85019">
        <ele>1409</ele>
        <time>2022-06-05T09:04:33Z</time>
      </trkpt>
      <trkpt lat="45.03005" lon="5.85018">
        <ele>1409</ele>
        <time>2022-06-05T09:04:34Z</time>
      </trkpt>
      <trkpt lat="45.03006" lon="5.85018">
        <ele>1409</ele>
        <time>2022-06-05T09:04:35Z</time>
      </trkpt>
      <trkpt lat="45.03006" lon="5.85017">
        <ele>1408</ele>
        <time>2022-06-05T09:04:36Z</time>
      </trkpt>
      <trkpt lat="45.03008" lon="5.85016">
        <ele>1409</ele>
        <time>2022-06-05T09:04:37Z</time>
      </trkpt>
      <trkpt lat="45.03008" lon="5.85015">
        <ele>1409</ele>
        <time>2022-06-05T09:04:38Z</time>
      </trkpt>
      <trkpt lat="45.03009" lon="5.85014">
        <ele>1410</ele>
        <time>2022-06-05T09:04:39Z</time>
      </trkpt>
      <trkpt lat="45.0301" lon="5.85013">
        <ele>1410</ele>
        <time>2022-06-05T09:04:40Z</time>
      </trkpt>
      <trkpt lat="45.03011" lon="5.85012">
        <ele>1410</ele>
        <time>2022-06-05T09:04:41Z</time>
      </trkpt>
      <trkpt lat="45.03011" lon="5.85011">
        <ele>1410</ele>
        <time>2022-06-05T09:04:42Z</time>
      </trkpt>
      <trkpt lat="45.03011" lon="5.8501">
        <ele>1409</ele>
        <time>2022-06-05T09:04:43Z</time>
      </trkpt>
      <trkpt lat="45.03011" lon="5.85009">
        <ele>1409</ele>
        <time>2022-06-05T09:04:44Z</time>
      </trkpt>
      <trkpt lat="45.03012" lon="5.85008">
        <ele>1408</ele>
        <time>2022-06-05T09:04:45Z</time>
      </trkpt>
      <trkpt lat="45.03012" lon="5.85008">
        <ele>1408</ele>
        <time>2022-06-05T09:04:46Z</time>
      </trkpt>
      <trkpt lat="45.03013" lon="5.85006">
        <ele>1408</ele>
        <time>2022-06-05T09:04:47Z</time>
      </trkpt>
      <trkpt lat="45.03013" lon="5.85005">
        <ele>1408</ele>
        <time>2022-06-05T09:04:48Z</time>
      </trkpt>
      <trkpt lat="45.03014" lon="5.85004">
        <ele>1408</ele>
        <time>2022-06-05T09:04:49Z</time>
      </trkpt>
      <trkpt lat="45.03015" lon="5.85004">
        <ele>1409</ele>
        <time>2022-06-05T09:04:50Z</time>
      </trkpt>
      <trkpt lat="45.03016" lon="5.85003">
        <ele>1409</ele>
        <time>2022-06-05T09:04:51Z</time>
      </trkpt>
      <trkpt lat="45.03016" lon="5.85002">
        <ele>1409</ele>
        <time>2022-06-05T09:04:52Z</time>
      </trkpt>
      <trkpt lat="45.03016" lon="5.85">
        <ele>1409</ele>
        <time>2022-06-05T09:04:53Z</time>
      </trkpt>
      <trkpt lat="45.03017" lon="5.84999">
        <ele>1410</ele>
        <time>2022-06-05T09:04:54Z</time>
      </trkpt>
      <trkpt lat="45.03017" lon="5.84999">
        <ele>1410</ele>
        <time>2022-06-05T09:04:55Z</time>
      </trkpt>
      <trkpt lat="45.03018" lon="5.84998">
        <ele>1410</ele>
        <time>2022-06-05T09:04:56Z</time>
      </trkpt>
      <trkpt lat="45.03019" lon="5.84997">
        <ele>1411</ele>
        <time>2022-06-05T09:04:57Z</time>
      </trkpt>
      <trkpt lat="45.03019" lon="5.84996">
        <ele>1411</ele>
        <time>2022-06-05T09:04:58Z</time>
      </trkpt>
      <trkpt lat="45.0302" lon="5.84994">
        <ele>1411</ele>
        <time>2022-06-05T09:04:59Z</time>
      </trkpt>
      <trkpt lat="45.03021" lon="5.84994">
        <ele>1411</ele>
        <time>2022-06-05T09:05:00Z</time>
      </trkpt>
      <trkpt lat="45.03021" lon="5.84993">
        <ele>1411</ele>
        <time>2022-06-05T09:05:01Z</time>
      </trkpt>
      <trkpt lat="45.03022" lon="5.84992">
        <ele>1412</ele>
        <time>2022-06-05T09:05:02Z</time>
      </trkpt>
      <trkpt lat="45.03022" lon="5.84991">
        <ele>1412</ele>
        <time>2022-06-05T09:05:03Z</time>
      </trkpt>
      <trkpt lat="45.03023" lon="5.84989">
        <ele>1411</ele>
        <time>2022-06-05T09:05:04Z</time>
      </trkpt>
      <trkpt lat="45.03023" lon="5.84988">
        <ele>1411</ele>
        <time>2022-06-05T09:05:05Z</time>
      </trkpt>
      <trkpt lat="45.03024" lon="5.84987">
        <ele>1411</ele>
        <time>2022-06-05T09:05:06Z</time>
      </trkpt>
      <trkpt lat="45.03024" lon="5.84986">
        <ele>1411</ele>
        <time>2022-06-05T09:05:07Z</time>
      </trkpt>
      <trkpt lat="45.03024" lon="5.84984">
        <ele>1411</ele>
        <time>2022-06-05T09:05:08Z</time>
      </trkpt>
      <trkpt lat="45.03025" lon="5.84984">
        <ele>1411</ele>
        <time>2022-06-05T09:05:09Z</time>
      </trkpt>
      <trkpt lat="45.03025" lon="5.84983">
        <ele>1410</ele>
        <time>2022-06-05T09:05:10Z</time>
      </trkpt>
      <trkpt lat="45.03025" lon="5.84981">
        <ele>1410</ele>
        <time>2022-06-05T09:05:11Z</time>
      </trkpt>
      <trkpt lat="45.03025" lon="5.8498">
        <ele>1410</ele>
        <time>2022-06-05T09:05:12Z</time>
      </trkpt>
      <trkpt lat="45.03026" lon="5.84979">
        <ele>1409</ele>
        <time>2022-06-05T09:05:13Z</time>
      </trkpt>
      <trkpt lat="45.03027" lon="5.84978">
        <ele>1409</ele>
        <time>2022-06-05T09:05:14Z</time>
      </trkpt>
      <trkpt lat="45.03028" lon="5.84978">
        <ele>1409</ele>
        <time>2022-06-05T09:05:15Z</time>
      </trkpt>
      <trkpt lat="45.03029" lon="5.84977">
        <ele>1409</ele>
        <time>2022-06-05T09:05:16Z</time>
      </trkpt>
      <trkpt lat="45.03029" lon="5.84975">
        <ele>1409</ele>
        <time>2022-06-05T09:05:17Z</time>
      </trkpt>
      <trkpt lat="45.0303" lon="5.84975">
        <ele>1410</ele>
        <time>2022-06-05T09:05:18Z</time>
      </trkpt>
      <trkpt lat="45.0303" lon="5.84974">
        <ele>1409</ele>
        <time>2022-06-05T09:05:19Z</time>
      </trkpt>
      <trkpt lat="45.0303" lon="5.84973">
        <ele>1409</ele>
        <time>2022-06-05T09:05:20Z</time>
      </trkpt>
      <trkpt lat="45.0303" lon="5.84972">
        <ele>1408</ele>
        <time>2022-06-05T09:05:21Z</time>
      </trkpt>
      <trkpt lat="45.0303" lon="5.84971">
        <ele>1408</ele>
        <time>2022-06-05T09:05:22Z</time>
      </trkpt>
      <trkpt lat="45.03031" lon="5.84971">
        <ele>1408</ele>
        <time>2022-06-05T09:05:23Z</time>
      </trkpt>
      <trkpt lat="45.03032" lon="5.8497">
        <ele>1408</ele>
        <time>2022-06-05T09:05:24Z</time>
      </trkpt>
      <trkpt lat="45.03032" lon="5.8497">
        <ele>1408</ele>
        <time>2022-06-05T09:05:25Z</time>
      </trkpt>
      <trkpt lat="45.03032" lon="5.84969">
        <ele>1408</ele>
        <time>2022-06-05T09:05:26Z</time>
      </trkpt>
      <trkpt lat="45.03033" lon="5.84968">
        <ele>1409</ele>
        <time>2022-06-05T09:05:27Z</time>
      </trkpt>
      <trkpt lat="45.03034" lon="5.84967">
        <ele>1409</ele>
        <time>2022-06-05T09:05:28Z</time>
      </trkpt>
      <trkpt lat="45.03035" lon="5.84966">
        <ele>1408</ele>
        <time>2022-06-05T09:05:29Z</time>
      </trkpt>
      <trkpt lat="45.03035" lon="5.84965">
        <ele>1409</ele>
        <time>2022-06-05T09:05:30Z</time>
      </trkpt>
      <trkpt lat="45.03035" lon="5.84964">
        <ele>1409</ele>
        <time>2022-06-05T09:05:31Z</time>
      </trkpt>
      <trkpt lat="45.03036" lon="5.84963">
        <ele>1409</ele>
        <time>2022-06-05T09:05:32Z</time>
      </trkpt>
      <trkpt lat="45.03036" lon="5.84962">
        <ele>1409</ele>
        <time>2022-06-05T09:05:33Z</time>
      </trkpt>
      <trkpt lat="45.03037" lon="5.84961">
        <ele>1409</ele>
        <time>2022-06-05T09:05:34Z</time>
      </trkpt>
      <trkpt lat="45.03037" lon="5.8496">
        <ele>1409</ele>
        <time>2022-06-05T09:05:35Z</time>
      </trkpt>
      <trkpt lat="45.03038" lon="5.84959">
        <ele>1409</ele>
        <time>2022-06-05T09:05:36Z</time>
      </trkpt>
      <trkpt lat="45.03038" lon="5.84959">
        <ele>1408</ele>
        <time>2022-06-05T09:05:37Z</time>
      </trkpt>
      <trkpt lat="45.03038" lon="5.84957">
        <ele>1408</ele>
        <time>2022-06-05T09:05:38Z</time>
      </trkpt>
      <trkpt lat="45.03039" lon="5.84956">
        <ele>1408</ele>
        <time>2022-06-05T09:05:39Z</time>
      </trkpt>
      <trkpt lat="45.0304" lon="5.84955">
        <ele>1408</ele>
        <time>2022-06-05T09:05:40Z</time>
      </trkpt>
      <trkpt lat="45.0304" lon="5.84954">
        <ele>1407</ele>
        <time>2022-06-05T09:05:41Z</time>
      </trkpt>
      <trkpt lat="45.0304" lon="5.84953">
        <ele>1407</ele>
        <time>2022-06-05T09:05:42Z</time>
      </trkpt>
      <trkpt lat="45.03041" lon="5.84952">
        <ele>1407</ele>
        <time>2022-06-05T09:05:43Z</time>
      </trkpt>
      <trkpt lat="45.03041" lon="5.84951">
        <ele>1407</ele>
        <time>2022-06-05T09:05:44Z</time>
      </trkpt>
      <trkpt lat="45.03041" lon="5.8495">
        <ele>1407</ele>
        <time>2022-06-05T09:05:45Z</time>
      </trkpt>
      <trkpt lat="45.03042" lon="5.84949">
        <ele>1406</ele>
        <time>2022-06-05T09:05:46Z</time>
      </trkpt>
      <trkpt lat="45.03042" lon="5.84948">
        <ele>1407</ele>
        <time>2022-06-05T09:05:47Z</time>
      </trkpt>
      <trkpt lat="45.03043" lon="5.84948">
        <ele>1407</ele>
        <time>2022-06-05T09:05:48Z</time>
      </trkpt>
      <trkpt lat="45.03044" lon="5.84947">
        <ele>1407</ele>
        <time>2022-06-05T09:05:49Z</time>
      </trkpt>
      <trkpt lat="45.03045" lon="5.84946">
        <ele>1407</ele>
        <time>2022-06-05T09:05:50Z</time>
      </trkpt>
      <trkpt lat="45.03045" lon="5.84945">
        <ele>1407</ele>
        <time>2022-06-05T09:05:51Z</time>
      </trkpt>
      <trkpt lat="45.03046" lon="5.84944">
        <ele>1407</ele>
        <time>2022-06-05T09:05:52Z</time>
      </trkpt>
      <trkpt lat="45.03047" lon="5.84943">
        <ele>1408</ele>
        <time>2022-06-05T09:05:53Z</time>
      </trkpt>
      <trkpt lat="45.03048" lon="5.84942">
        <ele>1408</ele>
        <time>2022-06-05T09:05:54Z</time>
      </trkpt>
      <trkpt lat="45.03049" lon="5.84941">
        <ele>1408</ele>
        <time>2022-06-05T09:05:55Z</time>
      </trkpt>
      <trkpt lat="45.0305" lon="5.8494">
        <ele>1408</ele>
        <time>2022-06-05T09:05:56Z</time>
      </trkpt>
      <trkpt lat="45.0305" lon="5.84939">
        <ele>1408</ele>
        <time>2022-06-05T09:05:57Z</time>
      </trkpt>
      <trkpt lat="45.03051" lon="5.84938">
        <ele>1408</ele>
        <time>2022-06-05T09:05:58Z</time>
      </trkpt>
      <trkpt lat="45.03051" lon="5.84937">
        <ele>1408</ele>
        <time>2022-06-05T09:05:59Z</time>
      </trkpt>
      <trkpt lat="45.03052" lon="5.84936">
        <ele>1408</ele>
        <time>2022-06-05T09:06:00Z</time>
      </trkpt>
      <trkpt lat="45.03053" lon="5.84935">
        <ele>1408</ele>
        <time>2022-06-05T09:06:01Z</time>
      </trkpt>
      <trkpt lat="45.03053" lon="5.84934">
        <ele>1408</ele>
        <time>2022-06-05T09:06:02Z</time>
      </trkpt>
      <trkpt lat="45.03053" lon="5.84933">
        <ele>1408</ele>
        <time>2022-06-05T09:06:03Z</time>
      </trkpt>
      <trkpt lat="45.03054" lon="5.84932">
        <ele>1408</ele>
        <time>2022-06-05T09:06:04Z</time>
      </trkpt>
      <trkpt lat="45.03054" lon="5.84931">
        <ele>1407</ele>
        <time>2022-06-05T09:06:05Z</time>
      </trkpt>
      <trkpt lat="45.03056" lon="5.8493">
        <ele>1407</ele>
        <time>2022-06-05T09:06:06Z</time>
      </trkpt>
      <trkpt lat="45.03056" lon="5.8493">
        <ele>1408</ele>
        <time>2022-06-05T09:06:07Z</time>
      </trkpt>
      <trkpt lat="45.03057" lon="5.84929">
        <ele>1408</ele>
        <time>2022-06-05T09:06:08Z</time>
      </trkpt>
      <trkpt lat="45.03057" lon="5.84928">
        <ele>1408</ele>
        <time>2022-06-05T09:06:09Z</time>
      </trkpt>
      <trkpt lat="45.03058" lon="5.84927">
        <ele>1408</ele>
        <time>2022-06-05T09:06:10Z</time>
      </trkpt>
      <trkpt lat="45.03058" lon="5.84927">
        <ele>1408</ele>
        <time>2022-06-05T09:06:11Z</time>
      </trkpt>
      <trkpt lat="45.03059" lon="5.84926">
        <ele>1408</ele>
        <time>2022-06-05T09:06:12Z</time>
      </trkpt>
      <trkpt lat="45.03059" lon="5.84925">
        <ele>1408</ele>
        <time>2022-06-05T09:06:13Z</time>
      </trkpt>
      <trkpt lat="45.0306" lon="5.84924">
        <ele>1408</ele>
        <time>2022-06-05T09:06:14Z</time>
      </trkpt>
      <trkpt lat="45.0306" lon="5.84923">
        <ele>1408</ele>
        <time>2022-06-05T09:06:15Z</time>
      </trkpt>
      <trkpt lat="45.03061" lon="5.84922">
        <ele>1408</ele>
        <time>2022-06-05T09:06:16Z</time>
      </trkpt>
      <trkpt lat="45.03061" lon="5.84921">
        <ele>1408</ele>
        <time>2022-06-05T09:06:17Z</time>
      </trkpt>
      <trkpt lat="45.03061" lon="5.8492">
        <ele>1409</ele>
        <time>2022-06-05T09:06:18Z</time>
      </trkpt>
      <trkpt lat="45.03061" lon="5.84919">
        <ele>1409</ele>
        <time>2022-06-05T09:06:19Z</time>
      </trkpt>
      <trkpt lat="45.03062" lon="5.84919">
        <ele>1409</ele>
        <time>2022-06-05T09:06:20Z</time>
      </trkpt>
      <trkpt lat="45.03062" lon="5.84917">
        <ele>1409</ele>
        <time>2022-06-05T09:06:21Z</time>
      </trkpt>
      <trkpt lat="45.03062" lon="5.84916">
        <ele>1409</ele>
        <time>2022-06-05T09:06:22Z</time>
      </trkpt>
      <trkpt lat="45.03063" lon="5.84915">
        <ele>1409</ele>
        <time>2022-06-05T09:06:23Z</time>
      </trkpt>
      <trkpt lat="45.03064" lon="5.84914">
        <ele>1409</ele>
        <time>2022-06-05T09:06:24Z</time>
      </trkpt>
      <trkpt lat="45.03064" lon="5.84914">
        <ele>1409</ele>
        <time>2022-06-05T09:06:25Z</time>
      </trkpt>
      <trkpt lat="45.03064" lon="5.84914">
        <ele>1409</ele>
        <time>2022-06-05T09:06:26Z</time>
      </trkpt>
      <trkpt lat="45.03064" lon="5.84914">
        <ele>1409</ele>
        <time>2022-06-05T09:06:27Z</time>
      </trkpt>
      <trkpt lat="45.03066" lon="5.84911">
        <ele>1409</ele>
        <time>2022-06-05T09:06:28Z</time>
      </trkpt>
      <trkpt lat="45.03066" lon="5.84911">
        <ele>1409</ele>
        <time>2022-06-05T09:06:29Z</time>
      </trkpt>
      <trkpt lat="45.03066" lon="5.8491">
        <ele>1410</ele>
        <time>2022-06-05T09:06:30Z</time>
      </trkpt>
      <trkpt lat="45.03067" lon="5.84909">
        <ele>1409</ele>
        <time>2022-06-05T09:06:31Z</time>
      </trkpt>
      <trkpt lat="45.03067" lon="5.84909">
        <ele>1409</ele>
        <time>2022-06-05T09:06:32Z</time>
      </trkpt>
      <trkpt lat="45.03067" lon="5.84909">
        <ele>1409</ele>
        <time>2022-06-05T09:06:33Z</time>
      </trkpt>
      <trkpt lat="45.03069" lon="5.84908">
        <ele>1410</ele>
        <time>2022-06-05T09:06:34Z</time>
      </trkpt>
      <trkpt lat="45.03069" lon="5.84907">
        <ele>1409</ele>
        <time>2022-06-05T09:06:35Z</time>
      </trkpt>
      <trkpt lat="45.0307" lon="5.84907">
        <ele>1409</ele>
        <time>2022-06-05T09:06:36Z</time>
      </trkpt>
      <trkpt lat="45.0307" lon="5.84906">
        <ele>1409</ele>
        <time>2022-06-05T09:06:37Z</time>
      </trkpt>
      <trkpt lat="45.03071" lon="5.84905">
        <ele>1409</ele>
        <time>2022-06-05T09:06:38Z</time>
      </trkpt>
      <trkpt lat="45.03072" lon="5.84904">
        <ele>1409</ele>
        <time>2022-06-05T09:06:39Z</time>
      </trkpt>
      <trkpt lat="45.03073" lon="5.84903">
        <ele>1410</ele>
        <time>2022-06-05T09:06:40Z</time>
      </trkpt>
      <trkpt lat="45.03074" lon="5.84903">
        <ele>1410</ele>
        <time>2022-06-05T09:06:41Z</time>
      </trkpt>
      <trkpt lat="45.03074" lon="5.84901">
        <ele>1410</ele>
        <time>2022-06-05T09:06:42Z</time>
      </trkpt>
      <trkpt lat="45.03075" lon="5.849">
        <ele>1410</ele>
        <time>2022-06-05T09:06:43Z</time>
      </trkpt>
      <trkpt lat="45.03075" lon="5.84899">
        <ele>1410</ele>
        <time>2022-06-05T09:06:44Z</time>
      </trkpt>
      <trkpt lat="45.03076" lon="5.84898">
        <ele>1410</ele>
        <time>2022-06-05T09:06:45Z</time>
      </trkpt>
      <trkpt lat="45.03077" lon="5.84897">
        <ele>1410</ele>
        <time>2022-06-05T09:06:46Z</time>
      </trkpt>
      <trkpt lat="45.03078" lon="5.84897">
        <ele>1410</ele>
        <time>2022-06-05T09:06:47Z</time>
      </trkpt>
      <trkpt lat="45.03079" lon="5.84896">
        <ele>1410</ele>
        <time>2022-06-05T09:06:48Z</time>
      </trkpt>
      <trkpt lat="45.03079" lon="5.84896">
        <ele>1411</ele>
        <time>2022-06-05T09:06:49Z</time>
      </trkpt>
      <trkpt lat="45.0308" lon="5.84896">
        <ele>1411</ele>
        <time>2022-06-05T09:06:50Z</time>
      </trkpt>
      <trkpt lat="45.0308" lon="5.84895">
        <ele>1411</ele>
        <time>2022-06-05T09:06:51Z</time>
      </trkpt>
      <trkpt lat="45.03081" lon="5.84894">
        <ele>1411</ele>
        <time>2022-06-05T09:06:52Z</time>
      </trkpt>
      <trkpt lat="45.03082" lon="5.84894">
        <ele>1410</ele>
        <time>2022-06-05T09:06:53Z</time>
      </trkpt>
      <trkpt lat="45.03082" lon="5.84893">
        <ele>1410</ele>
        <time>2022-06-05T09:06:54Z</time>
      </trkpt>
      <trkpt lat="45.03083" lon="5.84893">
        <ele>1410</ele>
        <time>2022-06-05T09:06:55Z</time>
      </trkpt>
      <trkpt lat="45.03083" lon="5.84893">
        <ele>1410</ele>
        <time>2022-06-05T09:06:56Z</time>
      </trkpt>
      <trkpt lat="45.03083" lon="5.84893">
        <ele>1410</ele>
        <time>2022-06-05T09:06:57Z</time>
      </trkpt>
      <trkpt lat="45.03084" lon="5.84891">
        <ele>1411</ele>
        <time>2022-06-05T09:06:58Z</time>
      </trkpt>
      <trkpt lat="45.03085" lon="5.84891">
        <ele>1411</ele>
        <time>2022-06-05T09:06:59Z</time>
      </trkpt>
      <trkpt lat="45.03085" lon="5.84891">
        <ele>1411</ele>
        <time>2022-06-05T09:07:00Z</time>
      </trkpt>
      <trkpt lat="45.03086" lon="5.84891">
        <ele>1411</ele>
        <time>2022-06-05T09:07:01Z</time>
      </trkpt>
      <trkpt lat="45.03086" lon="5.84891">
        <ele>1411</ele>
        <time>2022-06-05T09:07:02Z</time>
      </trkpt>
      <trkpt lat="45.03086" lon="5.84891">
        <ele>1411</ele>
        <time>2022-06-05T09:07:03Z</time>
      </trkpt>
      <trkpt lat="45.03086" lon="5.84891">
        <ele>1411</ele>
        <time>2022-06-05T09:07:04Z</time>
      </trkpt>
      <trkpt lat="45.03086" lon="5.84891">
        <ele>1411</ele>
        <time>2022-06-05T09:07:04Z</time>
      </trkpt>
      <trkpt lat="45.03086" lon="5.84891">
        <ele>1411</ele>
        <time>2022-06-05T09:07:04Z</time>
      </trkpt>
      <trkpt lat="45.03091" lon="5.84885">
        <ele>1413</ele>
        <time>2022-06-05T09:07:20Z</time>
      </trkpt>
      <trkpt lat="45.03092" lon="5.84885">
        <ele>1412</ele>
        <time>2022-06-05T09:07:21Z</time>
      </trkpt>
      <trkpt lat="45.03092" lon="5.84885">
        <ele>1412</ele>
        <time>2022-06-05T09:07:22Z</time>
      </trkpt>
      <trkpt lat="45.03093" lon="5.84884">
        <ele>1412</ele>
        <time>2022-06-05T09:07:23Z</time>
      </trkpt>
      <trkpt lat="45.03093" lon="5.84883">
        <ele>1412</ele>
        <time>2022-06-05T09:07:24Z</time>
      </trkpt>
      <trkpt lat="45.03093" lon="5.84883">
        <ele>1413</ele>
        <time>2022-06-05T09:07:25Z</time>
      </trkpt>
      <trkpt lat="45.03093" lon="5.84882">
        <ele>1413</ele>
        <time>2022-06-05T09:07:26Z</time>
      </trkpt>
      <trkpt lat="45.03093" lon="5.84882">
        <ele>1414</ele>
        <time>2022-06-05T09:07:27Z</time>
      </trkpt>
      <trkpt lat="45.03093" lon="5.84882">
        <ele>1414</ele>
        <time>2022-06-05T09:07:28Z</time>
      </trkpt>
      <trkpt lat="45.03093" lon="5.84882">
        <ele>1414</ele>
        <time>2022-06-05T09:07:29Z</time>
      </trkpt>
      <trkpt lat="45.03093" lon="5.84882">
        <ele>1414</ele>
        <time>2022-06-05T09:07:29Z</time>
      </trkpt>
      <trkpt lat="45.03093" lon="5.84882">
        <ele>1414</ele>
        <time>2022-06-05T09:07:29Z</time>
      </trkpt>
      <trkpt lat="45.03097" lon="5.84881">
        <ele>1414</ele>
        <time>2022-06-05T09:07:35Z</time>
      </trkpt>
      <trkpt lat="45.03098" lon="5.84881">
        <ele>1414</ele>
        <time>2022-06-05T09:07:36Z</time>
      </trkpt>
      <trkpt lat="45.03099" lon="5.8488">
        <ele>1413</ele>
        <time>2022-06-05T09:07:37Z</time>
      </trkpt>
      <trkpt lat="45.031" lon="5.8488">
        <ele>1412</ele>
        <time>2022-06-05T09:07:38Z</time>
      </trkpt>
      <trkpt lat="45.03101" lon="5.8488">
        <ele>1412</ele>
        <time>2022-06-05T09:07:39Z</time>
      </trkpt>
      <trkpt lat="45.03101" lon="5.84879">
        <ele>1412</ele>
        <time>2022-06-05T09:07:40Z</time>
      </trkpt>
      <trkpt lat="45.03102" lon="5.84878">
        <ele>1412</ele>
        <time>2022-06-05T09:07:41Z</time>
      </trkpt>
      <trkpt lat="45.03103" lon="5.84878">
        <ele>1412</ele>
        <time>2022-06-05T09:07:42Z</time>
      </trkpt>
      <trkpt lat="45.03103" lon="5.84877">
        <ele>1411</ele>
        <time>2022-06-05T09:07:43Z</time>
      </trkpt>
      <trkpt lat="45.03104" lon="5.84877">
        <ele>1411</ele>
        <time>2022-06-05T09:07:44Z</time>
      </trkpt>
      <trkpt lat="45.03105" lon="5.84876">
        <ele>1411</ele>
        <time>2022-06-05T09:07:45Z</time>
      </trkpt>
      <trkpt lat="45.03105" lon="5.84875">
        <ele>1410</ele>
        <time>2022-06-05T09:07:46Z</time>
      </trkpt>
      <trkpt lat="45.03106" lon="5.84875">
        <ele>1410</ele>
        <time>2022-06-05T09:07:47Z</time>
      </trkpt>
      <trkpt lat="45.03106" lon="5.84874">
        <ele>1410</ele>
        <time>2022-06-05T09:07:48Z</time>
      </trkpt>
      <trkpt lat="45.03107" lon="5.84873">
        <ele>1410</ele>
        <time>2022-06-05T09:07:49Z</time>
      </trkpt>
      <trkpt lat="45.03108" lon="5.84872">
        <ele>1410</ele>
        <time>2022-06-05T09:07:50Z</time>
      </trkpt>
      <trkpt lat="45.03109" lon="5.84871">
        <ele>1410</ele>
        <time>2022-06-05T09:07:51Z</time>
      </trkpt>
      <trkpt lat="45.0311" lon="5.84871">
        <ele>1410</ele>
        <time>2022-06-05T09:07:52Z</time>
      </trkpt>
      <trkpt lat="45.03111" lon="5.8487">
        <ele>1410</ele>
        <time>2022-06-05T09:07:53Z</time>
      </trkpt>
      <trkpt lat="45.03111" lon="5.8487">
        <ele>1409</ele>
        <time>2022-06-05T09:07:54Z</time>
      </trkpt>
      <trkpt lat="45.03112" lon="5.84869">
        <ele>1409</ele>
        <time>2022-06-05T09:07:55Z</time>
      </trkpt>
      <trkpt lat="45.03113" lon="5.84869">
        <ele>1408</ele>
        <time>2022-06-05T09:07:56Z</time>
      </trkpt>
      <trkpt lat="45.03114" lon="5.84869">
        <ele>1408</ele>
        <time>2022-06-05T09:07:57Z</time>
      </trkpt>
      <trkpt lat="45.03114" lon="5.84868">
        <ele>1408</ele>
        <time>2022-06-05T09:07:58Z</time>
      </trkpt>
      <trkpt lat="45.03116" lon="5.84868">
        <ele>1408</ele>
        <time>2022-06-05T09:07:59Z</time>
      </trkpt>
      <trkpt lat="45.03116" lon="5.84867">
        <ele>1407</ele>
        <time>2022-06-05T09:08:00Z</time>
      </trkpt>
      <trkpt lat="45.03117" lon="5.84867">
        <ele>1407</ele>
        <time>2022-06-05T09:08:01Z</time>
      </trkpt>
      <trkpt lat="45.03117" lon="5.84867">
        <ele>1407</ele>
        <time>2022-06-05T09:08:02Z</time>
      </trkpt>
      <trkpt lat="45.03119" lon="5.84867">
        <ele>1407</ele>
        <time>2022-06-05T09:08:03Z</time>
      </trkpt>
      <trkpt lat="45.03119" lon="5.84866">
        <ele>1407</ele>
        <time>2022-06-05T09:08:04Z</time>
      </trkpt>
      <trkpt lat="45.03119" lon="5.84866">
        <ele>1406</ele>
        <time>2022-06-05T09:08:05Z</time>
      </trkpt>
      <trkpt lat="45.0312" lon="5.84866">
        <ele>1406</ele>
        <time>2022-06-05T09:08:06Z</time>
      </trkpt>
      <trkpt lat="45.03121" lon="5.84865">
        <ele>1406</ele>
        <time>2022-06-05T09:08:07Z</time>
      </trkpt>
      <trkpt lat="45.03122" lon="5.84864">
        <ele>1406</ele>
        <time>2022-06-05T09:08:08Z</time>
      </trkpt>
      <trkpt lat="45.03123" lon="5.84864">
        <ele>1406</ele>
        <time>2022-06-05T09:08:09Z</time>
      </trkpt>
      <trkpt lat="45.03124" lon="5.84864">
        <ele>1406</ele>
        <time>2022-06-05T09:08:10Z</time>
      </trkpt>
      <trkpt lat="45.03125" lon="5.84863">
        <ele>1407</ele>
        <time>2022-06-05T09:08:11Z</time>
      </trkpt>
      <trkpt lat="45.03125" lon="5.84863">
        <ele>1406</ele>
        <time>2022-06-05T09:08:12Z</time>
      </trkpt>
      <trkpt lat="45.03126" lon="5.84863">
        <ele>1406</ele>
        <time>2022-06-05T09:08:13Z</time>
      </trkpt>
      <trkpt lat="45.03127" lon="5.84862">
        <ele>1405</ele>
        <time>2022-06-05T09:08:14Z</time>
      </trkpt>
      <trkpt lat="45.03128" lon="5.84861">
        <ele>1405</ele>
        <time>2022-06-05T09:08:15Z</time>
      </trkpt>
      <trkpt lat="45.03128" lon="5.8486">
        <ele>1405</ele>
        <time>2022-06-05T09:08:16Z</time>
      </trkpt>
      <trkpt lat="45.0313" lon="5.8486">
        <ele>1406</ele>
        <time>2022-06-05T09:08:17Z</time>
      </trkpt>
      <trkpt lat="45.0313" lon="5.84859">
        <ele>1406</ele>
        <time>2022-06-05T09:08:18Z</time>
      </trkpt>
      <trkpt lat="45.03131" lon="5.84859">
        <ele>1406</ele>
        <time>2022-06-05T09:08:19Z</time>
      </trkpt>
      <trkpt lat="45.03131" lon="5.84858">
        <ele>1405</ele>
        <time>2022-06-05T09:08:20Z</time>
      </trkpt>
      <trkpt lat="45.03132" lon="5.84858">
        <ele>1405</ele>
        <time>2022-06-05T09:08:21Z</time>
      </trkpt>
      <trkpt lat="45.03133" lon="5.84858">
        <ele>1405</ele>
        <time>2022-06-05T09:08:22Z</time>
      </trkpt>
      <trkpt lat="45.03134" lon="5.84857">
        <ele>1406</ele>
        <time>2022-06-05T09:08:23Z</time>
      </trkpt>
      <trkpt lat="45.03135" lon="5.84856">
        <ele>1406</ele>
        <time>2022-06-05T09:08:24Z</time>
      </trkpt>
      <trkpt lat="45.03135" lon="5.84855">
        <ele>1406</ele>
        <time>2022-06-05T09:08:25Z</time>
      </trkpt>
      <trkpt lat="45.03135" lon="5.84854">
        <ele>1406</ele>
        <time>2022-06-05T09:08:26Z</time>
      </trkpt>
      <trkpt lat="45.03136" lon="5.84853">
        <ele>1405</ele>
        <time>2022-06-05T09:08:27Z</time>
      </trkpt>
      <trkpt lat="45.03137" lon="5.84852">
        <ele>1405</ele>
        <time>2022-06-05T09:08:28Z</time>
      </trkpt>
      <trkpt lat="45.03138" lon="5.8485">
        <ele>1405</ele>
        <time>2022-06-05T09:08:29Z</time>
      </trkpt>
      <trkpt lat="45.03139" lon="5.84849">
        <ele>1405</ele>
        <time>2022-06-05T09:08:30Z</time>
      </trkpt>
      <trkpt lat="45.0314" lon="5.84848">
        <ele>1405</ele>
        <time>2022-06-05T09:08:31Z</time>
      </trkpt>
      <trkpt lat="45.0314" lon="5.84848">
        <ele>1405</ele>
        <time>2022-06-05T09:08:32Z</time>
      </trkpt>
      <trkpt lat="45.03141" lon="5.84847">
        <ele>1405</ele>
        <time>2022-06-05T09:08:33Z</time>
      </trkpt>
      <trkpt lat="45.03142" lon="5.84846">
        <ele>1405</ele>
        <time>2022-06-05T09:08:34Z</time>
      </trkpt>
      <trkpt lat="45.03143" lon="5.84846">
        <ele>1405</ele>
        <time>2022-06-05T09:08:35Z</time>
      </trkpt>
      <trkpt lat="45.03143" lon="5.84845">
        <ele>1405</ele>
        <time>2022-06-05T09:08:36Z</time>
      </trkpt>
      <trkpt lat="45.03144" lon="5.84844">
        <ele>1404</ele>
        <time>2022-06-05T09:08:37Z</time>
      </trkpt>
      <trkpt lat="45.03145" lon="5.84843">
        <ele>1405</ele>
        <time>2022-06-05T09:08:38Z</time>
      </trkpt>
      <trkpt lat="45.03146" lon="5.84843">
        <ele>1404</ele>
        <time>2022-06-05T09:08:39Z</time>
      </trkpt>
      <trkpt lat="45.03146" lon="5.84843">
        <ele>1405</ele>
        <time>2022-06-05T09:08:40Z</time>
      </trkpt>
      <trkpt lat="45.03147" lon="5.84842">
        <ele>1405</ele>
        <time>2022-06-05T09:08:41Z</time>
      </trkpt>
      <trkpt lat="45.03148" lon="5.84842">
        <ele>1404</ele>
        <time>2022-06-05T09:08:42Z</time>
      </trkpt>
      <trkpt lat="45.03149" lon="5.8484">
        <ele>1404</ele>
        <time>2022-06-05T09:08:43Z</time>
      </trkpt>
      <trkpt lat="45.03149" lon="5.8484">
        <ele>1405</ele>
        <time>2022-06-05T09:08:44Z</time>
      </trkpt>
      <trkpt lat="45.0315" lon="5.84839">
        <ele>1404</ele>
        <time>2022-06-05T09:08:45Z</time>
      </trkpt>
      <trkpt lat="45.03151" lon="5.84839">
        <ele>1404</ele>
        <time>2022-06-05T09:08:46Z</time>
      </trkpt>
      <trkpt lat="45.03152" lon="5.84839">
        <ele>1404</ele>
        <time>2022-06-05T09:08:47Z</time>
      </trkpt>
      <trkpt lat="45.03153" lon="5.84838">
        <ele>1405</ele>
        <time>2022-06-05T09:08:48Z</time>
      </trkpt>
      <trkpt lat="45.03153" lon="5.84838">
        <ele>1405</ele>
        <time>2022-06-05T09:08:49Z</time>
      </trkpt>
      <trkpt lat="45.03154" lon="5.84837">
        <ele>1405</ele>
        <time>2022-06-05T09:08:50Z</time>
      </trkpt>
      <trkpt lat="45.03155" lon="5.84837">
        <ele>1405</ele>
        <time>2022-06-05T09:08:51Z</time>
      </trkpt>
      <trkpt lat="45.03156" lon="5.84837">
        <ele>1405</ele>
        <time>2022-06-05T09:08:52Z</time>
      </trkpt>
      <trkpt lat="45.03156" lon="5.84836">
        <ele>1404</ele>
        <time>2022-06-05T09:08:53Z</time>
      </trkpt>
      <trkpt lat="45.03157" lon="5.84836">
        <ele>1404</ele>
        <time>2022-06-05T09:08:54Z</time>
      </trkpt>
      <trkpt lat="45.03158" lon="5.84835">
        <ele>1404</ele>
        <time>2022-06-05T09:08:55Z</time>
      </trkpt>
      <trkpt lat="45.03159" lon="5.84834">
        <ele>1404</ele>
        <time>2022-06-05T09:08:56Z</time>
      </trkpt>
      <trkpt lat="45.0316" lon="5.84834">
        <ele>1404</ele>
        <time>2022-06-05T09:08:57Z</time>
      </trkpt>
      <trkpt lat="45.0316" lon="5.84833">
        <ele>1404</ele>
        <time>2022-06-05T09:08:58Z</time>
      </trkpt>
      <trkpt lat="45.03161" lon="5.84832">
        <ele>1404</ele>
        <time>2022-06-05T09:08:59Z</time>
      </trkpt>
      <trkpt lat="45.03162" lon="5.84832">
        <ele>1403</ele>
        <time>2022-06-05T09:09:00Z</time>
      </trkpt>
      <trkpt lat="45.03163" lon="5.84831">
        <ele>1403</ele>
        <time>2022-06-05T09:09:01Z</time>
      </trkpt>
      <trkpt lat="45.03164" lon="5.8483">
        <ele>1403</ele>
        <time>2022-06-05T09:09:02Z</time>
      </trkpt>
      <trkpt lat="45.03165" lon="5.84829">
        <ele>1403</ele>
        <time>2022-06-05T09:09:03Z</time>
      </trkpt>
      <trkpt lat="45.03165" lon="5.84829">
        <ele>1403</ele>
        <time>2022-06-05T09:09:04Z</time>
      </trkpt>
      <trkpt lat="45.03165" lon="5.84828">
        <ele>1403</ele>
        <time>2022-06-05T09:09:05Z</time>
      </trkpt>
      <trkpt lat="45.03166" lon="5.84827">
        <ele>1402</ele>
        <time>2022-06-05T09:09:06Z</time>
      </trkpt>
      <trkpt lat="45.03167" lon="5.84827">
        <ele>1402</ele>
        <time>2022-06-05T09:09:07Z</time>
      </trkpt>
      <trkpt lat="45.03168" lon="5.84827">
        <ele>1402</ele>
        <time>2022-06-05T09:09:08Z</time>
      </trkpt>
      <trkpt lat="45.03169" lon="5.84826">
        <ele>1402</ele>
        <time>2022-06-05T09:09:09Z</time>
      </trkpt>
      <trkpt lat="45.0317" lon="5.84826">
        <ele>1402</ele>
        <time>2022-06-05T09:09:10Z</time>
      </trkpt>
      <trkpt lat="45.03171" lon="5.84825">
        <ele>1402</ele>
        <time>2022-06-05T09:09:11Z</time>
      </trkpt>
      <trkpt lat="45.03172" lon="5.84824">
        <ele>1402</ele>
        <time>2022-06-05T09:09:12Z</time>
      </trkpt>
      <trkpt lat="45.03173" lon="5.84824">
        <ele>1402</ele>
        <time>2022-06-05T09:09:13Z</time>
      </trkpt>
      <trkpt lat="45.03173" lon="5.84824">
        <ele>1402</ele>
        <time>2022-06-05T09:09:14Z</time>
      </trkpt>
      <trkpt lat="45.03174" lon="5.84823">
        <ele>1402</ele>
        <time>2022-06-05T09:09:15Z</time>
      </trkpt>
      <trkpt lat="45.03175" lon="5.84822">
        <ele>1402</ele>
        <time>2022-06-05T09:09:16Z</time>
      </trkpt>
      <trkpt lat="45.03176" lon="5.84823">
        <ele>1403</ele>
        <time>2022-06-05T09:09:17Z</time>
      </trkpt>
      <trkpt lat="45.03177" lon="5.84822">
        <ele>1403</ele>
        <time>2022-06-05T09:09:18Z</time>
      </trkpt>
      <trkpt lat="45.03178" lon="5.84821">
        <ele>1403</ele>
        <time>2022-06-05T09:09:19Z</time>
      </trkpt>
      <trkpt lat="45.03179" lon="5.84821">
        <ele>1404</ele>
        <time>2022-06-05T09:09:20Z</time>
      </trkpt>
      <trkpt lat="45.0318" lon="5.8482">
        <ele>1404</ele>
        <time>2022-06-05T09:09:21Z</time>
      </trkpt>
      <trkpt lat="45.0318" lon="5.8482">
        <ele>1404</ele>
        <time>2022-06-05T09:09:22Z</time>
      </trkpt>
      <trkpt lat="45.03181" lon="5.84819">
        <ele>1405</ele>
        <time>2022-06-05T09:09:23Z</time>
      </trkpt>
      <trkpt lat="45.03182" lon="5.84819">
        <ele>1405</ele>
        <time>2022-06-05T09:09:24Z</time>
      </trkpt>
      <trkpt lat="45.03183" lon="5.84818">
        <ele>1405</ele>
        <time>2022-06-05T09:09:25Z</time>
      </trkpt>
      <trkpt lat="45.03184" lon="5.84818">
        <ele>1404</ele>
        <time>2022-06-05T09:09:26Z</time>
      </trkpt>
      <trkpt lat="45.03185" lon="5.84817">
        <ele>1404</ele>
        <time>2022-06-05T09:09:27Z</time>
      </trkpt>
      <trkpt lat="45.03186" lon="5.84816">
        <ele>1404</ele>
        <time>2022-06-05T09:09:28Z</time>
      </trkpt>
      <trkpt lat="45.03186" lon="5.84815">
        <ele>1403</ele>
        <time>2022-06-05T09:09:29Z</time>
      </trkpt>
      <trkpt lat="45.03187" lon="5.84814">
        <ele>1403</ele>
        <time>2022-06-05T09:09:30Z</time>
      </trkpt>
      <trkpt lat="45.03188" lon="5.84813">
        <ele>1403</ele>
        <time>2022-06-05T09:09:31Z</time>
      </trkpt>
      <trkpt lat="45.03189" lon="5.84813">
        <ele>1404</ele>
        <time>2022-06-05T09:09:32Z</time>
      </trkpt>
      <trkpt lat="45.0319" lon="5.84812">
        <ele>1404</ele>
        <time>2022-06-05T09:09:33Z</time>
      </trkpt>
      <trkpt lat="45.03191" lon="5.84811">
        <ele>1403</ele>
        <time>2022-06-05T09:09:34Z</time>
      </trkpt>
      <trkpt lat="45.03191" lon="5.84811">
        <ele>1403</ele>
        <time>2022-06-05T09:09:35Z</time>
      </trkpt>
      <trkpt lat="45.03192" lon="5.84811">
        <ele>1402</ele>
        <time>2022-06-05T09:09:36Z</time>
      </trkpt>
      <trkpt lat="45.03193" lon="5.84811">
        <ele>1402</ele>
        <time>2022-06-05T09:09:37Z</time>
      </trkpt>
      <trkpt lat="45.03194" lon="5.8481">
        <ele>1402</ele>
        <time>2022-06-05T09:09:38Z</time>
      </trkpt>
      <trkpt lat="45.03195" lon="5.8481">
        <ele>1402</ele>
        <time>2022-06-05T09:09:39Z</time>
      </trkpt>
      <trkpt lat="45.03196" lon="5.8481">
        <ele>1402</ele>
        <time>2022-06-05T09:09:40Z</time>
      </trkpt>
      <trkpt lat="45.03196" lon="5.84809">
        <ele>1402</ele>
        <time>2022-06-05T09:09:41Z</time>
      </trkpt>
      <trkpt lat="45.03197" lon="5.84809">
        <ele>1402</ele>
        <time>2022-06-05T09:09:42Z</time>
      </trkpt>
      <trkpt lat="45.03198" lon="5.84808">
        <ele>1402</ele>
        <time>2022-06-05T09:09:43Z</time>
      </trkpt>
      <trkpt lat="45.03199" lon="5.84808">
        <ele>1403</ele>
        <time>2022-06-05T09:09:44Z</time>
      </trkpt>
      <trkpt lat="45.032" lon="5.84807">
        <ele>1402</ele>
        <time>2022-06-05T09:09:45Z</time>
      </trkpt>
      <trkpt lat="45.03201" lon="5.84806">
        <ele>1402</ele>
        <time>2022-06-05T09:09:46Z</time>
      </trkpt>
      <trkpt lat="45.03202" lon="5.84805">
        <ele>1402</ele>
        <time>2022-06-05T09:09:47Z</time>
      </trkpt>
      <trkpt lat="45.03202" lon="5.84805">
        <ele>1402</ele>
        <time>2022-06-05T09:09:48Z</time>
      </trkpt>
      <trkpt lat="45.03203" lon="5.84804">
        <ele>1402</ele>
        <time>2022-06-05T09:09:49Z</time>
      </trkpt>
      <trkpt lat="45.03204" lon="5.84803">
        <ele>1402</ele>
        <time>2022-06-05T09:09:50Z</time>
      </trkpt>
      <trkpt lat="45.03204" lon="5.84802">
        <ele>1402</ele>
        <time>2022-06-05T09:09:51Z</time>
      </trkpt>
      <trkpt lat="45.03205" lon="5.84801">
        <ele>1402</ele>
        <time>2022-06-05T09:09:52Z</time>
      </trkpt>
      <trkpt lat="45.03206" lon="5.848">
        <ele>1402</ele>
        <time>2022-06-05T09:09:53Z</time>
      </trkpt>
      <trkpt lat="45.03207" lon="5.84799">
        <ele>1402</ele>
        <time>2022-06-05T09:09:54Z</time>
      </trkpt>
      <trkpt lat="45.03208" lon="5.84798">
        <ele>1402</ele>
        <time>2022-06-05T09:09:55Z</time>
      </trkpt>
      <trkpt lat="45.03209" lon="5.84797">
        <ele>1402</ele>
        <time>2022-06-05T09:09:56Z</time>
      </trkpt>
      <trkpt lat="45.03209" lon="5.84797">
        <ele>1402</ele>
        <time>2022-06-05T09:09:57Z</time>
      </trkpt>
      <trkpt lat="45.0321" lon="5.84796">
        <ele>1402</ele>
        <time>2022-06-05T09:09:58Z</time>
      </trkpt>
      <trkpt lat="45.0321" lon="5.84796">
        <ele>1401</ele>
        <time>2022-06-05T09:09:59Z</time>
      </trkpt>
      <trkpt lat="45.03211" lon="5.84795">
        <ele>1401</ele>
        <time>2022-06-05T09:10:00Z</time>
      </trkpt>
      <trkpt lat="45.03212" lon="5.84795">
        <ele>1401</ele>
        <time>2022-06-05T09:10:01Z</time>
      </trkpt>
      <trkpt lat="45.03212" lon="5.84793">
        <ele>1401</ele>
        <time>2022-06-05T09:10:02Z</time>
      </trkpt>
      <trkpt lat="45.03214" lon="5.84792">
        <ele>1401</ele>
        <time>2022-06-05T09:10:03Z</time>
      </trkpt>
      <trkpt lat="45.03214" lon="5.84791">
        <ele>1400</ele>
        <time>2022-06-05T09:10:04Z</time>
      </trkpt>
      <trkpt lat="45.03214" lon="5.8479">
        <ele>1400</ele>
        <time>2022-06-05T09:10:05Z</time>
      </trkpt>
      <trkpt lat="45.03215" lon="5.8479">
        <ele>1400</ele>
        <time>2022-06-05T09:10:06Z</time>
      </trkpt>
      <trkpt lat="45.03216" lon="5.84789">
        <ele>1400</ele>
        <time>2022-06-05T09:10:07Z</time>
      </trkpt>
      <trkpt lat="45.03216" lon="5.84788">
        <ele>1401</ele>
        <time>2022-06-05T09:10:08Z</time>
      </trkpt>
      <trkpt lat="45.03217" lon="5.84788">
        <ele>1400</ele>
        <time>2022-06-05T09:10:09Z</time>
      </trkpt>
      <trkpt lat="45.03217" lon="5.84787">
        <ele>1401</ele>
        <time>2022-06-05T09:10:10Z</time>
      </trkpt>
      <trkpt lat="45.03218" lon="5.84786">
        <ele>1401</ele>
        <time>2022-06-05T09:10:11Z</time>
      </trkpt>
      <trkpt lat="45.03219" lon="5.84785">
        <ele>1401</ele>
        <time>2022-06-05T09:10:12Z</time>
      </trkpt>
      <trkpt lat="45.03219" lon="5.84785">
        <ele>1401</ele>
        <time>2022-06-05T09:10:13Z</time>
      </trkpt>
      <trkpt lat="45.0322" lon="5.84784">
        <ele>1401</ele>
        <time>2022-06-05T09:10:14Z</time>
      </trkpt>
      <trkpt lat="45.03221" lon="5.84784">
        <ele>1401</ele>
        <time>2022-06-05T09:10:15Z</time>
      </trkpt>
      <trkpt lat="45.03221" lon="5.84784">
        <ele>1401</ele>
        <time>2022-06-05T09:10:16Z</time>
      </trkpt>
      <trkpt lat="45.03221" lon="5.84784">
        <ele>1401</ele>
        <time>2022-06-05T09:10:17Z</time>
      </trkpt>
      <trkpt lat="45.03223" lon="5.84782">
        <ele>1401</ele>
        <time>2022-06-05T09:10:18Z</time>
      </trkpt>
      <trkpt lat="45.03223" lon="5.84782">
        <ele>1401</ele>
        <time>2022-06-05T09:10:19Z</time>
      </trkpt>
      <trkpt lat="45.03225" lon="5.84782">
        <ele>1401</ele>
        <time>2022-06-05T09:10:20Z</time>
      </trkpt>
      <trkpt lat="45.03225" lon="5.84781">
        <ele>1402</ele>
        <time>2022-06-05T09:10:21Z</time>
      </trkpt>
      <trkpt lat="45.03226" lon="5.8478">
        <ele>1402</ele>
        <time>2022-06-05T09:10:22Z</time>
      </trkpt>
      <trkpt lat="45.03227" lon="5.84779">
        <ele>1402</ele>
        <time>2022-06-05T09:10:23Z</time>
      </trkpt>
      <trkpt lat="45.03228" lon="5.84777">
        <ele>1402</ele>
        <time>2022-06-05T09:10:24Z</time>
      </trkpt>
      <trkpt lat="45.0323" lon="5.84777">
        <ele>1402</ele>
        <time>2022-06-05T09:10:25Z</time>
      </trkpt>
      <trkpt lat="45.0323" lon="5.84776">
        <ele>1402</ele>
        <time>2022-06-05T09:10:26Z</time>
      </trkpt>
      <trkpt lat="45.0323" lon="5.84775">
        <ele>1402</ele>
        <time>2022-06-05T09:10:27Z</time>
      </trkpt>
      <trkpt lat="45.03231" lon="5.84775">
        <ele>1402</ele>
        <time>2022-06-05T09:10:28Z</time>
      </trkpt>
      <trkpt lat="45.03231" lon="5.84774">
        <ele>1402</ele>
        <time>2022-06-05T09:10:29Z</time>
      </trkpt>
      <trkpt lat="45.03232" lon="5.84773">
        <ele>1401</ele>
        <time>2022-06-05T09:10:30Z</time>
      </trkpt>
      <trkpt lat="45.03233" lon="5.84773">
        <ele>1402</ele>
        <time>2022-06-05T09:10:31Z</time>
      </trkpt>
      <trkpt lat="45.03233" lon="5.84772">
        <ele>1401</ele>
        <time>2022-06-05T09:10:32Z</time>
      </trkpt>
      <trkpt lat="45.03234" lon="5.84771">
        <ele>1401</ele>
        <time>2022-06-05T09:10:33Z</time>
      </trkpt>
      <trkpt lat="45.03235" lon="5.8477">
        <ele>1401</ele>
        <time>2022-06-05T09:10:34Z</time>
      </trkpt>
      <trkpt lat="45.03235" lon="5.84769">
        <ele>1401</ele>
        <time>2022-06-05T09:10:35Z</time>
      </trkpt>
      <trkpt lat="45.03235" lon="5.84768">
        <ele>1400</ele>
        <time>2022-06-05T09:10:36Z</time>
      </trkpt>
      <trkpt lat="45.03236" lon="5.84767">
        <ele>1400</ele>
        <time>2022-06-05T09:10:37Z</time>
      </trkpt>
      <trkpt lat="45.03236" lon="5.84767">
        <ele>1399</ele>
        <time>2022-06-05T09:10:38Z</time>
      </trkpt>
      <trkpt lat="45.03237" lon="5.84766">
        <ele>1399</ele>
        <time>2022-06-05T09:10:39Z</time>
      </trkpt>
      <trkpt lat="45.03238" lon="5.84765">
        <ele>1400</ele>
        <time>2022-06-05T09:10:40Z</time>
      </trkpt>
      <trkpt lat="45.03239" lon="5.84764">
        <ele>1400</ele>
        <time>2022-06-05T09:10:41Z</time>
      </trkpt>
      <trkpt lat="45.03239" lon="5.84764">
        <ele>1400</ele>
        <time>2022-06-05T09:10:42Z</time>
      </trkpt>
      <trkpt lat="45.0324" lon="5.84763">
        <ele>1400</ele>
        <time>2022-06-05T09:10:43Z</time>
      </trkpt>
      <trkpt lat="45.03241" lon="5.84763">
        <ele>1399</ele>
        <time>2022-06-05T09:10:44Z</time>
      </trkpt>
      <trkpt lat="45.03242" lon="5.84762">
        <ele>1399</ele>
        <time>2022-06-05T09:10:45Z</time>
      </trkpt>
      <trkpt lat="45.03243" lon="5.8476">
        <ele>1399</ele>
        <time>2022-06-05T09:10:46Z</time>
      </trkpt>
      <trkpt lat="45.03244" lon="5.84759">
        <ele>1398</ele>
        <time>2022-06-05T09:10:47Z</time>
      </trkpt>
      <trkpt lat="45.03244" lon="5.84758">
        <ele>1397</ele>
        <time>2022-06-05T09:10:48Z</time>
      </trkpt>
      <trkpt lat="45.03245" lon="5.84757">
        <ele>1397</ele>
        <time>2022-06-05T09:10:49Z</time>
      </trkpt>
      <trkpt lat="45.03246" lon="5.84756">
        <ele>1397</ele>
        <time>2022-06-05T09:10:50Z</time>
      </trkpt>
      <trkpt lat="45.03247" lon="5.84756">
        <ele>1397</ele>
        <time>2022-06-05T09:10:51Z</time>
      </trkpt>
      <trkpt lat="45.03247" lon="5.84755">
        <ele>1397</ele>
        <time>2022-06-05T09:10:52Z</time>
      </trkpt>
      <trkpt lat="45.03248" lon="5.84755">
        <ele>1397</ele>
        <time>2022-06-05T09:10:53Z</time>
      </trkpt>
      <trkpt lat="45.03249" lon="5.84754">
        <ele>1398</ele>
        <time>2022-06-05T09:10:54Z</time>
      </trkpt>
      <trkpt lat="45.0325" lon="5.84753">
        <ele>1398</ele>
        <time>2022-06-05T09:10:55Z</time>
      </trkpt>
      <trkpt lat="45.03251" lon="5.84753">
        <ele>1398</ele>
        <time>2022-06-05T09:10:56Z</time>
      </trkpt>
      <trkpt lat="45.03252" lon="5.84753">
        <ele>1398</ele>
        <time>2022-06-05T09:10:57Z</time>
      </trkpt>
      <trkpt lat="45.03252" lon="5.84752">
        <ele>1399</ele>
        <time>2022-06-05T09:10:58Z</time>
      </trkpt>
      <trkpt lat="45.03252" lon="5.84752">
        <ele>1399</ele>
        <time>2022-06-05T09:10:59Z</time>
      </trkpt>
      <trkpt lat="45.03253" lon="5.84752">
        <ele>1400</ele>
        <time>2022-06-05T09:11:00Z</time>
      </trkpt>
      <trkpt lat="45.03254" lon="5.84751">
        <ele>1400</ele>
        <time>2022-06-05T09:11:01Z</time>
      </trkpt>
      <trkpt lat="45.03255" lon="5.8475">
        <ele>1400</ele>
        <time>2022-06-05T09:11:02Z</time>
      </trkpt>
      <trkpt lat="45.03255" lon="5.84749">
        <ele>1400</ele>
        <time>2022-06-05T09:11:03Z</time>
      </trkpt>
      <trkpt lat="45.03256" lon="5.84748">
        <ele>1400</ele>
        <time>2022-06-05T09:11:04Z</time>
      </trkpt>
      <trkpt lat="45.03257" lon="5.84747">
        <ele>1400</ele>
        <time>2022-06-05T09:11:05Z</time>
      </trkpt>
      <trkpt lat="45.03257" lon="5.84746">
        <ele>1400</ele>
        <time>2022-06-05T09:11:06Z</time>
      </trkpt>
      <trkpt lat="45.03258" lon="5.84745">
        <ele>1400</ele>
        <time>2022-06-05T09:11:07Z</time>
      </trkpt>
      <trkpt lat="45.03259" lon="5.84743">
        <ele>1400</ele>
        <time>2022-06-05T09:11:08Z</time>
      </trkpt>
      <trkpt lat="45.0326" lon="5.84743">
        <ele>1399</ele>
        <time>2022-06-05T09:11:09Z</time>
      </trkpt>
      <trkpt lat="45.0326" lon="5.84742">
        <ele>1398</ele>
        <time>2022-06-05T09:11:10Z</time>
      </trkpt>
      <trkpt lat="45.03261" lon="5.84742">
        <ele>1399</ele>
        <time>2022-06-05T09:11:11Z</time>
      </trkpt>
      <trkpt lat="45.03262" lon="5.84742">
        <ele>1399</ele>
        <time>2022-06-05T09:11:12Z</time>
      </trkpt>
      <trkpt lat="45.03263" lon="5.84741">
        <ele>1398</ele>
        <time>2022-06-05T09:11:13Z</time>
      </trkpt>
      <trkpt lat="45.03263" lon="5.84741">
        <ele>1399</ele>
        <time>2022-06-05T09:11:14Z</time>
      </trkpt>
      <trkpt lat="45.03264" lon="5.84741">
        <ele>1399</ele>
        <time>2022-06-05T09:11:15Z</time>
      </trkpt>
      <trkpt lat="45.03264" lon="5.84741">
        <ele>1398</ele>
        <time>2022-06-05T09:11:16Z</time>
      </trkpt>
      <trkpt lat="45.03265" lon="5.84741">
        <ele>1398</ele>
        <time>2022-06-05T09:11:17Z</time>
      </trkpt>
      <trkpt lat="45.03266" lon="5.8474">
        <ele>1398</ele>
        <time>2022-06-05T09:11:18Z</time>
      </trkpt>
      <trkpt lat="45.03267" lon="5.84739">
        <ele>1397</ele>
        <time>2022-06-05T09:11:19Z</time>
      </trkpt>
      <trkpt lat="45.03267" lon="5.84738">
        <ele>1397</ele>
        <time>2022-06-05T09:11:20Z</time>
      </trkpt>
      <trkpt lat="45.03268" lon="5.84737">
        <ele>1398</ele>
        <time>2022-06-05T09:11:21Z</time>
      </trkpt>
      <trkpt lat="45.03268" lon="5.84736">
        <ele>1398</ele>
        <time>2022-06-05T09:11:22Z</time>
      </trkpt>
      <trkpt lat="45.03269" lon="5.84735">
        <ele>1398</ele>
        <time>2022-06-05T09:11:23Z</time>
      </trkpt>
      <trkpt lat="45.0327" lon="5.84734">
        <ele>1398</ele>
        <time>2022-06-05T09:11:24Z</time>
      </trkpt>
      <trkpt lat="45.0327" lon="5.84734">
        <ele>1398</ele>
        <time>2022-06-05T09:11:25Z</time>
      </trkpt>
      <trkpt lat="45.03271" lon="5.84733">
        <ele>1397</ele>
        <time>2022-06-05T09:11:26Z</time>
      </trkpt>
      <trkpt lat="45.03272" lon="5.84731">
        <ele>1397</ele>
        <time>2022-06-05T09:11:27Z</time>
      </trkpt>
      <trkpt lat="45.03272" lon="5.84731">
        <ele>1397</ele>
        <time>2022-06-05T09:11:28Z</time>
      </trkpt>
      <trkpt lat="45.03273" lon="5.8473">
        <ele>1397</ele>
        <time>2022-06-05T09:11:29Z</time>
      </trkpt>
      <trkpt lat="45.03274" lon="5.84729">
        <ele>1397</ele>
        <time>2022-06-05T09:11:30Z</time>
      </trkpt>
      <trkpt lat="45.03275" lon="5.84728">
        <ele>1397</ele>
        <time>2022-06-05T09:11:31Z</time>
      </trkpt>
      <trkpt lat="45.03276" lon="5.84728">
        <ele>1397</ele>
        <time>2022-06-05T09:11:32Z</time>
      </trkpt>
      <trkpt lat="45.03276" lon="5.84727">
        <ele>1397</ele>
        <time>2022-06-05T09:11:33Z</time>
      </trkpt>
      <trkpt lat="45.03278" lon="5.84726">
        <ele>1397</ele>
        <time>2022-06-05T09:11:34Z</time>
      </trkpt>
      <trkpt lat="45.03278" lon="5.84725">
        <ele>1397</ele>
        <time>2022-06-05T09:11:35Z</time>
      </trkpt>
      <trkpt lat="45.03278" lon="5.84725">
        <ele>1396</ele>
        <time>2022-06-05T09:11:36Z</time>
      </trkpt>
      <trkpt lat="45.03279" lon="5.84724">
        <ele>1396</ele>
        <time>2022-06-05T09:11:37Z</time>
      </trkpt>
      <trkpt lat="45.03279" lon="5.84724">
        <ele>1396</ele>
        <time>2022-06-05T09:11:38Z</time>
      </trkpt>
      <trkpt lat="45.03279" lon="5.84724">
        <ele>1396</ele>
        <time>2022-06-05T09:11:39Z</time>
      </trkpt>
      <trkpt lat="45.03281" lon="5.84722">
        <ele>1395</ele>
        <time>2022-06-05T09:11:40Z</time>
      </trkpt>
      <trkpt lat="45.03281" lon="5.84721">
        <ele>1396</ele>
        <time>2022-06-05T09:11:41Z</time>
      </trkpt>
      <trkpt lat="45.03281" lon="5.8472">
        <ele>1396</ele>
        <time>2022-06-05T09:11:42Z</time>
      </trkpt>
      <trkpt lat="45.03282" lon="5.84719">
        <ele>1396</ele>
        <time>2022-06-05T09:11:43Z</time>
      </trkpt>
      <trkpt lat="45.03283" lon="5.84718">
        <ele>1396</ele>
        <time>2022-06-05T09:11:44Z</time>
      </trkpt>
      <trkpt lat="45.03283" lon="5.84717">
        <ele>1396</ele>
        <time>2022-06-05T09:11:45Z</time>
      </trkpt>
      <trkpt lat="45.03284" lon="5.84717">
        <ele>1396</ele>
        <time>2022-06-05T09:11:46Z</time>
      </trkpt>
      <trkpt lat="45.03284" lon="5.84716">
        <ele>1396</ele>
        <time>2022-06-05T09:11:47Z</time>
      </trkpt>
      <trkpt lat="45.03285" lon="5.84716">
        <ele>1396</ele>
        <time>2022-06-05T09:11:48Z</time>
      </trkpt>
      <trkpt lat="45.03286" lon="5.84716">
        <ele>1396</ele>
        <time>2022-06-05T09:11:49Z</time>
      </trkpt>
      <trkpt lat="45.03286" lon="5.84715">
        <ele>1397</ele>
        <time>2022-06-05T09:11:50Z</time>
      </trkpt>
      <trkpt lat="45.03286" lon="5.84714">
        <ele>1397</ele>
        <time>2022-06-05T09:11:51Z</time>
      </trkpt>
      <trkpt lat="45.03287" lon="5.84714">
        <ele>1397</ele>
        <time>2022-06-05T09:11:52Z</time>
      </trkpt>
      <trkpt lat="45.03287" lon="5.84714">
        <ele>1397</ele>
        <time>2022-06-05T09:11:53Z</time>
      </trkpt>
      <trkpt lat="45.03287" lon="5.84714">
        <ele>1397</ele>
        <time>2022-06-05T09:11:54Z</time>
      </trkpt>
      <trkpt lat="45.03287" lon="5.84714">
        <ele>1397</ele>
        <time>2022-06-05T09:11:55Z</time>
      </trkpt>
      <trkpt lat="45.03287" lon="5.84714">
        <ele>1397</ele>
        <time>2022-06-05T09:11:55Z</time>
      </trkpt>
      <trkpt lat="45.03287" lon="5.84714">
        <ele>1397</ele>
        <time>2022-06-05T09:11:55Z</time>
      </trkpt>
      <trkpt lat="45.03291" lon="5.8471">
        <ele>1401</ele>
        <time>2022-06-05T09:12:29Z</time>
      </trkpt>
      <trkpt lat="45.03291" lon="5.8471">
        <ele>1401</ele>
        <time>2022-06-05T09:12:30Z</time>
      </trkpt>
      <trkpt lat="45.03292" lon="5.84709">
        <ele>1401</ele>
        <time>2022-06-05T09:12:31Z</time>
      </trkpt>
      <trkpt lat="45.03293" lon="5.84708">
        <ele>1401</ele>
        <time>2022-06-05T09:12:32Z</time>
      </trkpt>
      <trkpt lat="45.03293" lon="5.84708">
        <ele>1401</ele>
        <time>2022-06-05T09:12:33Z</time>
      </trkpt>
      <trkpt lat="45.03294" lon="5.84707">
        <ele>1402</ele>
        <time>2022-06-05T09:12:34Z</time>
      </trkpt>
      <trkpt lat="45.03294" lon="5.84707">
        <ele>1403</ele>
        <time>2022-06-05T09:12:35Z</time>
      </trkpt>
      <trkpt lat="45.03294" lon="5.84707">
        <ele>1403</ele>
        <time>2022-06-05T09:12:36Z</time>
      </trkpt>
      <trkpt lat="45.03294" lon="5.84707">
        <ele>1403</ele>
        <time>2022-06-05T09:12:37Z</time>
      </trkpt>
      <trkpt lat="45.03294" lon="5.84707">
        <ele>1403</ele>
        <time>2022-06-05T09:12:38Z</time>
      </trkpt>
      <trkpt lat="45.03296" lon="5.84706">
        <ele>1404</ele>
        <time>2022-06-05T09:12:39Z</time>
      </trkpt>
      <trkpt lat="45.03296" lon="5.84705">
        <ele>1404</ele>
        <time>2022-06-05T09:12:40Z</time>
      </trkpt>
      <trkpt lat="45.03296" lon="5.84705">
        <ele>1404</ele>
        <time>2022-06-05T09:12:41Z</time>
      </trkpt>
      <trkpt lat="45.03297" lon="5.84705">
        <ele>1404</ele>
        <time>2022-06-05T09:12:42Z</time>
      </trkpt>
      <trkpt lat="45.03297" lon="5.84705">
        <ele>1404</ele>
        <time>2022-06-05T09:12:43Z</time>
      </trkpt>
      <trkpt lat="45.03297" lon="5.84705">
        <ele>1404</ele>
        <time>2022-06-05T09:12:44Z</time>
      </trkpt>
      <trkpt lat="45.03297" lon="5.84703">
        <ele>1405</ele>
        <time>2022-06-05T09:12:45Z</time>
      </trkpt>
      <trkpt lat="45.03297" lon="5.84703">
        <ele>1405</ele>
        <time>2022-06-05T09:12:46Z</time>
      </trkpt>
      <trkpt lat="45.03296" lon="5.84703">
        <ele>1405</ele>
        <time>2022-06-05T09:12:47Z</time>
      </trkpt>
      <trkpt lat="45.03296" lon="5.84702">
        <ele>1405</ele>
        <time>2022-06-05T09:12:48Z</time>
      </trkpt>
      <trkpt lat="45.03296" lon="5.84702">
        <ele>1405</ele>
        <time>2022-06-05T09:12:49Z</time>
      </trkpt>
      <trkpt lat="45.03296" lon="5.84702">
        <ele>1405</ele>
        <time>2022-06-05T09:12:49Z</time>
      </trkpt>
      <trkpt lat="45.03296" lon="5.84702">
        <ele>1405</ele>
        <time>2022-06-05T09:12:49Z</time>
      </trkpt>
      <trkpt lat="45.03308" lon="5.84691">
        <ele>1408</ele>
        <time>2022-06-05T09:13:33Z</time>
      </trkpt>
      <trkpt lat="45.03309" lon="5.8469">
        <ele>1408</ele>
        <time>2022-06-05T09:13:34Z</time>
      </trkpt>
      <trkpt lat="45.0331" lon="5.8469">
        <ele>1408</ele>
        <time>2022-06-05T09:13:35Z</time>
      </trkpt>
      <trkpt lat="45.0331" lon="5.8469">
        <ele>1409</ele>
        <time>2022-06-05T09:13:36Z</time>
      </trkpt>
      <trkpt lat="45.0331" lon="5.84689">
        <ele>1409</ele>
        <time>2022-06-05T09:13:37Z</time>
      </trkpt>
      <trkpt lat="45.03311" lon="5.84689">
        <ele>1409</ele>
        <time>2022-06-05T09:13:38Z</time>
      </trkpt>
      <trkpt lat="45.03312" lon="5.84688">
        <ele>1409</ele>
        <time>2022-06-05T09:13:39Z</time>
      </trkpt>
      <trkpt lat="45.03312" lon="5.84689">
        <ele>1409</ele>
        <time>2022-06-05T09:13:40Z</time>
      </trkpt>
      <trkpt lat="45.03312" lon="5.84689">
        <ele>1409</ele>
        <time>2022-06-05T09:13:41Z</time>
      </trkpt>
      <trkpt lat="45.03313" lon="5.84688">
        <ele>1409</ele>
        <time>2022-06-05T09:13:42Z</time>
      </trkpt>
      <trkpt lat="45.03314" lon="5.84688">
        <ele>1409</ele>
        <time>2022-06-05T09:13:43Z</time>
      </trkpt>
      <trkpt lat="45.03314" lon="5.84687">
        <ele>1409</ele>
        <time>2022-06-05T09:13:44Z</time>
      </trkpt>
      <trkpt lat="45.03315" lon="5.84687">
        <ele>1409</ele>
        <time>2022-06-05T09:13:45Z</time>
      </trkpt>
      <trkpt lat="45.03315" lon="5.84686">
        <ele>1409</ele>
        <time>2022-06-05T09:13:46Z</time>
      </trkpt>
      <trkpt lat="45.03316" lon="5.84685">
        <ele>1408</ele>
        <time>2022-06-05T09:13:47Z</time>
      </trkpt>
      <trkpt lat="45.03317" lon="5.84685">
        <ele>1408</ele>
        <time>2022-06-05T09:13:48Z</time>
      </trkpt>
      <trkpt lat="45.03318" lon="5.84683">
        <ele>1408</ele>
        <time>2022-06-05T09:13:49Z</time>
      </trkpt>
      <trkpt lat="45.03318" lon="5.84683">
        <ele>1408</ele>
        <time>2022-06-05T09:13:50Z</time>
      </trkpt>
      <trkpt lat="45.03318" lon="5.84682">
        <ele>1408</ele>
        <time>2022-06-05T09:13:51Z</time>
      </trkpt>
      <trkpt lat="45.03319" lon="5.84681">
        <ele>1407</ele>
        <time>2022-06-05T09:13:52Z</time>
      </trkpt>
      <trkpt lat="45.0332" lon="5.8468">
        <ele>1407</ele>
        <time>2022-06-05T09:13:53Z</time>
      </trkpt>
      <trkpt lat="45.0332" lon="5.84679">
        <ele>1407</ele>
        <time>2022-06-05T09:13:54Z</time>
      </trkpt>
      <trkpt lat="45.0332" lon="5.84678">
        <ele>1408</ele>
        <time>2022-06-05T09:13:55Z</time>
      </trkpt>
      <trkpt lat="45.03321" lon="5.84677">
        <ele>1408</ele>
        <time>2022-06-05T09:13:56Z</time>
      </trkpt>
      <trkpt lat="45.03322" lon="5.84676">
        <ele>1408</ele>
        <time>2022-06-05T09:13:57Z</time>
      </trkpt>
      <trkpt lat="45.03323" lon="5.84676">
        <ele>1407</ele>
        <time>2022-06-05T09:13:58Z</time>
      </trkpt>
      <trkpt lat="45.03323" lon="5.84675">
        <ele>1407</ele>
        <time>2022-06-05T09:13:59Z</time>
      </trkpt>
      <trkpt lat="45.03323" lon="5.84675">
        <ele>1407</ele>
        <time>2022-06-05T09:14:00Z</time>
      </trkpt>
      <trkpt lat="45.03323" lon="5.84675">
        <ele>1407</ele>
        <time>2022-06-05T09:14:01Z</time>
      </trkpt>
      <trkpt lat="45.03324" lon="5.84675">
        <ele>1407</ele>
        <time>2022-06-05T09:14:02Z</time>
      </trkpt>
      <trkpt lat="45.03324" lon="5.84674">
        <ele>1407</ele>
        <time>2022-06-05T09:14:03Z</time>
      </trkpt>
      <trkpt lat="45.03325" lon="5.84674">
        <ele>1407</ele>
        <time>2022-06-05T09:14:04Z</time>
      </trkpt>
      <trkpt lat="45.03326" lon="5.84674">
        <ele>1408</ele>
        <time>2022-06-05T09:14:05Z</time>
      </trkpt>
      <trkpt lat="45.03326" lon="5.84674">
        <ele>1409</ele>
        <time>2022-06-05T09:14:06Z</time>
      </trkpt>
      <trkpt lat="45.03326" lon="5.84674">
        <ele>1410</ele>
        <time>2022-06-05T09:14:07Z</time>
      </trkpt>
      <trkpt lat="45.03326" lon="5.84674">
        <ele>1410</ele>
        <time>2022-06-05T09:14:08Z</time>
      </trkpt>
      <trkpt lat="45.03326" lon="5.84674">
        <ele>1410</ele>
        <time>2022-06-05T09:14:09Z</time>
      </trkpt>
      <trkpt lat="45.03327" lon="5.84672">
        <ele>1410</ele>
        <time>2022-06-05T09:14:10Z</time>
      </trkpt>
      <trkpt lat="45.03328" lon="5.84672">
        <ele>1410</ele>
        <time>2022-06-05T09:14:11Z</time>
      </trkpt>
      <trkpt lat="45.03328" lon="5.84672">
        <ele>1410</ele>
        <time>2022-06-05T09:14:12Z</time>
      </trkpt>
      <trkpt lat="45.0333" lon="5.84672">
        <ele>1411</ele>
        <time>2022-06-05T09:14:13Z</time>
      </trkpt>
      <trkpt lat="45.0333" lon="5.84671">
        <ele>1411</ele>
        <time>2022-06-05T09:14:14Z</time>
      </trkpt>
      <trkpt lat="45.0333" lon="5.8467">
        <ele>1412</ele>
        <time>2022-06-05T09:14:15Z</time>
      </trkpt>
      <trkpt lat="45.03331" lon="5.84669">
        <ele>1412</ele>
        <time>2022-06-05T09:14:16Z</time>
      </trkpt>
      <trkpt lat="45.03331" lon="5.84668">
        <ele>1411</ele>
        <time>2022-06-05T09:14:17Z</time>
      </trkpt>
      <trkpt lat="45.03332" lon="5.84667">
        <ele>1411</ele>
        <time>2022-06-05T09:14:18Z</time>
      </trkpt>
      <trkpt lat="45.03333" lon="5.84667">
        <ele>1410</ele>
        <time>2022-06-05T09:14:19Z</time>
      </trkpt>
      <trkpt lat="45.03333" lon="5.84667">
        <ele>1411</ele>
        <time>2022-06-05T09:14:20Z</time>
      </trkpt>
      <trkpt lat="45.03333" lon="5.84666">
        <ele>1411</ele>
        <time>2022-06-05T09:14:21Z</time>
      </trkpt>
      <trkpt lat="45.03333" lon="5.84666">
        <ele>1410</ele>
        <time>2022-06-05T09:14:22Z</time>
      </trkpt>
      <trkpt lat="45.03333" lon="5.84666">
        <ele>1410</ele>
        <time>2022-06-05T09:14:23Z</time>
      </trkpt>
      <trkpt lat="45.03334" lon="5.84665">
        <ele>1411</ele>
        <time>2022-06-05T09:14:24Z</time>
      </trkpt>
      <trkpt lat="45.03334" lon="5.84665">
        <ele>1411</ele>
        <time>2022-06-05T09:14:25Z</time>
      </trkpt>
      <trkpt lat="45.03335" lon="5.84664">
        <ele>1411</ele>
        <time>2022-06-05T09:14:26Z</time>
      </trkpt>
      <trkpt lat="45.03336" lon="5.84663">
        <ele>1411</ele>
        <time>2022-06-05T09:14:27Z</time>
      </trkpt>
      <trkpt lat="45.03336" lon="5.84663">
        <ele>1411</ele>
        <time>2022-06-05T09:14:28Z</time>
      </trkpt>
      <trkpt lat="45.03336" lon="5.84663">
        <ele>1411</ele>
        <time>2022-06-05T09:14:29Z</time>
      </trkpt>
      <trkpt lat="45.03336" lon="5.84663">
        <ele>1411</ele>
        <time>2022-06-05T09:14:30Z</time>
      </trkpt>
      <trkpt lat="45.03337" lon="5.84662">
        <ele>1411</ele>
        <time>2022-06-05T09:14:31Z</time>
      </trkpt>
      <trkpt lat="45.03338" lon="5.84661">
        <ele>1412</ele>
        <time>2022-06-05T09:14:32Z</time>
      </trkpt>
      <trkpt lat="45.03338" lon="5.8466">
        <ele>1412</ele>
        <time>2022-06-05T09:14:33Z</time>
      </trkpt>
      <trkpt lat="45.03338" lon="5.84659">
        <ele>1411</ele>
        <time>2022-06-05T09:14:34Z</time>
      </trkpt>
      <trkpt lat="45.03339" lon="5.84658">
        <ele>1412</ele>
        <time>2022-06-05T09:14:35Z</time>
      </trkpt>
      <trkpt lat="45.0334" lon="5.84658">
        <ele>1412</ele>
        <time>2022-06-05T09:14:36Z</time>
      </trkpt>
      <trkpt lat="45.03341" lon="5.84657">
        <ele>1412</ele>
        <time>2022-06-05T09:14:37Z</time>
      </trkpt>
      <trkpt lat="45.03341" lon="5.84657">
        <ele>1413</ele>
        <time>2022-06-05T09:14:38Z</time>
      </trkpt>
      <trkpt lat="45.03341" lon="5.84656">
        <ele>1413</ele>
        <time>2022-06-05T09:14:39Z</time>
      </trkpt>
      <trkpt lat="45.03342" lon="5.84656">
        <ele>1413</ele>
        <time>2022-06-05T09:14:40Z</time>
      </trkpt>
      <trkpt lat="45.03342" lon="5.84655">
        <ele>1412</ele>
        <time>2022-06-05T09:14:41Z</time>
      </trkpt>
      <trkpt lat="45.03342" lon="5.84653">
        <ele>1412</ele>
        <time>2022-06-05T09:14:42Z</time>
      </trkpt>
      <trkpt lat="45.03342" lon="5.84653">
        <ele>1412</ele>
        <time>2022-06-05T09:14:42Z</time>
      </trkpt>
      <trkpt lat="45.03342" lon="5.84653">
        <ele>1412</ele>
        <time>2022-06-05T09:14:42Z</time>
      </trkpt>
      <trkpt lat="45.03343" lon="5.84649">
        <ele>1409</ele>
        <time>2022-06-05T09:14:51Z</time>
      </trkpt>
      <trkpt lat="45.03344" lon="5.84649">
        <ele>1410</ele>
        <time>2022-06-05T09:14:52Z</time>
      </trkpt>
      <trkpt lat="45.03344" lon="5.84649">
        <ele>1409</ele>
        <time>2022-06-05T09:14:53Z</time>
      </trkpt>
      <trkpt lat="45.03345" lon="5.84649">
        <ele>1409</ele>
        <time>2022-06-05T09:14:54Z</time>
      </trkpt>
      <trkpt lat="45.03346" lon="5.84648">
        <ele>1409</ele>
        <time>2022-06-05T09:14:55Z</time>
      </trkpt>
      <trkpt lat="45.03346" lon="5.84646">
        <ele>1409</ele>
        <time>2022-06-05T09:14:56Z</time>
      </trkpt>
      <trkpt lat="45.03347" lon="5.84645">
        <ele>1409</ele>
        <time>2022-06-05T09:14:57Z</time>
      </trkpt>
      <trkpt lat="45.03348" lon="5.84644">
        <ele>1409</ele>
        <time>2022-06-05T09:14:58Z</time>
      </trkpt>
      <trkpt lat="45.03348" lon="5.84643">
        <ele>1409</ele>
        <time>2022-06-05T09:14:59Z</time>
      </trkpt>
      <trkpt lat="45.03349" lon="5.84642">
        <ele>1409</ele>
        <time>2022-06-05T09:15:00Z</time>
      </trkpt>
      <trkpt lat="45.03349" lon="5.84642">
        <ele>1409</ele>
        <time>2022-06-05T09:15:01Z</time>
      </trkpt>
      <trkpt lat="45.03349" lon="5.8464">
        <ele>1408</ele>
        <time>2022-06-05T09:15:02Z</time>
      </trkpt>
      <trkpt lat="45.0335" lon="5.84639">
        <ele>1407</ele>
        <time>2022-06-05T09:15:03Z</time>
      </trkpt>
      <trkpt lat="45.0335" lon="5.84638">
        <ele>1407</ele>
        <time>2022-06-05T09:15:04Z</time>
      </trkpt>
      <trkpt lat="45.03351" lon="5.84637">
        <ele>1406</ele>
        <time>2022-06-05T09:15:05Z</time>
      </trkpt>
      <trkpt lat="45.03352" lon="5.84635">
        <ele>1406</ele>
        <time>2022-06-05T09:15:06Z</time>
      </trkpt>
      <trkpt lat="45.03352" lon="5.84634">
        <ele>1406</ele>
        <time>2022-06-05T09:15:07Z</time>
      </trkpt>
      <trkpt lat="45.03353" lon="5.84633">
        <ele>1406</ele>
        <time>2022-06-05T09:15:08Z</time>
      </trkpt>
      <trkpt lat="45.03354" lon="5.84631">
        <ele>1406</ele>
        <time>2022-06-05T09:15:09Z</time>
      </trkpt>
      <trkpt lat="45.03354" lon="5.84629">
        <ele>1406</ele>
        <time>2022-06-05T09:15:10Z</time>
      </trkpt>
      <trkpt lat="45.03355" lon="5.84629">
        <ele>1406</ele>
        <time>2022-06-05T09:15:11Z</time>
      </trkpt>
      <trkpt lat="45.03355" lon="5.84628">
        <ele>1406</ele>
        <time>2022-06-05T09:15:12Z</time>
      </trkpt>
      <trkpt lat="45.03355" lon="5.84628">
        <ele>1407</ele>
        <time>2022-06-05T09:15:13Z</time>
      </trkpt>
      <trkpt lat="45.03356" lon="5.84627">
        <ele>1406</ele>
        <time>2022-06-05T09:15:14Z</time>
      </trkpt>
      <trkpt lat="45.03357" lon="5.84625">
        <ele>1406</ele>
        <time>2022-06-05T09:15:15Z</time>
      </trkpt>
      <trkpt lat="45.03358" lon="5.84624">
        <ele>1406</ele>
        <time>2022-06-05T09:15:16Z</time>
      </trkpt>
      <trkpt lat="45.03358" lon="5.84623">
        <ele>1406</ele>
        <time>2022-06-05T09:15:17Z</time>
      </trkpt>
      <trkpt lat="45.03358" lon="5.84623">
        <ele>1406</ele>
        <time>2022-06-05T09:15:18Z</time>
      </trkpt>
      <trkpt lat="45.03358" lon="5.84623">
        <ele>1406</ele>
        <time>2022-06-05T09:15:19Z</time>
      </trkpt>
      <trkpt lat="45.03359" lon="5.84622">
        <ele>1406</ele>
        <time>2022-06-05T09:15:20Z</time>
      </trkpt>
      <trkpt lat="45.0336" lon="5.8462">
        <ele>1406</ele>
        <time>2022-06-05T09:15:21Z</time>
      </trkpt>
      <trkpt lat="45.03361" lon="5.84619">
        <ele>1406</ele>
        <time>2022-06-05T09:15:22Z</time>
      </trkpt>
      <trkpt lat="45.03361" lon="5.84619">
        <ele>1406</ele>
        <time>2022-06-05T09:15:23Z</time>
      </trkpt>
      <trkpt lat="45.03361" lon="5.84619">
        <ele>1406</ele>
        <time>2022-06-05T09:15:24Z</time>
      </trkpt>
      <trkpt lat="45.03361" lon="5.84619">
        <ele>1406</ele>
        <time>2022-06-05T09:15:24Z</time>
      </trkpt>
      <trkpt lat="45.03361" lon="5.84619">
        <ele>1406</ele>
        <time>2022-06-05T09:15:24Z</time>
      </trkpt>
      <trkpt lat="45.03366" lon="5.8461">
        <ele>1407</ele>
        <time>2022-06-05T09:15:32Z</time>
      </trkpt>
      <trkpt lat="45.03367" lon="5.84609">
        <ele>1407</ele>
        <time>2022-06-05T09:15:33Z</time>
      </trkpt>
      <trkpt lat="45.03367" lon="5.84608">
        <ele>1407</ele>
        <time>2022-06-05T09:15:34Z</time>
      </trkpt>
      <trkpt lat="45.03368" lon="5.84607">
        <ele>1407</ele>
        <time>2022-06-05T09:15:35Z</time>
      </trkpt>
      <trkpt lat="45.03369" lon="5.84607">
        <ele>1407</ele>
        <time>2022-06-05T09:15:36Z</time>
      </trkpt>
      <trkpt lat="45.03371" lon="5.84606">
        <ele>1408</ele>
        <time>2022-06-05T09:15:37Z</time>
      </trkpt>
      <trkpt lat="45.03371" lon="5.84606">
        <ele>1407</ele>
        <time>2022-06-05T09:15:38Z</time>
      </trkpt>
      <trkpt lat="45.03372" lon="5.84605">
        <ele>1407</ele>
        <time>2022-06-05T09:15:39Z</time>
      </trkpt>
      <trkpt lat="45.03372" lon="5.84604">
        <ele>1408</ele>
        <time>2022-06-05T09:15:40Z</time>
      </trkpt>
      <trkpt lat="45.03373" lon="5.84603">
        <ele>1408</ele>
        <time>2022-06-05T09:15:41Z</time>
      </trkpt>
      <trkpt lat="45.03373" lon="5.84602">
        <ele>1408</ele>
        <time>2022-06-05T09:15:42Z</time>
      </trkpt>
      <trkpt lat="45.03374" lon="5.84602">
        <ele>1408</ele>
        <time>2022-06-05T09:15:43Z</time>
      </trkpt>
      <trkpt lat="45.03375" lon="5.84601">
        <ele>1408</ele>
        <time>2022-06-05T09:15:44Z</time>
      </trkpt>
      <trkpt lat="45.03376" lon="5.846">
        <ele>1409</ele>
        <time>2022-06-05T09:15:45Z</time>
      </trkpt>
      <trkpt lat="45.03376" lon="5.84599">
        <ele>1409</ele>
        <time>2022-06-05T09:15:46Z</time>
      </trkpt>
      <trkpt lat="45.03377" lon="5.84599">
        <ele>1409</ele>
        <time>2022-06-05T09:15:47Z</time>
      </trkpt>
      <trkpt lat="45.03378" lon="5.84598">
        <ele>1408</ele>
        <time>2022-06-05T09:15:48Z</time>
      </trkpt>
      <trkpt lat="45.03378" lon="5.84598">
        <ele>1408</ele>
        <time>2022-06-05T09:15:49Z</time>
      </trkpt>
      <trkpt lat="45.03378" lon="5.84598">
        <ele>1408</ele>
        <time>2022-06-05T09:15:50Z</time>
      </trkpt>
      <trkpt lat="45.03378" lon="5.84597">
        <ele>1408</ele>
        <time>2022-06-05T09:15:51Z</time>
      </trkpt>
      <trkpt lat="45.03378" lon="5.84596">
        <ele>1408</ele>
        <time>2022-06-05T09:15:52Z</time>
      </trkpt>
      <trkpt lat="45.03379" lon="5.84595">
        <ele>1408</ele>
        <time>2022-06-05T09:15:53Z</time>
      </trkpt>
      <trkpt lat="45.0338" lon="5.84595">
        <ele>1409</ele>
        <time>2022-06-05T09:15:54Z</time>
      </trkpt>
      <trkpt lat="45.03381" lon="5.84595">
        <ele>1409</ele>
        <time>2022-06-05T09:15:55Z</time>
      </trkpt>
      <trkpt lat="45.03381" lon="5.84594">
        <ele>1409</ele>
        <time>2022-06-05T09:15:56Z</time>
      </trkpt>
      <trkpt lat="45.03382" lon="5.84593">
        <ele>1409</ele>
        <time>2022-06-05T09:15:57Z</time>
      </trkpt>
      <trkpt lat="45.03382" lon="5.84593">
        <ele>1409</ele>
        <time>2022-06-05T09:15:58Z</time>
      </trkpt>
      <trkpt lat="45.03382" lon="5.84592">
        <ele>1410</ele>
        <time>2022-06-05T09:15:59Z</time>
      </trkpt>
      <trkpt lat="45.03381" lon="5.84592">
        <ele>1410</ele>
        <time>2022-06-05T09:16:00Z</time>
      </trkpt>
      <trkpt lat="45.03381" lon="5.84592">
        <ele>1410</ele>
        <time>2022-06-05T09:16:01Z</time>
      </trkpt>
      <trkpt lat="45.03381" lon="5.84592">
        <ele>1410</ele>
        <time>2022-06-05T09:16:02Z</time>
      </trkpt>
      <trkpt lat="45.03383" lon="5.84591">
        <ele>1410</ele>
        <time>2022-06-05T09:16:03Z</time>
      </trkpt>
      <trkpt lat="45.03384" lon="5.84591">
        <ele>1410</ele>
        <time>2022-06-05T09:16:04Z</time>
      </trkpt>
      <trkpt lat="45.03385" lon="5.84591">
        <ele>1410</ele>
        <time>2022-06-05T09:16:05Z</time>
      </trkpt>
      <trkpt lat="45.03386" lon="5.8459">
        <ele>1410</ele>
        <time>2022-06-05T09:16:06Z</time>
      </trkpt>
      <trkpt lat="45.03387" lon="5.84589">
        <ele>1410</ele>
        <time>2022-06-05T09:16:07Z</time>
      </trkpt>
      <trkpt lat="45.03388" lon="5.84588">
        <ele>1410</ele>
        <time>2022-06-05T09:16:08Z</time>
      </trkpt>
      <trkpt lat="45.03388" lon="5.84587">
        <ele>1410</ele>
        <time>2022-06-05T09:16:09Z</time>
      </trkpt>
      <trkpt lat="45.03389" lon="5.84587">
        <ele>1409</ele>
        <time>2022-06-05T09:16:10Z</time>
      </trkpt>
      <trkpt lat="45.03389" lon="5.84586">
        <ele>1409</ele>
        <time>2022-06-05T09:16:11Z</time>
      </trkpt>
      <trkpt lat="45.03389" lon="5.84585">
        <ele>1409</ele>
        <time>2022-06-05T09:16:12Z</time>
      </trkpt>
      <trkpt lat="45.0339" lon="5.84584">
        <ele>1409</ele>
        <time>2022-06-05T09:16:13Z</time>
      </trkpt>
      <trkpt lat="45.03391" lon="5.84583">
        <ele>1409</ele>
        <time>2022-06-05T09:16:14Z</time>
      </trkpt>
      <trkpt lat="45.03391" lon="5.84582">
        <ele>1410</ele>
        <time>2022-06-05T09:16:15Z</time>
      </trkpt>
      <trkpt lat="45.03392" lon="5.8458">
        <ele>1410</ele>
        <time>2022-06-05T09:16:16Z</time>
      </trkpt>
      <trkpt lat="45.03393" lon="5.8458">
        <ele>1410</ele>
        <time>2022-06-05T09:16:17Z</time>
      </trkpt>
      <trkpt lat="45.03394" lon="5.84579">
        <ele>1410</ele>
        <time>2022-06-05T09:16:18Z</time>
      </trkpt>
      <trkpt lat="45.03396" lon="5.84577">
        <ele>1410</ele>
        <time>2022-06-05T09:16:19Z</time>
      </trkpt>
      <trkpt lat="45.03396" lon="5.84576">
        <ele>1410</ele>
        <time>2022-06-05T09:16:20Z</time>
      </trkpt>
      <trkpt lat="45.03396" lon="5.84575">
        <ele>1410</ele>
        <time>2022-06-05T09:16:21Z</time>
      </trkpt>
      <trkpt lat="45.03397" lon="5.84574">
        <ele>1410</ele>
        <time>2022-06-05T09:16:22Z</time>
      </trkpt>
      <trkpt lat="45.03398" lon="5.84572">
        <ele>1411</ele>
        <time>2022-06-05T09:16:23Z</time>
      </trkpt>
      <trkpt lat="45.03399" lon="5.84571">
        <ele>1411</ele>
        <time>2022-06-05T09:16:24Z</time>
      </trkpt>
      <trkpt lat="45.03399" lon="5.84569">
        <ele>1411</ele>
        <time>2022-06-05T09:16:25Z</time>
      </trkpt>
      <trkpt lat="45.034" lon="5.84568">
        <ele>1411</ele>
        <time>2022-06-05T09:16:26Z</time>
      </trkpt>
      <trkpt lat="45.03401" lon="5.84567">
        <ele>1411</ele>
        <time>2022-06-05T09:16:27Z</time>
      </trkpt>
      <trkpt lat="45.03401" lon="5.84566">
        <ele>1411</ele>
        <time>2022-06-05T09:16:28Z</time>
      </trkpt>
      <trkpt lat="45.03402" lon="5.84565">
        <ele>1410</ele>
        <time>2022-06-05T09:16:29Z</time>
      </trkpt>
      <trkpt lat="45.03401" lon="5.84564">
        <ele>1410</ele>
        <time>2022-06-05T09:16:30Z</time>
      </trkpt>
      <trkpt lat="45.03401" lon="5.84563">
        <ele>1410</ele>
        <time>2022-06-05T09:16:31Z</time>
      </trkpt>
      <trkpt lat="45.03402" lon="5.84561">
        <ele>1410</ele>
        <time>2022-06-05T09:16:32Z</time>
      </trkpt>
      <trkpt lat="45.03402" lon="5.84559">
        <ele>1410</ele>
        <time>2022-06-05T09:16:33Z</time>
      </trkpt>
      <trkpt lat="45.03402" lon="5.84558">
        <ele>1409</ele>
        <time>2022-06-05T09:16:34Z</time>
      </trkpt>
      <trkpt lat="45.03402" lon="5.84557">
        <ele>1408</ele>
        <time>2022-06-05T09:16:35Z</time>
      </trkpt>
      <trkpt lat="45.03402" lon="5.84555">
        <ele>1408</ele>
        <time>2022-06-05T09:16:36Z</time>
      </trkpt>
      <trkpt lat="45.03402" lon="5.84554">
        <ele>1408</ele>
        <time>2022-06-05T09:16:37Z</time>
      </trkpt>
      <trkpt lat="45.03403" lon="5.84553">
        <ele>1408</ele>
        <time>2022-06-05T09:16:38Z</time>
      </trkpt>
      <trkpt lat="45.03404" lon="5.84552">
        <ele>1408</ele>
        <time>2022-06-05T09:16:39Z</time>
      </trkpt>
      <trkpt lat="45.03404" lon="5.84551">
        <ele>1408</ele>
        <time>2022-06-05T09:16:40Z</time>
      </trkpt>
      <trkpt lat="45.03404" lon="5.8455">
        <ele>1407</ele>
        <time>2022-06-05T09:16:41Z</time>
      </trkpt>
      <trkpt lat="45.03404" lon="5.84549">
        <ele>1408</ele>
        <time>2022-06-05T09:16:42Z</time>
      </trkpt>
      <trkpt lat="45.03404" lon="5.84548">
        <ele>1407</ele>
        <time>2022-06-05T09:16:43Z</time>
      </trkpt>
      <trkpt lat="45.03404" lon="5.84548">
        <ele>1407</ele>
        <time>2022-06-05T09:16:44Z</time>
      </trkpt>
      <trkpt lat="45.03404" lon="5.84547">
        <ele>1407</ele>
        <time>2022-06-05T09:16:45Z</time>
      </trkpt>
      <trkpt lat="45.03405" lon="5.84546">
        <ele>1407</ele>
        <time>2022-06-05T09:16:46Z</time>
      </trkpt>
      <trkpt lat="45.03405" lon="5.84544">
        <ele>1407</ele>
        <time>2022-06-05T09:16:47Z</time>
      </trkpt>
      <trkpt lat="45.03405" lon="5.84543">
        <ele>1407</ele>
        <time>2022-06-05T09:16:48Z</time>
      </trkpt>
      <trkpt lat="45.03405" lon="5.84542">
        <ele>1407</ele>
        <time>2022-06-05T09:16:49Z</time>
      </trkpt>
      <trkpt lat="45.03406" lon="5.8454">
        <ele>1406</ele>
        <time>2022-06-05T09:16:50Z</time>
      </trkpt>
      <trkpt lat="45.03407" lon="5.84539">
        <ele>1406</ele>
        <time>2022-06-05T09:16:51Z</time>
      </trkpt>
      <trkpt lat="45.03407" lon="5.84538">
        <ele>1406</ele>
        <time>2022-06-05T09:16:52Z</time>
      </trkpt>
      <trkpt lat="45.03408" lon="5.84537">
        <ele>1406</ele>
        <time>2022-06-05T09:16:53Z</time>
      </trkpt>
      <trkpt lat="45.03408" lon="5.84537">
        <ele>1406</ele>
        <time>2022-06-05T09:16:54Z</time>
      </trkpt>
      <trkpt lat="45.03408" lon="5.84537">
        <ele>1406</ele>
        <time>2022-06-05T09:16:55Z</time>
      </trkpt>
      <trkpt lat="45.03408" lon="5.84535">
        <ele>1405</ele>
        <time>2022-06-05T09:16:56Z</time>
      </trkpt>
      <trkpt lat="45.03409" lon="5.84533">
        <ele>1405</ele>
        <time>2022-06-05T09:16:57Z</time>
      </trkpt>
      <trkpt lat="45.03409" lon="5.84532">
        <ele>1405</ele>
        <time>2022-06-05T09:16:58Z</time>
      </trkpt>
      <trkpt lat="45.0341" lon="5.8453">
        <ele>1404</ele>
        <time>2022-06-05T09:16:59Z</time>
      </trkpt>
      <trkpt lat="45.0341" lon="5.84529">
        <ele>1404</ele>
        <time>2022-06-05T09:17:00Z</time>
      </trkpt>
      <trkpt lat="45.03411" lon="5.84528">
        <ele>1404</ele>
        <time>2022-06-05T09:17:01Z</time>
      </trkpt>
      <trkpt lat="45.03412" lon="5.84527">
        <ele>1404</ele>
        <time>2022-06-05T09:17:02Z</time>
      </trkpt>
      <trkpt lat="45.03412" lon="5.84527">
        <ele>1404</ele>
        <time>2022-06-05T09:17:03Z</time>
      </trkpt>
      <trkpt lat="45.03412" lon="5.84527">
        <ele>1404</ele>
        <time>2022-06-05T09:17:04Z</time>
      </trkpt>
      <trkpt lat="45.03413" lon="5.84526">
        <ele>1403</ele>
        <time>2022-06-05T09:17:05Z</time>
      </trkpt>
      <trkpt lat="45.03414" lon="5.84525">
        <ele>1402</ele>
        <time>2022-06-05T09:17:06Z</time>
      </trkpt>
      <trkpt lat="45.03415" lon="5.84524">
        <ele>1401</ele>
        <time>2022-06-05T09:17:07Z</time>
      </trkpt>
      <trkpt lat="45.03415" lon="5.84523">
        <ele>1400</ele>
        <time>2022-06-05T09:17:08Z</time>
      </trkpt>
      <trkpt lat="45.03415" lon="5.84521">
        <ele>1400</ele>
        <time>2022-06-05T09:17:09Z</time>
      </trkpt>
      <trkpt lat="45.03415" lon="5.84521">
        <ele>1400</ele>
        <time>2022-06-05T09:17:10Z</time>
      </trkpt>
      <trkpt lat="45.03415" lon="5.84521">
        <ele>1400</ele>
        <time>2022-06-05T09:17:11Z</time>
      </trkpt>
      <trkpt lat="45.03415" lon="5.84519">
        <ele>1399</ele>
        <time>2022-06-05T09:17:12Z</time>
      </trkpt>
      <trkpt lat="45.03415" lon="5.84518">
        <ele>1398</ele>
        <time>2022-06-05T09:17:13Z</time>
      </trkpt>
      <trkpt lat="45.03415" lon="5.84517">
        <ele>1398</ele>
        <time>2022-06-05T09:17:14Z</time>
      </trkpt>
      <trkpt lat="45.03415" lon="5.84515">
        <ele>1398</ele>
        <time>2022-06-05T09:17:15Z</time>
      </trkpt>
      <trkpt lat="45.03415" lon="5.84514">
        <ele>1398</ele>
        <time>2022-06-05T09:17:16Z</time>
      </trkpt>
      <trkpt lat="45.03416" lon="5.84513">
        <ele>1397</ele>
        <time>2022-06-05T09:17:17Z</time>
      </trkpt>
      <trkpt lat="45.03416" lon="5.84512">
        <ele>1398</ele>
        <time>2022-06-05T09:17:18Z</time>
      </trkpt>
      <trkpt lat="45.03416" lon="5.84512">
        <ele>1398</ele>
        <time>2022-06-05T09:17:19Z</time>
      </trkpt>
      <trkpt lat="45.03416" lon="5.84512">
        <ele>1398</ele>
        <time>2022-06-05T09:17:20Z</time>
      </trkpt>
      <trkpt lat="45.03416" lon="5.8451">
        <ele>1399</ele>
        <time>2022-06-05T09:17:21Z</time>
      </trkpt>
      <trkpt lat="45.03416" lon="5.84508">
        <ele>1399</ele>
        <time>2022-06-05T09:17:22Z</time>
      </trkpt>
      <trkpt lat="45.03416" lon="5.84507">
        <ele>1399</ele>
        <time>2022-06-05T09:17:23Z</time>
      </trkpt>
      <trkpt lat="45.03416" lon="5.84506">
        <ele>1399</ele>
        <time>2022-06-05T09:17:24Z</time>
      </trkpt>
      <trkpt lat="45.03416" lon="5.84505">
        <ele>1399</ele>
        <time>2022-06-05T09:17:25Z</time>
      </trkpt>
      <trkpt lat="45.03416" lon="5.84505">
        <ele>1399</ele>
        <time>2022-06-05T09:17:26Z</time>
      </trkpt>
      <trkpt lat="45.03416" lon="5.84505">
        <ele>1399</ele>
        <time>2022-06-05T09:17:27Z</time>
      </trkpt>
      <trkpt lat="45.03417" lon="5.84503">
        <ele>1400</ele>
        <time>2022-06-05T09:17:28Z</time>
      </trkpt>
      <trkpt lat="45.03417" lon="5.84502">
        <ele>1400</ele>
        <time>2022-06-05T09:17:29Z</time>
      </trkpt>
      <trkpt lat="45.03418" lon="5.845">
        <ele>1401</ele>
        <time>2022-06-05T09:17:30Z</time>
      </trkpt>
      <trkpt lat="45.03418" lon="5.84499">
        <ele>1401</ele>
        <time>2022-06-05T09:17:31Z</time>
      </trkpt>
      <trkpt lat="45.03418" lon="5.84499">
        <ele>1401</ele>
        <time>2022-06-05T09:17:32Z</time>
      </trkpt>
      <trkpt lat="45.03419" lon="5.84497">
        <ele>1401</ele>
        <time>2022-06-05T09:17:33Z</time>
      </trkpt>
      <trkpt lat="45.03419" lon="5.84496">
        <ele>1402</ele>
        <time>2022-06-05T09:17:34Z</time>
      </trkpt>
      <trkpt lat="45.0342" lon="5.84495">
        <ele>1402</ele>
        <time>2022-06-05T09:17:35Z</time>
      </trkpt>
      <trkpt lat="45.0342" lon="5.84494">
        <ele>1402</ele>
        <time>2022-06-05T09:17:36Z</time>
      </trkpt>
      <trkpt lat="45.03419" lon="5.84494">
        <ele>1403</ele>
        <time>2022-06-05T09:17:37Z</time>
      </trkpt>
      <trkpt lat="45.03419" lon="5.84494">
        <ele>1403</ele>
        <time>2022-06-05T09:17:38Z</time>
      </trkpt>
      <trkpt lat="45.03419" lon="5.84494">
        <ele>1403</ele>
        <time>2022-06-05T09:17:39Z</time>
      </trkpt>
      <trkpt lat="45.03419" lon="5.84494">
        <ele>1403</ele>
        <time>2022-06-05T09:17:40Z</time>
      </trkpt>
      <trkpt lat="45.03419" lon="5.84492">
        <ele>1403</ele>
        <time>2022-06-05T09:17:41Z</time>
      </trkpt>
      <trkpt lat="45.03419" lon="5.84491">
        <ele>1403</ele>
        <time>2022-06-05T09:17:42Z</time>
      </trkpt>
      <trkpt lat="45.03419" lon="5.8449">
        <ele>1403</ele>
        <time>2022-06-05T09:17:43Z</time>
      </trkpt>
      <trkpt lat="45.0342" lon="5.8449">
        <ele>1403</ele>
        <time>2022-06-05T09:17:44Z</time>
      </trkpt>
      <trkpt lat="45.0342" lon="5.84489">
        <ele>1402</ele>
        <time>2022-06-05T09:17:45Z</time>
      </trkpt>
      <trkpt lat="45.0342" lon="5.84487">
        <ele>1402</ele>
        <time>2022-06-05T09:17:46Z</time>
      </trkpt>
      <trkpt lat="45.0342" lon="5.84486">
        <ele>1402</ele>
        <time>2022-06-05T09:17:47Z</time>
      </trkpt>
      <trkpt lat="45.0342" lon="5.84485">
        <ele>1402</ele>
        <time>2022-06-05T09:17:48Z</time>
      </trkpt>
      <trkpt lat="45.0342" lon="5.84484">
        <ele>1402</ele>
        <time>2022-06-05T09:17:49Z</time>
      </trkpt>
      <trkpt lat="45.0342" lon="5.84483">
        <ele>1403</ele>
        <time>2022-06-05T09:17:50Z</time>
      </trkpt>
      <trkpt lat="45.0342" lon="5.84482">
        <ele>1403</ele>
        <time>2022-06-05T09:17:51Z</time>
      </trkpt>
      <trkpt lat="45.0342" lon="5.84481">
        <ele>1402</ele>
        <time>2022-06-05T09:17:52Z</time>
      </trkpt>
      <trkpt lat="45.0342" lon="5.84481">
        <ele>1402</ele>
        <time>2022-06-05T09:17:53Z</time>
      </trkpt>
      <trkpt lat="45.0342" lon="5.84481">
        <ele>1402</ele>
        <time>2022-06-05T09:17:54Z</time>
      </trkpt>
      <trkpt lat="45.0342" lon="5.84481">
        <ele>1402</ele>
        <time>2022-06-05T09:17:55Z</time>
      </trkpt>
      <trkpt lat="45.03421" lon="5.84478">
        <ele>1402</ele>
        <time>2022-06-05T09:17:56Z</time>
      </trkpt>
      <trkpt lat="45.03421" lon="5.84477">
        <ele>1402</ele>
        <time>2022-06-05T09:17:57Z</time>
      </trkpt>
      <trkpt lat="45.03421" lon="5.84476">
        <ele>1403</ele>
        <time>2022-06-05T09:17:58Z</time>
      </trkpt>
      <trkpt lat="45.03421" lon="5.84476">
        <ele>1403</ele>
        <time>2022-06-05T09:17:59Z</time>
      </trkpt>
      <trkpt lat="45.03421" lon="5.84474">
        <ele>1404</ele>
        <time>2022-06-05T09:18:00Z</time>
      </trkpt>
      <trkpt lat="45.03421" lon="5.84473">
        <ele>1404</ele>
        <time>2022-06-05T09:18:01Z</time>
      </trkpt>
      <trkpt lat="45.03421" lon="5.84472">
        <ele>1405</ele>
        <time>2022-06-05T09:18:02Z</time>
      </trkpt>
      <trkpt lat="45.0342" lon="5.84471">
        <ele>1404</ele>
        <time>2022-06-05T09:18:03Z</time>
      </trkpt>
      <trkpt lat="45.0342" lon="5.84469">
        <ele>1405</ele>
        <time>2022-06-05T09:18:04Z</time>
      </trkpt>
      <trkpt lat="45.0342" lon="5.84468">
        <ele>1405</ele>
        <time>2022-06-05T09:18:05Z</time>
      </trkpt>
      <trkpt lat="45.0342" lon="5.84466">
        <ele>1405</ele>
        <time>2022-06-05T09:18:06Z</time>
      </trkpt>
      <trkpt lat="45.0342" lon="5.84466">
        <ele>1405</ele>
        <time>2022-06-05T09:18:07Z</time>
      </trkpt>
      <trkpt lat="45.0342" lon="5.84466">
        <ele>1405</ele>
        <time>2022-06-05T09:18:08Z</time>
      </trkpt>
      <trkpt lat="45.0342" lon="5.84462">
        <ele>1408</ele>
        <time>2022-06-05T09:18:09Z</time>
      </trkpt>
      <trkpt lat="45.0342" lon="5.84461">
        <ele>1408</ele>
        <time>2022-06-05T09:18:10Z</time>
      </trkpt>
      <trkpt lat="45.0342" lon="5.8446">
        <ele>1408</ele>
        <time>2022-06-05T09:18:11Z</time>
      </trkpt>
      <trkpt lat="45.03419" lon="5.84459">
        <ele>1409</ele>
        <time>2022-06-05T09:18:12Z</time>
      </trkpt>
      <trkpt lat="45.03419" lon="5.84458">
        <ele>1409</ele>
        <time>2022-06-05T09:18:13Z</time>
      </trkpt>
      <trkpt lat="45.03418" lon="5.84458">
        <ele>1409</ele>
        <time>2022-06-05T09:18:14Z</time>
      </trkpt>
      <trkpt lat="45.03419" lon="5.84457">
        <ele>1409</ele>
        <time>2022-06-05T09:18:15Z</time>
      </trkpt>
      <trkpt lat="45.0342" lon="5.84456">
        <ele>1410</ele>
        <time>2022-06-05T09:18:16Z</time>
      </trkpt>
      <trkpt lat="45.0342" lon="5.84455">
        <ele>1410</ele>
        <time>2022-06-05T09:18:17Z</time>
      </trkpt>
      <trkpt lat="45.0342" lon="5.84454">
        <ele>1410</ele>
        <time>2022-06-05T09:18:18Z</time>
      </trkpt>
      <trkpt lat="45.0342" lon="5.84453">
        <ele>1410</ele>
        <time>2022-06-05T09:18:19Z</time>
      </trkpt>
      <trkpt lat="45.0342" lon="5.84453">
        <ele>1410</ele>
        <time>2022-06-05T09:18:19Z</time>
      </trkpt>
      <trkpt lat="45.0342" lon="5.84453">
        <ele>1410</ele>
        <time>2022-06-05T09:18:19Z</time>
      </trkpt>
      <trkpt lat="45.0342" lon="5.84445">
        <ele>1411</ele>
        <time>2022-06-05T09:18:25Z</time>
      </trkpt>
      <trkpt lat="45.03421" lon="5.84443">
        <ele>1411</ele>
        <time>2022-06-05T09:18:26Z</time>
      </trkpt>
      <trkpt lat="45.03421" lon="5.84442">
        <ele>1410</ele>
        <time>2022-06-05T09:18:27Z</time>
      </trkpt>
      <trkpt lat="45.03421" lon="5.84441">
        <ele>1410</ele>
        <time>2022-06-05T09:18:28Z</time>
      </trkpt>
      <trkpt lat="45.03421" lon="5.8444">
        <ele>1410</ele>
        <time>2022-06-05T09:18:29Z</time>
      </trkpt>
      <trkpt lat="45.03422" lon="5.84438">
        <ele>1410</ele>
        <time>2022-06-05T09:18:30Z</time>
      </trkpt>
      <trkpt lat="45.03422" lon="5.84437">
        <ele>1410</ele>
        <time>2022-06-05T09:18:31Z</time>
      </trkpt>
      <trkpt lat="45.03422" lon="5.84436">
        <ele>1409</ele>
        <time>2022-06-05T09:18:32Z</time>
      </trkpt>
      <trkpt lat="45.03422" lon="5.84434">
        <ele>1410</ele>
        <time>2022-06-05T09:18:33Z</time>
      </trkpt>
      <trkpt lat="45.03422" lon="5.84434">
        <ele>1410</ele>
        <time>2022-06-05T09:18:34Z</time>
      </trkpt>
      <trkpt lat="45.03422" lon="5.84434">
        <ele>1410</ele>
        <time>2022-06-05T09:18:35Z</time>
      </trkpt>
      <trkpt lat="45.03422" lon="5.84433">
        <ele>1409</ele>
        <time>2022-06-05T09:18:36Z</time>
      </trkpt>
      <trkpt lat="45.03422" lon="5.84432">
        <ele>1409</ele>
        <time>2022-06-05T09:18:37Z</time>
      </trkpt>
      <trkpt lat="45.03422" lon="5.84431">
        <ele>1409</ele>
        <time>2022-06-05T09:18:38Z</time>
      </trkpt>
      <trkpt lat="45.03423" lon="5.8443">
        <ele>1408</ele>
        <time>2022-06-05T09:18:39Z</time>
      </trkpt>
      <trkpt lat="45.03423" lon="5.84429">
        <ele>1408</ele>
        <time>2022-06-05T09:18:40Z</time>
      </trkpt>
      <trkpt lat="45.03423" lon="5.84429">
        <ele>1408</ele>
        <time>2022-06-05T09:18:41Z</time>
      </trkpt>
      <trkpt lat="45.03423" lon="5.84429">
        <ele>1408</ele>
        <time>2022-06-05T09:18:42Z</time>
      </trkpt>
      <trkpt lat="45.03423" lon="5.84429">
        <ele>1408</ele>
        <time>2022-06-05T09:18:43Z</time>
      </trkpt>
      <trkpt lat="45.03423" lon="5.84429">
        <ele>1408</ele>
        <time>2022-06-05T09:18:44Z</time>
      </trkpt>
      <trkpt lat="45.03423" lon="5.84429">
        <ele>1408</ele>
        <time>2022-06-05T09:18:45Z</time>
      </trkpt>
      <trkpt lat="45.03423" lon="5.84426">
        <ele>1407</ele>
        <time>2022-06-05T09:18:46Z</time>
      </trkpt>
      <trkpt lat="45.03424" lon="5.84425">
        <ele>1407</ele>
        <time>2022-06-05T09:18:47Z</time>
      </trkpt>
      <trkpt lat="45.03424" lon="5.84424">
        <ele>1406</ele>
        <time>2022-06-05T09:18:48Z</time>
      </trkpt>
      <trkpt lat="45.03424" lon="5.84423">
        <ele>1406</ele>
        <time>2022-06-05T09:18:49Z</time>
      </trkpt>
      <trkpt lat="45.03425" lon="5.84422">
        <ele>1406</ele>
        <time>2022-06-05T09:18:50Z</time>
      </trkpt>
      <trkpt lat="45.03425" lon="5.8442">
        <ele>1405</ele>
        <time>2022-06-05T09:18:51Z</time>
      </trkpt>
      <trkpt lat="45.03424" lon="5.84419">
        <ele>1405</ele>
        <time>2022-06-05T09:18:52Z</time>
      </trkpt>
      <trkpt lat="45.03424" lon="5.84418">
        <ele>1404</ele>
        <time>2022-06-05T09:18:53Z</time>
      </trkpt>
      <trkpt lat="45.03424" lon="5.84416">
        <ele>1405</ele>
        <time>2022-06-05T09:18:54Z</time>
      </trkpt>
      <trkpt lat="45.03423" lon="5.84415">
        <ele>1404</ele>
        <time>2022-06-05T09:18:55Z</time>
      </trkpt>
      <trkpt lat="45.03423" lon="5.84414">
        <ele>1404</ele>
        <time>2022-06-05T09:18:56Z</time>
      </trkpt>
      <trkpt lat="45.03423" lon="5.84413">
        <ele>1404</ele>
        <time>2022-06-05T09:18:57Z</time>
      </trkpt>
      <trkpt lat="45.03422" lon="5.84413">
        <ele>1403</ele>
        <time>2022-06-05T09:18:58Z</time>
      </trkpt>
      <trkpt lat="45.03423" lon="5.84413">
        <ele>1403</ele>
        <time>2022-06-05T09:18:59Z</time>
      </trkpt>
      <trkpt lat="45.03423" lon="5.84413">
        <ele>1403</ele>
        <time>2022-06-05T09:19:00Z</time>
      </trkpt>
      <trkpt lat="45.03423" lon="5.84413">
        <ele>1403</ele>
        <time>2022-06-05T09:19:01Z</time>
      </trkpt>
      <trkpt lat="45.03423" lon="5.84413">
        <ele>1403</ele>
        <time>2022-06-05T09:19:01Z</time>
      </trkpt>
      <trkpt lat="45.03423" lon="5.84413">
        <ele>1403</ele>
        <time>2022-06-05T09:19:01Z</time>
      </trkpt>
      <trkpt lat="45.03421" lon="5.84403">
        <ele>1400</ele>
        <time>2022-06-05T09:19:20Z</time>
      </trkpt>
      <trkpt lat="45.03421" lon="5.84403">
        <ele>1400</ele>
        <time>2022-06-05T09:19:21Z</time>
      </trkpt>
      <trkpt lat="45.03421" lon="5.84402">
        <ele>1400</ele>
        <time>2022-06-05T09:19:22Z</time>
      </trkpt>
      <trkpt lat="45.03421" lon="5.84401">
        <ele>1400</ele>
        <time>2022-06-05T09:19:23Z</time>
      </trkpt>
      <trkpt lat="45.0342" lon="5.84399">
        <ele>1400</ele>
        <time>2022-06-05T09:19:24Z</time>
      </trkpt>
      <trkpt lat="45.03421" lon="5.84398">
        <ele>1401</ele>
        <time>2022-06-05T09:19:25Z</time>
      </trkpt>
      <trkpt lat="45.03421" lon="5.84396">
        <ele>1402</ele>
        <time>2022-06-05T09:19:26Z</time>
      </trkpt>
      <trkpt lat="45.0342" lon="5.84395">
        <ele>1402</ele>
        <time>2022-06-05T09:19:27Z</time>
      </trkpt>
      <trkpt lat="45.0342" lon="5.84393">
        <ele>1403</ele>
        <time>2022-06-05T09:19:28Z</time>
      </trkpt>
      <trkpt lat="45.0342" lon="5.84391">
        <ele>1403</ele>
        <time>2022-06-05T09:19:29Z</time>
      </trkpt>
      <trkpt lat="45.0342" lon="5.8439">
        <ele>1403</ele>
        <time>2022-06-05T09:19:30Z</time>
      </trkpt>
      <trkpt lat="45.0342" lon="5.84389">
        <ele>1403</ele>
        <time>2022-06-05T09:19:31Z</time>
      </trkpt>
      <trkpt lat="45.03419" lon="5.84388">
        <ele>1402</ele>
        <time>2022-06-05T09:19:32Z</time>
      </trkpt>
      <trkpt lat="45.0342" lon="5.84387">
        <ele>1401</ele>
        <time>2022-06-05T09:19:33Z</time>
      </trkpt>
      <trkpt lat="45.0342" lon="5.84386">
        <ele>1401</ele>
        <time>2022-06-05T09:19:34Z</time>
      </trkpt>
      <trkpt lat="45.0342" lon="5.84385">
        <ele>1401</ele>
        <time>2022-06-05T09:19:35Z</time>
      </trkpt>
      <trkpt lat="45.0342" lon="5.84384">
        <ele>1401</ele>
        <time>2022-06-05T09:19:36Z</time>
      </trkpt>
      <trkpt lat="45.03421" lon="5.84384">
        <ele>1401</ele>
        <time>2022-06-05T09:19:37Z</time>
      </trkpt>
      <trkpt lat="45.03421" lon="5.84384">
        <ele>1401</ele>
        <time>2022-06-05T09:19:38Z</time>
      </trkpt>
      <trkpt lat="45.03421" lon="5.84384">
        <ele>1401</ele>
        <time>2022-06-05T09:19:39Z</time>
      </trkpt>
      <trkpt lat="45.03421" lon="5.84384">
        <ele>1401</ele>
        <time>2022-06-05T09:19:40Z</time>
      </trkpt>
      <trkpt lat="45.03421" lon="5.84382">
        <ele>1401</ele>
        <time>2022-06-05T09:19:41Z</time>
      </trkpt>
      <trkpt lat="45.03421" lon="5.84382">
        <ele>1401</ele>
        <time>2022-06-05T09:19:42Z</time>
      </trkpt>
      <trkpt lat="45.03421" lon="5.84381">
        <ele>1400</ele>
        <time>2022-06-05T09:19:43Z</time>
      </trkpt>
      <trkpt lat="45.03421" lon="5.8438">
        <ele>1400</ele>
        <time>2022-06-05T09:19:44Z</time>
      </trkpt>
      <trkpt lat="45.03421" lon="5.84379">
        <ele>1401</ele>
        <time>2022-06-05T09:19:45Z</time>
      </trkpt>
      <trkpt lat="45.03421" lon="5.84379">
        <ele>1401</ele>
        <time>2022-06-05T09:19:46Z</time>
      </trkpt>
      <trkpt lat="45.03421" lon="5.84379">
        <ele>1401</ele>
        <time>2022-06-05T09:19:47Z</time>
      </trkpt>
      <trkpt lat="45.03421" lon="5.84379">
        <ele>1401</ele>
        <time>2022-06-05T09:19:48Z</time>
      </trkpt>
      <trkpt lat="45.03421" lon="5.84379">
        <ele>1401</ele>
        <time>2022-06-05T09:19:49Z</time>
      </trkpt>
      <trkpt lat="45.03421" lon="5.84379">
        <ele>1401</ele>
        <time>2022-06-05T09:19:50Z</time>
      </trkpt>
      <trkpt lat="45.03421" lon="5.84377">
        <ele>1402</ele>
        <time>2022-06-05T09:19:51Z</time>
      </trkpt>
      <trkpt lat="45.03421" lon="5.84376">
        <ele>1402</ele>
        <time>2022-06-05T09:19:52Z</time>
      </trkpt>
      <trkpt lat="45.0342" lon="5.84375">
        <ele>1403</ele>
        <time>2022-06-05T09:19:53Z</time>
      </trkpt>
      <trkpt lat="45.0342" lon="5.84373">
        <ele>1402</ele>
        <time>2022-06-05T09:19:54Z</time>
      </trkpt>
      <trkpt lat="45.03421" lon="5.84371">
        <ele>1402</ele>
        <time>2022-06-05T09:19:55Z</time>
      </trkpt>
      <trkpt lat="45.03421" lon="5.84369">
        <ele>1402</ele>
        <time>2022-06-05T09:19:56Z</time>
      </trkpt>
      <trkpt lat="45.03422" lon="5.84367">
        <ele>1402</ele>
        <time>2022-06-05T09:19:57Z</time>
      </trkpt>
      <trkpt lat="45.03423" lon="5.84364">
        <ele>1402</ele>
        <time>2022-06-05T09:19:58Z</time>
      </trkpt>
      <trkpt lat="45.03423" lon="5.84363">
        <ele>1402</ele>
        <time>2022-06-05T09:19:59Z</time>
      </trkpt>
      <trkpt lat="45.03423" lon="5.8436">
        <ele>1402</ele>
        <time>2022-06-05T09:20:00Z</time>
      </trkpt>
      <trkpt lat="45.03423" lon="5.84358">
        <ele>1403</ele>
        <time>2022-06-05T09:20:01Z</time>
      </trkpt>
      <trkpt lat="45.03423" lon="5.84356">
        <ele>1403</ele>
        <time>2022-06-05T09:20:02Z</time>
      </trkpt>
      <trkpt lat="45.03423" lon="5.84354">
        <ele>1403</ele>
        <time>2022-06-05T09:20:03Z</time>
      </trkpt>
      <trkpt lat="45.03423" lon="5.84353">
        <ele>1403</ele>
        <time>2022-06-05T09:20:04Z</time>
      </trkpt>
      <trkpt lat="45.03423" lon="5.84351">
        <ele>1403</ele>
        <time>2022-06-05T09:20:05Z</time>
      </trkpt>
      <trkpt lat="45.03423" lon="5.84349">
        <ele>1404</ele>
        <time>2022-06-05T09:20:06Z</time>
      </trkpt>
      <trkpt lat="45.03423" lon="5.84349">
        <ele>1404</ele>
        <time>2022-06-05T09:20:07Z</time>
      </trkpt>
      <trkpt lat="45.03422" lon="5.84348">
        <ele>1404</ele>
        <time>2022-06-05T09:20:08Z</time>
      </trkpt>
      <trkpt lat="45.03423" lon="5.84347">
        <ele>1405</ele>
        <time>2022-06-05T09:20:09Z</time>
      </trkpt>
      <trkpt lat="45.03422" lon="5.84345">
        <ele>1405</ele>
        <time>2022-06-05T09:20:10Z</time>
      </trkpt>
      <trkpt lat="45.03422" lon="5.84344">
        <ele>1405</ele>
        <time>2022-06-05T09:20:11Z</time>
      </trkpt>
      <trkpt lat="45.03423" lon="5.84344">
        <ele>1405</ele>
        <time>2022-06-05T09:20:12Z</time>
      </trkpt>
      <trkpt lat="45.03423" lon="5.84344">
        <ele>1405</ele>
        <time>2022-06-05T09:20:13Z</time>
      </trkpt>
      <trkpt lat="45.03423" lon="5.84343">
        <ele>1405</ele>
        <time>2022-06-05T09:20:14Z</time>
      </trkpt>
      <trkpt lat="45.03423" lon="5.84343">
        <ele>1406</ele>
        <time>2022-06-05T09:20:15Z</time>
      </trkpt>
      <trkpt lat="45.03423" lon="5.84342">
        <ele>1405</ele>
        <time>2022-06-05T09:20:16Z</time>
      </trkpt>
      <trkpt lat="45.03422" lon="5.84341">
        <ele>1405</ele>
        <time>2022-06-05T09:20:17Z</time>
      </trkpt>
      <trkpt lat="45.03422" lon="5.84341">
        <ele>1405</ele>
        <time>2022-06-05T09:20:18Z</time>
      </trkpt>
      <trkpt lat="45.03422" lon="5.84341">
        <ele>1405</ele>
        <time>2022-06-05T09:20:19Z</time>
      </trkpt>
      <trkpt lat="45.03423" lon="5.84338">
        <ele>1406</ele>
        <time>2022-06-05T09:20:20Z</time>
      </trkpt>
      <trkpt lat="45.03423" lon="5.84336">
        <ele>1406</ele>
        <time>2022-06-05T09:20:21Z</time>
      </trkpt>
      <trkpt lat="45.03423" lon="5.84335">
        <ele>1406</ele>
        <time>2022-06-05T09:20:22Z</time>
      </trkpt>
      <trkpt lat="45.03422" lon="5.84334">
        <ele>1405</ele>
        <time>2022-06-05T09:20:23Z</time>
      </trkpt>
      <trkpt lat="45.03422" lon="5.84333">
        <ele>1405</ele>
        <time>2022-06-05T09:20:24Z</time>
      </trkpt>
      <trkpt lat="45.03422" lon="5.84333">
        <ele>1405</ele>
        <time>2022-06-05T09:20:25Z</time>
      </trkpt>
      <trkpt lat="45.03422" lon="5.84333">
        <ele>1405</ele>
        <time>2022-06-05T09:20:26Z</time>
      </trkpt>
      <trkpt lat="45.03422" lon="5.84331">
        <ele>1405</ele>
        <time>2022-06-05T09:20:27Z</time>
      </trkpt>
      <trkpt lat="45.03422" lon="5.84331">
        <ele>1405</ele>
        <time>2022-06-05T09:20:28Z</time>
      </trkpt>
      <trkpt lat="45.03421" lon="5.8433">
        <ele>1405</ele>
        <time>2022-06-05T09:20:29Z</time>
      </trkpt>
      <trkpt lat="45.0342" lon="5.84329">
        <ele>1405</ele>
        <time>2022-06-05T09:20:30Z</time>
      </trkpt>
      <trkpt lat="45.0342" lon="5.84328">
        <ele>1405</ele>
        <time>2022-06-05T09:20:31Z</time>
      </trkpt>
      <trkpt lat="45.03419" lon="5.84327">
        <ele>1405</ele>
        <time>2022-06-05T09:20:32Z</time>
      </trkpt>
      <trkpt lat="45.03418" lon="5.84326">
        <ele>1406</ele>
        <time>2022-06-05T09:20:33Z</time>
      </trkpt>
      <trkpt lat="45.03418" lon="5.84325">
        <ele>1406</ele>
        <time>2022-06-05T09:20:34Z</time>
      </trkpt>
      <trkpt lat="45.03418" lon="5.84324">
        <ele>1406</ele>
        <time>2022-06-05T09:20:35Z</time>
      </trkpt>
      <trkpt lat="45.03418" lon="5.84323">
        <ele>1407</ele>
        <time>2022-06-05T09:20:36Z</time>
      </trkpt>
      <trkpt lat="45.03418" lon="5.84321">
        <ele>1407</ele>
        <time>2022-06-05T09:20:37Z</time>
      </trkpt>
      <trkpt lat="45.03418" lon="5.8432">
        <ele>1408</ele>
        <time>2022-06-05T09:20:38Z</time>
      </trkpt>
      <trkpt lat="45.03417" lon="5.84319">
        <ele>1408</ele>
        <time>2022-06-05T09:20:39Z</time>
      </trkpt>
      <trkpt lat="45.03417" lon="5.84318">
        <ele>1408</ele>
        <time>2022-06-05T09:20:40Z</time>
      </trkpt>
      <trkpt lat="45.03416" lon="5.84316">
        <ele>1408</ele>
        <time>2022-06-05T09:20:41Z</time>
      </trkpt>
      <trkpt lat="45.03416" lon="5.84315">
        <ele>1409</ele>
        <time>2022-06-05T09:20:42Z</time>
      </trkpt>
      <trkpt lat="45.03416" lon="5.84314">
        <ele>1409</ele>
        <time>2022-06-05T09:20:43Z</time>
      </trkpt>
      <trkpt lat="45.03416" lon="5.84313">
        <ele>1408</ele>
        <time>2022-06-05T09:20:44Z</time>
      </trkpt>
      <trkpt lat="45.03416" lon="5.84313">
        <ele>1408</ele>
        <time>2022-06-05T09:20:45Z</time>
      </trkpt>
      <trkpt lat="45.03416" lon="5.84313">
        <ele>1408</ele>
        <time>2022-06-05T09:20:46Z</time>
      </trkpt>
      <trkpt lat="45.03416" lon="5.84311">
        <ele>1408</ele>
        <time>2022-06-05T09:20:47Z</time>
      </trkpt>
      <trkpt lat="45.03416" lon="5.8431">
        <ele>1408</ele>
        <time>2022-06-05T09:20:48Z</time>
      </trkpt>
      <trkpt lat="45.03416" lon="5.84309">
        <ele>1409</ele>
        <time>2022-06-05T09:20:49Z</time>
      </trkpt>
      <trkpt lat="45.03416" lon="5.84308">
        <ele>1409</ele>
        <time>2022-06-05T09:20:50Z</time>
      </trkpt>
      <trkpt lat="45.03417" lon="5.84307">
        <ele>1410</ele>
        <time>2022-06-05T09:20:51Z</time>
      </trkpt>
      <trkpt lat="45.03418" lon="5.84305">
        <ele>1411</ele>
        <time>2022-06-05T09:20:52Z</time>
      </trkpt>
      <trkpt lat="45.03418" lon="5.84304">
        <ele>1411</ele>
        <time>2022-06-05T09:20:53Z</time>
      </trkpt>
      <trkpt lat="45.03418" lon="5.84302">
        <ele>1412</ele>
        <time>2022-06-05T09:20:54Z</time>
      </trkpt>
      <trkpt lat="45.03417" lon="5.84301">
        <ele>1413</ele>
        <time>2022-06-05T09:20:55Z</time>
      </trkpt>
      <trkpt lat="45.03416" lon="5.843">
        <ele>1414</ele>
        <time>2022-06-05T09:20:56Z</time>
      </trkpt>
      <trkpt lat="45.03416" lon="5.84299">
        <ele>1414</ele>
        <time>2022-06-05T09:20:57Z</time>
      </trkpt>
      <trkpt lat="45.03416" lon="5.84298">
        <ele>1415</ele>
        <time>2022-06-05T09:20:58Z</time>
      </trkpt>
      <trkpt lat="45.03416" lon="5.84297">
        <ele>1415</ele>
        <time>2022-06-05T09:20:59Z</time>
      </trkpt>
      <trkpt lat="45.03415" lon="5.84296">
        <ele>1415</ele>
        <time>2022-06-05T09:21:00Z</time>
      </trkpt>
      <trkpt lat="45.03415" lon="5.84295">
        <ele>1415</ele>
        <time>2022-06-05T09:21:01Z</time>
      </trkpt>
      <trkpt lat="45.03415" lon="5.84294">
        <ele>1415</ele>
        <time>2022-06-05T09:21:02Z</time>
      </trkpt>
      <trkpt lat="45.03415" lon="5.84292">
        <ele>1415</ele>
        <time>2022-06-05T09:21:03Z</time>
      </trkpt>
      <trkpt lat="45.03414" lon="5.84291">
        <ele>1415</ele>
        <time>2022-06-05T09:21:04Z</time>
      </trkpt>
      <trkpt lat="45.03413" lon="5.84291">
        <ele>1415</ele>
        <time>2022-06-05T09:21:05Z</time>
      </trkpt>
      <trkpt lat="45.03413" lon="5.8429">
        <ele>1416</ele>
        <time>2022-06-05T09:21:06Z</time>
      </trkpt>
      <trkpt lat="45.03412" lon="5.8429">
        <ele>1416</ele>
        <time>2022-06-05T09:21:07Z</time>
      </trkpt>
      <trkpt lat="45.03412" lon="5.84289">
        <ele>1416</ele>
        <time>2022-06-05T09:21:08Z</time>
      </trkpt>
      <trkpt lat="45.03412" lon="5.84288">
        <ele>1416</ele>
        <time>2022-06-05T09:21:09Z</time>
      </trkpt>
      <trkpt lat="45.03413" lon="5.84287">
        <ele>1416</ele>
        <time>2022-06-05T09:21:10Z</time>
      </trkpt>
      <trkpt lat="45.03413" lon="5.84286">
        <ele>1416</ele>
        <time>2022-06-05T09:21:11Z</time>
      </trkpt>
      <trkpt lat="45.03413" lon="5.84285">
        <ele>1416</ele>
        <time>2022-06-05T09:21:12Z</time>
      </trkpt>
      <trkpt lat="45.03413" lon="5.84284">
        <ele>1416</ele>
        <time>2022-06-05T09:21:13Z</time>
      </trkpt>
      <trkpt lat="45.03413" lon="5.84283">
        <ele>1415</ele>
        <time>2022-06-05T09:21:14Z</time>
      </trkpt>
      <trkpt lat="45.03413" lon="5.84282">
        <ele>1415</ele>
        <time>2022-06-05T09:21:15Z</time>
      </trkpt>
      <trkpt lat="45.03413" lon="5.84281">
        <ele>1415</ele>
        <time>2022-06-05T09:21:16Z</time>
      </trkpt>
      <trkpt lat="45.03412" lon="5.84281">
        <ele>1415</ele>
        <time>2022-06-05T09:21:17Z</time>
      </trkpt>
      <trkpt lat="45.03412" lon="5.8428">
        <ele>1415</ele>
        <time>2022-06-05T09:21:18Z</time>
      </trkpt>
      <trkpt lat="45.03412" lon="5.84279">
        <ele>1415</ele>
        <time>2022-06-05T09:21:19Z</time>
      </trkpt>
      <trkpt lat="45.03412" lon="5.84277">
        <ele>1416</ele>
        <time>2022-06-05T09:21:20Z</time>
      </trkpt>
      <trkpt lat="45.03412" lon="5.84276">
        <ele>1416</ele>
        <time>2022-06-05T09:21:21Z</time>
      </trkpt>
      <trkpt lat="45.03412" lon="5.84274">
        <ele>1416</ele>
        <time>2022-06-05T09:21:22Z</time>
      </trkpt>
      <trkpt lat="45.03413" lon="5.84272">
        <ele>1416</ele>
        <time>2022-06-05T09:21:23Z</time>
      </trkpt>
      <trkpt lat="45.03412" lon="5.8427">
        <ele>1416</ele>
        <time>2022-06-05T09:21:24Z</time>
      </trkpt>
      <trkpt lat="45.03413" lon="5.84269">
        <ele>1417</ele>
        <time>2022-06-05T09:21:25Z</time>
      </trkpt>
      <trkpt lat="45.03413" lon="5.84268">
        <ele>1417</ele>
        <time>2022-06-05T09:21:26Z</time>
      </trkpt>
      <trkpt lat="45.03413" lon="5.84268">
        <ele>1417</ele>
        <time>2022-06-05T09:21:27Z</time>
      </trkpt>
      <trkpt lat="45.03413" lon="5.84268">
        <ele>1417</ele>
        <time>2022-06-05T09:21:28Z</time>
      </trkpt>
      <trkpt lat="45.03412" lon="5.84266">
        <ele>1417</ele>
        <time>2022-06-05T09:21:29Z</time>
      </trkpt>
      <trkpt lat="45.03412" lon="5.84266">
        <ele>1417</ele>
        <time>2022-06-05T09:21:30Z</time>
      </trkpt>
      <trkpt lat="45.03412" lon="5.84265">
        <ele>1417</ele>
        <time>2022-06-05T09:21:31Z</time>
      </trkpt>
      <trkpt lat="45.03413" lon="5.84265">
        <ele>1418</ele>
        <time>2022-06-05T09:21:32Z</time>
      </trkpt>
      <trkpt lat="45.03413" lon="5.84265">
        <ele>1418</ele>
        <time>2022-06-05T09:21:33Z</time>
      </trkpt>
      <trkpt lat="45.03413" lon="5.84265">
        <ele>1418</ele>
        <time>2022-06-05T09:21:34Z</time>
      </trkpt>
      <trkpt lat="45.03412" lon="5.84264">
        <ele>1419</ele>
        <time>2022-06-05T09:21:35Z</time>
      </trkpt>
      <trkpt lat="45.03412" lon="5.84263">
        <ele>1419</ele>
        <time>2022-06-05T09:21:36Z</time>
      </trkpt>
      <trkpt lat="45.03412" lon="5.84262">
        <ele>1419</ele>
        <time>2022-06-05T09:21:37Z</time>
      </trkpt>
      <trkpt lat="45.03412" lon="5.84262">
        <ele>1419</ele>
        <time>2022-06-05T09:21:38Z</time>
      </trkpt>
      <trkpt lat="45.03412" lon="5.84262">
        <ele>1419</ele>
        <time>2022-06-05T09:21:39Z</time>
      </trkpt>
      <trkpt lat="45.03412" lon="5.84262">
        <ele>1419</ele>
        <time>2022-06-05T09:21:40Z</time>
      </trkpt>
      <trkpt lat="45.03412" lon="5.84259">
        <ele>1419</ele>
        <time>2022-06-05T09:21:41Z</time>
      </trkpt>
      <trkpt lat="45.03412" lon="5.84258">
        <ele>1418</ele>
        <time>2022-06-05T09:21:42Z</time>
      </trkpt>
      <trkpt lat="45.03412" lon="5.84257">
        <ele>1417</ele>
        <time>2022-06-05T09:21:43Z</time>
      </trkpt>
      <trkpt lat="45.03412" lon="5.84256">
        <ele>1416</ele>
        <time>2022-06-05T09:21:44Z</time>
      </trkpt>
      <trkpt lat="45.03412" lon="5.84255">
        <ele>1416</ele>
        <time>2022-06-05T09:21:45Z</time>
      </trkpt>
      <trkpt lat="45.03412" lon="5.84255">
        <ele>1416</ele>
        <time>2022-06-05T09:21:46Z</time>
      </trkpt>
      <trkpt lat="45.03412" lon="5.84254">
        <ele>1416</ele>
        <time>2022-06-05T09:21:47Z</time>
      </trkpt>
      <trkpt lat="45.03412" lon="5.84253">
        <ele>1416</ele>
        <time>2022-06-05T09:21:48Z</time>
      </trkpt>
      <trkpt lat="45.03412" lon="5.84252">
        <ele>1416</ele>
        <time>2022-06-05T09:21:49Z</time>
      </trkpt>
      <trkpt lat="45.03412" lon="5.84251">
        <ele>1415</ele>
        <time>2022-06-05T09:21:50Z</time>
      </trkpt>
      <trkpt lat="45.03412" lon="5.84251">
        <ele>1416</ele>
        <time>2022-06-05T09:21:51Z</time>
      </trkpt>
      <trkpt lat="45.03411" lon="5.8425">
        <ele>1416</ele>
        <time>2022-06-05T09:21:52Z</time>
      </trkpt>
      <trkpt lat="45.03411" lon="5.84249">
        <ele>1415</ele>
        <time>2022-06-05T09:21:53Z</time>
      </trkpt>
      <trkpt lat="45.0341" lon="5.84248">
        <ele>1416</ele>
        <time>2022-06-05T09:21:54Z</time>
      </trkpt>
      <trkpt lat="45.0341" lon="5.84247">
        <ele>1416</ele>
        <time>2022-06-05T09:21:55Z</time>
      </trkpt>
      <trkpt lat="45.0341" lon="5.84246">
        <ele>1416</ele>
        <time>2022-06-05T09:21:56Z</time>
      </trkpt>
      <trkpt lat="45.03409" lon="5.84245">
        <ele>1417</ele>
        <time>2022-06-05T09:21:57Z</time>
      </trkpt>
      <trkpt lat="45.03409" lon="5.84245">
        <ele>1417</ele>
        <time>2022-06-05T09:21:58Z</time>
      </trkpt>
      <trkpt lat="45.03408" lon="5.84244">
        <ele>1417</ele>
        <time>2022-06-05T09:21:59Z</time>
      </trkpt>
      <trkpt lat="45.03408" lon="5.84243">
        <ele>1417</ele>
        <time>2022-06-05T09:22:00Z</time>
      </trkpt>
      <trkpt lat="45.03407" lon="5.84242">
        <ele>1417</ele>
        <time>2022-06-05T09:22:01Z</time>
      </trkpt>
      <trkpt lat="45.03407" lon="5.84241">
        <ele>1417</ele>
        <time>2022-06-05T09:22:02Z</time>
      </trkpt>
      <trkpt lat="45.03407" lon="5.84241">
        <ele>1417</ele>
        <time>2022-06-05T09:22:03Z</time>
      </trkpt>
      <trkpt lat="45.03406" lon="5.8424">
        <ele>1417</ele>
        <time>2022-06-05T09:22:04Z</time>
      </trkpt>
      <trkpt lat="45.03406" lon="5.8424">
        <ele>1417</ele>
        <time>2022-06-05T09:22:05Z</time>
      </trkpt>
      <trkpt lat="45.03406" lon="5.8424">
        <ele>1417</ele>
        <time>2022-06-05T09:22:06Z</time>
      </trkpt>
      <trkpt lat="45.03405" lon="5.84238">
        <ele>1416</ele>
        <time>2022-06-05T09:22:07Z</time>
      </trkpt>
      <trkpt lat="45.03404" lon="5.84237">
        <ele>1417</ele>
        <time>2022-06-05T09:22:08Z</time>
      </trkpt>
      <trkpt lat="45.03403" lon="5.84236">
        <ele>1416</ele>
        <time>2022-06-05T09:22:09Z</time>
      </trkpt>
      <trkpt lat="45.03402" lon="5.84235">
        <ele>1416</ele>
        <time>2022-06-05T09:22:10Z</time>
      </trkpt>
      <trkpt lat="45.03401" lon="5.84234">
        <ele>1416</ele>
        <time>2022-06-05T09:22:11Z</time>
      </trkpt>
      <trkpt lat="45.034" lon="5.84233">
        <ele>1417</ele>
        <time>2022-06-05T09:22:12Z</time>
      </trkpt>
      <trkpt lat="45.03399" lon="5.84232">
        <ele>1417</ele>
        <time>2022-06-05T09:22:13Z</time>
      </trkpt>
      <trkpt lat="45.03397" lon="5.84231">
        <ele>1417</ele>
        <time>2022-06-05T09:22:14Z</time>
      </trkpt>
      <trkpt lat="45.03396" lon="5.8423">
        <ele>1416</ele>
        <time>2022-06-05T09:22:15Z</time>
      </trkpt>
      <trkpt lat="45.03395" lon="5.84229">
        <ele>1416</ele>
        <time>2022-06-05T09:22:16Z</time>
      </trkpt>
      <trkpt lat="45.03394" lon="5.84229">
        <ele>1416</ele>
        <time>2022-06-05T09:22:17Z</time>
      </trkpt>
      <trkpt lat="45.03393" lon="5.84228">
        <ele>1415</ele>
        <time>2022-06-05T09:22:18Z</time>
      </trkpt>
      <trkpt lat="45.03392" lon="5.84227">
        <ele>1415</ele>
        <time>2022-06-05T09:22:19Z</time>
      </trkpt>
      <trkpt lat="45.03391" lon="5.84225">
        <ele>1415</ele>
        <time>2022-06-05T09:22:20Z</time>
      </trkpt>
      <trkpt lat="45.03391" lon="5.84225">
        <ele>1415</ele>
        <time>2022-06-05T09:22:21Z</time>
      </trkpt>
      <trkpt lat="45.0339" lon="5.84224">
        <ele>1415</ele>
        <time>2022-06-05T09:22:22Z</time>
      </trkpt>
      <trkpt lat="45.0339" lon="5.84223">
        <ele>1415</ele>
        <time>2022-06-05T09:22:23Z</time>
      </trkpt>
      <trkpt lat="45.03389" lon="5.84222">
        <ele>1415</ele>
        <time>2022-06-05T09:22:24Z</time>
      </trkpt>
      <trkpt lat="45.03389" lon="5.84222">
        <ele>1415</ele>
        <time>2022-06-05T09:22:25Z</time>
      </trkpt>
      <trkpt lat="45.03388" lon="5.84221">
        <ele>1415</ele>
        <time>2022-06-05T09:22:26Z</time>
      </trkpt>
      <trkpt lat="45.03387" lon="5.8422">
        <ele>1416</ele>
        <time>2022-06-05T09:22:27Z</time>
      </trkpt>
      <trkpt lat="45.03386" lon="5.84219">
        <ele>1416</ele>
        <time>2022-06-05T09:22:28Z</time>
      </trkpt>
      <trkpt lat="45.03385" lon="5.84218">
        <ele>1416</ele>
        <time>2022-06-05T09:22:29Z</time>
      </trkpt>
      <trkpt lat="45.03384" lon="5.84218">
        <ele>1416</ele>
        <time>2022-06-05T09:22:30Z</time>
      </trkpt>
      <trkpt lat="45.03384" lon="5.84216">
        <ele>1416</ele>
        <time>2022-06-05T09:22:31Z</time>
      </trkpt>
      <trkpt lat="45.03383" lon="5.84216">
        <ele>1416</ele>
        <time>2022-06-05T09:22:32Z</time>
      </trkpt>
      <trkpt lat="45.03383" lon="5.84215">
        <ele>1417</ele>
        <time>2022-06-05T09:22:33Z</time>
      </trkpt>
      <trkpt lat="45.03382" lon="5.84214">
        <ele>1418</ele>
        <time>2022-06-05T09:22:34Z</time>
      </trkpt>
      <trkpt lat="45.03382" lon="5.84214">
        <ele>1417</ele>
        <time>2022-06-05T09:22:35Z</time>
      </trkpt>
      <trkpt lat="45.03382" lon="5.84214">
        <ele>1417</ele>
        <time>2022-06-05T09:22:36Z</time>
      </trkpt>
      <trkpt lat="45.03382" lon="5.84214">
        <ele>1417</ele>
        <time>2022-06-05T09:22:37Z</time>
      </trkpt>
      <trkpt lat="45.03381" lon="5.84212">
        <ele>1418</ele>
        <time>2022-06-05T09:22:38Z</time>
      </trkpt>
      <trkpt lat="45.03381" lon="5.84212">
        <ele>1419</ele>
        <time>2022-06-05T09:22:39Z</time>
      </trkpt>
      <trkpt lat="45.0338" lon="5.84212">
        <ele>1419</ele>
        <time>2022-06-05T09:22:40Z</time>
      </trkpt>
      <trkpt lat="45.0338" lon="5.84211">
        <ele>1419</ele>
        <time>2022-06-05T09:22:41Z</time>
      </trkpt>
      <trkpt lat="45.0338" lon="5.84211">
        <ele>1419</ele>
        <time>2022-06-05T09:22:42Z</time>
      </trkpt>
      <trkpt lat="45.03379" lon="5.84212">
        <ele>1418</ele>
        <time>2022-06-05T09:22:43Z</time>
      </trkpt>
      <trkpt lat="45.03378" lon="5.84212">
        <ele>1418</ele>
        <time>2022-06-05T09:22:44Z</time>
      </trkpt>
      <trkpt lat="45.03378" lon="5.84211">
        <ele>1418</ele>
        <time>2022-06-05T09:22:45Z</time>
      </trkpt>
      <trkpt lat="45.03377" lon="5.84211">
        <ele>1418</ele>
        <time>2022-06-05T09:22:46Z</time>
      </trkpt>
      <trkpt lat="45.03376" lon="5.84212">
        <ele>1418</ele>
        <time>2022-06-05T09:22:47Z</time>
      </trkpt>
      <trkpt lat="45.03375" lon="5.84212">
        <ele>1418</ele>
        <time>2022-06-05T09:22:48Z</time>
      </trkpt>
      <trkpt lat="45.03375" lon="5.84212">
        <ele>1418</ele>
        <time>2022-06-05T09:22:49Z</time>
      </trkpt>
      <trkpt lat="45.03374" lon="5.84211">
        <ele>1418</ele>
        <time>2022-06-05T09:22:50Z</time>
      </trkpt>
      <trkpt lat="45.03373" lon="5.84211">
        <ele>1418</ele>
        <time>2022-06-05T09:22:51Z</time>
      </trkpt>
      <trkpt lat="45.03373" lon="5.84211">
        <ele>1418</ele>
        <time>2022-06-05T09:22:52Z</time>
      </trkpt>
      <trkpt lat="45.03371" lon="5.84209">
        <ele>1417</ele>
        <time>2022-06-05T09:22:53Z</time>
      </trkpt>
      <trkpt lat="45.03371" lon="5.84209">
        <ele>1418</ele>
        <time>2022-06-05T09:22:54Z</time>
      </trkpt>
      <trkpt lat="45.03371" lon="5.84208">
        <ele>1418</ele>
        <time>2022-06-05T09:22:55Z</time>
      </trkpt>
      <trkpt lat="45.03371" lon="5.84208">
        <ele>1417</ele>
        <time>2022-06-05T09:22:56Z</time>
      </trkpt>
      <trkpt lat="45.03371" lon="5.84208">
        <ele>1416</ele>
        <time>2022-06-05T09:22:57Z</time>
      </trkpt>
      <trkpt lat="45.03371" lon="5.84208">
        <ele>1416</ele>
        <time>2022-06-05T09:22:57Z</time>
      </trkpt>
      <trkpt lat="45.03371" lon="5.84208">
        <ele>1416</ele>
        <time>2022-06-05T09:22:57Z</time>
      </trkpt>
      <trkpt lat="45.03365" lon="5.84205">
        <ele>1416</ele>
        <time>2022-06-05T09:23:06Z</time>
      </trkpt>
      <trkpt lat="45.03365" lon="5.84205">
        <ele>1417</ele>
        <time>2022-06-05T09:23:07Z</time>
      </trkpt>
      <trkpt lat="45.03365" lon="5.84204">
        <ele>1417</ele>
        <time>2022-06-05T09:23:08Z</time>
      </trkpt>
      <trkpt lat="45.03364" lon="5.84203">
        <ele>1417</ele>
        <time>2022-06-05T09:23:09Z</time>
      </trkpt>
      <trkpt lat="45.03363" lon="5.84203">
        <ele>1416</ele>
        <time>2022-06-05T09:23:10Z</time>
      </trkpt>
      <trkpt lat="45.03363" lon="5.84202">
        <ele>1416</ele>
        <time>2022-06-05T09:23:11Z</time>
      </trkpt>
      <trkpt lat="45.03363" lon="5.84203">
        <ele>1416</ele>
        <time>2022-06-05T09:23:12Z</time>
      </trkpt>
      <trkpt lat="45.03363" lon="5.84203">
        <ele>1416</ele>
        <time>2022-06-05T09:23:13Z</time>
      </trkpt>
      <trkpt lat="45.03363" lon="5.84203">
        <ele>1416</ele>
        <time>2022-06-05T09:23:14Z</time>
      </trkpt>
      <trkpt lat="45.03363" lon="5.84203">
        <ele>1416</ele>
        <time>2022-06-05T09:23:15Z</time>
      </trkpt>
      <trkpt lat="45.03363" lon="5.84203">
        <ele>1416</ele>
        <time>2022-06-05T09:23:16Z</time>
      </trkpt>
      <trkpt lat="45.03363" lon="5.84203">
        <ele>1416</ele>
        <time>2022-06-05T09:23:17Z</time>
      </trkpt>
      <trkpt lat="45.03363" lon="5.84203">
        <ele>1416</ele>
        <time>2022-06-05T09:23:17Z</time>
      </trkpt>
      <trkpt lat="45.03363" lon="5.84203">
        <ele>1416</ele>
        <time>2022-06-05T09:23:17Z</time>
      </trkpt>
      <trkpt lat="45.03354" lon="5.84203">
        <ele>1418</ele>
        <time>2022-06-05T09:23:42Z</time>
      </trkpt>
      <trkpt lat="45.03354" lon="5.84203">
        <ele>1418</ele>
        <time>2022-06-05T09:23:43Z</time>
      </trkpt>
      <trkpt lat="45.03353" lon="5.84203">
        <ele>1418</ele>
        <time>2022-06-05T09:23:44Z</time>
      </trkpt>
      <trkpt lat="45.03353" lon="5.84203">
        <ele>1418</ele>
        <time>2022-06-05T09:23:45Z</time>
      </trkpt>
      <trkpt lat="45.03352" lon="5.84203">
        <ele>1418</ele>
        <time>2022-06-05T09:23:46Z</time>
      </trkpt>
      <trkpt lat="45.03352" lon="5.84202">
        <ele>1418</ele>
        <time>2022-06-05T09:23:47Z</time>
      </trkpt>
      <trkpt lat="45.03352" lon="5.84202">
        <ele>1418</ele>
        <time>2022-06-05T09:23:48Z</time>
      </trkpt>
      <trkpt lat="45.0335" lon="5.84202">
        <ele>1418</ele>
        <time>2022-06-05T09:23:49Z</time>
      </trkpt>
      <trkpt lat="45.0335" lon="5.84202">
        <ele>1418</ele>
        <time>2022-06-05T09:23:50Z</time>
      </trkpt>
      <trkpt lat="45.03349" lon="5.84202">
        <ele>1418</ele>
        <time>2022-06-05T09:23:51Z</time>
      </trkpt>
      <trkpt lat="45.03348" lon="5.84201">
        <ele>1418</ele>
        <time>2022-06-05T09:23:52Z</time>
      </trkpt>
      <trkpt lat="45.03347" lon="5.84202">
        <ele>1419</ele>
        <time>2022-06-05T09:23:53Z</time>
      </trkpt>
      <trkpt lat="45.03346" lon="5.84202">
        <ele>1420</ele>
        <time>2022-06-05T09:23:54Z</time>
      </trkpt>
      <trkpt lat="45.03345" lon="5.84203">
        <ele>1421</ele>
        <time>2022-06-05T09:23:55Z</time>
      </trkpt>
      <trkpt lat="45.03344" lon="5.84203">
        <ele>1421</ele>
        <time>2022-06-05T09:23:56Z</time>
      </trkpt>
      <trkpt lat="45.03343" lon="5.84203">
        <ele>1421</ele>
        <time>2022-06-05T09:23:57Z</time>
      </trkpt>
      <trkpt lat="45.03342" lon="5.84203">
        <ele>1422</ele>
        <time>2022-06-05T09:23:58Z</time>
      </trkpt>
      <trkpt lat="45.03341" lon="5.84203">
        <ele>1421</ele>
        <time>2022-06-05T09:23:59Z</time>
      </trkpt>
      <trkpt lat="45.03341" lon="5.84204">
        <ele>1422</ele>
        <time>2022-06-05T09:24:00Z</time>
      </trkpt>
      <trkpt lat="45.0334" lon="5.84204">
        <ele>1422</ele>
        <time>2022-06-05T09:24:01Z</time>
      </trkpt>
      <trkpt lat="45.03339" lon="5.84204">
        <ele>1421</ele>
        <time>2022-06-05T09:24:02Z</time>
      </trkpt>
      <trkpt lat="45.03338" lon="5.84203">
        <ele>1421</ele>
        <time>2022-06-05T09:24:03Z</time>
      </trkpt>
      <trkpt lat="45.03337" lon="5.84202">
        <ele>1422</ele>
        <time>2022-06-05T09:24:04Z</time>
      </trkpt>
      <trkpt lat="45.03336" lon="5.84202">
        <ele>1422</ele>
        <time>2022-06-05T09:24:05Z</time>
      </trkpt>
      <trkpt lat="45.03335" lon="5.84201">
        <ele>1422</ele>
        <time>2022-06-05T09:24:06Z</time>
      </trkpt>
      <trkpt lat="45.03334" lon="5.84201">
        <ele>1423</ele>
        <time>2022-06-05T09:24:07Z</time>
      </trkpt>
      <trkpt lat="45.03333" lon="5.842">
        <ele>1423</ele>
        <time>2022-06-05T09:24:08Z</time>
      </trkpt>
      <trkpt lat="45.03333" lon="5.842">
        <ele>1423</ele>
        <time>2022-06-05T09:24:09Z</time>
      </trkpt>
      <trkpt lat="45.03332" lon="5.84199">
        <ele>1424</ele>
        <time>2022-06-05T09:24:10Z</time>
      </trkpt>
      <trkpt lat="45.03331" lon="5.84199">
        <ele>1424</ele>
        <time>2022-06-05T09:24:11Z</time>
      </trkpt>
      <trkpt lat="45.0333" lon="5.84199">
        <ele>1424</ele>
        <time>2022-06-05T09:24:12Z</time>
      </trkpt>
      <trkpt lat="45.03328" lon="5.84198">
        <ele>1424</ele>
        <time>2022-06-05T09:24:13Z</time>
      </trkpt>
      <trkpt lat="45.03326" lon="5.84197">
        <ele>1423</ele>
        <time>2022-06-05T09:24:14Z</time>
      </trkpt>
      <trkpt lat="45.03326" lon="5.84196">
        <ele>1422</ele>
        <time>2022-06-05T09:24:15Z</time>
      </trkpt>
      <trkpt lat="45.03325" lon="5.84196">
        <ele>1422</ele>
        <time>2022-06-05T09:24:16Z</time>
      </trkpt>
      <trkpt lat="45.03324" lon="5.84196">
        <ele>1422</ele>
        <time>2022-06-05T09:24:17Z</time>
      </trkpt>
      <trkpt lat="45.03323" lon="5.84196">
        <ele>1423</ele>
        <time>2022-06-05T09:24:18Z</time>
      </trkpt>
      <trkpt lat="45.03322" lon="5.84196">
        <ele>1423</ele>
        <time>2022-06-05T09:24:19Z</time>
      </trkpt>
      <trkpt lat="45.0332" lon="5.84197">
        <ele>1423</ele>
        <time>2022-06-05T09:24:20Z</time>
      </trkpt>
      <trkpt lat="45.03319" lon="5.84197">
        <ele>1423</ele>
        <time>2022-06-05T09:24:21Z</time>
      </trkpt>
      <trkpt lat="45.03318" lon="5.84197">
        <ele>1423</ele>
        <time>2022-06-05T09:24:22Z</time>
      </trkpt>
      <trkpt lat="45.03317" lon="5.84197">
        <ele>1424</ele>
        <time>2022-06-05T09:24:23Z</time>
      </trkpt>
      <trkpt lat="45.03316" lon="5.84198">
        <ele>1424</ele>
        <time>2022-06-05T09:24:24Z</time>
      </trkpt>
      <trkpt lat="45.03315" lon="5.84198">
        <ele>1424</ele>
        <time>2022-06-05T09:24:25Z</time>
      </trkpt>
      <trkpt lat="45.03313" lon="5.84197">
        <ele>1424</ele>
        <time>2022-06-05T09:24:26Z</time>
      </trkpt>
      <trkpt lat="45.03313" lon="5.84198">
        <ele>1424</ele>
        <time>2022-06-05T09:24:27Z</time>
      </trkpt>
      <trkpt lat="45.03312" lon="5.84199">
        <ele>1425</ele>
        <time>2022-06-05T09:24:28Z</time>
      </trkpt>
      <trkpt lat="45.03312" lon="5.842">
        <ele>1425</ele>
        <time>2022-06-05T09:24:29Z</time>
      </trkpt>
      <trkpt lat="45.03311" lon="5.84201">
        <ele>1425</ele>
        <time>2022-06-05T09:24:30Z</time>
      </trkpt>
      <trkpt lat="45.0331" lon="5.84201">
        <ele>1425</ele>
        <time>2022-06-05T09:24:31Z</time>
      </trkpt>
      <trkpt lat="45.0331" lon="5.84202">
        <ele>1425</ele>
        <time>2022-06-05T09:24:32Z</time>
      </trkpt>
      <trkpt lat="45.03309" lon="5.84203">
        <ele>1425</ele>
        <time>2022-06-05T09:24:33Z</time>
      </trkpt>
      <trkpt lat="45.03309" lon="5.84204">
        <ele>1426</ele>
        <time>2022-06-05T09:24:34Z</time>
      </trkpt>
      <trkpt lat="45.03308" lon="5.84205">
        <ele>1426</ele>
        <time>2022-06-05T09:24:35Z</time>
      </trkpt>
      <trkpt lat="45.03308" lon="5.84205">
        <ele>1426</ele>
        <time>2022-06-05T09:24:36Z</time>
      </trkpt>
      <trkpt lat="45.03307" lon="5.84205">
        <ele>1427</ele>
        <time>2022-06-05T09:24:37Z</time>
      </trkpt>
      <trkpt lat="45.03305" lon="5.84205">
        <ele>1427</ele>
        <time>2022-06-05T09:24:38Z</time>
      </trkpt>
      <trkpt lat="45.03305" lon="5.84206">
        <ele>1428</ele>
        <time>2022-06-05T09:24:39Z</time>
      </trkpt>
      <trkpt lat="45.03304" lon="5.84206">
        <ele>1427</ele>
        <time>2022-06-05T09:24:40Z</time>
      </trkpt>
      <trkpt lat="45.03304" lon="5.84206">
        <ele>1427</ele>
        <time>2022-06-05T09:24:41Z</time>
      </trkpt>
      <trkpt lat="45.03303" lon="5.84206">
        <ele>1427</ele>
        <time>2022-06-05T09:24:42Z</time>
      </trkpt>
      <trkpt lat="45.03302" lon="5.84206">
        <ele>1428</ele>
        <time>2022-06-05T09:24:43Z</time>
      </trkpt>
      <trkpt lat="45.03301" lon="5.84206">
        <ele>1428</ele>
        <time>2022-06-05T09:24:44Z</time>
      </trkpt>
      <trkpt lat="45.03301" lon="5.84206">
        <ele>1428</ele>
        <time>2022-06-05T09:24:45Z</time>
      </trkpt>
      <trkpt lat="45.03301" lon="5.84206">
        <ele>1428</ele>
        <time>2022-06-05T09:24:46Z</time>
      </trkpt>
      <trkpt lat="45.03301" lon="5.84206">
        <ele>1428</ele>
        <time>2022-06-05T09:24:47Z</time>
      </trkpt>
      <trkpt lat="45.03301" lon="5.84206">
        <ele>1428</ele>
        <time>2022-06-05T09:24:47Z</time>
      </trkpt>
      <trkpt lat="45.03301" lon="5.84206">
        <ele>1428</ele>
        <time>2022-06-05T09:24:47Z</time>
      </trkpt>
      <trkpt lat="45.03293" lon="5.8421">
        <ele>1421</ele>
        <time>2022-06-05T09:27:02Z</time>
      </trkpt>
      <trkpt lat="45.03292" lon="5.8421">
        <ele>1421</ele>
        <time>2022-06-05T09:27:03Z</time>
      </trkpt>
      <trkpt lat="45.03291" lon="5.84211">
        <ele>1421</ele>
        <time>2022-06-05T09:27:04Z</time>
      </trkpt>
      <trkpt lat="45.0329" lon="5.84212">
        <ele>1421</ele>
        <time>2022-06-05T09:27:05Z</time>
      </trkpt>
      <trkpt lat="45.03289" lon="5.84212">
        <ele>1421</ele>
        <time>2022-06-05T09:27:06Z</time>
      </trkpt>
      <trkpt lat="45.03288" lon="5.84213">
        <ele>1421</ele>
        <time>2022-06-05T09:27:07Z</time>
      </trkpt>
      <trkpt lat="45.03288" lon="5.84214">
        <ele>1421</ele>
        <time>2022-06-05T09:27:08Z</time>
      </trkpt>
      <trkpt lat="45.03286" lon="5.84214">
        <ele>1421</ele>
        <time>2022-06-05T09:27:09Z</time>
      </trkpt>
      <trkpt lat="45.03286" lon="5.84215">
        <ele>1420</ele>
        <time>2022-06-05T09:27:10Z</time>
      </trkpt>
      <trkpt lat="45.03285" lon="5.84215">
        <ele>1421</ele>
        <time>2022-06-05T09:27:11Z</time>
      </trkpt>
      <trkpt lat="45.03285" lon="5.84216">
        <ele>1421</ele>
        <time>2022-06-05T09:27:12Z</time>
      </trkpt>
      <trkpt lat="45.03284" lon="5.84217">
        <ele>1421</ele>
        <time>2022-06-05T09:27:13Z</time>
      </trkpt>
      <trkpt lat="45.03283" lon="5.84219">
        <ele>1421</ele>
        <time>2022-06-05T09:27:14Z</time>
      </trkpt>
      <trkpt lat="45.03283" lon="5.84219">
        <ele>1420</ele>
        <time>2022-06-05T09:27:15Z</time>
      </trkpt>
      <trkpt lat="45.03282" lon="5.84219">
        <ele>1420</ele>
        <time>2022-06-05T09:27:16Z</time>
      </trkpt>
      <trkpt lat="45.03282" lon="5.8422">
        <ele>1420</ele>
        <time>2022-06-05T09:27:17Z</time>
      </trkpt>
      <trkpt lat="45.03281" lon="5.8422">
        <ele>1420</ele>
        <time>2022-06-05T09:27:18Z</time>
      </trkpt>
      <trkpt lat="45.03281" lon="5.84221">
        <ele>1420</ele>
        <time>2022-06-05T09:27:19Z</time>
      </trkpt>
      <trkpt lat="45.0328" lon="5.84221">
        <ele>1420</ele>
        <time>2022-06-05T09:27:20Z</time>
      </trkpt>
      <trkpt lat="45.03279" lon="5.84221">
        <ele>1419</ele>
        <time>2022-06-05T09:27:21Z</time>
      </trkpt>
      <trkpt lat="45.03278" lon="5.84221">
        <ele>1418</ele>
        <time>2022-06-05T09:27:22Z</time>
      </trkpt>
      <trkpt lat="45.03277" lon="5.84222">
        <ele>1418</ele>
        <time>2022-06-05T09:27:23Z</time>
      </trkpt>
      <trkpt lat="45.03276" lon="5.84223">
        <ele>1418</ele>
        <time>2022-06-05T09:27:24Z</time>
      </trkpt>
      <trkpt lat="45.03276" lon="5.84223">
        <ele>1418</ele>
        <time>2022-06-05T09:27:25Z</time>
      </trkpt>
      <trkpt lat="45.03275" lon="5.84224">
        <ele>1418</ele>
        <time>2022-06-05T09:27:26Z</time>
      </trkpt>
      <trkpt lat="45.03274" lon="5.84225">
        <ele>1418</ele>
        <time>2022-06-05T09:27:27Z</time>
      </trkpt>
      <trkpt lat="45.03273" lon="5.84225">
        <ele>1419</ele>
        <time>2022-06-05T09:27:28Z</time>
      </trkpt>
      <trkpt lat="45.03273" lon="5.84226">
        <ele>1419</ele>
        <time>2022-06-05T09:27:29Z</time>
      </trkpt>
      <trkpt lat="45.03272" lon="5.84227">
        <ele>1419</ele>
        <time>2022-06-05T09:27:30Z</time>
      </trkpt>
      <trkpt lat="45.03271" lon="5.84228">
        <ele>1419</ele>
        <time>2022-06-05T09:27:31Z</time>
      </trkpt>
      <trkpt lat="45.0327" lon="5.84228">
        <ele>1419</ele>
        <time>2022-06-05T09:27:32Z</time>
      </trkpt>
      <trkpt lat="45.0327" lon="5.84229">
        <ele>1420</ele>
        <time>2022-06-05T09:27:33Z</time>
      </trkpt>
      <trkpt lat="45.03269" lon="5.8423">
        <ele>1419</ele>
        <time>2022-06-05T09:27:34Z</time>
      </trkpt>
      <trkpt lat="45.03268" lon="5.84231">
        <ele>1419</ele>
        <time>2022-06-05T09:27:35Z</time>
      </trkpt>
      <trkpt lat="45.03267" lon="5.84232">
        <ele>1419</ele>
        <time>2022-06-05T09:27:36Z</time>
      </trkpt>
      <trkpt lat="45.03267" lon="5.84233">
        <ele>1418</ele>
        <time>2022-06-05T09:27:37Z</time>
      </trkpt>
      <trkpt lat="45.03266" lon="5.84234">
        <ele>1418</ele>
        <time>2022-06-05T09:27:38Z</time>
      </trkpt>
      <trkpt lat="45.03265" lon="5.84235">
        <ele>1417</ele>
        <time>2022-06-05T09:27:39Z</time>
      </trkpt>
      <trkpt lat="45.03265" lon="5.84236">
        <ele>1417</ele>
        <time>2022-06-05T09:27:40Z</time>
      </trkpt>
      <trkpt lat="45.03264" lon="5.84237">
        <ele>1417</ele>
        <time>2022-06-05T09:27:41Z</time>
      </trkpt>
      <trkpt lat="45.03264" lon="5.84238">
        <ele>1416</ele>
        <time>2022-06-05T09:27:42Z</time>
      </trkpt>
      <trkpt lat="45.03263" lon="5.84239">
        <ele>1416</ele>
        <time>2022-06-05T09:27:43Z</time>
      </trkpt>
      <trkpt lat="45.03263" lon="5.84239">
        <ele>1416</ele>
        <time>2022-06-05T09:27:44Z</time>
      </trkpt>
      <trkpt lat="45.03262" lon="5.84241">
        <ele>1416</ele>
        <time>2022-06-05T09:27:45Z</time>
      </trkpt>
      <trkpt lat="45.03262" lon="5.84243">
        <ele>1416</ele>
        <time>2022-06-05T09:27:46Z</time>
      </trkpt>
      <trkpt lat="45.03261" lon="5.84244">
        <ele>1416</ele>
        <time>2022-06-05T09:27:47Z</time>
      </trkpt>
      <trkpt lat="45.0326" lon="5.84245">
        <ele>1415</ele>
        <time>2022-06-05T09:27:48Z</time>
      </trkpt>
      <trkpt lat="45.0326" lon="5.84246">
        <ele>1415</ele>
        <time>2022-06-05T09:27:49Z</time>
      </trkpt>
      <trkpt lat="45.03259" lon="5.84247">
        <ele>1416</ele>
        <time>2022-06-05T09:27:50Z</time>
      </trkpt>
      <trkpt lat="45.03259" lon="5.84248">
        <ele>1416</ele>
        <time>2022-06-05T09:27:51Z</time>
      </trkpt>
      <trkpt lat="45.03258" lon="5.84249">
        <ele>1416</ele>
        <time>2022-06-05T09:27:52Z</time>
      </trkpt>
      <trkpt lat="45.03258" lon="5.84249">
        <ele>1416</ele>
        <time>2022-06-05T09:27:53Z</time>
      </trkpt>
      <trkpt lat="45.03257" lon="5.84251">
        <ele>1416</ele>
        <time>2022-06-05T09:27:54Z</time>
      </trkpt>
      <trkpt lat="45.03257" lon="5.84252">
        <ele>1416</ele>
        <time>2022-06-05T09:27:55Z</time>
      </trkpt>
      <trkpt lat="45.03257" lon="5.84253">
        <ele>1416</ele>
        <time>2022-06-05T09:27:56Z</time>
      </trkpt>
      <trkpt lat="45.03256" lon="5.84255">
        <ele>1416</ele>
        <time>2022-06-05T09:27:57Z</time>
      </trkpt>
      <trkpt lat="45.03256" lon="5.84256">
        <ele>1416</ele>
        <time>2022-06-05T09:27:58Z</time>
      </trkpt>
      <trkpt lat="45.03256" lon="5.84256">
        <ele>1416</ele>
        <time>2022-06-05T09:27:59Z</time>
      </trkpt>
      <trkpt lat="45.03255" lon="5.84257">
        <ele>1416</ele>
        <time>2022-06-05T09:28:00Z</time>
      </trkpt>
      <trkpt lat="45.03254" lon="5.84258">
        <ele>1416</ele>
        <time>2022-06-05T09:28:01Z</time>
      </trkpt>
      <trkpt lat="45.03252" lon="5.84259">
        <ele>1416</ele>
        <time>2022-06-05T09:28:02Z</time>
      </trkpt>
      <trkpt lat="45.03252" lon="5.84259">
        <ele>1416</ele>
        <time>2022-06-05T09:28:03Z</time>
      </trkpt>
      <trkpt lat="45.03251" lon="5.8426">
        <ele>1416</ele>
        <time>2022-06-05T09:28:04Z</time>
      </trkpt>
      <trkpt lat="45.03251" lon="5.84261">
        <ele>1416</ele>
        <time>2022-06-05T09:28:05Z</time>
      </trkpt>
      <trkpt lat="45.0325" lon="5.84262">
        <ele>1416</ele>
        <time>2022-06-05T09:28:06Z</time>
      </trkpt>
      <trkpt lat="45.0325" lon="5.84263">
        <ele>1416</ele>
        <time>2022-06-05T09:28:07Z</time>
      </trkpt>
      <trkpt lat="45.03249" lon="5.84264">
        <ele>1416</ele>
        <time>2022-06-05T09:28:08Z</time>
      </trkpt>
      <trkpt lat="45.03249" lon="5.84265">
        <ele>1417</ele>
        <time>2022-06-05T09:28:09Z</time>
      </trkpt>
      <trkpt lat="45.03248" lon="5.84266">
        <ele>1417</ele>
        <time>2022-06-05T09:28:10Z</time>
      </trkpt>
      <trkpt lat="45.03248" lon="5.84267">
        <ele>1417</ele>
        <time>2022-06-05T09:28:11Z</time>
      </trkpt>
      <trkpt lat="45.03248" lon="5.84268">
        <ele>1417</ele>
        <time>2022-06-05T09:28:12Z</time>
      </trkpt>
      <trkpt lat="45.03247" lon="5.84269">
        <ele>1417</ele>
        <time>2022-06-05T09:28:13Z</time>
      </trkpt>
      <trkpt lat="45.03247" lon="5.8427">
        <ele>1417</ele>
        <time>2022-06-05T09:28:14Z</time>
      </trkpt>
      <trkpt lat="45.03247" lon="5.84272">
        <ele>1418</ele>
        <time>2022-06-05T09:28:15Z</time>
      </trkpt>
      <trkpt lat="45.03247" lon="5.84274">
        <ele>1418</ele>
        <time>2022-06-05T09:28:16Z</time>
      </trkpt>
      <trkpt lat="45.03247" lon="5.84275">
        <ele>1418</ele>
        <time>2022-06-05T09:28:17Z</time>
      </trkpt>
      <trkpt lat="45.03246" lon="5.84276">
        <ele>1417</ele>
        <time>2022-06-05T09:28:18Z</time>
      </trkpt>
      <trkpt lat="45.03245" lon="5.84277">
        <ele>1417</ele>
        <time>2022-06-05T09:28:19Z</time>
      </trkpt>
      <trkpt lat="45.03244" lon="5.84278">
        <ele>1417</ele>
        <time>2022-06-05T09:28:20Z</time>
      </trkpt>
      <trkpt lat="45.03244" lon="5.84279">
        <ele>1417</ele>
        <time>2022-06-05T09:28:21Z</time>
      </trkpt>
      <trkpt lat="45.03243" lon="5.8428">
        <ele>1417</ele>
        <time>2022-06-05T09:28:22Z</time>
      </trkpt>
      <trkpt lat="45.03242" lon="5.84281">
        <ele>1417</ele>
        <time>2022-06-05T09:28:23Z</time>
      </trkpt>
      <trkpt lat="45.03242" lon="5.84282">
        <ele>1416</ele>
        <time>2022-06-05T09:28:24Z</time>
      </trkpt>
      <trkpt lat="45.03241" lon="5.84282">
        <ele>1417</ele>
        <time>2022-06-05T09:28:25Z</time>
      </trkpt>
      <trkpt lat="45.03241" lon="5.84283">
        <ele>1417</ele>
        <time>2022-06-05T09:28:26Z</time>
      </trkpt>
      <trkpt lat="45.0324" lon="5.84284">
        <ele>1417</ele>
        <time>2022-06-05T09:28:27Z</time>
      </trkpt>
      <trkpt lat="45.0324" lon="5.84285">
        <ele>1416</ele>
        <time>2022-06-05T09:28:28Z</time>
      </trkpt>
      <trkpt lat="45.03239" lon="5.84287">
        <ele>1417</ele>
        <time>2022-06-05T09:28:29Z</time>
      </trkpt>
      <trkpt lat="45.03239" lon="5.84288">
        <ele>1416</ele>
        <time>2022-06-05T09:28:30Z</time>
      </trkpt>
      <trkpt lat="45.03239" lon="5.84289">
        <ele>1416</ele>
        <time>2022-06-05T09:28:31Z</time>
      </trkpt>
      <trkpt lat="45.03238" lon="5.8429">
        <ele>1416</ele>
        <time>2022-06-05T09:28:32Z</time>
      </trkpt>
      <trkpt lat="45.03238" lon="5.84291">
        <ele>1416</ele>
        <time>2022-06-05T09:28:33Z</time>
      </trkpt>
      <trkpt lat="45.03238" lon="5.84293">
        <ele>1416</ele>
        <time>2022-06-05T09:28:34Z</time>
      </trkpt>
      <trkpt lat="45.03238" lon="5.84294">
        <ele>1416</ele>
        <time>2022-06-05T09:28:35Z</time>
      </trkpt>
      <trkpt lat="45.03237" lon="5.84295">
        <ele>1416</ele>
        <time>2022-06-05T09:28:36Z</time>
      </trkpt>
      <trkpt lat="45.03237" lon="5.84296">
        <ele>1415</ele>
        <time>2022-06-05T09:28:37Z</time>
      </trkpt>
      <trkpt lat="45.03236" lon="5.84297">
        <ele>1415</ele>
        <time>2022-06-05T09:28:38Z</time>
      </trkpt>
      <trkpt lat="45.03236" lon="5.84298">
        <ele>1416</ele>
        <time>2022-06-05T09:28:39Z</time>
      </trkpt>
      <trkpt lat="45.03235" lon="5.84298">
        <ele>1416</ele>
        <time>2022-06-05T09:28:40Z</time>
      </trkpt>
      <trkpt lat="45.03235" lon="5.843">
        <ele>1415</ele>
        <time>2022-06-05T09:28:41Z</time>
      </trkpt>
      <trkpt lat="45.03235" lon="5.843">
        <ele>1415</ele>
        <time>2022-06-05T09:28:42Z</time>
      </trkpt>
      <trkpt lat="45.03235" lon="5.84301">
        <ele>1415</ele>
        <time>2022-06-05T09:28:43Z</time>
      </trkpt>
      <trkpt lat="45.03235" lon="5.84301">
        <ele>1415</ele>
        <time>2022-06-05T09:28:44Z</time>
      </trkpt>
      <trkpt lat="45.03235" lon="5.84303">
        <ele>1415</ele>
        <time>2022-06-05T09:28:45Z</time>
      </trkpt>
      <trkpt lat="45.03235" lon="5.84305">
        <ele>1415</ele>
        <time>2022-06-05T09:28:46Z</time>
      </trkpt>
      <trkpt lat="45.03235" lon="5.84307">
        <ele>1415</ele>
        <time>2022-06-05T09:28:47Z</time>
      </trkpt>
      <trkpt lat="45.03235" lon="5.84308">
        <ele>1415</ele>
        <time>2022-06-05T09:28:48Z</time>
      </trkpt>
      <trkpt lat="45.03235" lon="5.8431">
        <ele>1416</ele>
        <time>2022-06-05T09:28:49Z</time>
      </trkpt>
      <trkpt lat="45.03235" lon="5.84311">
        <ele>1416</ele>
        <time>2022-06-05T09:28:50Z</time>
      </trkpt>
      <trkpt lat="45.03235" lon="5.84312">
        <ele>1417</ele>
        <time>2022-06-05T09:28:51Z</time>
      </trkpt>
      <trkpt lat="45.03235" lon="5.84313">
        <ele>1417</ele>
        <time>2022-06-05T09:28:52Z</time>
      </trkpt>
      <trkpt lat="45.03235" lon="5.84316">
        <ele>1417</ele>
        <time>2022-06-05T09:28:53Z</time>
      </trkpt>
      <trkpt lat="45.03235" lon="5.84317">
        <ele>1418</ele>
        <time>2022-06-05T09:28:54Z</time>
      </trkpt>
      <trkpt lat="45.03234" lon="5.84318">
        <ele>1418</ele>
        <time>2022-06-05T09:28:55Z</time>
      </trkpt>
      <trkpt lat="45.03234" lon="5.8432">
        <ele>1418</ele>
        <time>2022-06-05T09:28:56Z</time>
      </trkpt>
      <trkpt lat="45.03234" lon="5.84321">
        <ele>1418</ele>
        <time>2022-06-05T09:28:57Z</time>
      </trkpt>
      <trkpt lat="45.03234" lon="5.84323">
        <ele>1418</ele>
        <time>2022-06-05T09:28:58Z</time>
      </trkpt>
      <trkpt lat="45.03234" lon="5.84324">
        <ele>1418</ele>
        <time>2022-06-05T09:28:59Z</time>
      </trkpt>
      <trkpt lat="45.03234" lon="5.84325">
        <ele>1419</ele>
        <time>2022-06-05T09:29:00Z</time>
      </trkpt>
      <trkpt lat="45.03234" lon="5.84326">
        <ele>1419</ele>
        <time>2022-06-05T09:29:01Z</time>
      </trkpt>
      <trkpt lat="45.03234" lon="5.84327">
        <ele>1420</ele>
        <time>2022-06-05T09:29:02Z</time>
      </trkpt>
      <trkpt lat="45.03235" lon="5.84328">
        <ele>1420</ele>
        <time>2022-06-05T09:29:03Z</time>
      </trkpt>
      <trkpt lat="45.03235" lon="5.84329">
        <ele>1420</ele>
        <time>2022-06-05T09:29:04Z</time>
      </trkpt>
      <trkpt lat="45.03235" lon="5.84329">
        <ele>1420</ele>
        <time>2022-06-05T09:29:05Z</time>
      </trkpt>
      <trkpt lat="45.03235" lon="5.8433">
        <ele>1420</ele>
        <time>2022-06-05T09:29:06Z</time>
      </trkpt>
      <trkpt lat="45.03236" lon="5.84332">
        <ele>1420</ele>
        <time>2022-06-05T09:29:07Z</time>
      </trkpt>
      <trkpt lat="45.03236" lon="5.84333">
        <ele>1421</ele>
        <time>2022-06-05T09:29:08Z</time>
      </trkpt>
      <trkpt lat="45.03236" lon="5.84334">
        <ele>1421</ele>
        <time>2022-06-05T09:29:09Z</time>
      </trkpt>
      <trkpt lat="45.03236" lon="5.84335">
        <ele>1420</ele>
        <time>2022-06-05T09:29:10Z</time>
      </trkpt>
      <trkpt lat="45.03236" lon="5.84336">
        <ele>1420</ele>
        <time>2022-06-05T09:29:11Z</time>
      </trkpt>
      <trkpt lat="45.03236" lon="5.84336">
        <ele>1420</ele>
        <time>2022-06-05T09:29:11Z</time>
      </trkpt>
      <trkpt lat="45.03236" lon="5.84336">
        <ele>1420</ele>
        <time>2022-06-05T09:29:11Z</time>
      </trkpt>
      <trkpt lat="45.03236" lon="5.84343">
        <ele>1418</ele>
        <time>2022-06-05T09:29:19Z</time>
      </trkpt>
      <trkpt lat="45.03236" lon="5.84344">
        <ele>1418</ele>
        <time>2022-06-05T09:29:20Z</time>
      </trkpt>
      <trkpt lat="45.03236" lon="5.84344">
        <ele>1418</ele>
        <time>2022-06-05T09:29:21Z</time>
      </trkpt>
      <trkpt lat="45.03236" lon="5.84344">
        <ele>1418</ele>
        <time>2022-06-05T09:29:22Z</time>
      </trkpt>
      <trkpt lat="45.03236" lon="5.84347">
        <ele>1418</ele>
        <time>2022-06-05T09:29:23Z</time>
      </trkpt>
      <trkpt lat="45.03236" lon="5.84348">
        <ele>1418</ele>
        <time>2022-06-05T09:29:24Z</time>
      </trkpt>
      <trkpt lat="45.03236" lon="5.84349">
        <ele>1418</ele>
        <time>2022-06-05T09:29:25Z</time>
      </trkpt>
      <trkpt lat="45.03236" lon="5.84351">
        <ele>1418</ele>
        <time>2022-06-05T09:29:26Z</time>
      </trkpt>
      <trkpt lat="45.03236" lon="5.84352">
        <ele>1418</ele>
        <time>2022-06-05T09:29:27Z</time>
      </trkpt>
      <trkpt lat="45.03236" lon="5.84353">
        <ele>1418</ele>
        <time>2022-06-05T09:29:28Z</time>
      </trkpt>
      <trkpt lat="45.03236" lon="5.84354">
        <ele>1419</ele>
        <time>2022-06-05T09:29:29Z</time>
      </trkpt>
      <trkpt lat="45.03236" lon="5.84355">
        <ele>1420</ele>
        <time>2022-06-05T09:29:30Z</time>
      </trkpt>
      <trkpt lat="45.03237" lon="5.84356">
        <ele>1420</ele>
        <time>2022-06-05T09:29:31Z</time>
      </trkpt>
      <trkpt lat="45.03237" lon="5.84358">
        <ele>1420</ele>
        <time>2022-06-05T09:29:32Z</time>
      </trkpt>
      <trkpt lat="45.03238" lon="5.84359">
        <ele>1420</ele>
        <time>2022-06-05T09:29:33Z</time>
      </trkpt>
      <trkpt lat="45.03238" lon="5.84361">
        <ele>1420</ele>
        <time>2022-06-05T09:29:34Z</time>
      </trkpt>
      <trkpt lat="45.03238" lon="5.84362">
        <ele>1420</ele>
        <time>2022-06-05T09:29:35Z</time>
      </trkpt>
      <trkpt lat="45.03238" lon="5.84364">
        <ele>1420</ele>
        <time>2022-06-05T09:29:36Z</time>
      </trkpt>
      <trkpt lat="45.03239" lon="5.84366">
        <ele>1420</ele>
        <time>2022-06-05T09:29:37Z</time>
      </trkpt>
      <trkpt lat="45.03239" lon="5.84367">
        <ele>1420</ele>
        <time>2022-06-05T09:29:38Z</time>
      </trkpt>
      <trkpt lat="45.03239" lon="5.84369">
        <ele>1421</ele>
        <time>2022-06-05T09:29:39Z</time>
      </trkpt>
      <trkpt lat="45.03239" lon="5.84371">
        <ele>1421</ele>
        <time>2022-06-05T09:29:40Z</time>
      </trkpt>
      <trkpt lat="45.0324" lon="5.84372">
        <ele>1421</ele>
        <time>2022-06-05T09:29:41Z</time>
      </trkpt>
      <trkpt lat="45.0324" lon="5.84372">
        <ele>1422</ele>
        <time>2022-06-05T09:29:42Z</time>
      </trkpt>
      <trkpt lat="45.03241" lon="5.84373">
        <ele>1422</ele>
        <time>2022-06-05T09:29:43Z</time>
      </trkpt>
      <trkpt lat="45.03241" lon="5.84373">
        <ele>1423</ele>
        <time>2022-06-05T09:29:44Z</time>
      </trkpt>
      <trkpt lat="45.03241" lon="5.84374">
        <ele>1422</ele>
        <time>2022-06-05T09:29:45Z</time>
      </trkpt>
      <trkpt lat="45.03241" lon="5.84374">
        <ele>1423</ele>
        <time>2022-06-05T09:29:46Z</time>
      </trkpt>
      <trkpt lat="45.03242" lon="5.84375">
        <ele>1424</ele>
        <time>2022-06-05T09:29:47Z</time>
      </trkpt>
      <trkpt lat="45.03242" lon="5.84377">
        <ele>1424</ele>
        <time>2022-06-05T09:29:48Z</time>
      </trkpt>
      <trkpt lat="45.03242" lon="5.84378">
        <ele>1424</ele>
        <time>2022-06-05T09:29:49Z</time>
      </trkpt>
      <trkpt lat="45.03242" lon="5.8438">
        <ele>1424</ele>
        <time>2022-06-05T09:29:50Z</time>
      </trkpt>
      <trkpt lat="45.03242" lon="5.84381">
        <ele>1424</ele>
        <time>2022-06-05T09:29:51Z</time>
      </trkpt>
      <trkpt lat="45.03242" lon="5.84382">
        <ele>1424</ele>
        <time>2022-06-05T09:29:52Z</time>
      </trkpt>
      <trkpt lat="45.03242" lon="5.84383">
        <ele>1424</ele>
        <time>2022-06-05T09:29:53Z</time>
      </trkpt>
      <trkpt lat="45.03243" lon="5.84384">
        <ele>1424</ele>
        <time>2022-06-05T09:29:54Z</time>
      </trkpt>
      <trkpt lat="45.03242" lon="5.84385">
        <ele>1424</ele>
        <time>2022-06-05T09:29:55Z</time>
      </trkpt>
      <trkpt lat="45.03242" lon="5.84386">
        <ele>1423</ele>
        <time>2022-06-05T09:29:56Z</time>
      </trkpt>
      <trkpt lat="45.03243" lon="5.84388">
        <ele>1423</ele>
        <time>2022-06-05T09:29:57Z</time>
      </trkpt>
      <trkpt lat="45.03243" lon="5.8439">
        <ele>1424</ele>
        <time>2022-06-05T09:29:58Z</time>
      </trkpt>
      <trkpt lat="45.03242" lon="5.84391">
        <ele>1423</ele>
        <time>2022-06-05T09:29:59Z</time>
      </trkpt>
      <trkpt lat="45.03243" lon="5.84392">
        <ele>1423</ele>
        <time>2022-06-05T09:30:00Z</time>
      </trkpt>
      <trkpt lat="45.03243" lon="5.84393">
        <ele>1423</ele>
        <time>2022-06-05T09:30:01Z</time>
      </trkpt>
      <trkpt lat="45.03243" lon="5.84394">
        <ele>1423</ele>
        <time>2022-06-05T09:30:02Z</time>
      </trkpt>
      <trkpt lat="45.03243" lon="5.84396">
        <ele>1424</ele>
        <time>2022-06-05T09:30:03Z</time>
      </trkpt>
      <trkpt lat="45.03244" lon="5.84397">
        <ele>1424</ele>
        <time>2022-06-05T09:30:04Z</time>
      </trkpt>
      <trkpt lat="45.03243" lon="5.84398">
        <ele>1424</ele>
        <time>2022-06-05T09:30:05Z</time>
      </trkpt>
      <trkpt lat="45.03243" lon="5.84399">
        <ele>1424</ele>
        <time>2022-06-05T09:30:06Z</time>
      </trkpt>
      <trkpt lat="45.03243" lon="5.844">
        <ele>1424</ele>
        <time>2022-06-05T09:30:07Z</time>
      </trkpt>
      <trkpt lat="45.03243" lon="5.84401">
        <ele>1424</ele>
        <time>2022-06-05T09:30:08Z</time>
      </trkpt>
      <trkpt lat="45.03243" lon="5.84403">
        <ele>1425</ele>
        <time>2022-06-05T09:30:09Z</time>
      </trkpt>
      <trkpt lat="45.03244" lon="5.84405">
        <ele>1425</ele>
        <time>2022-06-05T09:30:10Z</time>
      </trkpt>
      <trkpt lat="45.03244" lon="5.84406">
        <ele>1425</ele>
        <time>2022-06-05T09:30:11Z</time>
      </trkpt>
      <trkpt lat="45.03244" lon="5.84407">
        <ele>1425</ele>
        <time>2022-06-05T09:30:12Z</time>
      </trkpt>
      <trkpt lat="45.03243" lon="5.84408">
        <ele>1425</ele>
        <time>2022-06-05T09:30:13Z</time>
      </trkpt>
      <trkpt lat="45.03243" lon="5.84409">
        <ele>1425</ele>
        <time>2022-06-05T09:30:14Z</time>
      </trkpt>
      <trkpt lat="45.03244" lon="5.8441">
        <ele>1425</ele>
        <time>2022-06-05T09:30:15Z</time>
      </trkpt>
      <trkpt lat="45.03244" lon="5.84411">
        <ele>1425</ele>
        <time>2022-06-05T09:30:16Z</time>
      </trkpt>
      <trkpt lat="45.03244" lon="5.84412">
        <ele>1426</ele>
        <time>2022-06-05T09:30:17Z</time>
      </trkpt>
      <trkpt lat="45.03244" lon="5.84413">
        <ele>1426</ele>
        <time>2022-06-05T09:30:18Z</time>
      </trkpt>
      <trkpt lat="45.03245" lon="5.84415">
        <ele>1426</ele>
        <time>2022-06-05T09:30:19Z</time>
      </trkpt>
      <trkpt lat="45.03245" lon="5.84416">
        <ele>1426</ele>
        <time>2022-06-05T09:30:20Z</time>
      </trkpt>
      <trkpt lat="45.03246" lon="5.84417">
        <ele>1426</ele>
        <time>2022-06-05T09:30:21Z</time>
      </trkpt>
      <trkpt lat="45.03246" lon="5.84419">
        <ele>1427</ele>
        <time>2022-06-05T09:30:22Z</time>
      </trkpt>
      <trkpt lat="45.03247" lon="5.8442">
        <ele>1427</ele>
        <time>2022-06-05T09:30:23Z</time>
      </trkpt>
      <trkpt lat="45.03247" lon="5.84421">
        <ele>1426</ele>
        <time>2022-06-05T09:30:24Z</time>
      </trkpt>
      <trkpt lat="45.03246" lon="5.84422">
        <ele>1426</ele>
        <time>2022-06-05T09:30:25Z</time>
      </trkpt>
      <trkpt lat="45.03246" lon="5.84422">
        <ele>1426</ele>
        <time>2022-06-05T09:30:26Z</time>
      </trkpt>
      <trkpt lat="45.03247" lon="5.84423">
        <ele>1426</ele>
        <time>2022-06-05T09:30:27Z</time>
      </trkpt>
      <trkpt lat="45.03247" lon="5.84423">
        <ele>1426</ele>
        <time>2022-06-05T09:30:28Z</time>
      </trkpt>
      <trkpt lat="45.03246" lon="5.84423">
        <ele>1427</ele>
        <time>2022-06-05T09:30:29Z</time>
      </trkpt>
      <trkpt lat="45.03246" lon="5.84424">
        <ele>1427</ele>
        <time>2022-06-05T09:30:30Z</time>
      </trkpt>
      <trkpt lat="45.03246" lon="5.84424">
        <ele>1427</ele>
        <time>2022-06-05T09:30:31Z</time>
      </trkpt>
      <trkpt lat="45.03246" lon="5.84424">
        <ele>1427</ele>
        <time>2022-06-05T09:30:32Z</time>
      </trkpt>
      <trkpt lat="45.03246" lon="5.84425">
        <ele>1427</ele>
        <time>2022-06-05T09:30:33Z</time>
      </trkpt>
      <trkpt lat="45.03246" lon="5.84426">
        <ele>1427</ele>
        <time>2022-06-05T09:30:34Z</time>
      </trkpt>
      <trkpt lat="45.03246" lon="5.84426">
        <ele>1427</ele>
        <time>2022-06-05T09:30:35Z</time>
      </trkpt>
      <trkpt lat="45.03246" lon="5.84427">
        <ele>1428</ele>
        <time>2022-06-05T09:30:36Z</time>
      </trkpt>
      <trkpt lat="45.03246" lon="5.84428">
        <ele>1428</ele>
        <time>2022-06-05T09:30:37Z</time>
      </trkpt>
      <trkpt lat="45.03246" lon="5.84429">
        <ele>1429</ele>
        <time>2022-06-05T09:30:38Z</time>
      </trkpt>
      <trkpt lat="45.03247" lon="5.8443">
        <ele>1430</ele>
        <time>2022-06-05T09:30:39Z</time>
      </trkpt>
      <trkpt lat="45.03248" lon="5.8443">
        <ele>1430</ele>
        <time>2022-06-05T09:30:40Z</time>
      </trkpt>
      <trkpt lat="45.03248" lon="5.8443">
        <ele>1430</ele>
        <time>2022-06-05T09:30:41Z</time>
      </trkpt>
      <trkpt lat="45.03248" lon="5.8443">
        <ele>1430</ele>
        <time>2022-06-05T09:30:41Z</time>
      </trkpt>
      <trkpt lat="45.03248" lon="5.8443">
        <ele>1430</ele>
        <time>2022-06-05T09:30:41Z</time>
      </trkpt>
      <trkpt lat="45.03249" lon="5.84441">
        <ele>1433</ele>
        <time>2022-06-05T09:30:53Z</time>
      </trkpt>
      <trkpt lat="45.03248" lon="5.84442">
        <ele>1433</ele>
        <time>2022-06-05T09:30:54Z</time>
      </trkpt>
      <trkpt lat="45.03248" lon="5.84443">
        <ele>1433</ele>
        <time>2022-06-05T09:30:55Z</time>
      </trkpt>
      <trkpt lat="45.03248" lon="5.84444">
        <ele>1433</ele>
        <time>2022-06-05T09:30:56Z</time>
      </trkpt>
      <trkpt lat="45.03247" lon="5.84445">
        <ele>1432</ele>
        <time>2022-06-05T09:30:57Z</time>
      </trkpt>
      <trkpt lat="45.03247" lon="5.84447">
        <ele>1433</ele>
        <time>2022-06-05T09:30:58Z</time>
      </trkpt>
      <trkpt lat="45.03246" lon="5.84447">
        <ele>1433</ele>
        <time>2022-06-05T09:30:59Z</time>
      </trkpt>
      <trkpt lat="45.03246" lon="5.84448">
        <ele>1433</ele>
        <time>2022-06-05T09:31:00Z</time>
      </trkpt>
      <trkpt lat="45.03246" lon="5.84448">
        <ele>1433</ele>
        <time>2022-06-05T09:31:01Z</time>
      </trkpt>
      <trkpt lat="45.03245" lon="5.84448">
        <ele>1433</ele>
        <time>2022-06-05T09:31:02Z</time>
      </trkpt>
      <trkpt lat="45.03244" lon="5.84448">
        <ele>1432</ele>
        <time>2022-06-05T09:31:03Z</time>
      </trkpt>
      <trkpt lat="45.03243" lon="5.84448">
        <ele>1432</ele>
        <time>2022-06-05T09:31:04Z</time>
      </trkpt>
      <trkpt lat="45.03243" lon="5.84448">
        <ele>1432</ele>
        <time>2022-06-05T09:31:05Z</time>
      </trkpt>
      <trkpt lat="45.03243" lon="5.84448">
        <ele>1432</ele>
        <time>2022-06-05T09:31:06Z</time>
      </trkpt>
      <trkpt lat="45.03243" lon="5.84448">
        <ele>1432</ele>
        <time>2022-06-05T09:31:07Z</time>
      </trkpt>
      <trkpt lat="45.03243" lon="5.84448">
        <ele>1432</ele>
        <time>2022-06-05T09:31:08Z</time>
      </trkpt>
      <trkpt lat="45.03243" lon="5.84448">
        <ele>1432</ele>
        <time>2022-06-05T09:31:08Z</time>
      </trkpt>
      <trkpt lat="45.03243" lon="5.84448">
        <ele>1432</ele>
        <time>2022-06-05T09:31:08Z</time>
      </trkpt>
      <trkpt lat="45.03245" lon="5.84441">
        <ele>1429</ele>
        <time>2022-06-05T09:31:50Z</time>
      </trkpt>
      <trkpt lat="45.03245" lon="5.8444">
        <ele>1429</ele>
        <time>2022-06-05T09:31:51Z</time>
      </trkpt>
      <trkpt lat="45.03245" lon="5.84439">
        <ele>1429</ele>
        <time>2022-06-05T09:31:52Z</time>
      </trkpt>
      <trkpt lat="45.03245" lon="5.84439">
        <ele>1429</ele>
        <time>2022-06-05T09:31:53Z</time>
      </trkpt>
      <trkpt lat="45.03245" lon="5.84439">
        <ele>1429</ele>
        <time>2022-06-05T09:31:54Z</time>
      </trkpt>
      <trkpt lat="45.03245" lon="5.84439">
        <ele>1429</ele>
        <time>2022-06-05T09:31:55Z</time>
      </trkpt>
      <trkpt lat="45.03244" lon="5.84438">
        <ele>1429</ele>
        <time>2022-06-05T09:31:56Z</time>
      </trkpt>
      <trkpt lat="45.03244" lon="5.84437">
        <ele>1430</ele>
        <time>2022-06-05T09:31:57Z</time>
      </trkpt>
      <trkpt lat="45.03244" lon="5.84437">
        <ele>1430</ele>
        <time>2022-06-05T09:31:58Z</time>
      </trkpt>
      <trkpt lat="45.03244" lon="5.84436">
        <ele>1430</ele>
        <time>2022-06-05T09:31:59Z</time>
      </trkpt>
      <trkpt lat="45.03244" lon="5.84436">
        <ele>1430</ele>
        <time>2022-06-05T09:32:00Z</time>
      </trkpt>
      <trkpt lat="45.03244" lon="5.84436">
        <ele>1430</ele>
        <time>2022-06-05T09:32:01Z</time>
      </trkpt>
      <trkpt lat="45.03244" lon="5.84435">
        <ele>1431</ele>
        <time>2022-06-05T09:32:02Z</time>
      </trkpt>
      <trkpt lat="45.03243" lon="5.84434">
        <ele>1431</ele>
        <time>2022-06-05T09:32:03Z</time>
      </trkpt>
      <trkpt lat="45.03243" lon="5.84434">
        <ele>1431</ele>
        <time>2022-06-05T09:32:04Z</time>
      </trkpt>
      <trkpt lat="45.03243" lon="5.84434">
        <ele>1432</ele>
        <time>2022-06-05T09:32:05Z</time>
      </trkpt>
      <trkpt lat="45.03243" lon="5.84433">
        <ele>1432</ele>
        <time>2022-06-05T09:32:06Z</time>
      </trkpt>
      <trkpt lat="45.03243" lon="5.84432">
        <ele>1432</ele>
        <time>2022-06-05T09:32:07Z</time>
      </trkpt>
      <trkpt lat="45.03243" lon="5.84431">
        <ele>1432</ele>
        <time>2022-06-05T09:32:08Z</time>
      </trkpt>
      <trkpt lat="45.03243" lon="5.8443">
        <ele>1432</ele>
        <time>2022-06-05T09:32:09Z</time>
      </trkpt>
      <trkpt lat="45.03243" lon="5.84428">
        <ele>1432</ele>
        <time>2022-06-05T09:32:10Z</time>
      </trkpt>
      <trkpt lat="45.03242" lon="5.84427">
        <ele>1432</ele>
        <time>2022-06-05T09:32:11Z</time>
      </trkpt>
      <trkpt lat="45.03242" lon="5.84427">
        <ele>1432</ele>
        <time>2022-06-05T09:32:12Z</time>
      </trkpt>
      <trkpt lat="45.03241" lon="5.84425">
        <ele>1433</ele>
        <time>2022-06-05T09:32:13Z</time>
      </trkpt>
      <trkpt lat="45.03241" lon="5.84424">
        <ele>1433</ele>
        <time>2022-06-05T09:32:14Z</time>
      </trkpt>
      <trkpt lat="45.0324" lon="5.84423">
        <ele>1433</ele>
        <time>2022-06-05T09:32:15Z</time>
      </trkpt>
      <trkpt lat="45.03239" lon="5.84421">
        <ele>1433</ele>
        <time>2022-06-05T09:32:16Z</time>
      </trkpt>
      <trkpt lat="45.03239" lon="5.8442">
        <ele>1434</ele>
        <time>2022-06-05T09:32:17Z</time>
      </trkpt>
      <trkpt lat="45.03239" lon="5.84418">
        <ele>1434</ele>
        <time>2022-06-05T09:32:18Z</time>
      </trkpt>
      <trkpt lat="45.03239" lon="5.84417">
        <ele>1434</ele>
        <time>2022-06-05T09:32:19Z</time>
      </trkpt>
      <trkpt lat="45.03239" lon="5.84416">
        <ele>1433</ele>
        <time>2022-06-05T09:32:20Z</time>
      </trkpt>
      <trkpt lat="45.03238" lon="5.84415">
        <ele>1433</ele>
        <time>2022-06-05T09:32:21Z</time>
      </trkpt>
      <trkpt lat="45.03238" lon="5.84414">
        <ele>1433</ele>
        <time>2022-06-05T09:32:22Z</time>
      </trkpt>
      <trkpt lat="45.03237" lon="5.84413">
        <ele>1433</ele>
        <time>2022-06-05T09:32:23Z</time>
      </trkpt>
      <trkpt lat="45.03237" lon="5.84412">
        <ele>1434</ele>
        <time>2022-06-05T09:32:24Z</time>
      </trkpt>
      <trkpt lat="45.03237" lon="5.84411">
        <ele>1433</ele>
        <time>2022-06-05T09:32:25Z</time>
      </trkpt>
      <trkpt lat="45.03237" lon="5.84409">
        <ele>1433</ele>
        <time>2022-06-05T09:32:26Z</time>
      </trkpt>
      <trkpt lat="45.03236" lon="5.84408">
        <ele>1433</ele>
        <time>2022-06-05T09:32:27Z</time>
      </trkpt>
      <trkpt lat="45.03236" lon="5.84407">
        <ele>1433</ele>
        <time>2022-06-05T09:32:28Z</time>
      </trkpt>
      <trkpt lat="45.03235" lon="5.84406">
        <ele>1433</ele>
        <time>2022-06-05T09:32:29Z</time>
      </trkpt>
      <trkpt lat="45.03235" lon="5.84405">
        <ele>1433</ele>
        <time>2022-06-05T09:32:30Z</time>
      </trkpt>
      <trkpt lat="45.03235" lon="5.84404">
        <ele>1433</ele>
        <time>2022-06-05T09:32:31Z</time>
      </trkpt>
      <trkpt lat="45.03234" lon="5.84403">
        <ele>1433</ele>
        <time>2022-06-05T09:32:32Z</time>
      </trkpt>
      <trkpt lat="45.03234" lon="5.84402">
        <ele>1433</ele>
        <time>2022-06-05T09:32:33Z</time>
      </trkpt>
      <trkpt lat="45.03234" lon="5.84401">
        <ele>1432</ele>
        <time>2022-06-05T09:32:34Z</time>
      </trkpt>
      <trkpt lat="45.03234" lon="5.844">
        <ele>1432</ele>
        <time>2022-06-05T09:32:35Z</time>
      </trkpt>
      <trkpt lat="45.03233" lon="5.84399">
        <ele>1432</ele>
        <time>2022-06-05T09:32:36Z</time>
      </trkpt>
      <trkpt lat="45.03233" lon="5.84397">
        <ele>1432</ele>
        <time>2022-06-05T09:32:37Z</time>
      </trkpt>
      <trkpt lat="45.03233" lon="5.84396">
        <ele>1431</ele>
        <time>2022-06-05T09:32:38Z</time>
      </trkpt>
      <trkpt lat="45.03233" lon="5.84395">
        <ele>1431</ele>
        <time>2022-06-05T09:32:39Z</time>
      </trkpt>
      <trkpt lat="45.03233" lon="5.84395">
        <ele>1431</ele>
        <time>2022-06-05T09:32:40Z</time>
      </trkpt>
      <trkpt lat="45.03233" lon="5.84395">
        <ele>1431</ele>
        <time>2022-06-05T09:32:41Z</time>
      </trkpt>
      <trkpt lat="45.03233" lon="5.84395">
        <ele>1431</ele>
        <time>2022-06-05T09:32:42Z</time>
      </trkpt>
      <trkpt lat="45.03232" lon="5.84392">
        <ele>1430</ele>
        <time>2022-06-05T09:32:43Z</time>
      </trkpt>
      <trkpt lat="45.03232" lon="5.84391">
        <ele>1430</ele>
        <time>2022-06-05T09:32:44Z</time>
      </trkpt>
      <trkpt lat="45.03232" lon="5.8439">
        <ele>1430</ele>
        <time>2022-06-05T09:32:45Z</time>
      </trkpt>
      <trkpt lat="45.03231" lon="5.84389">
        <ele>1430</ele>
        <time>2022-06-05T09:32:46Z</time>
      </trkpt>
      <trkpt lat="45.03231" lon="5.84388">
        <ele>1430</ele>
        <time>2022-06-05T09:32:47Z</time>
      </trkpt>
      <trkpt lat="45.03232" lon="5.84387">
        <ele>1431</ele>
        <time>2022-06-05T09:32:48Z</time>
      </trkpt>
      <trkpt lat="45.03232" lon="5.84386">
        <ele>1431</ele>
        <time>2022-06-05T09:32:49Z</time>
      </trkpt>
      <trkpt lat="45.03232" lon="5.84385">
        <ele>1431</ele>
        <time>2022-06-05T09:32:50Z</time>
      </trkpt>
      <trkpt lat="45.03232" lon="5.84384">
        <ele>1431</ele>
        <time>2022-06-05T09:32:51Z</time>
      </trkpt>
      <trkpt lat="45.03231" lon="5.84383">
        <ele>1431</ele>
        <time>2022-06-05T09:32:52Z</time>
      </trkpt>
      <trkpt lat="45.03231" lon="5.84381">
        <ele>1430</ele>
        <time>2022-06-05T09:32:53Z</time>
      </trkpt>
      <trkpt lat="45.03231" lon="5.8438">
        <ele>1430</ele>
        <time>2022-06-05T09:32:54Z</time>
      </trkpt>
      <trkpt lat="45.03231" lon="5.84379">
        <ele>1430</ele>
        <time>2022-06-05T09:32:55Z</time>
      </trkpt>
      <trkpt lat="45.03231" lon="5.84377">
        <ele>1430</ele>
        <time>2022-06-05T09:32:56Z</time>
      </trkpt>
      <trkpt lat="45.03231" lon="5.84376">
        <ele>1430</ele>
        <time>2022-06-05T09:32:57Z</time>
      </trkpt>
      <trkpt lat="45.03231" lon="5.84374">
        <ele>1430</ele>
        <time>2022-06-05T09:32:58Z</time>
      </trkpt>
      <trkpt lat="45.03231" lon="5.84373">
        <ele>1430</ele>
        <time>2022-06-05T09:32:59Z</time>
      </trkpt>
      <trkpt lat="45.03231" lon="5.84372">
        <ele>1430</ele>
        <time>2022-06-05T09:33:00Z</time>
      </trkpt>
      <trkpt lat="45.03231" lon="5.8437">
        <ele>1429</ele>
        <time>2022-06-05T09:33:01Z</time>
      </trkpt>
      <trkpt lat="45.0323" lon="5.84369">
        <ele>1429</ele>
        <time>2022-06-05T09:33:02Z</time>
      </trkpt>
      <trkpt lat="45.0323" lon="5.84367">
        <ele>1429</ele>
        <time>2022-06-05T09:33:03Z</time>
      </trkpt>
      <trkpt lat="45.0323" lon="5.84366">
        <ele>1429</ele>
        <time>2022-06-05T09:33:04Z</time>
      </trkpt>
      <trkpt lat="45.0323" lon="5.84364">
        <ele>1429</ele>
        <time>2022-06-05T09:33:05Z</time>
      </trkpt>
      <trkpt lat="45.0323" lon="5.84363">
        <ele>1429</ele>
        <time>2022-06-05T09:33:06Z</time>
      </trkpt>
      <trkpt lat="45.0323" lon="5.84362">
        <ele>1429</ele>
        <time>2022-06-05T09:33:07Z</time>
      </trkpt>
      <trkpt lat="45.0323" lon="5.8436">
        <ele>1428</ele>
        <time>2022-06-05T09:33:08Z</time>
      </trkpt>
      <trkpt lat="45.0323" lon="5.84359">
        <ele>1428</ele>
        <time>2022-06-05T09:33:09Z</time>
      </trkpt>
      <trkpt lat="45.0323" lon="5.84358">
        <ele>1428</ele>
        <time>2022-06-05T09:33:10Z</time>
      </trkpt>
      <trkpt lat="45.0323" lon="5.84357">
        <ele>1428</ele>
        <time>2022-06-05T09:33:11Z</time>
      </trkpt>
      <trkpt lat="45.0323" lon="5.84355">
        <ele>1428</ele>
        <time>2022-06-05T09:33:12Z</time>
      </trkpt>
      <trkpt lat="45.03229" lon="5.84354">
        <ele>1428</ele>
        <time>2022-06-05T09:33:13Z</time>
      </trkpt>
      <trkpt lat="45.03229" lon="5.84353">
        <ele>1428</ele>
        <time>2022-06-05T09:33:14Z</time>
      </trkpt>
      <trkpt lat="45.03229" lon="5.84351">
        <ele>1428</ele>
        <time>2022-06-05T09:33:15Z</time>
      </trkpt>
      <trkpt lat="45.03229" lon="5.8435">
        <ele>1428</ele>
        <time>2022-06-05T09:33:16Z</time>
      </trkpt>
      <trkpt lat="45.03229" lon="5.84348">
        <ele>1428</ele>
        <time>2022-06-05T09:33:17Z</time>
      </trkpt>
      <trkpt lat="45.03228" lon="5.84347">
        <ele>1428</ele>
        <time>2022-06-05T09:33:18Z</time>
      </trkpt>
      <trkpt lat="45.03228" lon="5.84345">
        <ele>1428</ele>
        <time>2022-06-05T09:33:19Z</time>
      </trkpt>
      <trkpt lat="45.03228" lon="5.84344">
        <ele>1427</ele>
        <time>2022-06-05T09:33:20Z</time>
      </trkpt>
      <trkpt lat="45.03228" lon="5.84343">
        <ele>1427</ele>
        <time>2022-06-05T09:33:21Z</time>
      </trkpt>
      <trkpt lat="45.03228" lon="5.84341">
        <ele>1427</ele>
        <time>2022-06-05T09:33:22Z</time>
      </trkpt>
      <trkpt lat="45.03228" lon="5.8434">
        <ele>1427</ele>
        <time>2022-06-05T09:33:23Z</time>
      </trkpt>
      <trkpt lat="45.03228" lon="5.84338">
        <ele>1427</ele>
        <time>2022-06-05T09:33:24Z</time>
      </trkpt>
      <trkpt lat="45.03228" lon="5.84337">
        <ele>1427</ele>
        <time>2022-06-05T09:33:25Z</time>
      </trkpt>
      <trkpt lat="45.03228" lon="5.84336">
        <ele>1427</ele>
        <time>2022-06-05T09:33:26Z</time>
      </trkpt>
      <trkpt lat="45.03228" lon="5.84335">
        <ele>1427</ele>
        <time>2022-06-05T09:33:27Z</time>
      </trkpt>
      <trkpt lat="45.03227" lon="5.84333">
        <ele>1427</ele>
        <time>2022-06-05T09:33:28Z</time>
      </trkpt>
      <trkpt lat="45.03228" lon="5.84332">
        <ele>1427</ele>
        <time>2022-06-05T09:33:29Z</time>
      </trkpt>
      <trkpt lat="45.03228" lon="5.8433">
        <ele>1428</ele>
        <time>2022-06-05T09:33:30Z</time>
      </trkpt>
      <trkpt lat="45.03228" lon="5.84329">
        <ele>1428</ele>
        <time>2022-06-05T09:33:31Z</time>
      </trkpt>
      <trkpt lat="45.03228" lon="5.84328">
        <ele>1428</ele>
        <time>2022-06-05T09:33:32Z</time>
      </trkpt>
      <trkpt lat="45.03228" lon="5.84327">
        <ele>1428</ele>
        <time>2022-06-05T09:33:33Z</time>
      </trkpt>
      <trkpt lat="45.03228" lon="5.84325">
        <ele>1429</ele>
        <time>2022-06-05T09:33:34Z</time>
      </trkpt>
      <trkpt lat="45.03227" lon="5.84324">
        <ele>1429</ele>
        <time>2022-06-05T09:33:35Z</time>
      </trkpt>
      <trkpt lat="45.03227" lon="5.84323">
        <ele>1429</ele>
        <time>2022-06-05T09:33:36Z</time>
      </trkpt>
      <trkpt lat="45.03227" lon="5.84322">
        <ele>1429</ele>
        <time>2022-06-05T09:33:37Z</time>
      </trkpt>
      <trkpt lat="45.03227" lon="5.84321">
        <ele>1428</ele>
        <time>2022-06-05T09:33:38Z</time>
      </trkpt>
      <trkpt lat="45.03227" lon="5.8432">
        <ele>1428</ele>
        <time>2022-06-05T09:33:39Z</time>
      </trkpt>
      <trkpt lat="45.03227" lon="5.84319">
        <ele>1428</ele>
        <time>2022-06-05T09:33:40Z</time>
      </trkpt>
      <trkpt lat="45.03227" lon="5.84317">
        <ele>1427</ele>
        <time>2022-06-05T09:33:41Z</time>
      </trkpt>
      <trkpt lat="45.03227" lon="5.84316">
        <ele>1428</ele>
        <time>2022-06-05T09:33:42Z</time>
      </trkpt>
      <trkpt lat="45.03227" lon="5.84315">
        <ele>1428</ele>
        <time>2022-06-05T09:33:43Z</time>
      </trkpt>
      <trkpt lat="45.03227" lon="5.84314">
        <ele>1427</ele>
        <time>2022-06-05T09:33:44Z</time>
      </trkpt>
      <trkpt lat="45.03227" lon="5.84312">
        <ele>1427</ele>
        <time>2022-06-05T09:33:45Z</time>
      </trkpt>
      <trkpt lat="45.03228" lon="5.84311">
        <ele>1427</ele>
        <time>2022-06-05T09:33:46Z</time>
      </trkpt>
      <trkpt lat="45.03228" lon="5.8431">
        <ele>1426</ele>
        <time>2022-06-05T09:33:47Z</time>
      </trkpt>
      <trkpt lat="45.03227" lon="5.84309">
        <ele>1426</ele>
        <time>2022-06-05T09:33:48Z</time>
      </trkpt>
      <trkpt lat="45.03227" lon="5.84308">
        <ele>1426</ele>
        <time>2022-06-05T09:33:49Z</time>
      </trkpt>
      <trkpt lat="45.03227" lon="5.84308">
        <ele>1427</ele>
        <time>2022-06-05T09:33:50Z</time>
      </trkpt>
      <trkpt lat="45.03227" lon="5.84308">
        <ele>1427</ele>
        <time>2022-06-05T09:33:51Z</time>
      </trkpt>
      <trkpt lat="45.03226" lon="5.84309">
        <ele>1427</ele>
        <time>2022-06-05T09:33:52Z</time>
      </trkpt>
      <trkpt lat="45.03226" lon="5.84309">
        <ele>1427</ele>
        <time>2022-06-05T09:33:53Z</time>
      </trkpt>
      <trkpt lat="45.03226" lon="5.84309">
        <ele>1427</ele>
        <time>2022-06-05T09:33:53Z</time>
      </trkpt>
      <trkpt lat="45.03226" lon="5.84309">
        <ele>1427</ele>
        <time>2022-06-05T09:33:53Z</time>
      </trkpt>
      <trkpt lat="45.03226" lon="5.84304">
        <ele>1427</ele>
        <time>2022-06-05T09:34:03Z</time>
      </trkpt>
      <trkpt lat="45.03226" lon="5.84303">
        <ele>1427</ele>
        <time>2022-06-05T09:34:04Z</time>
      </trkpt>
      <trkpt lat="45.03227" lon="5.84302">
        <ele>1427</ele>
        <time>2022-06-05T09:34:05Z</time>
      </trkpt>
      <trkpt lat="45.03227" lon="5.84301">
        <ele>1427</ele>
        <time>2022-06-05T09:34:06Z</time>
      </trkpt>
      <trkpt lat="45.03227" lon="5.84299">
        <ele>1427</ele>
        <time>2022-06-05T09:34:07Z</time>
      </trkpt>
      <trkpt lat="45.03227" lon="5.84298">
        <ele>1428</ele>
        <time>2022-06-05T09:34:08Z</time>
      </trkpt>
      <trkpt lat="45.03227" lon="5.84297">
        <ele>1428</ele>
        <time>2022-06-05T09:34:09Z</time>
      </trkpt>
      <trkpt lat="45.03226" lon="5.84296">
        <ele>1428</ele>
        <time>2022-06-05T09:34:10Z</time>
      </trkpt>
      <trkpt lat="45.03226" lon="5.84295">
        <ele>1428</ele>
        <time>2022-06-05T09:34:11Z</time>
      </trkpt>
      <trkpt lat="45.03226" lon="5.84294">
        <ele>1428</ele>
        <time>2022-06-05T09:34:12Z</time>
      </trkpt>
      <trkpt lat="45.03226" lon="5.84293">
        <ele>1428</ele>
        <time>2022-06-05T09:34:13Z</time>
      </trkpt>
      <trkpt lat="45.03227" lon="5.84291">
        <ele>1428</ele>
        <time>2022-06-05T09:34:14Z</time>
      </trkpt>
      <trkpt lat="45.03227" lon="5.8429">
        <ele>1428</ele>
        <time>2022-06-05T09:34:15Z</time>
      </trkpt>
      <trkpt lat="45.03227" lon="5.84289">
        <ele>1428</ele>
        <time>2022-06-05T09:34:16Z</time>
      </trkpt>
      <trkpt lat="45.03227" lon="5.84288">
        <ele>1428</ele>
        <time>2022-06-05T09:34:17Z</time>
      </trkpt>
      <trkpt lat="45.03227" lon="5.84287">
        <ele>1428</ele>
        <time>2022-06-05T09:34:18Z</time>
      </trkpt>
      <trkpt lat="45.03227" lon="5.84286">
        <ele>1427</ele>
        <time>2022-06-05T09:34:19Z</time>
      </trkpt>
      <trkpt lat="45.03227" lon="5.84284">
        <ele>1427</ele>
        <time>2022-06-05T09:34:20Z</time>
      </trkpt>
      <trkpt lat="45.03227" lon="5.84283">
        <ele>1426</ele>
        <time>2022-06-05T09:34:21Z</time>
      </trkpt>
      <trkpt lat="45.03228" lon="5.84281">
        <ele>1426</ele>
        <time>2022-06-05T09:34:22Z</time>
      </trkpt>
      <trkpt lat="45.03228" lon="5.8428">
        <ele>1426</ele>
        <time>2022-06-05T09:34:23Z</time>
      </trkpt>
      <trkpt lat="45.03229" lon="5.84279">
        <ele>1426</ele>
        <time>2022-06-05T09:34:24Z</time>
      </trkpt>
      <trkpt lat="45.0323" lon="5.84278">
        <ele>1425</ele>
        <time>2022-06-05T09:34:25Z</time>
      </trkpt>
      <trkpt lat="45.0323" lon="5.84276">
        <ele>1425</ele>
        <time>2022-06-05T09:34:26Z</time>
      </trkpt>
      <trkpt lat="45.0323" lon="5.84275">
        <ele>1425</ele>
        <time>2022-06-05T09:34:27Z</time>
      </trkpt>
      <trkpt lat="45.0323" lon="5.84274">
        <ele>1425</ele>
        <time>2022-06-05T09:34:28Z</time>
      </trkpt>
      <trkpt lat="45.0323" lon="5.84273">
        <ele>1425</ele>
        <time>2022-06-05T09:34:29Z</time>
      </trkpt>
      <trkpt lat="45.0323" lon="5.84272">
        <ele>1425</ele>
        <time>2022-06-05T09:34:30Z</time>
      </trkpt>
      <trkpt lat="45.0323" lon="5.8427">
        <ele>1426</ele>
        <time>2022-06-05T09:34:31Z</time>
      </trkpt>
      <trkpt lat="45.03231" lon="5.84269">
        <ele>1426</ele>
        <time>2022-06-05T09:34:32Z</time>
      </trkpt>
      <trkpt lat="45.0323" lon="5.84268">
        <ele>1426</ele>
        <time>2022-06-05T09:34:33Z</time>
      </trkpt>
      <trkpt lat="45.0323" lon="5.84268">
        <ele>1426</ele>
        <time>2022-06-05T09:34:34Z</time>
      </trkpt>
      <trkpt lat="45.0323" lon="5.84267">
        <ele>1426</ele>
        <time>2022-06-05T09:34:35Z</time>
      </trkpt>
      <trkpt lat="45.0323" lon="5.84267">
        <ele>1426</ele>
        <time>2022-06-05T09:34:36Z</time>
      </trkpt>
      <trkpt lat="45.0323" lon="5.84265">
        <ele>1425</ele>
        <time>2022-06-05T09:34:37Z</time>
      </trkpt>
      <trkpt lat="45.0323" lon="5.84264">
        <ele>1425</ele>
        <time>2022-06-05T09:34:38Z</time>
      </trkpt>
      <trkpt lat="45.0323" lon="5.84263">
        <ele>1425</ele>
        <time>2022-06-05T09:34:39Z</time>
      </trkpt>
      <trkpt lat="45.0323" lon="5.84262">
        <ele>1424</ele>
        <time>2022-06-05T09:34:40Z</time>
      </trkpt>
      <trkpt lat="45.03229" lon="5.84261">
        <ele>1424</ele>
        <time>2022-06-05T09:34:41Z</time>
      </trkpt>
      <trkpt lat="45.03229" lon="5.8426">
        <ele>1424</ele>
        <time>2022-06-05T09:34:42Z</time>
      </trkpt>
      <trkpt lat="45.03228" lon="5.84257">
        <ele>1425</ele>
        <time>2022-06-05T09:34:43Z</time>
      </trkpt>
      <trkpt lat="45.03228" lon="5.84256">
        <ele>1424</ele>
        <time>2022-06-05T09:34:44Z</time>
      </trkpt>
      <trkpt lat="45.03228" lon="5.84254">
        <ele>1424</ele>
        <time>2022-06-05T09:34:45Z</time>
      </trkpt>
      <trkpt lat="45.03228" lon="5.84252">
        <ele>1424</ele>
        <time>2022-06-05T09:34:46Z</time>
      </trkpt>
      <trkpt lat="45.03228" lon="5.84251">
        <ele>1424</ele>
        <time>2022-06-05T09:34:47Z</time>
      </trkpt>
      <trkpt lat="45.03227" lon="5.84249">
        <ele>1424</ele>
        <time>2022-06-05T09:34:48Z</time>
      </trkpt>
      <trkpt lat="45.03227" lon="5.84248">
        <ele>1424</ele>
        <time>2022-06-05T09:34:49Z</time>
      </trkpt>
      <trkpt lat="45.03227" lon="5.84247">
        <ele>1424</ele>
        <time>2022-06-05T09:34:50Z</time>
      </trkpt>
      <trkpt lat="45.03227" lon="5.84245">
        <ele>1424</ele>
        <time>2022-06-05T09:34:51Z</time>
      </trkpt>
      <trkpt lat="45.03226" lon="5.84244">
        <ele>1424</ele>
        <time>2022-06-05T09:34:52Z</time>
      </trkpt>
      <trkpt lat="45.03225" lon="5.84243">
        <ele>1424</ele>
        <time>2022-06-05T09:34:53Z</time>
      </trkpt>
      <trkpt lat="45.03225" lon="5.84242">
        <ele>1424</ele>
        <time>2022-06-05T09:34:54Z</time>
      </trkpt>
      <trkpt lat="45.03225" lon="5.84241">
        <ele>1423</ele>
        <time>2022-06-05T09:34:55Z</time>
      </trkpt>
      <trkpt lat="45.03225" lon="5.8424">
        <ele>1423</ele>
        <time>2022-06-05T09:34:56Z</time>
      </trkpt>
      <trkpt lat="45.03224" lon="5.84239">
        <ele>1423</ele>
        <time>2022-06-05T09:34:57Z</time>
      </trkpt>
      <trkpt lat="45.03224" lon="5.84239">
        <ele>1423</ele>
        <time>2022-06-05T09:34:58Z</time>
      </trkpt>
      <trkpt lat="45.03224" lon="5.84239">
        <ele>1423</ele>
        <time>2022-06-05T09:34:59Z</time>
      </trkpt>
      <trkpt lat="45.03223" lon="5.84237">
        <ele>1422</ele>
        <time>2022-06-05T09:35:00Z</time>
      </trkpt>
      <trkpt lat="45.03222" lon="5.84236">
        <ele>1423</ele>
        <time>2022-06-05T09:35:01Z</time>
      </trkpt>
      <trkpt lat="45.03222" lon="5.84235">
        <ele>1422</ele>
        <time>2022-06-05T09:35:02Z</time>
      </trkpt>
      <trkpt lat="45.03222" lon="5.84233">
        <ele>1422</ele>
        <time>2022-06-05T09:35:03Z</time>
      </trkpt>
      <trkpt lat="45.03222" lon="5.84232">
        <ele>1422</ele>
        <time>2022-06-05T09:35:04Z</time>
      </trkpt>
      <trkpt lat="45.03222" lon="5.84231">
        <ele>1422</ele>
        <time>2022-06-05T09:35:05Z</time>
      </trkpt>
      <trkpt lat="45.03223" lon="5.84229">
        <ele>1422</ele>
        <time>2022-06-05T09:35:06Z</time>
      </trkpt>
      <trkpt lat="45.03223" lon="5.84227">
        <ele>1422</ele>
        <time>2022-06-05T09:35:07Z</time>
      </trkpt>
      <trkpt lat="45.03223" lon="5.84226">
        <ele>1422</ele>
        <time>2022-06-05T09:35:08Z</time>
      </trkpt>
      <trkpt lat="45.03222" lon="5.84224">
        <ele>1421</ele>
        <time>2022-06-05T09:35:09Z</time>
      </trkpt>
      <trkpt lat="45.03223" lon="5.84222">
        <ele>1421</ele>
        <time>2022-06-05T09:35:10Z</time>
      </trkpt>
      <trkpt lat="45.03222" lon="5.84221">
        <ele>1421</ele>
        <time>2022-06-05T09:35:11Z</time>
      </trkpt>
      <trkpt lat="45.03222" lon="5.8422">
        <ele>1421</ele>
        <time>2022-06-05T09:35:12Z</time>
      </trkpt>
      <trkpt lat="45.03222" lon="5.8422">
        <ele>1421</ele>
        <time>2022-06-05T09:35:13Z</time>
      </trkpt>
      <trkpt lat="45.03222" lon="5.84218">
        <ele>1420</ele>
        <time>2022-06-05T09:35:14Z</time>
      </trkpt>
      <trkpt lat="45.03221" lon="5.84216">
        <ele>1420</ele>
        <time>2022-06-05T09:35:15Z</time>
      </trkpt>
      <trkpt lat="45.0322" lon="5.84215">
        <ele>1421</ele>
        <time>2022-06-05T09:35:16Z</time>
      </trkpt>
      <trkpt lat="45.03221" lon="5.84213">
        <ele>1421</ele>
        <time>2022-06-05T09:35:17Z</time>
      </trkpt>
      <trkpt lat="45.03221" lon="5.84212">
        <ele>1421</ele>
        <time>2022-06-05T09:35:18Z</time>
      </trkpt>
      <trkpt lat="45.03221" lon="5.84211">
        <ele>1420</ele>
        <time>2022-06-05T09:35:19Z</time>
      </trkpt>
      <trkpt lat="45.03222" lon="5.8421">
        <ele>1421</ele>
        <time>2022-06-05T09:35:20Z</time>
      </trkpt>
      <trkpt lat="45.03222" lon="5.84209">
        <ele>1421</ele>
        <time>2022-06-05T09:35:21Z</time>
      </trkpt>
      <trkpt lat="45.03222" lon="5.84208">
        <ele>1422</ele>
        <time>2022-06-05T09:35:22Z</time>
      </trkpt>
      <trkpt lat="45.03222" lon="5.84207">
        <ele>1422</ele>
        <time>2022-06-05T09:35:23Z</time>
      </trkpt>
      <trkpt lat="45.03222" lon="5.84207">
        <ele>1422</ele>
        <time>2022-06-05T09:35:24Z</time>
      </trkpt>
      <trkpt lat="45.03222" lon="5.84207">
        <ele>1422</ele>
        <time>2022-06-05T09:35:25Z</time>
      </trkpt>
      <trkpt lat="45.03223" lon="5.84205">
        <ele>1424</ele>
        <time>2022-06-05T09:35:26Z</time>
      </trkpt>
      <trkpt lat="45.03223" lon="5.84203">
        <ele>1425</ele>
        <time>2022-06-05T09:35:27Z</time>
      </trkpt>
      <trkpt lat="45.03223" lon="5.84202">
        <ele>1426</ele>
        <time>2022-06-05T09:35:28Z</time>
      </trkpt>
      <trkpt lat="45.03223" lon="5.84201">
        <ele>1427</ele>
        <time>2022-06-05T09:35:29Z</time>
      </trkpt>
      <trkpt lat="45.03223" lon="5.84199">
        <ele>1427</ele>
        <time>2022-06-05T09:35:30Z</time>
      </trkpt>
      <trkpt lat="45.03223" lon="5.84197">
        <ele>1428</ele>
        <time>2022-06-05T09:35:31Z</time>
      </trkpt>
      <trkpt lat="45.03223" lon="5.84196">
        <ele>1429</ele>
        <time>2022-06-05T09:35:32Z</time>
      </trkpt>
      <trkpt lat="45.03223" lon="5.84194">
        <ele>1429</ele>
        <time>2022-06-05T09:35:33Z</time>
      </trkpt>
      <trkpt lat="45.03222" lon="5.84192">
        <ele>1429</ele>
        <time>2022-06-05T09:35:34Z</time>
      </trkpt>
      <trkpt lat="45.03222" lon="5.8419">
        <ele>1429</ele>
        <time>2022-06-05T09:35:35Z</time>
      </trkpt>
      <trkpt lat="45.03222" lon="5.84189">
        <ele>1429</ele>
        <time>2022-06-05T09:35:36Z</time>
      </trkpt>
      <trkpt lat="45.03221" lon="5.84187">
        <ele>1429</ele>
        <time>2022-06-05T09:35:37Z</time>
      </trkpt>
      <trkpt lat="45.03222" lon="5.84186">
        <ele>1428</ele>
        <time>2022-06-05T09:35:38Z</time>
      </trkpt>
      <trkpt lat="45.03222" lon="5.84186">
        <ele>1428</ele>
        <time>2022-06-05T09:35:39Z</time>
      </trkpt>
      <trkpt lat="45.03222" lon="5.84185">
        <ele>1428</ele>
        <time>2022-06-05T09:35:40Z</time>
      </trkpt>
      <trkpt lat="45.03222" lon="5.84185">
        <ele>1428</ele>
        <time>2022-06-05T09:35:41Z</time>
      </trkpt>
      <trkpt lat="45.03221" lon="5.84183">
        <ele>1428</ele>
        <time>2022-06-05T09:35:42Z</time>
      </trkpt>
      <trkpt lat="45.0322" lon="5.84182">
        <ele>1428</ele>
        <time>2022-06-05T09:35:43Z</time>
      </trkpt>
      <trkpt lat="45.0322" lon="5.84181">
        <ele>1427</ele>
        <time>2022-06-05T09:35:44Z</time>
      </trkpt>
      <trkpt lat="45.03219" lon="5.8418">
        <ele>1427</ele>
        <time>2022-06-05T09:35:45Z</time>
      </trkpt>
      <trkpt lat="45.03219" lon="5.8418">
        <ele>1427</ele>
        <time>2022-06-05T09:35:46Z</time>
      </trkpt>
      <trkpt lat="45.03219" lon="5.8418">
        <ele>1427</ele>
        <time>2022-06-05T09:35:47Z</time>
      </trkpt>
      <trkpt lat="45.03218" lon="5.84178">
        <ele>1428</ele>
        <time>2022-06-05T09:35:48Z</time>
      </trkpt>
      <trkpt lat="45.03217" lon="5.84176">
        <ele>1428</ele>
        <time>2022-06-05T09:35:49Z</time>
      </trkpt>
      <trkpt lat="45.03216" lon="5.84175">
        <ele>1427</ele>
        <time>2022-06-05T09:35:50Z</time>
      </trkpt>
      <trkpt lat="45.03216" lon="5.84174">
        <ele>1427</ele>
        <time>2022-06-05T09:35:51Z</time>
      </trkpt>
      <trkpt lat="45.03215" lon="5.84173">
        <ele>1427</ele>
        <time>2022-06-05T09:35:52Z</time>
      </trkpt>
      <trkpt lat="45.03214" lon="5.84172">
        <ele>1427</ele>
        <time>2022-06-05T09:35:53Z</time>
      </trkpt>
      <trkpt lat="45.03213" lon="5.84172">
        <ele>1426</ele>
        <time>2022-06-05T09:35:54Z</time>
      </trkpt>
      <trkpt lat="45.03212" lon="5.84171">
        <ele>1426</ele>
        <time>2022-06-05T09:35:55Z</time>
      </trkpt>
      <trkpt lat="45.03212" lon="5.8417">
        <ele>1426</ele>
        <time>2022-06-05T09:35:56Z</time>
      </trkpt>
      <trkpt lat="45.03211" lon="5.84169">
        <ele>1425</ele>
        <time>2022-06-05T09:35:57Z</time>
      </trkpt>
      <trkpt lat="45.0321" lon="5.84168">
        <ele>1425</ele>
        <time>2022-06-05T09:35:58Z</time>
      </trkpt>
      <trkpt lat="45.03209" lon="5.84167">
        <ele>1426</ele>
        <time>2022-06-05T09:35:59Z</time>
      </trkpt>
      <trkpt lat="45.03208" lon="5.84167">
        <ele>1426</ele>
        <time>2022-06-05T09:36:00Z</time>
      </trkpt>
      <trkpt lat="45.03207" lon="5.84166">
        <ele>1426</ele>
        <time>2022-06-05T09:36:01Z</time>
      </trkpt>
      <trkpt lat="45.03207" lon="5.84164">
        <ele>1425</ele>
        <time>2022-06-05T09:36:02Z</time>
      </trkpt>
      <trkpt lat="45.03206" lon="5.84162">
        <ele>1425</ele>
        <time>2022-06-05T09:36:03Z</time>
      </trkpt>
      <trkpt lat="45.03206" lon="5.84161">
        <ele>1425</ele>
        <time>2022-06-05T09:36:04Z</time>
      </trkpt>
      <trkpt lat="45.03206" lon="5.84161">
        <ele>1425</ele>
        <time>2022-06-05T09:36:05Z</time>
      </trkpt>
      <trkpt lat="45.03206" lon="5.84161">
        <ele>1425</ele>
        <time>2022-06-05T09:36:06Z</time>
      </trkpt>
      <trkpt lat="45.03206" lon="5.8416">
        <ele>1425</ele>
        <time>2022-06-05T09:36:07Z</time>
      </trkpt>
      <trkpt lat="45.03205" lon="5.84159">
        <ele>1425</ele>
        <time>2022-06-05T09:36:08Z</time>
      </trkpt>
      <trkpt lat="45.03205" lon="5.84159">
        <ele>1425</ele>
        <time>2022-06-05T09:36:09Z</time>
      </trkpt>
      <trkpt lat="45.03204" lon="5.84158">
        <ele>1425</ele>
        <time>2022-06-05T09:36:10Z</time>
      </trkpt>
      <trkpt lat="45.03203" lon="5.84157">
        <ele>1425</ele>
        <time>2022-06-05T09:36:11Z</time>
      </trkpt>
      <trkpt lat="45.03203" lon="5.84157">
        <ele>1425</ele>
        <time>2022-06-05T09:36:12Z</time>
      </trkpt>
      <trkpt lat="45.03203" lon="5.84157">
        <ele>1425</ele>
        <time>2022-06-05T09:36:13Z</time>
      </trkpt>
      <trkpt lat="45.03201" lon="5.84155">
        <ele>1425</ele>
        <time>2022-06-05T09:36:14Z</time>
      </trkpt>
      <trkpt lat="45.032" lon="5.84154">
        <ele>1424</ele>
        <time>2022-06-05T09:36:15Z</time>
      </trkpt>
      <trkpt lat="45.03199" lon="5.84153">
        <ele>1424</ele>
        <time>2022-06-05T09:36:16Z</time>
      </trkpt>
      <trkpt lat="45.03198" lon="5.84152">
        <ele>1424</ele>
        <time>2022-06-05T09:36:17Z</time>
      </trkpt>
      <trkpt lat="45.03196" lon="5.84151">
        <ele>1424</ele>
        <time>2022-06-05T09:36:18Z</time>
      </trkpt>
      <trkpt lat="45.03195" lon="5.84151">
        <ele>1424</ele>
        <time>2022-06-05T09:36:19Z</time>
      </trkpt>
      <trkpt lat="45.03194" lon="5.8415">
        <ele>1423</ele>
        <time>2022-06-05T09:36:20Z</time>
      </trkpt>
      <trkpt lat="45.03193" lon="5.8415">
        <ele>1423</ele>
        <time>2022-06-05T09:36:21Z</time>
      </trkpt>
      <trkpt lat="45.03192" lon="5.8415">
        <ele>1424</ele>
        <time>2022-06-05T09:36:22Z</time>
      </trkpt>
      <trkpt lat="45.03192" lon="5.84149">
        <ele>1424</ele>
        <time>2022-06-05T09:36:23Z</time>
      </trkpt>
      <trkpt lat="45.03191" lon="5.84149">
        <ele>1424</ele>
        <time>2022-06-05T09:36:24Z</time>
      </trkpt>
      <trkpt lat="45.03191" lon="5.84148">
        <ele>1424</ele>
        <time>2022-06-05T09:36:25Z</time>
      </trkpt>
      <trkpt lat="45.03191" lon="5.84148">
        <ele>1424</ele>
        <time>2022-06-05T09:36:26Z</time>
      </trkpt>
      <trkpt lat="45.03191" lon="5.84148">
        <ele>1424</ele>
        <time>2022-06-05T09:36:27Z</time>
      </trkpt>
      <trkpt lat="45.03189" lon="5.84146">
        <ele>1423</ele>
        <time>2022-06-05T09:36:28Z</time>
      </trkpt>
      <trkpt lat="45.03188" lon="5.84145">
        <ele>1422</ele>
        <time>2022-06-05T09:36:29Z</time>
      </trkpt>
      <trkpt lat="45.03187" lon="5.84145">
        <ele>1421</ele>
        <time>2022-06-05T09:36:30Z</time>
      </trkpt>
      <trkpt lat="45.03186" lon="5.84144">
        <ele>1422</ele>
        <time>2022-06-05T09:36:31Z</time>
      </trkpt>
      <trkpt lat="45.03185" lon="5.84143">
        <ele>1422</ele>
        <time>2022-06-05T09:36:32Z</time>
      </trkpt>
      <trkpt lat="45.03185" lon="5.84142">
        <ele>1422</ele>
        <time>2022-06-05T09:36:33Z</time>
      </trkpt>
      <trkpt lat="45.03184" lon="5.84142">
        <ele>1422</ele>
        <time>2022-06-05T09:36:34Z</time>
      </trkpt>
      <trkpt lat="45.03183" lon="5.8414">
        <ele>1422</ele>
        <time>2022-06-05T09:36:35Z</time>
      </trkpt>
      <trkpt lat="45.03183" lon="5.84139">
        <ele>1422</ele>
        <time>2022-06-05T09:36:36Z</time>
      </trkpt>
      <trkpt lat="45.03182" lon="5.84139">
        <ele>1421</ele>
        <time>2022-06-05T09:36:37Z</time>
      </trkpt>
      <trkpt lat="45.03182" lon="5.84138">
        <ele>1421</ele>
        <time>2022-06-05T09:36:38Z</time>
      </trkpt>
      <trkpt lat="45.03181" lon="5.84137">
        <ele>1420</ele>
        <time>2022-06-05T09:36:39Z</time>
      </trkpt>
      <trkpt lat="45.0318" lon="5.84135">
        <ele>1420</ele>
        <time>2022-06-05T09:36:40Z</time>
      </trkpt>
      <trkpt lat="45.03179" lon="5.84134">
        <ele>1419</ele>
        <time>2022-06-05T09:36:41Z</time>
      </trkpt>
      <trkpt lat="45.03179" lon="5.84133">
        <ele>1419</ele>
        <time>2022-06-05T09:36:42Z</time>
      </trkpt>
      <trkpt lat="45.03178" lon="5.84131">
        <ele>1419</ele>
        <time>2022-06-05T09:36:43Z</time>
      </trkpt>
      <trkpt lat="45.03177" lon="5.8413">
        <ele>1419</ele>
        <time>2022-06-05T09:36:44Z</time>
      </trkpt>
      <trkpt lat="45.03176" lon="5.84129">
        <ele>1419</ele>
        <time>2022-06-05T09:36:45Z</time>
      </trkpt>
      <trkpt lat="45.03175" lon="5.84128">
        <ele>1419</ele>
        <time>2022-06-05T09:36:46Z</time>
      </trkpt>
      <trkpt lat="45.03175" lon="5.84126">
        <ele>1418</ele>
        <time>2022-06-05T09:36:47Z</time>
      </trkpt>
      <trkpt lat="45.03174" lon="5.84125">
        <ele>1419</ele>
        <time>2022-06-05T09:36:48Z</time>
      </trkpt>
      <trkpt lat="45.03173" lon="5.84124">
        <ele>1419</ele>
        <time>2022-06-05T09:36:49Z</time>
      </trkpt>
      <trkpt lat="45.03173" lon="5.84124">
        <ele>1419</ele>
        <time>2022-06-05T09:36:50Z</time>
      </trkpt>
      <trkpt lat="45.03172" lon="5.84122">
        <ele>1419</ele>
        <time>2022-06-05T09:36:51Z</time>
      </trkpt>
      <trkpt lat="45.03171" lon="5.84122">
        <ele>1419</ele>
        <time>2022-06-05T09:36:52Z</time>
      </trkpt>
      <trkpt lat="45.03171" lon="5.84121">
        <ele>1419</ele>
        <time>2022-06-05T09:36:53Z</time>
      </trkpt>
      <trkpt lat="45.0317" lon="5.8412">
        <ele>1419</ele>
        <time>2022-06-05T09:36:54Z</time>
      </trkpt>
      <trkpt lat="45.0317" lon="5.84119">
        <ele>1418</ele>
        <time>2022-06-05T09:36:55Z</time>
      </trkpt>
      <trkpt lat="45.03169" lon="5.84117">
        <ele>1418</ele>
        <time>2022-06-05T09:36:56Z</time>
      </trkpt>
      <trkpt lat="45.03168" lon="5.84116">
        <ele>1418</ele>
        <time>2022-06-05T09:36:57Z</time>
      </trkpt>
      <trkpt lat="45.03167" lon="5.84115">
        <ele>1419</ele>
        <time>2022-06-05T09:36:58Z</time>
      </trkpt>
      <trkpt lat="45.03167" lon="5.84115">
        <ele>1420</ele>
        <time>2022-06-05T09:36:59Z</time>
      </trkpt>
      <trkpt lat="45.03167" lon="5.84115">
        <ele>1420</ele>
        <time>2022-06-05T09:37:00Z</time>
      </trkpt>
      <trkpt lat="45.03167" lon="5.84115">
        <ele>1420</ele>
        <time>2022-06-05T09:37:01Z</time>
      </trkpt>
      <trkpt lat="45.03166" lon="5.84113">
        <ele>1421</ele>
        <time>2022-06-05T09:37:02Z</time>
      </trkpt>
      <trkpt lat="45.03165" lon="5.84112">
        <ele>1421</ele>
        <time>2022-06-05T09:37:03Z</time>
      </trkpt>
      <trkpt lat="45.03164" lon="5.8411">
        <ele>1422</ele>
        <time>2022-06-05T09:37:04Z</time>
      </trkpt>
      <trkpt lat="45.03164" lon="5.84109">
        <ele>1421</ele>
        <time>2022-06-05T09:37:05Z</time>
      </trkpt>
      <trkpt lat="45.03164" lon="5.84108">
        <ele>1422</ele>
        <time>2022-06-05T09:37:06Z</time>
      </trkpt>
      <trkpt lat="45.03163" lon="5.84107">
        <ele>1422</ele>
        <time>2022-06-05T09:37:07Z</time>
      </trkpt>
      <trkpt lat="45.03163" lon="5.84106">
        <ele>1422</ele>
        <time>2022-06-05T09:37:08Z</time>
      </trkpt>
      <trkpt lat="45.03163" lon="5.84105">
        <ele>1422</ele>
        <time>2022-06-05T09:37:09Z</time>
      </trkpt>
      <trkpt lat="45.03162" lon="5.84104">
        <ele>1422</ele>
        <time>2022-06-05T09:37:10Z</time>
      </trkpt>
      <trkpt lat="45.03162" lon="5.84103">
        <ele>1422</ele>
        <time>2022-06-05T09:37:11Z</time>
      </trkpt>
      <trkpt lat="45.03161" lon="5.84103">
        <ele>1422</ele>
        <time>2022-06-05T09:37:12Z</time>
      </trkpt>
      <trkpt lat="45.03161" lon="5.84102">
        <ele>1423</ele>
        <time>2022-06-05T09:37:13Z</time>
      </trkpt>
      <trkpt lat="45.03161" lon="5.84101">
        <ele>1423</ele>
        <time>2022-06-05T09:37:14Z</time>
      </trkpt>
      <trkpt lat="45.0316" lon="5.841">
        <ele>1422</ele>
        <time>2022-06-05T09:37:15Z</time>
      </trkpt>
      <trkpt lat="45.03159" lon="5.84099">
        <ele>1422</ele>
        <time>2022-06-05T09:37:16Z</time>
      </trkpt>
      <trkpt lat="45.03159" lon="5.84098">
        <ele>1422</ele>
        <time>2022-06-05T09:37:17Z</time>
      </trkpt>
      <trkpt lat="45.03158" lon="5.84097">
        <ele>1422</ele>
        <time>2022-06-05T09:37:18Z</time>
      </trkpt>
      <trkpt lat="45.03157" lon="5.84096">
        <ele>1422</ele>
        <time>2022-06-05T09:37:19Z</time>
      </trkpt>
      <trkpt lat="45.03157" lon="5.84095">
        <ele>1422</ele>
        <time>2022-06-05T09:37:20Z</time>
      </trkpt>
      <trkpt lat="45.03157" lon="5.84093">
        <ele>1422</ele>
        <time>2022-06-05T09:37:21Z</time>
      </trkpt>
      <trkpt lat="45.03156" lon="5.84092">
        <ele>1423</ele>
        <time>2022-06-05T09:37:22Z</time>
      </trkpt>
      <trkpt lat="45.03156" lon="5.84091">
        <ele>1423</ele>
        <time>2022-06-05T09:37:23Z</time>
      </trkpt>
      <trkpt lat="45.03156" lon="5.8409">
        <ele>1423</ele>
        <time>2022-06-05T09:37:24Z</time>
      </trkpt>
      <trkpt lat="45.03155" lon="5.84089">
        <ele>1423</ele>
        <time>2022-06-05T09:37:25Z</time>
      </trkpt>
      <trkpt lat="45.03155" lon="5.84088">
        <ele>1423</ele>
        <time>2022-06-05T09:37:26Z</time>
      </trkpt>
      <trkpt lat="45.03155" lon="5.84087">
        <ele>1423</ele>
        <time>2022-06-05T09:37:27Z</time>
      </trkpt>
      <trkpt lat="45.03155" lon="5.84086">
        <ele>1423</ele>
        <time>2022-06-05T09:37:28Z</time>
      </trkpt>
      <trkpt lat="45.03154" lon="5.84085">
        <ele>1423</ele>
        <time>2022-06-05T09:37:29Z</time>
      </trkpt>
      <trkpt lat="45.03154" lon="5.84085">
        <ele>1423</ele>
        <time>2022-06-05T09:37:30Z</time>
      </trkpt>
      <trkpt lat="45.03153" lon="5.84084">
        <ele>1422</ele>
        <time>2022-06-05T09:37:31Z</time>
      </trkpt>
      <trkpt lat="45.03153" lon="5.84083">
        <ele>1422</ele>
        <time>2022-06-05T09:37:32Z</time>
      </trkpt>
      <trkpt lat="45.03152" lon="5.84082">
        <ele>1422</ele>
        <time>2022-06-05T09:37:33Z</time>
      </trkpt>
      <trkpt lat="45.03152" lon="5.84081">
        <ele>1422</ele>
        <time>2022-06-05T09:37:34Z</time>
      </trkpt>
      <trkpt lat="45.03151" lon="5.8408">
        <ele>1422</ele>
        <time>2022-06-05T09:37:35Z</time>
      </trkpt>
      <trkpt lat="45.03151" lon="5.84079">
        <ele>1422</ele>
        <time>2022-06-05T09:37:36Z</time>
      </trkpt>
      <trkpt lat="45.0315" lon="5.84078">
        <ele>1422</ele>
        <time>2022-06-05T09:37:37Z</time>
      </trkpt>
      <trkpt lat="45.0315" lon="5.84078">
        <ele>1422</ele>
        <time>2022-06-05T09:37:38Z</time>
      </trkpt>
      <trkpt lat="45.0315" lon="5.84078">
        <ele>1422</ele>
        <time>2022-06-05T09:37:39Z</time>
      </trkpt>
      <trkpt lat="45.03149" lon="5.84077">
        <ele>1422</ele>
        <time>2022-06-05T09:37:40Z</time>
      </trkpt>
      <trkpt lat="45.03148" lon="5.84076">
        <ele>1422</ele>
        <time>2022-06-05T09:37:41Z</time>
      </trkpt>
      <trkpt lat="45.03148" lon="5.84075">
        <ele>1422</ele>
        <time>2022-06-05T09:37:42Z</time>
      </trkpt>
      <trkpt lat="45.03148" lon="5.84074">
        <ele>1422</ele>
        <time>2022-06-05T09:37:43Z</time>
      </trkpt>
      <trkpt lat="45.03148" lon="5.84074">
        <ele>1422</ele>
        <time>2022-06-05T09:37:44Z</time>
      </trkpt>
      <trkpt lat="45.03147" lon="5.84074">
        <ele>1421</ele>
        <time>2022-06-05T09:37:45Z</time>
      </trkpt>
      <trkpt lat="45.03147" lon="5.84074">
        <ele>1421</ele>
        <time>2022-06-05T09:37:46Z</time>
      </trkpt>
      <trkpt lat="45.03147" lon="5.84074">
        <ele>1421</ele>
        <time>2022-06-05T09:37:46Z</time>
      </trkpt>
      <trkpt lat="45.03147" lon="5.84074">
        <ele>1421</ele>
        <time>2022-06-05T09:37:46Z</time>
      </trkpt>
      <trkpt lat="45.03141" lon="5.84063">
        <ele>1424</ele>
        <time>2022-06-05T09:37:59Z</time>
      </trkpt>
      <trkpt lat="45.03141" lon="5.84062">
        <ele>1424</ele>
        <time>2022-06-05T09:38:00Z</time>
      </trkpt>
      <trkpt lat="45.0314" lon="5.84061">
        <ele>1424</ele>
        <time>2022-06-05T09:38:01Z</time>
      </trkpt>
      <trkpt lat="45.0314" lon="5.84061">
        <ele>1423</ele>
        <time>2022-06-05T09:38:02Z</time>
      </trkpt>
      <trkpt lat="45.0314" lon="5.8406">
        <ele>1424</ele>
        <time>2022-06-05T09:38:03Z</time>
      </trkpt>
      <trkpt lat="45.03139" lon="5.84059">
        <ele>1424</ele>
        <time>2022-06-05T09:38:04Z</time>
      </trkpt>
      <trkpt lat="45.03138" lon="5.84057">
        <ele>1424</ele>
        <time>2022-06-05T09:38:05Z</time>
      </trkpt>
      <trkpt lat="45.03138" lon="5.84056">
        <ele>1424</ele>
        <time>2022-06-05T09:38:06Z</time>
      </trkpt>
      <trkpt lat="45.03137" lon="5.84054">
        <ele>1424</ele>
        <time>2022-06-05T09:38:07Z</time>
      </trkpt>
      <trkpt lat="45.03137" lon="5.84053">
        <ele>1424</ele>
        <time>2022-06-05T09:38:08Z</time>
      </trkpt>
      <trkpt lat="45.03136" lon="5.84052">
        <ele>1423</ele>
        <time>2022-06-05T09:38:09Z</time>
      </trkpt>
      <trkpt lat="45.03136" lon="5.84051">
        <ele>1423</ele>
        <time>2022-06-05T09:38:10Z</time>
      </trkpt>
      <trkpt lat="45.03136" lon="5.84051">
        <ele>1423</ele>
        <time>2022-06-05T09:38:11Z</time>
      </trkpt>
      <trkpt lat="45.03136" lon="5.84051">
        <ele>1423</ele>
        <time>2022-06-05T09:38:12Z</time>
      </trkpt>
      <trkpt lat="45.03135" lon="5.84048">
        <ele>1422</ele>
        <time>2022-06-05T09:38:13Z</time>
      </trkpt>
      <trkpt lat="45.03134" lon="5.84047">
        <ele>1422</ele>
        <time>2022-06-05T09:38:14Z</time>
      </trkpt>
      <trkpt lat="45.03133" lon="5.84047">
        <ele>1423</ele>
        <time>2022-06-05T09:38:15Z</time>
      </trkpt>
      <trkpt lat="45.03133" lon="5.84046">
        <ele>1423</ele>
        <time>2022-06-05T09:38:16Z</time>
      </trkpt>
      <trkpt lat="45.03132" lon="5.84044">
        <ele>1422</ele>
        <time>2022-06-05T09:38:17Z</time>
      </trkpt>
      <trkpt lat="45.03131" lon="5.84043">
        <ele>1422</ele>
        <time>2022-06-05T09:38:18Z</time>
      </trkpt>
      <trkpt lat="45.0313" lon="5.84042">
        <ele>1422</ele>
        <time>2022-06-05T09:38:19Z</time>
      </trkpt>
      <trkpt lat="45.0313" lon="5.84041">
        <ele>1422</ele>
        <time>2022-06-05T09:38:20Z</time>
      </trkpt>
      <trkpt lat="45.03129" lon="5.8404">
        <ele>1421</ele>
        <time>2022-06-05T09:38:21Z</time>
      </trkpt>
      <trkpt lat="45.03128" lon="5.84039">
        <ele>1421</ele>
        <time>2022-06-05T09:38:22Z</time>
      </trkpt>
      <trkpt lat="45.03127" lon="5.84039">
        <ele>1421</ele>
        <time>2022-06-05T09:38:23Z</time>
      </trkpt>
      <trkpt lat="45.03126" lon="5.84038">
        <ele>1421</ele>
        <time>2022-06-05T09:38:24Z</time>
      </trkpt>
      <trkpt lat="45.03126" lon="5.84037">
        <ele>1420</ele>
        <time>2022-06-05T09:38:25Z</time>
      </trkpt>
      <trkpt lat="45.03125" lon="5.84036">
        <ele>1420</ele>
        <time>2022-06-05T09:38:26Z</time>
      </trkpt>
      <trkpt lat="45.03124" lon="5.84036">
        <ele>1419</ele>
        <time>2022-06-05T09:38:27Z</time>
      </trkpt>
      <trkpt lat="45.03124" lon="5.84035">
        <ele>1419</ele>
        <time>2022-06-05T09:38:28Z</time>
      </trkpt>
      <trkpt lat="45.03124" lon="5.84035">
        <ele>1420</ele>
        <time>2022-06-05T09:38:29Z</time>
      </trkpt>
      <trkpt lat="45.03123" lon="5.84034">
        <ele>1420</ele>
        <time>2022-06-05T09:38:30Z</time>
      </trkpt>
      <trkpt lat="45.03123" lon="5.84033">
        <ele>1420</ele>
        <time>2022-06-05T09:38:31Z</time>
      </trkpt>
      <trkpt lat="45.03122" lon="5.84032">
        <ele>1421</ele>
        <time>2022-06-05T09:38:32Z</time>
      </trkpt>
      <trkpt lat="45.03122" lon="5.84031">
        <ele>1421</ele>
        <time>2022-06-05T09:38:33Z</time>
      </trkpt>
      <trkpt lat="45.03121" lon="5.8403">
        <ele>1421</ele>
        <time>2022-06-05T09:38:34Z</time>
      </trkpt>
      <trkpt lat="45.0312" lon="5.84029">
        <ele>1420</ele>
        <time>2022-06-05T09:38:35Z</time>
      </trkpt>
      <trkpt lat="45.03119" lon="5.84028">
        <ele>1420</ele>
        <time>2022-06-05T09:38:36Z</time>
      </trkpt>
      <trkpt lat="45.03118" lon="5.84027">
        <ele>1420</ele>
        <time>2022-06-05T09:38:37Z</time>
      </trkpt>
      <trkpt lat="45.03117" lon="5.84027">
        <ele>1421</ele>
        <time>2022-06-05T09:38:38Z</time>
      </trkpt>
      <trkpt lat="45.03116" lon="5.84026">
        <ele>1421</ele>
        <time>2022-06-05T09:38:39Z</time>
      </trkpt>
      <trkpt lat="45.03116" lon="5.84025">
        <ele>1421</ele>
        <time>2022-06-05T09:38:40Z</time>
      </trkpt>
      <trkpt lat="45.03115" lon="5.84025">
        <ele>1420</ele>
        <time>2022-06-05T09:38:41Z</time>
      </trkpt>
      <trkpt lat="45.03114" lon="5.84024">
        <ele>1421</ele>
        <time>2022-06-05T09:38:42Z</time>
      </trkpt>
      <trkpt lat="45.03113" lon="5.84024">
        <ele>1421</ele>
        <time>2022-06-05T09:38:43Z</time>
      </trkpt>
      <trkpt lat="45.03112" lon="5.84024">
        <ele>1421</ele>
        <time>2022-06-05T09:38:44Z</time>
      </trkpt>
      <trkpt lat="45.03112" lon="5.84023">
        <ele>1421</ele>
        <time>2022-06-05T09:38:45Z</time>
      </trkpt>
      <trkpt lat="45.03111" lon="5.84022">
        <ele>1421</ele>
        <time>2022-06-05T09:38:46Z</time>
      </trkpt>
      <trkpt lat="45.03111" lon="5.84022">
        <ele>1421</ele>
        <time>2022-06-05T09:38:47Z</time>
      </trkpt>
      <trkpt lat="45.0311" lon="5.84021">
        <ele>1421</ele>
        <time>2022-06-05T09:38:48Z</time>
      </trkpt>
      <trkpt lat="45.0311" lon="5.84021">
        <ele>1421</ele>
        <time>2022-06-05T09:38:49Z</time>
      </trkpt>
      <trkpt lat="45.03109" lon="5.8402">
        <ele>1422</ele>
        <time>2022-06-05T09:38:50Z</time>
      </trkpt>
      <trkpt lat="45.03108" lon="5.84019">
        <ele>1423</ele>
        <time>2022-06-05T09:38:51Z</time>
      </trkpt>
      <trkpt lat="45.03107" lon="5.84018">
        <ele>1423</ele>
        <time>2022-06-05T09:38:52Z</time>
      </trkpt>
      <trkpt lat="45.03106" lon="5.84018">
        <ele>1424</ele>
        <time>2022-06-05T09:38:53Z</time>
      </trkpt>
      <trkpt lat="45.03106" lon="5.84017">
        <ele>1424</ele>
        <time>2022-06-05T09:38:54Z</time>
      </trkpt>
      <trkpt lat="45.03106" lon="5.84016">
        <ele>1423</ele>
        <time>2022-06-05T09:38:55Z</time>
      </trkpt>
      <trkpt lat="45.03105" lon="5.84015">
        <ele>1423</ele>
        <time>2022-06-05T09:38:56Z</time>
      </trkpt>
      <trkpt lat="45.03104" lon="5.84015">
        <ele>1423</ele>
        <time>2022-06-05T09:38:57Z</time>
      </trkpt>
      <trkpt lat="45.03104" lon="5.84015">
        <ele>1423</ele>
        <time>2022-06-05T09:38:58Z</time>
      </trkpt>
      <trkpt lat="45.03104" lon="5.84015">
        <ele>1423</ele>
        <time>2022-06-05T09:38:59Z</time>
      </trkpt>
      <trkpt lat="45.03104" lon="5.84015">
        <ele>1423</ele>
        <time>2022-06-05T09:38:59Z</time>
      </trkpt>
      <trkpt lat="45.03104" lon="5.84015">
        <ele>1423</ele>
        <time>2022-06-05T09:38:59Z</time>
      </trkpt>
      <trkpt lat="45.03101" lon="5.84011">
        <ele>1423</ele>
        <time>2022-06-05T09:39:06Z</time>
      </trkpt>
      <trkpt lat="45.031" lon="5.8401">
        <ele>1423</ele>
        <time>2022-06-05T09:39:07Z</time>
      </trkpt>
      <trkpt lat="45.03099" lon="5.8401">
        <ele>1423</ele>
        <time>2022-06-05T09:39:08Z</time>
      </trkpt>
      <trkpt lat="45.03098" lon="5.8401">
        <ele>1424</ele>
        <time>2022-06-05T09:39:09Z</time>
      </trkpt>
      <trkpt lat="45.03098" lon="5.8401">
        <ele>1424</ele>
        <time>2022-06-05T09:39:10Z</time>
      </trkpt>
      <trkpt lat="45.03097" lon="5.84009">
        <ele>1424</ele>
        <time>2022-06-05T09:39:11Z</time>
      </trkpt>
      <trkpt lat="45.03096" lon="5.84009">
        <ele>1425</ele>
        <time>2022-06-05T09:39:12Z</time>
      </trkpt>
      <trkpt lat="45.03096" lon="5.84009">
        <ele>1425</ele>
        <time>2022-06-05T09:39:13Z</time>
      </trkpt>
      <trkpt lat="45.03096" lon="5.84009">
        <ele>1425</ele>
        <time>2022-06-05T09:39:14Z</time>
      </trkpt>
      <trkpt lat="45.03096" lon="5.84008">
        <ele>1425</ele>
        <time>2022-06-05T09:39:15Z</time>
      </trkpt>
      <trkpt lat="45.03095" lon="5.84008">
        <ele>1425</ele>
        <time>2022-06-05T09:39:16Z</time>
      </trkpt>
      <trkpt lat="45.03095" lon="5.84007">
        <ele>1426</ele>
        <time>2022-06-05T09:39:17Z</time>
      </trkpt>
      <trkpt lat="45.03094" lon="5.84007">
        <ele>1426</ele>
        <time>2022-06-05T09:39:18Z</time>
      </trkpt>
      <trkpt lat="45.03093" lon="5.84007">
        <ele>1426</ele>
        <time>2022-06-05T09:39:19Z</time>
      </trkpt>
      <trkpt lat="45.03092" lon="5.84007">
        <ele>1426</ele>
        <time>2022-06-05T09:39:20Z</time>
      </trkpt>
      <trkpt lat="45.03091" lon="5.84007">
        <ele>1427</ele>
        <time>2022-06-05T09:39:21Z</time>
      </trkpt>
      <trkpt lat="45.03091" lon="5.84006">
        <ele>1427</ele>
        <time>2022-06-05T09:39:22Z</time>
      </trkpt>
      <trkpt lat="45.03091" lon="5.84006">
        <ele>1427</ele>
        <time>2022-06-05T09:39:23Z</time>
      </trkpt>
      <trkpt lat="45.03091" lon="5.84006">
        <ele>1427</ele>
        <time>2022-06-05T09:39:24Z</time>
      </trkpt>
      <trkpt lat="45.03089" lon="5.84006">
        <ele>1427</ele>
        <time>2022-06-05T09:39:25Z</time>
      </trkpt>
      <trkpt lat="45.03088" lon="5.84006">
        <ele>1428</ele>
        <time>2022-06-05T09:39:26Z</time>
      </trkpt>
      <trkpt lat="45.03087" lon="5.84006">
        <ele>1427</ele>
        <time>2022-06-05T09:39:27Z</time>
      </trkpt>
      <trkpt lat="45.03086" lon="5.84006">
        <ele>1427</ele>
        <time>2022-06-05T09:39:28Z</time>
      </trkpt>
      <trkpt lat="45.03085" lon="5.84007">
        <ele>1427</ele>
        <time>2022-06-05T09:39:29Z</time>
      </trkpt>
      <trkpt lat="45.03084" lon="5.84007">
        <ele>1426</ele>
        <time>2022-06-05T09:39:30Z</time>
      </trkpt>
      <trkpt lat="45.03083" lon="5.84007">
        <ele>1426</ele>
        <time>2022-06-05T09:39:31Z</time>
      </trkpt>
      <trkpt lat="45.03082" lon="5.84007">
        <ele>1426</ele>
        <time>2022-06-05T09:39:32Z</time>
      </trkpt>
      <trkpt lat="45.03081" lon="5.84007">
        <ele>1426</ele>
        <time>2022-06-05T09:39:33Z</time>
      </trkpt>
      <trkpt lat="45.0308" lon="5.84007">
        <ele>1426</ele>
        <time>2022-06-05T09:39:34Z</time>
      </trkpt>
      <trkpt lat="45.03079" lon="5.84006">
        <ele>1426</ele>
        <time>2022-06-05T09:39:35Z</time>
      </trkpt>
      <trkpt lat="45.03079" lon="5.84006">
        <ele>1426</ele>
        <time>2022-06-05T09:39:36Z</time>
      </trkpt>
      <trkpt lat="45.03078" lon="5.84006">
        <ele>1426</ele>
        <time>2022-06-05T09:39:37Z</time>
      </trkpt>
      <trkpt lat="45.03077" lon="5.84006">
        <ele>1426</ele>
        <time>2022-06-05T09:39:38Z</time>
      </trkpt>
      <trkpt lat="45.03076" lon="5.84006">
        <ele>1427</ele>
        <time>2022-06-05T09:39:39Z</time>
      </trkpt>
      <trkpt lat="45.03075" lon="5.84005">
        <ele>1427</ele>
        <time>2022-06-05T09:39:40Z</time>
      </trkpt>
      <trkpt lat="45.03074" lon="5.84006">
        <ele>1427</ele>
        <time>2022-06-05T09:39:41Z</time>
      </trkpt>
      <trkpt lat="45.03074" lon="5.84006">
        <ele>1427</ele>
        <time>2022-06-05T09:39:42Z</time>
      </trkpt>
      <trkpt lat="45.03074" lon="5.84005">
        <ele>1427</ele>
        <time>2022-06-05T09:39:43Z</time>
      </trkpt>
      <trkpt lat="45.03073" lon="5.84005">
        <ele>1427</ele>
        <time>2022-06-05T09:39:44Z</time>
      </trkpt>
      <trkpt lat="45.03073" lon="5.84005">
        <ele>1427</ele>
        <time>2022-06-05T09:39:45Z</time>
      </trkpt>
      <trkpt lat="45.03072" lon="5.84005">
        <ele>1428</ele>
        <time>2022-06-05T09:39:46Z</time>
      </trkpt>
      <trkpt lat="45.03072" lon="5.84005">
        <ele>1428</ele>
        <time>2022-06-05T09:39:47Z</time>
      </trkpt>
      <trkpt lat="45.03071" lon="5.84005">
        <ele>1428</ele>
        <time>2022-06-05T09:39:48Z</time>
      </trkpt>
      <trkpt lat="45.0307" lon="5.84005">
        <ele>1428</ele>
        <time>2022-06-05T09:39:49Z</time>
      </trkpt>
      <trkpt lat="45.03069" lon="5.84006">
        <ele>1428</ele>
        <time>2022-06-05T09:39:50Z</time>
      </trkpt>
      <trkpt lat="45.03068" lon="5.84006">
        <ele>1427</ele>
        <time>2022-06-05T09:39:51Z</time>
      </trkpt>
      <trkpt lat="45.03067" lon="5.84005">
        <ele>1427</ele>
        <time>2022-06-05T09:39:52Z</time>
      </trkpt>
      <trkpt lat="45.03067" lon="5.84005">
        <ele>1428</ele>
        <time>2022-06-05T09:39:53Z</time>
      </trkpt>
      <trkpt lat="45.03067" lon="5.84005">
        <ele>1428</ele>
        <time>2022-06-05T09:39:54Z</time>
      </trkpt>
      <trkpt lat="45.03064" lon="5.84004">
        <ele>1428</ele>
        <time>2022-06-05T09:39:55Z</time>
      </trkpt>
      <trkpt lat="45.03064" lon="5.84003">
        <ele>1428</ele>
        <time>2022-06-05T09:39:56Z</time>
      </trkpt>
      <trkpt lat="45.03062" lon="5.84002">
        <ele>1428</ele>
        <time>2022-06-05T09:39:57Z</time>
      </trkpt>
      <trkpt lat="45.03061" lon="5.84002">
        <ele>1428</ele>
        <time>2022-06-05T09:39:58Z</time>
      </trkpt>
      <trkpt lat="45.03061" lon="5.84001">
        <ele>1428</ele>
        <time>2022-06-05T09:39:59Z</time>
      </trkpt>
      <trkpt lat="45.0306" lon="5.84">
        <ele>1428</ele>
        <time>2022-06-05T09:40:00Z</time>
      </trkpt>
      <trkpt lat="45.03059" lon="5.83999">
        <ele>1428</ele>
        <time>2022-06-05T09:40:01Z</time>
      </trkpt>
      <trkpt lat="45.03058" lon="5.83999">
        <ele>1428</ele>
        <time>2022-06-05T09:40:02Z</time>
      </trkpt>
      <trkpt lat="45.03058" lon="5.83998">
        <ele>1428</ele>
        <time>2022-06-05T09:40:03Z</time>
      </trkpt>
      <trkpt lat="45.03058" lon="5.83996">
        <ele>1428</ele>
        <time>2022-06-05T09:40:04Z</time>
      </trkpt>
      <trkpt lat="45.03057" lon="5.83995">
        <ele>1429</ele>
        <time>2022-06-05T09:40:05Z</time>
      </trkpt>
      <trkpt lat="45.03057" lon="5.83993">
        <ele>1429</ele>
        <time>2022-06-05T09:40:06Z</time>
      </trkpt>
      <trkpt lat="45.03057" lon="5.83992">
        <ele>1430</ele>
        <time>2022-06-05T09:40:07Z</time>
      </trkpt>
      <trkpt lat="45.03056" lon="5.8399">
        <ele>1430</ele>
        <time>2022-06-05T09:40:08Z</time>
      </trkpt>
      <trkpt lat="45.03057" lon="5.83989">
        <ele>1430</ele>
        <time>2022-06-05T09:40:09Z</time>
      </trkpt>
      <trkpt lat="45.03057" lon="5.83988">
        <ele>1430</ele>
        <time>2022-06-05T09:40:10Z</time>
      </trkpt>
      <trkpt lat="45.03057" lon="5.83987">
        <ele>1431</ele>
        <time>2022-06-05T09:40:11Z</time>
      </trkpt>
      <trkpt lat="45.03057" lon="5.83986">
        <ele>1431</ele>
        <time>2022-06-05T09:40:12Z</time>
      </trkpt>
      <trkpt lat="45.03057" lon="5.83985">
        <ele>1430</ele>
        <time>2022-06-05T09:40:13Z</time>
      </trkpt>
      <trkpt lat="45.03056" lon="5.83985">
        <ele>1431</ele>
        <time>2022-06-05T09:40:14Z</time>
      </trkpt>
      <trkpt lat="45.03056" lon="5.83984">
        <ele>1431</ele>
        <time>2022-06-05T09:40:15Z</time>
      </trkpt>
      <trkpt lat="45.03055" lon="5.83983">
        <ele>1431</ele>
        <time>2022-06-05T09:40:16Z</time>
      </trkpt>
      <trkpt lat="45.03054" lon="5.83982">
        <ele>1431</ele>
        <time>2022-06-05T09:40:17Z</time>
      </trkpt>
      <trkpt lat="45.03053" lon="5.83981">
        <ele>1432</ele>
        <time>2022-06-05T09:40:18Z</time>
      </trkpt>
      <trkpt lat="45.03052" lon="5.8398">
        <ele>1431</ele>
        <time>2022-06-05T09:40:19Z</time>
      </trkpt>
      <trkpt lat="45.03051" lon="5.8398">
        <ele>1430</ele>
        <time>2022-06-05T09:40:20Z</time>
      </trkpt>
      <trkpt lat="45.0305" lon="5.83979">
        <ele>1430</ele>
        <time>2022-06-05T09:40:21Z</time>
      </trkpt>
      <trkpt lat="45.0305" lon="5.83977">
        <ele>1430</ele>
        <time>2022-06-05T09:40:22Z</time>
      </trkpt>
      <trkpt lat="45.03048" lon="5.83977">
        <ele>1430</ele>
        <time>2022-06-05T09:40:23Z</time>
      </trkpt>
      <trkpt lat="45.03047" lon="5.83976">
        <ele>1429</ele>
        <time>2022-06-05T09:40:24Z</time>
      </trkpt>
      <trkpt lat="45.03046" lon="5.83975">
        <ele>1428</ele>
        <time>2022-06-05T09:40:25Z</time>
      </trkpt>
      <trkpt lat="45.03045" lon="5.83974">
        <ele>1428</ele>
        <time>2022-06-05T09:40:26Z</time>
      </trkpt>
      <trkpt lat="45.03045" lon="5.83972">
        <ele>1428</ele>
        <time>2022-06-05T09:40:27Z</time>
      </trkpt>
      <trkpt lat="45.03044" lon="5.83971">
        <ele>1427</ele>
        <time>2022-06-05T09:40:28Z</time>
      </trkpt>
      <trkpt lat="45.03044" lon="5.83969">
        <ele>1427</ele>
        <time>2022-06-05T09:40:29Z</time>
      </trkpt>
      <trkpt lat="45.03043" lon="5.83968">
        <ele>1427</ele>
        <time>2022-06-05T09:40:30Z</time>
      </trkpt>
      <trkpt lat="45.03043" lon="5.83967">
        <ele>1427</ele>
        <time>2022-06-05T09:40:31Z</time>
      </trkpt>
      <trkpt lat="45.03043" lon="5.83966">
        <ele>1426</ele>
        <time>2022-06-05T09:40:32Z</time>
      </trkpt>
      <trkpt lat="45.03043" lon="5.83964">
        <ele>1426</ele>
        <time>2022-06-05T09:40:33Z</time>
      </trkpt>
      <trkpt lat="45.03043" lon="5.83963">
        <ele>1427</ele>
        <time>2022-06-05T09:40:34Z</time>
      </trkpt>
      <trkpt lat="45.03042" lon="5.83962">
        <ele>1427</ele>
        <time>2022-06-05T09:40:35Z</time>
      </trkpt>
      <trkpt lat="45.03041" lon="5.83961">
        <ele>1427</ele>
        <time>2022-06-05T09:40:36Z</time>
      </trkpt>
      <trkpt lat="45.0304" lon="5.8396">
        <ele>1427</ele>
        <time>2022-06-05T09:40:37Z</time>
      </trkpt>
      <trkpt lat="45.0304" lon="5.83959">
        <ele>1427</ele>
        <time>2022-06-05T09:40:38Z</time>
      </trkpt>
      <trkpt lat="45.03039" lon="5.83958">
        <ele>1427</ele>
        <time>2022-06-05T09:40:39Z</time>
      </trkpt>
      <trkpt lat="45.03039" lon="5.83957">
        <ele>1427</ele>
        <time>2022-06-05T09:40:40Z</time>
      </trkpt>
      <trkpt lat="45.03038" lon="5.83955">
        <ele>1427</ele>
        <time>2022-06-05T09:40:41Z</time>
      </trkpt>
      <trkpt lat="45.03038" lon="5.83954">
        <ele>1426</ele>
        <time>2022-06-05T09:40:42Z</time>
      </trkpt>
      <trkpt lat="45.03038" lon="5.83953">
        <ele>1426</ele>
        <time>2022-06-05T09:40:43Z</time>
      </trkpt>
      <trkpt lat="45.03037" lon="5.83951">
        <ele>1426</ele>
        <time>2022-06-05T09:40:44Z</time>
      </trkpt>
      <trkpt lat="45.03036" lon="5.8395">
        <ele>1427</ele>
        <time>2022-06-05T09:40:45Z</time>
      </trkpt>
      <trkpt lat="45.03035" lon="5.83949">
        <ele>1427</ele>
        <time>2022-06-05T09:40:46Z</time>
      </trkpt>
      <trkpt lat="45.03035" lon="5.83948">
        <ele>1427</ele>
        <time>2022-06-05T09:40:47Z</time>
      </trkpt>
      <trkpt lat="45.03034" lon="5.83947">
        <ele>1427</ele>
        <time>2022-06-05T09:40:48Z</time>
      </trkpt>
      <trkpt lat="45.03033" lon="5.83945">
        <ele>1427</ele>
        <time>2022-06-05T09:40:49Z</time>
      </trkpt>
      <trkpt lat="45.03033" lon="5.83944">
        <ele>1427</ele>
        <time>2022-06-05T09:40:50Z</time>
      </trkpt>
      <trkpt lat="45.03033" lon="5.83942">
        <ele>1427</ele>
        <time>2022-06-05T09:40:51Z</time>
      </trkpt>
      <trkpt lat="45.03032" lon="5.83941">
        <ele>1427</ele>
        <time>2022-06-05T09:40:52Z</time>
      </trkpt>
      <trkpt lat="45.03032" lon="5.8394">
        <ele>1427</ele>
        <time>2022-06-05T09:40:53Z</time>
      </trkpt>
      <trkpt lat="45.03031" lon="5.83939">
        <ele>1428</ele>
        <time>2022-06-05T09:40:54Z</time>
      </trkpt>
      <trkpt lat="45.0303" lon="5.83938">
        <ele>1428</ele>
        <time>2022-06-05T09:40:55Z</time>
      </trkpt>
      <trkpt lat="45.0303" lon="5.83937">
        <ele>1428</ele>
        <time>2022-06-05T09:40:56Z</time>
      </trkpt>
      <trkpt lat="45.03029" lon="5.83936">
        <ele>1428</ele>
        <time>2022-06-05T09:40:57Z</time>
      </trkpt>
      <trkpt lat="45.03029" lon="5.83935">
        <ele>1429</ele>
        <time>2022-06-05T09:40:58Z</time>
      </trkpt>
      <trkpt lat="45.03028" lon="5.83934">
        <ele>1429</ele>
        <time>2022-06-05T09:40:59Z</time>
      </trkpt>
      <trkpt lat="45.03027" lon="5.83933">
        <ele>1430</ele>
        <time>2022-06-05T09:41:00Z</time>
      </trkpt>
      <trkpt lat="45.03027" lon="5.83932">
        <ele>1430</ele>
        <time>2022-06-05T09:41:01Z</time>
      </trkpt>
      <trkpt lat="45.03027" lon="5.83931">
        <ele>1430</ele>
        <time>2022-06-05T09:41:02Z</time>
      </trkpt>
      <trkpt lat="45.03026" lon="5.8393">
        <ele>1430</ele>
        <time>2022-06-05T09:41:03Z</time>
      </trkpt>
      <trkpt lat="45.03025" lon="5.83929">
        <ele>1430</ele>
        <time>2022-06-05T09:41:04Z</time>
      </trkpt>
      <trkpt lat="45.03025" lon="5.83929">
        <ele>1430</ele>
        <time>2022-06-05T09:41:05Z</time>
      </trkpt>
      <trkpt lat="45.03024" lon="5.83928">
        <ele>1430</ele>
        <time>2022-06-05T09:41:06Z</time>
      </trkpt>
      <trkpt lat="45.03023" lon="5.83927">
        <ele>1431</ele>
        <time>2022-06-05T09:41:07Z</time>
      </trkpt>
      <trkpt lat="45.03023" lon="5.83926">
        <ele>1431</ele>
        <time>2022-06-05T09:41:08Z</time>
      </trkpt>
      <trkpt lat="45.03022" lon="5.83925">
        <ele>1430</ele>
        <time>2022-06-05T09:41:09Z</time>
      </trkpt>
      <trkpt lat="45.03021" lon="5.83925">
        <ele>1430</ele>
        <time>2022-06-05T09:41:10Z</time>
      </trkpt>
      <trkpt lat="45.03021" lon="5.83924">
        <ele>1430</ele>
        <time>2022-06-05T09:41:11Z</time>
      </trkpt>
      <trkpt lat="45.0302" lon="5.83923">
        <ele>1430</ele>
        <time>2022-06-05T09:41:12Z</time>
      </trkpt>
      <trkpt lat="45.03019" lon="5.83922">
        <ele>1430</ele>
        <time>2022-06-05T09:41:13Z</time>
      </trkpt>
      <trkpt lat="45.03018" lon="5.83922">
        <ele>1430</ele>
        <time>2022-06-05T09:41:14Z</time>
      </trkpt>
      <trkpt lat="45.03017" lon="5.83921">
        <ele>1430</ele>
        <time>2022-06-05T09:41:15Z</time>
      </trkpt>
      <trkpt lat="45.03017" lon="5.8392">
        <ele>1430</ele>
        <time>2022-06-05T09:41:16Z</time>
      </trkpt>
      <trkpt lat="45.03016" lon="5.83919">
        <ele>1430</ele>
        <time>2022-06-05T09:41:17Z</time>
      </trkpt>
      <trkpt lat="45.03016" lon="5.83918">
        <ele>1430</ele>
        <time>2022-06-05T09:41:18Z</time>
      </trkpt>
      <trkpt lat="45.03014" lon="5.83917">
        <ele>1430</ele>
        <time>2022-06-05T09:41:19Z</time>
      </trkpt>
      <trkpt lat="45.03013" lon="5.83917">
        <ele>1430</ele>
        <time>2022-06-05T09:41:20Z</time>
      </trkpt>
      <trkpt lat="45.03013" lon="5.83916">
        <ele>1429</ele>
        <time>2022-06-05T09:41:21Z</time>
      </trkpt>
      <trkpt lat="45.03012" lon="5.83915">
        <ele>1429</ele>
        <time>2022-06-05T09:41:22Z</time>
      </trkpt>
      <trkpt lat="45.03011" lon="5.83914">
        <ele>1429</ele>
        <time>2022-06-05T09:41:23Z</time>
      </trkpt>
      <trkpt lat="45.0301" lon="5.83914">
        <ele>1428</ele>
        <time>2022-06-05T09:41:24Z</time>
      </trkpt>
      <trkpt lat="45.03009" lon="5.83913">
        <ele>1428</ele>
        <time>2022-06-05T09:41:25Z</time>
      </trkpt>
      <trkpt lat="45.03008" lon="5.83912">
        <ele>1429</ele>
        <time>2022-06-05T09:41:26Z</time>
      </trkpt>
      <trkpt lat="45.03007" lon="5.83912">
        <ele>1429</ele>
        <time>2022-06-05T09:41:27Z</time>
      </trkpt>
      <trkpt lat="45.03006" lon="5.83911">
        <ele>1429</ele>
        <time>2022-06-05T09:41:28Z</time>
      </trkpt>
      <trkpt lat="45.03006" lon="5.83911">
        <ele>1429</ele>
        <time>2022-06-05T09:41:29Z</time>
      </trkpt>
      <trkpt lat="45.03005" lon="5.8391">
        <ele>1429</ele>
        <time>2022-06-05T09:41:30Z</time>
      </trkpt>
      <trkpt lat="45.03005" lon="5.83909">
        <ele>1428</ele>
        <time>2022-06-05T09:41:31Z</time>
      </trkpt>
      <trkpt lat="45.03005" lon="5.83908">
        <ele>1428</ele>
        <time>2022-06-05T09:41:32Z</time>
      </trkpt>
      <trkpt lat="45.03004" lon="5.83907">
        <ele>1428</ele>
        <time>2022-06-05T09:41:33Z</time>
      </trkpt>
      <trkpt lat="45.03004" lon="5.83906">
        <ele>1429</ele>
        <time>2022-06-05T09:41:34Z</time>
      </trkpt>
      <trkpt lat="45.03003" lon="5.83906">
        <ele>1429</ele>
        <time>2022-06-05T09:41:35Z</time>
      </trkpt>
      <trkpt lat="45.03002" lon="5.83905">
        <ele>1429</ele>
        <time>2022-06-05T09:41:36Z</time>
      </trkpt>
      <trkpt lat="45.03001" lon="5.83905">
        <ele>1428</ele>
        <time>2022-06-05T09:41:37Z</time>
      </trkpt>
      <trkpt lat="45.03001" lon="5.83904">
        <ele>1428</ele>
        <time>2022-06-05T09:41:38Z</time>
      </trkpt>
      <trkpt lat="45.03001" lon="5.83904">
        <ele>1428</ele>
        <time>2022-06-05T09:41:39Z</time>
      </trkpt>
      <trkpt lat="45.03" lon="5.83904">
        <ele>1428</ele>
        <time>2022-06-05T09:41:40Z</time>
      </trkpt>
      <trkpt lat="45.03" lon="5.83904">
        <ele>1428</ele>
        <time>2022-06-05T09:41:41Z</time>
      </trkpt>
      <trkpt lat="45.02999" lon="5.83904">
        <ele>1428</ele>
        <time>2022-06-05T09:41:42Z</time>
      </trkpt>
      <trkpt lat="45.02998" lon="5.83903">
        <ele>1427</ele>
        <time>2022-06-05T09:41:43Z</time>
      </trkpt>
      <trkpt lat="45.02998" lon="5.83903">
        <ele>1428</ele>
        <time>2022-06-05T09:41:44Z</time>
      </trkpt>
      <trkpt lat="45.02997" lon="5.83903">
        <ele>1428</ele>
        <time>2022-06-05T09:41:45Z</time>
      </trkpt>
      <trkpt lat="45.02996" lon="5.83902">
        <ele>1428</ele>
        <time>2022-06-05T09:41:46Z</time>
      </trkpt>
      <trkpt lat="45.02996" lon="5.83902">
        <ele>1428</ele>
        <time>2022-06-05T09:41:47Z</time>
      </trkpt>
      <trkpt lat="45.02995" lon="5.83902">
        <ele>1428</ele>
        <time>2022-06-05T09:41:48Z</time>
      </trkpt>
      <trkpt lat="45.02994" lon="5.83902">
        <ele>1427</ele>
        <time>2022-06-05T09:41:49Z</time>
      </trkpt>
      <trkpt lat="45.02993" lon="5.83901">
        <ele>1427</ele>
        <time>2022-06-05T09:41:50Z</time>
      </trkpt>
      <trkpt lat="45.02993" lon="5.83901">
        <ele>1427</ele>
        <time>2022-06-05T09:41:51Z</time>
      </trkpt>
      <trkpt lat="45.02992" lon="5.839">
        <ele>1427</ele>
        <time>2022-06-05T09:41:52Z</time>
      </trkpt>
      <trkpt lat="45.02991" lon="5.839">
        <ele>1427</ele>
        <time>2022-06-05T09:41:53Z</time>
      </trkpt>
      <trkpt lat="45.0299" lon="5.83899">
        <ele>1427</ele>
        <time>2022-06-05T09:41:54Z</time>
      </trkpt>
      <trkpt lat="45.02989" lon="5.83899">
        <ele>1427</ele>
        <time>2022-06-05T09:41:55Z</time>
      </trkpt>
      <trkpt lat="45.02989" lon="5.83898">
        <ele>1427</ele>
        <time>2022-06-05T09:41:56Z</time>
      </trkpt>
      <trkpt lat="45.02988" lon="5.83897">
        <ele>1427</ele>
        <time>2022-06-05T09:41:57Z</time>
      </trkpt>
      <trkpt lat="45.02987" lon="5.83897">
        <ele>1427</ele>
        <time>2022-06-05T09:41:58Z</time>
      </trkpt>
      <trkpt lat="45.02986" lon="5.83897">
        <ele>1426</ele>
        <time>2022-06-05T09:41:59Z</time>
      </trkpt>
      <trkpt lat="45.02985" lon="5.83897">
        <ele>1427</ele>
        <time>2022-06-05T09:42:00Z</time>
      </trkpt>
      <trkpt lat="45.02984" lon="5.83896">
        <ele>1427</ele>
        <time>2022-06-05T09:42:01Z</time>
      </trkpt>
      <trkpt lat="45.02984" lon="5.83896">
        <ele>1427</ele>
        <time>2022-06-05T09:42:02Z</time>
      </trkpt>
      <trkpt lat="45.02984" lon="5.83896">
        <ele>1427</ele>
        <time>2022-06-05T09:42:03Z</time>
      </trkpt>
      <trkpt lat="45.02983" lon="5.83895">
        <ele>1427</ele>
        <time>2022-06-05T09:42:04Z</time>
      </trkpt>
      <trkpt lat="45.02982" lon="5.83895">
        <ele>1427</ele>
        <time>2022-06-05T09:42:05Z</time>
      </trkpt>
      <trkpt lat="45.02981" lon="5.83894">
        <ele>1427</ele>
        <time>2022-06-05T09:42:06Z</time>
      </trkpt>
      <trkpt lat="45.0298" lon="5.83894">
        <ele>1426</ele>
        <time>2022-06-05T09:42:07Z</time>
      </trkpt>
      <trkpt lat="45.02979" lon="5.83893">
        <ele>1426</ele>
        <time>2022-06-05T09:42:08Z</time>
      </trkpt>
      <trkpt lat="45.02979" lon="5.83893">
        <ele>1425</ele>
        <time>2022-06-05T09:42:09Z</time>
      </trkpt>
      <trkpt lat="45.02977" lon="5.83893">
        <ele>1425</ele>
        <time>2022-06-05T09:42:10Z</time>
      </trkpt>
      <trkpt lat="45.02977" lon="5.83893">
        <ele>1425</ele>
        <time>2022-06-05T09:42:11Z</time>
      </trkpt>
      <trkpt lat="45.02976" lon="5.83893">
        <ele>1424</ele>
        <time>2022-06-05T09:42:12Z</time>
      </trkpt>
      <trkpt lat="45.02976" lon="5.83893">
        <ele>1424</ele>
        <time>2022-06-05T09:42:13Z</time>
      </trkpt>
      <trkpt lat="45.02975" lon="5.83893">
        <ele>1424</ele>
        <time>2022-06-05T09:42:14Z</time>
      </trkpt>
      <trkpt lat="45.02974" lon="5.83893">
        <ele>1423</ele>
        <time>2022-06-05T09:42:15Z</time>
      </trkpt>
      <trkpt lat="45.02972" lon="5.83893">
        <ele>1424</ele>
        <time>2022-06-05T09:42:16Z</time>
      </trkpt>
      <trkpt lat="45.02972" lon="5.83893">
        <ele>1424</ele>
        <time>2022-06-05T09:42:17Z</time>
      </trkpt>
      <trkpt lat="45.02971" lon="5.83892">
        <ele>1424</ele>
        <time>2022-06-05T09:42:18Z</time>
      </trkpt>
      <trkpt lat="45.0297" lon="5.83892">
        <ele>1423</ele>
        <time>2022-06-05T09:42:19Z</time>
      </trkpt>
      <trkpt lat="45.02969" lon="5.83891">
        <ele>1423</ele>
        <time>2022-06-05T09:42:20Z</time>
      </trkpt>
      <trkpt lat="45.02968" lon="5.83891">
        <ele>1423</ele>
        <time>2022-06-05T09:42:21Z</time>
      </trkpt>
      <trkpt lat="45.02968" lon="5.8389">
        <ele>1423</ele>
        <time>2022-06-05T09:42:22Z</time>
      </trkpt>
      <trkpt lat="45.02967" lon="5.8389">
        <ele>1422</ele>
        <time>2022-06-05T09:42:23Z</time>
      </trkpt>
      <trkpt lat="45.02966" lon="5.8389">
        <ele>1423</ele>
        <time>2022-06-05T09:42:24Z</time>
      </trkpt>
      <trkpt lat="45.02966" lon="5.83889">
        <ele>1422</ele>
        <time>2022-06-05T09:42:25Z</time>
      </trkpt>
      <trkpt lat="45.02965" lon="5.83889">
        <ele>1422</ele>
        <time>2022-06-05T09:42:26Z</time>
      </trkpt>
      <trkpt lat="45.02964" lon="5.83888">
        <ele>1422</ele>
        <time>2022-06-05T09:42:27Z</time>
      </trkpt>
      <trkpt lat="45.02963" lon="5.83888">
        <ele>1422</ele>
        <time>2022-06-05T09:42:28Z</time>
      </trkpt>
      <trkpt lat="45.02962" lon="5.83888">
        <ele>1422</ele>
        <time>2022-06-05T09:42:29Z</time>
      </trkpt>
      <trkpt lat="45.02961" lon="5.83887">
        <ele>1422</ele>
        <time>2022-06-05T09:42:30Z</time>
      </trkpt>
      <trkpt lat="45.0296" lon="5.83887">
        <ele>1422</ele>
        <time>2022-06-05T09:42:31Z</time>
      </trkpt>
      <trkpt lat="45.02959" lon="5.83887">
        <ele>1423</ele>
        <time>2022-06-05T09:42:32Z</time>
      </trkpt>
      <trkpt lat="45.02959" lon="5.83886">
        <ele>1423</ele>
        <time>2022-06-05T09:42:33Z</time>
      </trkpt>
      <trkpt lat="45.02958" lon="5.83886">
        <ele>1423</ele>
        <time>2022-06-05T09:42:34Z</time>
      </trkpt>
      <trkpt lat="45.02957" lon="5.83885">
        <ele>1423</ele>
        <time>2022-06-05T09:42:35Z</time>
      </trkpt>
      <trkpt lat="45.02956" lon="5.83885">
        <ele>1423</ele>
        <time>2022-06-05T09:42:36Z</time>
      </trkpt>
      <trkpt lat="45.02955" lon="5.83884">
        <ele>1423</ele>
        <time>2022-06-05T09:42:37Z</time>
      </trkpt>
      <trkpt lat="45.02955" lon="5.83884">
        <ele>1423</ele>
        <time>2022-06-05T09:42:38Z</time>
      </trkpt>
      <trkpt lat="45.02954" lon="5.83884">
        <ele>1423</ele>
        <time>2022-06-05T09:42:39Z</time>
      </trkpt>
      <trkpt lat="45.02953" lon="5.83883">
        <ele>1423</ele>
        <time>2022-06-05T09:42:40Z</time>
      </trkpt>
      <trkpt lat="45.02952" lon="5.83882">
        <ele>1424</ele>
        <time>2022-06-05T09:42:41Z</time>
      </trkpt>
      <trkpt lat="45.02952" lon="5.83882">
        <ele>1424</ele>
        <time>2022-06-05T09:42:42Z</time>
      </trkpt>
      <trkpt lat="45.02952" lon="5.83882">
        <ele>1424</ele>
        <time>2022-06-05T09:42:43Z</time>
      </trkpt>
      <trkpt lat="45.02952" lon="5.83882">
        <ele>1424</ele>
        <time>2022-06-05T09:42:44Z</time>
      </trkpt>
      <trkpt lat="45.02952" lon="5.83882">
        <ele>1424</ele>
        <time>2022-06-05T09:42:45Z</time>
      </trkpt>
      <trkpt lat="45.02952" lon="5.83882">
        <ele>1424</ele>
        <time>2022-06-05T09:42:45Z</time>
      </trkpt>
      <trkpt lat="45.02952" lon="5.83882">
        <ele>1424</ele>
        <time>2022-06-05T09:42:45Z</time>
      </trkpt>
      <trkpt lat="45.02948" lon="5.83881">
        <ele>1424</ele>
        <time>2022-06-05T09:43:06Z</time>
      </trkpt>
      <trkpt lat="45.02948" lon="5.83881">
        <ele>1424</ele>
        <time>2022-06-05T09:43:07Z</time>
      </trkpt>
      <trkpt lat="45.02947" lon="5.83881">
        <ele>1424</ele>
        <time>2022-06-05T09:43:08Z</time>
      </trkpt>
      <trkpt lat="45.02946" lon="5.83881">
        <ele>1424</ele>
        <time>2022-06-05T09:43:09Z</time>
      </trkpt>
      <trkpt lat="45.02945" lon="5.8388">
        <ele>1424</ele>
        <time>2022-06-05T09:43:10Z</time>
      </trkpt>
      <trkpt lat="45.02944" lon="5.8388">
        <ele>1424</ele>
        <time>2022-06-05T09:43:11Z</time>
      </trkpt>
      <trkpt lat="45.02943" lon="5.8388">
        <ele>1424</ele>
        <time>2022-06-05T09:43:12Z</time>
      </trkpt>
      <trkpt lat="45.02942" lon="5.8388">
        <ele>1424</ele>
        <time>2022-06-05T09:43:13Z</time>
      </trkpt>
      <trkpt lat="45.02941" lon="5.8388">
        <ele>1424</ele>
        <time>2022-06-05T09:43:14Z</time>
      </trkpt>
      <trkpt lat="45.0294" lon="5.83879">
        <ele>1424</ele>
        <time>2022-06-05T09:43:15Z</time>
      </trkpt>
      <trkpt lat="45.0294" lon="5.83879">
        <ele>1424</ele>
        <time>2022-06-05T09:43:16Z</time>
      </trkpt>
      <trkpt lat="45.02939" lon="5.83879">
        <ele>1424</ele>
        <time>2022-06-05T09:43:17Z</time>
      </trkpt>
      <trkpt lat="45.02938" lon="5.83879">
        <ele>1424</ele>
        <time>2022-06-05T09:43:18Z</time>
      </trkpt>
      <trkpt lat="45.02937" lon="5.83879">
        <ele>1424</ele>
        <time>2022-06-05T09:43:19Z</time>
      </trkpt>
      <trkpt lat="45.02935" lon="5.83879">
        <ele>1424</ele>
        <time>2022-06-05T09:43:20Z</time>
      </trkpt>
      <trkpt lat="45.02935" lon="5.83879">
        <ele>1425</ele>
        <time>2022-06-05T09:43:21Z</time>
      </trkpt>
      <trkpt lat="45.02934" lon="5.83879">
        <ele>1425</ele>
        <time>2022-06-05T09:43:22Z</time>
      </trkpt>
      <trkpt lat="45.02933" lon="5.83878">
        <ele>1425</ele>
        <time>2022-06-05T09:43:23Z</time>
      </trkpt>
      <trkpt lat="45.02932" lon="5.83878">
        <ele>1424</ele>
        <time>2022-06-05T09:43:24Z</time>
      </trkpt>
      <trkpt lat="45.02931" lon="5.83878">
        <ele>1424</ele>
        <time>2022-06-05T09:43:25Z</time>
      </trkpt>
      <trkpt lat="45.02929" lon="5.83878">
        <ele>1424</ele>
        <time>2022-06-05T09:43:26Z</time>
      </trkpt>
      <trkpt lat="45.02928" lon="5.83878">
        <ele>1424</ele>
        <time>2022-06-05T09:43:27Z</time>
      </trkpt>
      <trkpt lat="45.02927" lon="5.83877">
        <ele>1424</ele>
        <time>2022-06-05T09:43:28Z</time>
      </trkpt>
      <trkpt lat="45.02926" lon="5.83877">
        <ele>1424</ele>
        <time>2022-06-05T09:43:29Z</time>
      </trkpt>
      <trkpt lat="45.02925" lon="5.83877">
        <ele>1424</ele>
        <time>2022-06-05T09:43:30Z</time>
      </trkpt>
      <trkpt lat="45.02924" lon="5.83877">
        <ele>1424</ele>
        <time>2022-06-05T09:43:31Z</time>
      </trkpt>
      <trkpt lat="45.02923" lon="5.83877">
        <ele>1424</ele>
        <time>2022-06-05T09:43:32Z</time>
      </trkpt>
      <trkpt lat="45.02922" lon="5.83877">
        <ele>1424</ele>
        <time>2022-06-05T09:43:33Z</time>
      </trkpt>
      <trkpt lat="45.02921" lon="5.83877">
        <ele>1424</ele>
        <time>2022-06-05T09:43:34Z</time>
      </trkpt>
      <trkpt lat="45.02921" lon="5.83877">
        <ele>1424</ele>
        <time>2022-06-05T09:43:35Z</time>
      </trkpt>
      <trkpt lat="45.0292" lon="5.83876">
        <ele>1425</ele>
        <time>2022-06-05T09:43:36Z</time>
      </trkpt>
      <trkpt lat="45.02919" lon="5.83876">
        <ele>1425</ele>
        <time>2022-06-05T09:43:37Z</time>
      </trkpt>
      <trkpt lat="45.02919" lon="5.83876">
        <ele>1425</ele>
        <time>2022-06-05T09:43:38Z</time>
      </trkpt>
      <trkpt lat="45.02919" lon="5.83876">
        <ele>1425</ele>
        <time>2022-06-05T09:43:39Z</time>
      </trkpt>
      <trkpt lat="45.02919" lon="5.83876">
        <ele>1425</ele>
        <time>2022-06-05T09:43:40Z</time>
      </trkpt>
      <trkpt lat="45.02919" lon="5.83876">
        <ele>1425</ele>
        <time>2022-06-05T09:43:40Z</time>
      </trkpt>
      <trkpt lat="45.02919" lon="5.83876">
        <ele>1425</ele>
        <time>2022-06-05T09:43:40Z</time>
      </trkpt>
      <trkpt lat="45.02913" lon="5.83877">
        <ele>1427</ele>
        <time>2022-06-05T09:44:20Z</time>
      </trkpt>
      <trkpt lat="45.02913" lon="5.83877">
        <ele>1428</ele>
        <time>2022-06-05T09:44:21Z</time>
      </trkpt>
      <trkpt lat="45.02911" lon="5.83877">
        <ele>1428</ele>
        <time>2022-06-05T09:44:22Z</time>
      </trkpt>
      <trkpt lat="45.02911" lon="5.83876">
        <ele>1428</ele>
        <time>2022-06-05T09:44:23Z</time>
      </trkpt>
      <trkpt lat="45.0291" lon="5.83876">
        <ele>1428</ele>
        <time>2022-06-05T09:44:24Z</time>
      </trkpt>
      <trkpt lat="45.02909" lon="5.83876">
        <ele>1428</ele>
        <time>2022-06-05T09:44:25Z</time>
      </trkpt>
      <trkpt lat="45.02908" lon="5.83876">
        <ele>1428</ele>
        <time>2022-06-05T09:44:26Z</time>
      </trkpt>
      <trkpt lat="45.02907" lon="5.83876">
        <ele>1428</ele>
        <time>2022-06-05T09:44:27Z</time>
      </trkpt>
      <trkpt lat="45.02906" lon="5.83876">
        <ele>1428</ele>
        <time>2022-06-05T09:44:28Z</time>
      </trkpt>
      <trkpt lat="45.02905" lon="5.83876">
        <ele>1428</ele>
        <time>2022-06-05T09:44:29Z</time>
      </trkpt>
      <trkpt lat="45.02904" lon="5.83876">
        <ele>1428</ele>
        <time>2022-06-05T09:44:30Z</time>
      </trkpt>
      <trkpt lat="45.02903" lon="5.83876">
        <ele>1428</ele>
        <time>2022-06-05T09:44:31Z</time>
      </trkpt>
      <trkpt lat="45.02902" lon="5.83876">
        <ele>1428</ele>
        <time>2022-06-05T09:44:32Z</time>
      </trkpt>
      <trkpt lat="45.02901" lon="5.83875">
        <ele>1428</ele>
        <time>2022-06-05T09:44:33Z</time>
      </trkpt>
      <trkpt lat="45.029" lon="5.83875">
        <ele>1428</ele>
        <time>2022-06-05T09:44:34Z</time>
      </trkpt>
      <trkpt lat="45.029" lon="5.83875">
        <ele>1428</ele>
        <time>2022-06-05T09:44:35Z</time>
      </trkpt>
      <trkpt lat="45.029" lon="5.83874">
        <ele>1428</ele>
        <time>2022-06-05T09:44:36Z</time>
      </trkpt>
      <trkpt lat="45.029" lon="5.83874">
        <ele>1428</ele>
        <time>2022-06-05T09:44:37Z</time>
      </trkpt>
      <trkpt lat="45.029" lon="5.83874">
        <ele>1428</ele>
        <time>2022-06-05T09:44:38Z</time>
      </trkpt>
      <trkpt lat="45.029" lon="5.83875">
        <ele>1427</ele>
        <time>2022-06-05T09:44:39Z</time>
      </trkpt>
      <trkpt lat="45.029" lon="5.83875">
        <ele>1427</ele>
        <time>2022-06-05T09:44:39Z</time>
      </trkpt>
      <trkpt lat="45.029" lon="5.83875">
        <ele>1427</ele>
        <time>2022-06-05T09:44:39Z</time>
      </trkpt>
      <trkpt lat="45.02895" lon="5.83874">
        <ele>1428</ele>
        <time>2022-06-05T09:44:51Z</time>
      </trkpt>
      <trkpt lat="45.02895" lon="5.83874">
        <ele>1427</ele>
        <time>2022-06-05T09:44:52Z</time>
      </trkpt>
      <trkpt lat="45.02894" lon="5.83874">
        <ele>1428</ele>
        <time>2022-06-05T09:44:53Z</time>
      </trkpt>
      <trkpt lat="45.02893" lon="5.83874">
        <ele>1428</ele>
        <time>2022-06-05T09:44:54Z</time>
      </trkpt>
      <trkpt lat="45.02892" lon="5.83874">
        <ele>1428</ele>
        <time>2022-06-05T09:44:55Z</time>
      </trkpt>
      <trkpt lat="45.02891" lon="5.83873">
        <ele>1427</ele>
        <time>2022-06-05T09:44:56Z</time>
      </trkpt>
      <trkpt lat="45.0289" lon="5.83873">
        <ele>1427</ele>
        <time>2022-06-05T09:44:57Z</time>
      </trkpt>
      <trkpt lat="45.02889" lon="5.83873">
        <ele>1427</ele>
        <time>2022-06-05T09:44:58Z</time>
      </trkpt>
      <trkpt lat="45.02889" lon="5.83873">
        <ele>1427</ele>
        <time>2022-06-05T09:44:59Z</time>
      </trkpt>
      <trkpt lat="45.02887" lon="5.83873">
        <ele>1427</ele>
        <time>2022-06-05T09:45:00Z</time>
      </trkpt>
      <trkpt lat="45.02887" lon="5.83873">
        <ele>1427</ele>
        <time>2022-06-05T09:45:01Z</time>
      </trkpt>
      <trkpt lat="45.02886" lon="5.83873">
        <ele>1427</ele>
        <time>2022-06-05T09:45:02Z</time>
      </trkpt>
      <trkpt lat="45.02885" lon="5.83873">
        <ele>1427</ele>
        <time>2022-06-05T09:45:03Z</time>
      </trkpt>
      <trkpt lat="45.02884" lon="5.83872">
        <ele>1426</ele>
        <time>2022-06-05T09:45:04Z</time>
      </trkpt>
      <trkpt lat="45.02883" lon="5.83872">
        <ele>1426</ele>
        <time>2022-06-05T09:45:05Z</time>
      </trkpt>
      <trkpt lat="45.02882" lon="5.83872">
        <ele>1426</ele>
        <time>2022-06-05T09:45:06Z</time>
      </trkpt>
      <trkpt lat="45.02881" lon="5.83872">
        <ele>1426</ele>
        <time>2022-06-05T09:45:07Z</time>
      </trkpt>
      <trkpt lat="45.0288" lon="5.83872">
        <ele>1426</ele>
        <time>2022-06-05T09:45:08Z</time>
      </trkpt>
      <trkpt lat="45.02879" lon="5.83872">
        <ele>1426</ele>
        <time>2022-06-05T09:45:09Z</time>
      </trkpt>
      <trkpt lat="45.02878" lon="5.83872">
        <ele>1425</ele>
        <time>2022-06-05T09:45:10Z</time>
      </trkpt>
      <trkpt lat="45.02877" lon="5.83872">
        <ele>1425</ele>
        <time>2022-06-05T09:45:11Z</time>
      </trkpt>
      <trkpt lat="45.02876" lon="5.83872">
        <ele>1425</ele>
        <time>2022-06-05T09:45:12Z</time>
      </trkpt>
      <trkpt lat="45.02876" lon="5.83873">
        <ele>1426</ele>
        <time>2022-06-05T09:45:13Z</time>
      </trkpt>
      <trkpt lat="45.02874" lon="5.83873">
        <ele>1426</ele>
        <time>2022-06-05T09:45:14Z</time>
      </trkpt>
      <trkpt lat="45.02874" lon="5.83873">
        <ele>1426</ele>
        <time>2022-06-05T09:45:15Z</time>
      </trkpt>
      <trkpt lat="45.02873" lon="5.83873">
        <ele>1426</ele>
        <time>2022-06-05T09:45:16Z</time>
      </trkpt>
      <trkpt lat="45.02872" lon="5.83873">
        <ele>1426</ele>
        <time>2022-06-05T09:45:17Z</time>
      </trkpt>
      <trkpt lat="45.02871" lon="5.83873">
        <ele>1426</ele>
        <time>2022-06-05T09:45:18Z</time>
      </trkpt>
      <trkpt lat="45.0287" lon="5.83874">
        <ele>1427</ele>
        <time>2022-06-05T09:45:19Z</time>
      </trkpt>
      <trkpt lat="45.02869" lon="5.83873">
        <ele>1426</ele>
        <time>2022-06-05T09:45:20Z</time>
      </trkpt>
      <trkpt lat="45.02868" lon="5.83873">
        <ele>1426</ele>
        <time>2022-06-05T09:45:21Z</time>
      </trkpt>
      <trkpt lat="45.02867" lon="5.83874">
        <ele>1426</ele>
        <time>2022-06-05T09:45:22Z</time>
      </trkpt>
      <trkpt lat="45.02866" lon="5.83874">
        <ele>1426</ele>
        <time>2022-06-05T09:45:23Z</time>
      </trkpt>
      <trkpt lat="45.02865" lon="5.83875">
        <ele>1426</ele>
        <time>2022-06-05T09:45:24Z</time>
      </trkpt>
      <trkpt lat="45.02865" lon="5.83875">
        <ele>1426</ele>
        <time>2022-06-05T09:45:25Z</time>
      </trkpt>
      <trkpt lat="45.02864" lon="5.83875">
        <ele>1426</ele>
        <time>2022-06-05T09:45:26Z</time>
      </trkpt>
      <trkpt lat="45.02863" lon="5.83875">
        <ele>1426</ele>
        <time>2022-06-05T09:45:27Z</time>
      </trkpt>
      <trkpt lat="45.02862" lon="5.83875">
        <ele>1426</ele>
        <time>2022-06-05T09:45:28Z</time>
      </trkpt>
      <trkpt lat="45.02861" lon="5.83876">
        <ele>1426</ele>
        <time>2022-06-05T09:45:29Z</time>
      </trkpt>
      <trkpt lat="45.0286" lon="5.83876">
        <ele>1426</ele>
        <time>2022-06-05T09:45:30Z</time>
      </trkpt>
      <trkpt lat="45.0286" lon="5.83876">
        <ele>1426</ele>
        <time>2022-06-05T09:45:31Z</time>
      </trkpt>
      <trkpt lat="45.02859" lon="5.83877">
        <ele>1427</ele>
        <time>2022-06-05T09:45:32Z</time>
      </trkpt>
      <trkpt lat="45.02858" lon="5.83877">
        <ele>1427</ele>
        <time>2022-06-05T09:45:33Z</time>
      </trkpt>
      <trkpt lat="45.02857" lon="5.83877">
        <ele>1427</ele>
        <time>2022-06-05T09:45:34Z</time>
      </trkpt>
      <trkpt lat="45.02856" lon="5.83877">
        <ele>1427</ele>
        <time>2022-06-05T09:45:35Z</time>
      </trkpt>
      <trkpt lat="45.02856" lon="5.83877">
        <ele>1427</ele>
        <time>2022-06-05T09:45:36Z</time>
      </trkpt>
      <trkpt lat="45.02855" lon="5.83878">
        <ele>1427</ele>
        <time>2022-06-05T09:45:37Z</time>
      </trkpt>
      <trkpt lat="45.02854" lon="5.83878">
        <ele>1427</ele>
        <time>2022-06-05T09:45:38Z</time>
      </trkpt>
      <trkpt lat="45.02853" lon="5.83878">
        <ele>1427</ele>
        <time>2022-06-05T09:45:39Z</time>
      </trkpt>
      <trkpt lat="45.02852" lon="5.83878">
        <ele>1427</ele>
        <time>2022-06-05T09:45:40Z</time>
      </trkpt>
      <trkpt lat="45.02851" lon="5.83878">
        <ele>1427</ele>
        <time>2022-06-05T09:45:41Z</time>
      </trkpt>
      <trkpt lat="45.0285" lon="5.83879">
        <ele>1426</ele>
        <time>2022-06-05T09:45:42Z</time>
      </trkpt>
      <trkpt lat="45.0285" lon="5.83879">
        <ele>1426</ele>
        <time>2022-06-05T09:45:43Z</time>
      </trkpt>
      <trkpt lat="45.02849" lon="5.83879">
        <ele>1427</ele>
        <time>2022-06-05T09:45:44Z</time>
      </trkpt>
      <trkpt lat="45.02848" lon="5.83879">
        <ele>1426</ele>
        <time>2022-06-05T09:45:45Z</time>
      </trkpt>
      <trkpt lat="45.02847" lon="5.83879">
        <ele>1426</ele>
        <time>2022-06-05T09:45:46Z</time>
      </trkpt>
      <trkpt lat="45.02845" lon="5.83879">
        <ele>1426</ele>
        <time>2022-06-05T09:45:47Z</time>
      </trkpt>
      <trkpt lat="45.02844" lon="5.8388">
        <ele>1426</ele>
        <time>2022-06-05T09:45:48Z</time>
      </trkpt>
      <trkpt lat="45.02844" lon="5.8388">
        <ele>1425</ele>
        <time>2022-06-05T09:45:49Z</time>
      </trkpt>
      <trkpt lat="45.02842" lon="5.8388">
        <ele>1425</ele>
        <time>2022-06-05T09:45:50Z</time>
      </trkpt>
      <trkpt lat="45.02842" lon="5.83881">
        <ele>1424</ele>
        <time>2022-06-05T09:45:51Z</time>
      </trkpt>
      <trkpt lat="45.02841" lon="5.83882">
        <ele>1424</ele>
        <time>2022-06-05T09:45:52Z</time>
      </trkpt>
      <trkpt lat="45.0284" lon="5.83882">
        <ele>1423</ele>
        <time>2022-06-05T09:45:53Z</time>
      </trkpt>
      <trkpt lat="45.0284" lon="5.83883">
        <ele>1424</ele>
        <time>2022-06-05T09:45:54Z</time>
      </trkpt>
      <trkpt lat="45.02839" lon="5.83883">
        <ele>1423</ele>
        <time>2022-06-05T09:45:55Z</time>
      </trkpt>
      <trkpt lat="45.02839" lon="5.83884">
        <ele>1423</ele>
        <time>2022-06-05T09:45:56Z</time>
      </trkpt>
      <trkpt lat="45.02839" lon="5.83884">
        <ele>1424</ele>
        <time>2022-06-05T09:45:57Z</time>
      </trkpt>
      <trkpt lat="45.02838" lon="5.83884">
        <ele>1424</ele>
        <time>2022-06-05T09:45:58Z</time>
      </trkpt>
      <trkpt lat="45.02837" lon="5.83885">
        <ele>1424</ele>
        <time>2022-06-05T09:45:59Z</time>
      </trkpt>
      <trkpt lat="45.02837" lon="5.83886">
        <ele>1423</ele>
        <time>2022-06-05T09:46:00Z</time>
      </trkpt>
      <trkpt lat="45.02836" lon="5.83887">
        <ele>1423</ele>
        <time>2022-06-05T09:46:01Z</time>
      </trkpt>
      <trkpt lat="45.02835" lon="5.83887">
        <ele>1423</ele>
        <time>2022-06-05T09:46:02Z</time>
      </trkpt>
      <trkpt lat="45.02834" lon="5.83887">
        <ele>1424</ele>
        <time>2022-06-05T09:46:03Z</time>
      </trkpt>
      <trkpt lat="45.02834" lon="5.83888">
        <ele>1424</ele>
        <time>2022-06-05T09:46:04Z</time>
      </trkpt>
      <trkpt lat="45.02833" lon="5.83889">
        <ele>1423</ele>
        <time>2022-06-05T09:46:05Z</time>
      </trkpt>
      <trkpt lat="45.02833" lon="5.8389">
        <ele>1423</ele>
        <time>2022-06-05T09:46:06Z</time>
      </trkpt>
      <trkpt lat="45.02832" lon="5.83891">
        <ele>1423</ele>
        <time>2022-06-05T09:46:07Z</time>
      </trkpt>
      <trkpt lat="45.02832" lon="5.83892">
        <ele>1423</ele>
        <time>2022-06-05T09:46:08Z</time>
      </trkpt>
      <trkpt lat="45.02831" lon="5.83892">
        <ele>1423</ele>
        <time>2022-06-05T09:46:09Z</time>
      </trkpt>
      <trkpt lat="45.0283" lon="5.83893">
        <ele>1423</ele>
        <time>2022-06-05T09:46:10Z</time>
      </trkpt>
      <trkpt lat="45.02829" lon="5.83894">
        <ele>1424</ele>
        <time>2022-06-05T09:46:11Z</time>
      </trkpt>
      <trkpt lat="45.02829" lon="5.83894">
        <ele>1424</ele>
        <time>2022-06-05T09:46:12Z</time>
      </trkpt>
      <trkpt lat="45.02828" lon="5.83895">
        <ele>1424</ele>
        <time>2022-06-05T09:46:13Z</time>
      </trkpt>
      <trkpt lat="45.02827" lon="5.83896">
        <ele>1424</ele>
        <time>2022-06-05T09:46:14Z</time>
      </trkpt>
      <trkpt lat="45.02827" lon="5.83896">
        <ele>1423</ele>
        <time>2022-06-05T09:46:15Z</time>
      </trkpt>
      <trkpt lat="45.02826" lon="5.83896">
        <ele>1423</ele>
        <time>2022-06-05T09:46:16Z</time>
      </trkpt>
      <trkpt lat="45.02825" lon="5.83897">
        <ele>1423</ele>
        <time>2022-06-05T09:46:17Z</time>
      </trkpt>
      <trkpt lat="45.02824" lon="5.83898">
        <ele>1423</ele>
        <time>2022-06-05T09:46:18Z</time>
      </trkpt>
      <trkpt lat="45.02823" lon="5.83898">
        <ele>1423</ele>
        <time>2022-06-05T09:46:19Z</time>
      </trkpt>
      <trkpt lat="45.02823" lon="5.83899">
        <ele>1423</ele>
        <time>2022-06-05T09:46:20Z</time>
      </trkpt>
      <trkpt lat="45.02822" lon="5.839">
        <ele>1423</ele>
        <time>2022-06-05T09:46:21Z</time>
      </trkpt>
      <trkpt lat="45.02821" lon="5.839">
        <ele>1423</ele>
        <time>2022-06-05T09:46:22Z</time>
      </trkpt>
      <trkpt lat="45.0282" lon="5.83902">
        <ele>1423</ele>
        <time>2022-06-05T09:46:23Z</time>
      </trkpt>
      <trkpt lat="45.02819" lon="5.83903">
        <ele>1423</ele>
        <time>2022-06-05T09:46:24Z</time>
      </trkpt>
      <trkpt lat="45.02819" lon="5.83904">
        <ele>1423</ele>
        <time>2022-06-05T09:46:25Z</time>
      </trkpt>
      <trkpt lat="45.02818" lon="5.83904">
        <ele>1422</ele>
        <time>2022-06-05T09:46:26Z</time>
      </trkpt>
      <trkpt lat="45.02817" lon="5.83905">
        <ele>1423</ele>
        <time>2022-06-05T09:46:27Z</time>
      </trkpt>
      <trkpt lat="45.02817" lon="5.83906">
        <ele>1423</ele>
        <time>2022-06-05T09:46:28Z</time>
      </trkpt>
      <trkpt lat="45.02816" lon="5.83907">
        <ele>1422</ele>
        <time>2022-06-05T09:46:29Z</time>
      </trkpt>
      <trkpt lat="45.02816" lon="5.83908">
        <ele>1422</ele>
        <time>2022-06-05T09:46:30Z</time>
      </trkpt>
      <trkpt lat="45.02815" lon="5.83908">
        <ele>1422</ele>
        <time>2022-06-05T09:46:31Z</time>
      </trkpt>
      <trkpt lat="45.02814" lon="5.83909">
        <ele>1421</ele>
        <time>2022-06-05T09:46:32Z</time>
      </trkpt>
      <trkpt lat="45.02813" lon="5.8391">
        <ele>1421</ele>
        <time>2022-06-05T09:46:33Z</time>
      </trkpt>
      <trkpt lat="45.02812" lon="5.83911">
        <ele>1421</ele>
        <time>2022-06-05T09:46:34Z</time>
      </trkpt>
      <trkpt lat="45.02811" lon="5.83912">
        <ele>1422</ele>
        <time>2022-06-05T09:46:35Z</time>
      </trkpt>
      <trkpt lat="45.02811" lon="5.83913">
        <ele>1422</ele>
        <time>2022-06-05T09:46:36Z</time>
      </trkpt>
      <trkpt lat="45.0281" lon="5.83913">
        <ele>1421</ele>
        <time>2022-06-05T09:46:37Z</time>
      </trkpt>
      <trkpt lat="45.02809" lon="5.83914">
        <ele>1421</ele>
        <time>2022-06-05T09:46:38Z</time>
      </trkpt>
      <trkpt lat="45.02808" lon="5.83914">
        <ele>1420</ele>
        <time>2022-06-05T09:46:39Z</time>
      </trkpt>
      <trkpt lat="45.02808" lon="5.83915">
        <ele>1420</ele>
        <time>2022-06-05T09:46:40Z</time>
      </trkpt>
      <trkpt lat="45.02807" lon="5.83915">
        <ele>1420</ele>
        <time>2022-06-05T09:46:41Z</time>
      </trkpt>
      <trkpt lat="45.02807" lon="5.83916">
        <ele>1421</ele>
        <time>2022-06-05T09:46:42Z</time>
      </trkpt>
      <trkpt lat="45.02807" lon="5.83916">
        <ele>1420</ele>
        <time>2022-06-05T09:46:43Z</time>
      </trkpt>
      <trkpt lat="45.02806" lon="5.83917">
        <ele>1421</ele>
        <time>2022-06-05T09:46:44Z</time>
      </trkpt>
      <trkpt lat="45.02806" lon="5.83918">
        <ele>1421</ele>
        <time>2022-06-05T09:46:45Z</time>
      </trkpt>
      <trkpt lat="45.02805" lon="5.83919">
        <ele>1420</ele>
        <time>2022-06-05T09:46:46Z</time>
      </trkpt>
      <trkpt lat="45.02804" lon="5.83919">
        <ele>1419</ele>
        <time>2022-06-05T09:46:47Z</time>
      </trkpt>
      <trkpt lat="45.02803" lon="5.8392">
        <ele>1419</ele>
        <time>2022-06-05T09:46:48Z</time>
      </trkpt>
      <trkpt lat="45.02802" lon="5.83921">
        <ele>1419</ele>
        <time>2022-06-05T09:46:49Z</time>
      </trkpt>
      <trkpt lat="45.02801" lon="5.83921">
        <ele>1419</ele>
        <time>2022-06-05T09:46:50Z</time>
      </trkpt>
      <trkpt lat="45.02801" lon="5.83922">
        <ele>1419</ele>
        <time>2022-06-05T09:46:51Z</time>
      </trkpt>
      <trkpt lat="45.028" lon="5.83923">
        <ele>1419</ele>
        <time>2022-06-05T09:46:52Z</time>
      </trkpt>
      <trkpt lat="45.028" lon="5.83923">
        <ele>1420</ele>
        <time>2022-06-05T09:46:53Z</time>
      </trkpt>
      <trkpt lat="45.02799" lon="5.83924">
        <ele>1419</ele>
        <time>2022-06-05T09:46:54Z</time>
      </trkpt>
      <trkpt lat="45.02799" lon="5.83925">
        <ele>1419</ele>
        <time>2022-06-05T09:46:55Z</time>
      </trkpt>
      <trkpt lat="45.02798" lon="5.83926">
        <ele>1419</ele>
        <time>2022-06-05T09:46:56Z</time>
      </trkpt>
      <trkpt lat="45.02797" lon="5.83927">
        <ele>1419</ele>
        <time>2022-06-05T09:46:57Z</time>
      </trkpt>
      <trkpt lat="45.02797" lon="5.83928">
        <ele>1419</ele>
        <time>2022-06-05T09:46:58Z</time>
      </trkpt>
      <trkpt lat="45.02797" lon="5.83929">
        <ele>1420</ele>
        <time>2022-06-05T09:46:59Z</time>
      </trkpt>
      <trkpt lat="45.02796" lon="5.83929">
        <ele>1420</ele>
        <time>2022-06-05T09:47:00Z</time>
      </trkpt>
      <trkpt lat="45.02795" lon="5.8393">
        <ele>1420</ele>
        <time>2022-06-05T09:47:01Z</time>
      </trkpt>
      <trkpt lat="45.02795" lon="5.83931">
        <ele>1420</ele>
        <time>2022-06-05T09:47:02Z</time>
      </trkpt>
      <trkpt lat="45.02795" lon="5.83932">
        <ele>1419</ele>
        <time>2022-06-05T09:47:03Z</time>
      </trkpt>
      <trkpt lat="45.02795" lon="5.83932">
        <ele>1419</ele>
        <time>2022-06-05T09:47:04Z</time>
      </trkpt>
      <trkpt lat="45.02795" lon="5.83931">
        <ele>1419</ele>
        <time>2022-06-05T09:47:05Z</time>
      </trkpt>
      <trkpt lat="45.02795" lon="5.83931">
        <ele>1419</ele>
        <time>2022-06-05T09:47:06Z</time>
      </trkpt>
      <trkpt lat="45.02795" lon="5.83931">
        <ele>1419</ele>
        <time>2022-06-05T09:47:06Z</time>
      </trkpt>
      <trkpt lat="45.02795" lon="5.83931">
        <ele>1419</ele>
        <time>2022-06-05T09:47:06Z</time>
      </trkpt>
      <trkpt lat="45.02791" lon="5.83934">
        <ele>1418</ele>
        <time>2022-06-05T09:47:32Z</time>
      </trkpt>
      <trkpt lat="45.0279" lon="5.83935">
        <ele>1418</ele>
        <time>2022-06-05T09:47:33Z</time>
      </trkpt>
      <trkpt lat="45.0279" lon="5.83936">
        <ele>1418</ele>
        <time>2022-06-05T09:47:34Z</time>
      </trkpt>
      <trkpt lat="45.02789" lon="5.83937">
        <ele>1418</ele>
        <time>2022-06-05T09:47:35Z</time>
      </trkpt>
      <trkpt lat="45.02789" lon="5.83938">
        <ele>1418</ele>
        <time>2022-06-05T09:47:36Z</time>
      </trkpt>
      <trkpt lat="45.02789" lon="5.83938">
        <ele>1417</ele>
        <time>2022-06-05T09:47:37Z</time>
      </trkpt>
      <trkpt lat="45.02789" lon="5.83938">
        <ele>1417</ele>
        <time>2022-06-05T09:47:38Z</time>
      </trkpt>
      <trkpt lat="45.02789" lon="5.83938">
        <ele>1417</ele>
        <time>2022-06-05T09:47:38Z</time>
      </trkpt>
      <trkpt lat="45.02789" lon="5.83938">
        <ele>1417</ele>
        <time>2022-06-05T09:47:38Z</time>
      </trkpt>
      <trkpt lat="45.02788" lon="5.83942">
        <ele>1417</ele>
        <time>2022-06-05T09:47:49Z</time>
      </trkpt>
      <trkpt lat="45.02788" lon="5.83944">
        <ele>1417</ele>
        <time>2022-06-05T09:47:50Z</time>
      </trkpt>
      <trkpt lat="45.02787" lon="5.83945">
        <ele>1417</ele>
        <time>2022-06-05T09:47:51Z</time>
      </trkpt>
      <trkpt lat="45.02787" lon="5.83946">
        <ele>1418</ele>
        <time>2022-06-05T09:47:52Z</time>
      </trkpt>
      <trkpt lat="45.02786" lon="5.83947">
        <ele>1418</ele>
        <time>2022-06-05T09:47:53Z</time>
      </trkpt>
      <trkpt lat="45.02786" lon="5.83948">
        <ele>1418</ele>
        <time>2022-06-05T09:47:54Z</time>
      </trkpt>
      <trkpt lat="45.02786" lon="5.83949">
        <ele>1418</ele>
        <time>2022-06-05T09:47:55Z</time>
      </trkpt>
      <trkpt lat="45.02785" lon="5.8395">
        <ele>1419</ele>
        <time>2022-06-05T09:47:56Z</time>
      </trkpt>
      <trkpt lat="45.02785" lon="5.83951">
        <ele>1419</ele>
        <time>2022-06-05T09:47:57Z</time>
      </trkpt>
      <trkpt lat="45.02784" lon="5.83951">
        <ele>1419</ele>
        <time>2022-06-05T09:47:58Z</time>
      </trkpt>
      <trkpt lat="45.02784" lon="5.83952">
        <ele>1419</ele>
        <time>2022-06-05T09:47:59Z</time>
      </trkpt>
      <trkpt lat="45.02783" lon="5.83953">
        <ele>1419</ele>
        <time>2022-06-05T09:48:00Z</time>
      </trkpt>
      <trkpt lat="45.02782" lon="5.83954">
        <ele>1419</ele>
        <time>2022-06-05T09:48:01Z</time>
      </trkpt>
      <trkpt lat="45.02782" lon="5.83955">
        <ele>1419</ele>
        <time>2022-06-05T09:48:02Z</time>
      </trkpt>
      <trkpt lat="45.02782" lon="5.83956">
        <ele>1419</ele>
        <time>2022-06-05T09:48:03Z</time>
      </trkpt>
      <trkpt lat="45.02781" lon="5.83957">
        <ele>1419</ele>
        <time>2022-06-05T09:48:04Z</time>
      </trkpt>
      <trkpt lat="45.02781" lon="5.83957">
        <ele>1419</ele>
        <time>2022-06-05T09:48:05Z</time>
      </trkpt>
      <trkpt lat="45.02781" lon="5.83959">
        <ele>1419</ele>
        <time>2022-06-05T09:48:06Z</time>
      </trkpt>
      <trkpt lat="45.0278" lon="5.8396">
        <ele>1419</ele>
        <time>2022-06-05T09:48:07Z</time>
      </trkpt>
      <trkpt lat="45.0278" lon="5.83961">
        <ele>1420</ele>
        <time>2022-06-05T09:48:08Z</time>
      </trkpt>
      <trkpt lat="45.02779" lon="5.83962">
        <ele>1420</ele>
        <time>2022-06-05T09:48:09Z</time>
      </trkpt>
      <trkpt lat="45.02778" lon="5.83963">
        <ele>1420</ele>
        <time>2022-06-05T09:48:10Z</time>
      </trkpt>
      <trkpt lat="45.02778" lon="5.83964">
        <ele>1420</ele>
        <time>2022-06-05T09:48:11Z</time>
      </trkpt>
      <trkpt lat="45.02777" lon="5.83965">
        <ele>1420</ele>
        <time>2022-06-05T09:48:12Z</time>
      </trkpt>
      <trkpt lat="45.02777" lon="5.83966">
        <ele>1420</ele>
        <time>2022-06-05T09:48:13Z</time>
      </trkpt>
      <trkpt lat="45.02777" lon="5.83967">
        <ele>1420</ele>
        <time>2022-06-05T09:48:14Z</time>
      </trkpt>
      <trkpt lat="45.02776" lon="5.83968">
        <ele>1421</ele>
        <time>2022-06-05T09:48:15Z</time>
      </trkpt>
      <trkpt lat="45.02776" lon="5.83969">
        <ele>1421</ele>
        <time>2022-06-05T09:48:16Z</time>
      </trkpt>
      <trkpt lat="45.02776" lon="5.8397">
        <ele>1421</ele>
        <time>2022-06-05T09:48:17Z</time>
      </trkpt>
      <trkpt lat="45.02776" lon="5.83971">
        <ele>1421</ele>
        <time>2022-06-05T09:48:18Z</time>
      </trkpt>
      <trkpt lat="45.02775" lon="5.83972">
        <ele>1421</ele>
        <time>2022-06-05T09:48:19Z</time>
      </trkpt>
      <trkpt lat="45.02774" lon="5.83973">
        <ele>1420</ele>
        <time>2022-06-05T09:48:20Z</time>
      </trkpt>
      <trkpt lat="45.02774" lon="5.83974">
        <ele>1420</ele>
        <time>2022-06-05T09:48:21Z</time>
      </trkpt>
      <trkpt lat="45.02773" lon="5.83974">
        <ele>1419</ele>
        <time>2022-06-05T09:48:22Z</time>
      </trkpt>
      <trkpt lat="45.02773" lon="5.83975">
        <ele>1419</ele>
        <time>2022-06-05T09:48:23Z</time>
      </trkpt>
      <trkpt lat="45.02772" lon="5.83976">
        <ele>1419</ele>
        <time>2022-06-05T09:48:24Z</time>
      </trkpt>
      <trkpt lat="45.02771" lon="5.83977">
        <ele>1418</ele>
        <time>2022-06-05T09:48:25Z</time>
      </trkpt>
      <trkpt lat="45.02771" lon="5.83978">
        <ele>1418</ele>
        <time>2022-06-05T09:48:26Z</time>
      </trkpt>
      <trkpt lat="45.02771" lon="5.83979">
        <ele>1418</ele>
        <time>2022-06-05T09:48:27Z</time>
      </trkpt>
      <trkpt lat="45.0277" lon="5.83979">
        <ele>1418</ele>
        <time>2022-06-05T09:48:28Z</time>
      </trkpt>
      <trkpt lat="45.02769" lon="5.8398">
        <ele>1418</ele>
        <time>2022-06-05T09:48:29Z</time>
      </trkpt>
      <trkpt lat="45.02768" lon="5.83981">
        <ele>1418</ele>
        <time>2022-06-05T09:48:30Z</time>
      </trkpt>
      <trkpt lat="45.02768" lon="5.83981">
        <ele>1418</ele>
        <time>2022-06-05T09:48:31Z</time>
      </trkpt>
      <trkpt lat="45.02767" lon="5.83982">
        <ele>1418</ele>
        <time>2022-06-05T09:48:32Z</time>
      </trkpt>
      <trkpt lat="45.02766" lon="5.83982">
        <ele>1418</ele>
        <time>2022-06-05T09:48:33Z</time>
      </trkpt>
      <trkpt lat="45.02765" lon="5.83983">
        <ele>1418</ele>
        <time>2022-06-05T09:48:34Z</time>
      </trkpt>
      <trkpt lat="45.02765" lon="5.83983">
        <ele>1418</ele>
        <time>2022-06-05T09:48:35Z</time>
      </trkpt>
      <trkpt lat="45.02765" lon="5.83983">
        <ele>1418</ele>
        <time>2022-06-05T09:48:36Z</time>
      </trkpt>
      <trkpt lat="45.02765" lon="5.83983">
        <ele>1418</ele>
        <time>2022-06-05T09:48:37Z</time>
      </trkpt>
      <trkpt lat="45.02765" lon="5.83985">
        <ele>1418</ele>
        <time>2022-06-05T09:48:38Z</time>
      </trkpt>
      <trkpt lat="45.02765" lon="5.83986">
        <ele>1418</ele>
        <time>2022-06-05T09:48:39Z</time>
      </trkpt>
      <trkpt lat="45.02765" lon="5.83986">
        <ele>1418</ele>
        <time>2022-06-05T09:48:40Z</time>
      </trkpt>
      <trkpt lat="45.02765" lon="5.83986">
        <ele>1418</ele>
        <time>2022-06-05T09:48:41Z</time>
      </trkpt>
      <trkpt lat="45.02765" lon="5.83986">
        <ele>1418</ele>
        <time>2022-06-05T09:48:42Z</time>
      </trkpt>
      <trkpt lat="45.02765" lon="5.83986">
        <ele>1418</ele>
        <time>2022-06-05T09:48:43Z</time>
      </trkpt>
      <trkpt lat="45.02765" lon="5.83986">
        <ele>1418</ele>
        <time>2022-06-05T09:48:43Z</time>
      </trkpt>
      <trkpt lat="45.02765" lon="5.83986">
        <ele>1418</ele>
        <time>2022-06-05T09:48:43Z</time>
      </trkpt>
      <trkpt lat="45.0276" lon="5.83994">
        <ele>1419</ele>
        <time>2022-06-05T09:49:05Z</time>
      </trkpt>
      <trkpt lat="45.0276" lon="5.83995">
        <ele>1418</ele>
        <time>2022-06-05T09:49:06Z</time>
      </trkpt>
      <trkpt lat="45.0276" lon="5.83997">
        <ele>1418</ele>
        <time>2022-06-05T09:49:07Z</time>
      </trkpt>
      <trkpt lat="45.02759" lon="5.83998">
        <ele>1417</ele>
        <time>2022-06-05T09:49:08Z</time>
      </trkpt>
      <trkpt lat="45.02758" lon="5.83998">
        <ele>1417</ele>
        <time>2022-06-05T09:49:09Z</time>
      </trkpt>
      <trkpt lat="45.02758" lon="5.84">
        <ele>1417</ele>
        <time>2022-06-05T09:49:10Z</time>
      </trkpt>
      <trkpt lat="45.02758" lon="5.84001">
        <ele>1417</ele>
        <time>2022-06-05T09:49:11Z</time>
      </trkpt>
      <trkpt lat="45.02758" lon="5.84002">
        <ele>1418</ele>
        <time>2022-06-05T09:49:12Z</time>
      </trkpt>
      <trkpt lat="45.02757" lon="5.84004">
        <ele>1418</ele>
        <time>2022-06-05T09:49:13Z</time>
      </trkpt>
      <trkpt lat="45.02757" lon="5.84004">
        <ele>1418</ele>
        <time>2022-06-05T09:49:14Z</time>
      </trkpt>
      <trkpt lat="45.02756" lon="5.84005">
        <ele>1417</ele>
        <time>2022-06-05T09:49:15Z</time>
      </trkpt>
      <trkpt lat="45.02756" lon="5.84005">
        <ele>1417</ele>
        <time>2022-06-05T09:49:15Z</time>
      </trkpt>
      <trkpt lat="45.02755" lon="5.84007">
        <ele>1418</ele>
        <time>2022-06-05T09:49:17Z</time>
      </trkpt>
      <trkpt lat="45.02755" lon="5.84008">
        <ele>1418</ele>
        <time>2022-06-05T09:49:18Z</time>
      </trkpt>
      <trkpt lat="45.02755" lon="5.84009">
        <ele>1418</ele>
        <time>2022-06-05T09:49:19Z</time>
      </trkpt>
      <trkpt lat="45.02754" lon="5.84011">
        <ele>1418</ele>
        <time>2022-06-05T09:49:20Z</time>
      </trkpt>
      <trkpt lat="45.02754" lon="5.84012">
        <ele>1418</ele>
        <time>2022-06-05T09:49:21Z</time>
      </trkpt>
      <trkpt lat="45.02753" lon="5.84013">
        <ele>1418</ele>
        <time>2022-06-05T09:49:22Z</time>
      </trkpt>
      <trkpt lat="45.02753" lon="5.84013">
        <ele>1418</ele>
        <time>2022-06-05T09:49:23Z</time>
      </trkpt>
      <trkpt lat="45.02753" lon="5.84014">
        <ele>1418</ele>
        <time>2022-06-05T09:49:24Z</time>
      </trkpt>
      <trkpt lat="45.02752" lon="5.84015">
        <ele>1419</ele>
        <time>2022-06-05T09:49:25Z</time>
      </trkpt>
      <trkpt lat="45.02752" lon="5.84015">
        <ele>1419</ele>
        <time>2022-06-05T09:49:26Z</time>
      </trkpt>
      <trkpt lat="45.02752" lon="5.84015">
        <ele>1419</ele>
        <time>2022-06-05T09:49:27Z</time>
      </trkpt>
      <trkpt lat="45.02752" lon="5.84016">
        <ele>1419</ele>
        <time>2022-06-05T09:49:28Z</time>
      </trkpt>
      <trkpt lat="45.02751" lon="5.84016">
        <ele>1419</ele>
        <time>2022-06-05T09:49:29Z</time>
      </trkpt>
      <trkpt lat="45.0275" lon="5.84017">
        <ele>1419</ele>
        <time>2022-06-05T09:49:30Z</time>
      </trkpt>
      <trkpt lat="45.0275" lon="5.84018">
        <ele>1419</ele>
        <time>2022-06-05T09:49:31Z</time>
      </trkpt>
      <trkpt lat="45.02749" lon="5.84019">
        <ele>1419</ele>
        <time>2022-06-05T09:49:32Z</time>
      </trkpt>
      <trkpt lat="45.02749" lon="5.84019">
        <ele>1419</ele>
        <time>2022-06-05T09:49:32Z</time>
      </trkpt>
      <trkpt lat="45.02749" lon="5.8402">
        <ele>1419</ele>
        <time>2022-06-05T09:49:34Z</time>
      </trkpt>
      <trkpt lat="45.02748" lon="5.84021">
        <ele>1420</ele>
        <time>2022-06-05T09:49:35Z</time>
      </trkpt>
      <trkpt lat="45.02748" lon="5.84021">
        <ele>1420</ele>
        <time>2022-06-05T09:49:36Z</time>
      </trkpt>
      <trkpt lat="45.02748" lon="5.84021">
        <ele>1420</ele>
        <time>2022-06-05T09:49:37Z</time>
      </trkpt>
      <trkpt lat="45.02748" lon="5.84021">
        <ele>1420</ele>
        <time>2022-06-05T09:49:38Z</time>
      </trkpt>
      <trkpt lat="45.02748" lon="5.84021">
        <ele>1420</ele>
        <time>2022-06-05T09:49:39Z</time>
      </trkpt>
      <trkpt lat="45.02748" lon="5.84021">
        <ele>1420</ele>
        <time>2022-06-05T09:49:39Z</time>
      </trkpt>
      <trkpt lat="45.02748" lon="5.84021">
        <ele>1420</ele>
        <time>2022-06-05T09:49:39Z</time>
      </trkpt>
      <trkpt lat="45.02744" lon="5.84027">
        <ele>1420</ele>
        <time>2022-06-05T09:49:56Z</time>
      </trkpt>
      <trkpt lat="45.02744" lon="5.84028">
        <ele>1420</ele>
        <time>2022-06-05T09:49:57Z</time>
      </trkpt>
      <trkpt lat="45.02743" lon="5.84028">
        <ele>1420</ele>
        <time>2022-06-05T09:49:58Z</time>
      </trkpt>
      <trkpt lat="45.02743" lon="5.84029">
        <ele>1420</ele>
        <time>2022-06-05T09:49:59Z</time>
      </trkpt>
      <trkpt lat="45.02742" lon="5.84029">
        <ele>1419</ele>
        <time>2022-06-05T09:50:00Z</time>
      </trkpt>
      <trkpt lat="45.02743" lon="5.84029">
        <ele>1419</ele>
        <time>2022-06-05T09:50:01Z</time>
      </trkpt>
      <trkpt lat="45.02743" lon="5.84029">
        <ele>1419</ele>
        <time>2022-06-05T09:50:02Z</time>
      </trkpt>
      <trkpt lat="45.02743" lon="5.84029">
        <ele>1419</ele>
        <time>2022-06-05T09:50:02Z</time>
      </trkpt>
      <trkpt lat="45.02743" lon="5.84029">
        <ele>1419</ele>
        <time>2022-06-05T09:50:02Z</time>
      </trkpt>
      <trkpt lat="45.0274" lon="5.84035">
        <ele>1420</ele>
        <time>2022-06-05T09:50:12Z</time>
      </trkpt>
      <trkpt lat="45.0274" lon="5.84035">
        <ele>1420</ele>
        <time>2022-06-05T09:50:13Z</time>
      </trkpt>
      <trkpt lat="45.0274" lon="5.84036">
        <ele>1420</ele>
        <time>2022-06-05T09:50:14Z</time>
      </trkpt>
      <trkpt lat="45.0274" lon="5.84036">
        <ele>1420</ele>
        <time>2022-06-05T09:50:15Z</time>
      </trkpt>
      <trkpt lat="45.0274" lon="5.84036">
        <ele>1420</ele>
        <time>2022-06-05T09:50:16Z</time>
      </trkpt>
      <trkpt lat="45.0274" lon="5.84036">
        <ele>1421</ele>
        <time>2022-06-05T09:50:17Z</time>
      </trkpt>
      <trkpt lat="45.0274" lon="5.84036">
        <ele>1421</ele>
        <time>2022-06-05T09:50:17Z</time>
      </trkpt>
      <trkpt lat="45.0274" lon="5.84036">
        <ele>1421</ele>
        <time>2022-06-05T09:50:17Z</time>
      </trkpt>
      <trkpt lat="45.02734" lon="5.84043">
        <ele>1420</ele>
        <time>2022-06-05T09:50:38Z</time>
      </trkpt>
      <trkpt lat="45.02733" lon="5.84045">
        <ele>1420</ele>
        <time>2022-06-05T09:50:39Z</time>
      </trkpt>
      <trkpt lat="45.02733" lon="5.84045">
        <ele>1420</ele>
        <time>2022-06-05T09:50:40Z</time>
      </trkpt>
      <trkpt lat="45.02733" lon="5.84045">
        <ele>1420</ele>
        <time>2022-06-05T09:50:40Z</time>
      </trkpt>
      <trkpt lat="45.02733" lon="5.84047">
        <ele>1420</ele>
        <time>2022-06-05T09:50:42Z</time>
      </trkpt>
      <trkpt lat="45.02731" lon="5.84048">
        <ele>1420</ele>
        <time>2022-06-05T09:50:43Z</time>
      </trkpt>
      <trkpt lat="45.02731" lon="5.84049">
        <ele>1420</ele>
        <time>2022-06-05T09:50:44Z</time>
      </trkpt>
      <trkpt lat="45.0273" lon="5.84051">
        <ele>1420</ele>
        <time>2022-06-05T09:50:45Z</time>
      </trkpt>
      <trkpt lat="45.0273" lon="5.84052">
        <ele>1420</ele>
        <time>2022-06-05T09:50:46Z</time>
      </trkpt>
      <trkpt lat="45.02729" lon="5.84053">
        <ele>1420</ele>
        <time>2022-06-05T09:50:47Z</time>
      </trkpt>
      <trkpt lat="45.02728" lon="5.84054">
        <ele>1421</ele>
        <time>2022-06-05T09:50:48Z</time>
      </trkpt>
      <trkpt lat="45.02728" lon="5.84055">
        <ele>1420</ele>
        <time>2022-06-05T09:50:49Z</time>
      </trkpt>
      <trkpt lat="45.02728" lon="5.84056">
        <ele>1420</ele>
        <time>2022-06-05T09:50:50Z</time>
      </trkpt>
      <trkpt lat="45.02728" lon="5.84056">
        <ele>1421</ele>
        <time>2022-06-05T09:50:51Z</time>
      </trkpt>
      <trkpt lat="45.02728" lon="5.84056">
        <ele>1421</ele>
        <time>2022-06-05T09:50:51Z</time>
      </trkpt>
      <trkpt lat="45.02726" lon="5.84058">
        <ele>1421</ele>
        <time>2022-06-05T09:50:53Z</time>
      </trkpt>
      <trkpt lat="45.02726" lon="5.84059">
        <ele>1421</ele>
        <time>2022-06-05T09:50:54Z</time>
      </trkpt>
      <trkpt lat="45.02726" lon="5.8406">
        <ele>1421</ele>
        <time>2022-06-05T09:50:55Z</time>
      </trkpt>
      <trkpt lat="45.02725" lon="5.84061">
        <ele>1421</ele>
        <time>2022-06-05T09:50:56Z</time>
      </trkpt>
      <trkpt lat="45.02725" lon="5.84062">
        <ele>1421</ele>
        <time>2022-06-05T09:50:57Z</time>
      </trkpt>
      <trkpt lat="45.02725" lon="5.84062">
        <ele>1421</ele>
        <time>2022-06-05T09:50:57Z</time>
      </trkpt>
      <trkpt lat="45.02725" lon="5.84062">
        <ele>1422</ele>
        <time>2022-06-05T09:50:59Z</time>
      </trkpt>
      <trkpt lat="45.02725" lon="5.84062">
        <ele>1421</ele>
        <time>2022-06-05T09:51:00Z</time>
      </trkpt>
      <trkpt lat="45.02725" lon="5.84062">
        <ele>1421</ele>
        <time>2022-06-05T09:51:00Z</time>
      </trkpt>
      <trkpt lat="45.02725" lon="5.84062">
        <ele>1421</ele>
        <time>2022-06-05T09:51:00Z</time>
      </trkpt>
      <trkpt lat="45.02722" lon="5.84066">
        <ele>1420</ele>
        <time>2022-06-05T09:51:09Z</time>
      </trkpt>
      <trkpt lat="45.02722" lon="5.84066">
        <ele>1420</ele>
        <time>2022-06-05T09:51:09Z</time>
      </trkpt>
      <trkpt lat="45.02721" lon="5.84067">
        <ele>1421</ele>
        <time>2022-06-05T09:51:11Z</time>
      </trkpt>
      <trkpt lat="45.0272" lon="5.84069">
        <ele>1421</ele>
        <time>2022-06-05T09:51:12Z</time>
      </trkpt>
      <trkpt lat="45.0272" lon="5.8407">
        <ele>1421</ele>
        <time>2022-06-05T09:51:13Z</time>
      </trkpt>
      <trkpt lat="45.0272" lon="5.8407">
        <ele>1420</ele>
        <time>2022-06-05T09:51:14Z</time>
      </trkpt>
      <trkpt lat="45.0272" lon="5.8407">
        <ele>1420</ele>
        <time>2022-06-05T09:51:15Z</time>
      </trkpt>
      <trkpt lat="45.0272" lon="5.8407">
        <ele>1420</ele>
        <time>2022-06-05T09:51:16Z</time>
      </trkpt>
      <trkpt lat="45.02721" lon="5.8407">
        <ele>1420</ele>
        <time>2022-06-05T09:51:17Z</time>
      </trkpt>
      <trkpt lat="45.02721" lon="5.84071">
        <ele>1420</ele>
        <time>2022-06-05T09:51:18Z</time>
      </trkpt>
      <trkpt lat="45.02721" lon="5.84071">
        <ele>1420</ele>
        <time>2022-06-05T09:51:19Z</time>
      </trkpt>
      <trkpt lat="45.02721" lon="5.84071">
        <ele>1420</ele>
        <time>2022-06-05T09:51:19Z</time>
      </trkpt>
      <trkpt lat="45.02721" lon="5.84071">
        <ele>1420</ele>
        <time>2022-06-05T09:51:19Z</time>
      </trkpt>
      <trkpt lat="45.02718" lon="5.84081">
        <ele>1421</ele>
        <time>2022-06-05T09:51:38Z</time>
      </trkpt>
      <trkpt lat="45.02718" lon="5.84081">
        <ele>1421</ele>
        <time>2022-06-05T09:51:38Z</time>
      </trkpt>
      <trkpt lat="45.02717" lon="5.84083">
        <ele>1421</ele>
        <time>2022-06-05T09:51:40Z</time>
      </trkpt>
      <trkpt lat="45.02716" lon="5.84083">
        <ele>1420</ele>
        <time>2022-06-05T09:51:41Z</time>
      </trkpt>
      <trkpt lat="45.02716" lon="5.84084">
        <ele>1420</ele>
        <time>2022-06-05T09:51:42Z</time>
      </trkpt>
      <trkpt lat="45.02715" lon="5.84085">
        <ele>1420</ele>
        <time>2022-06-05T09:51:43Z</time>
      </trkpt>
      <trkpt lat="45.02715" lon="5.84086">
        <ele>1420</ele>
        <time>2022-06-05T09:51:44Z</time>
      </trkpt>
      <trkpt lat="45.02714" lon="5.84087">
        <ele>1420</ele>
        <time>2022-06-05T09:51:45Z</time>
      </trkpt>
      <trkpt lat="45.02714" lon="5.84089">
        <ele>1421</ele>
        <time>2022-06-05T09:51:46Z</time>
      </trkpt>
      <trkpt lat="45.02713" lon="5.8409">
        <ele>1421</ele>
        <time>2022-06-05T09:51:47Z</time>
      </trkpt>
      <trkpt lat="45.02713" lon="5.84091">
        <ele>1421</ele>
        <time>2022-06-05T09:51:48Z</time>
      </trkpt>
      <trkpt lat="45.02713" lon="5.84092">
        <ele>1422</ele>
        <time>2022-06-05T09:51:49Z</time>
      </trkpt>
      <trkpt lat="45.02713" lon="5.84092">
        <ele>1422</ele>
        <time>2022-06-05T09:51:49Z</time>
      </trkpt>
      <trkpt lat="45.02712" lon="5.84094">
        <ele>1422</ele>
        <time>2022-06-05T09:51:51Z</time>
      </trkpt>
      <trkpt lat="45.02712" lon="5.84095">
        <ele>1422</ele>
        <time>2022-06-05T09:51:52Z</time>
      </trkpt>
      <trkpt lat="45.02711" lon="5.84096">
        <ele>1422</ele>
        <time>2022-06-05T09:51:53Z</time>
      </trkpt>
      <trkpt lat="45.0271" lon="5.84096">
        <ele>1422</ele>
        <time>2022-06-05T09:51:54Z</time>
      </trkpt>
      <trkpt lat="45.0271" lon="5.84097">
        <ele>1421</ele>
        <time>2022-06-05T09:51:55Z</time>
      </trkpt>
      <trkpt lat="45.0271" lon="5.84097">
        <ele>1421</ele>
        <time>2022-06-05T09:51:55Z</time>
      </trkpt>
      <trkpt lat="45.02709" lon="5.84099">
        <ele>1421</ele>
        <time>2022-06-05T09:51:57Z</time>
      </trkpt>
      <trkpt lat="45.02708" lon="5.841">
        <ele>1422</ele>
        <time>2022-06-05T09:51:58Z</time>
      </trkpt>
      <trkpt lat="45.02707" lon="5.84101">
        <ele>1422</ele>
        <time>2022-06-05T09:51:59Z</time>
      </trkpt>
      <trkpt lat="45.02707" lon="5.84101">
        <ele>1422</ele>
        <time>2022-06-05T09:52:00Z</time>
      </trkpt>
      <trkpt lat="45.02706" lon="5.84102">
        <ele>1422</ele>
        <time>2022-06-05T09:52:01Z</time>
      </trkpt>
      <trkpt lat="45.02706" lon="5.84102">
        <ele>1422</ele>
        <time>2022-06-05T09:52:01Z</time>
      </trkpt>
      <trkpt lat="45.02705" lon="5.84104">
        <ele>1423</ele>
        <time>2022-06-05T09:52:03Z</time>
      </trkpt>
      <trkpt lat="45.02705" lon="5.84104">
        <ele>1423</ele>
        <time>2022-06-05T09:52:03Z</time>
      </trkpt>
      <trkpt lat="45.02704" lon="5.84106">
        <ele>1422</ele>
        <time>2022-06-05T09:52:05Z</time>
      </trkpt>
      <trkpt lat="45.02704" lon="5.84107">
        <ele>1422</ele>
        <time>2022-06-05T09:52:06Z</time>
      </trkpt>
      <trkpt lat="45.02703" lon="5.84108">
        <ele>1421</ele>
        <time>2022-06-05T09:52:07Z</time>
      </trkpt>
      <trkpt lat="45.02703" lon="5.84108">
        <ele>1421</ele>
        <time>2022-06-05T09:52:07Z</time>
      </trkpt>
      <trkpt lat="45.02702" lon="5.8411">
        <ele>1421</ele>
        <time>2022-06-05T09:52:09Z</time>
      </trkpt>
      <trkpt lat="45.02702" lon="5.84111">
        <ele>1421</ele>
        <time>2022-06-05T09:52:10Z</time>
      </trkpt>
      <trkpt lat="45.02701" lon="5.84112">
        <ele>1421</ele>
        <time>2022-06-05T09:52:11Z</time>
      </trkpt>
      <trkpt lat="45.02701" lon="5.84114">
        <ele>1421</ele>
        <time>2022-06-05T09:52:12Z</time>
      </trkpt>
      <trkpt lat="45.027" lon="5.84114">
        <ele>1421</ele>
        <time>2022-06-05T09:52:13Z</time>
      </trkpt>
      <trkpt lat="45.02699" lon="5.84115">
        <ele>1420</ele>
        <time>2022-06-05T09:52:14Z</time>
      </trkpt>
      <trkpt lat="45.02699" lon="5.84117">
        <ele>1420</ele>
        <time>2022-06-05T09:52:15Z</time>
      </trkpt>
      <trkpt lat="45.02698" lon="5.84118">
        <ele>1420</ele>
        <time>2022-06-05T09:52:16Z</time>
      </trkpt>
      <trkpt lat="45.02698" lon="5.84119">
        <ele>1419</ele>
        <time>2022-06-05T09:52:17Z</time>
      </trkpt>
      <trkpt lat="45.02697" lon="5.8412">
        <ele>1419</ele>
        <time>2022-06-05T09:52:18Z</time>
      </trkpt>
      <trkpt lat="45.02697" lon="5.84121">
        <ele>1419</ele>
        <time>2022-06-05T09:52:19Z</time>
      </trkpt>
      <trkpt lat="45.02696" lon="5.84122">
        <ele>1419</ele>
        <time>2022-06-05T09:52:20Z</time>
      </trkpt>
      <trkpt lat="45.02695" lon="5.84123">
        <ele>1418</ele>
        <time>2022-06-05T09:52:21Z</time>
      </trkpt>
      <trkpt lat="45.02694" lon="5.84124">
        <ele>1419</ele>
        <time>2022-06-05T09:52:22Z</time>
      </trkpt>
      <trkpt lat="45.02694" lon="5.84126">
        <ele>1419</ele>
        <time>2022-06-05T09:52:23Z</time>
      </trkpt>
      <trkpt lat="45.02693" lon="5.84127">
        <ele>1419</ele>
        <time>2022-06-05T09:52:24Z</time>
      </trkpt>
      <trkpt lat="45.02693" lon="5.84128">
        <ele>1418</ele>
        <time>2022-06-05T09:52:25Z</time>
      </trkpt>
      <trkpt lat="45.02692" lon="5.84129">
        <ele>1418</ele>
        <time>2022-06-05T09:52:26Z</time>
      </trkpt>
      <trkpt lat="45.02692" lon="5.8413">
        <ele>1418</ele>
        <time>2022-06-05T09:52:27Z</time>
      </trkpt>
      <trkpt lat="45.02692" lon="5.84131">
        <ele>1418</ele>
        <time>2022-06-05T09:52:28Z</time>
      </trkpt>
      <trkpt lat="45.02692" lon="5.84132">
        <ele>1418</ele>
        <time>2022-06-05T09:52:29Z</time>
      </trkpt>
      <trkpt lat="45.02691" lon="5.84134">
        <ele>1419</ele>
        <time>2022-06-05T09:52:30Z</time>
      </trkpt>
      <trkpt lat="45.02691" lon="5.84134">
        <ele>1419</ele>
        <time>2022-06-05T09:52:31Z</time>
      </trkpt>
      <trkpt lat="45.02691" lon="5.84136">
        <ele>1419</ele>
        <time>2022-06-05T09:52:32Z</time>
      </trkpt>
      <trkpt lat="45.0269" lon="5.84137">
        <ele>1418</ele>
        <time>2022-06-05T09:52:33Z</time>
      </trkpt>
      <trkpt lat="45.02689" lon="5.84138">
        <ele>1418</ele>
        <time>2022-06-05T09:52:34Z</time>
      </trkpt>
      <trkpt lat="45.02689" lon="5.84139">
        <ele>1418</ele>
        <time>2022-06-05T09:52:35Z</time>
      </trkpt>
      <trkpt lat="45.02688" lon="5.84139">
        <ele>1418</ele>
        <time>2022-06-05T09:52:36Z</time>
      </trkpt>
      <trkpt lat="45.02688" lon="5.84141">
        <ele>1417</ele>
        <time>2022-06-05T09:52:37Z</time>
      </trkpt>
      <trkpt lat="45.02688" lon="5.84142">
        <ele>1417</ele>
        <time>2022-06-05T09:52:38Z</time>
      </trkpt>
      <trkpt lat="45.02688" lon="5.84144">
        <ele>1417</ele>
        <time>2022-06-05T09:52:39Z</time>
      </trkpt>
      <trkpt lat="45.02687" lon="5.84145">
        <ele>1417</ele>
        <time>2022-06-05T09:52:40Z</time>
      </trkpt>
      <trkpt lat="45.02686" lon="5.84147">
        <ele>1417</ele>
        <time>2022-06-05T09:52:41Z</time>
      </trkpt>
      <trkpt lat="45.02686" lon="5.84148">
        <ele>1417</ele>
        <time>2022-06-05T09:52:42Z</time>
      </trkpt>
      <trkpt lat="45.02686" lon="5.84149">
        <ele>1417</ele>
        <time>2022-06-05T09:52:43Z</time>
      </trkpt>
      <trkpt lat="45.02686" lon="5.84151">
        <ele>1417</ele>
        <time>2022-06-05T09:52:44Z</time>
      </trkpt>
      <trkpt lat="45.02686" lon="5.84152">
        <ele>1418</ele>
        <time>2022-06-05T09:52:45Z</time>
      </trkpt>
      <trkpt lat="45.02686" lon="5.84153">
        <ele>1418</ele>
        <time>2022-06-05T09:52:46Z</time>
      </trkpt>
      <trkpt lat="45.02686" lon="5.84155">
        <ele>1418</ele>
        <time>2022-06-05T09:52:47Z</time>
      </trkpt>
      <trkpt lat="45.02686" lon="5.84156">
        <ele>1417</ele>
        <time>2022-06-05T09:52:48Z</time>
      </trkpt>
      <trkpt lat="45.02686" lon="5.84158">
        <ele>1418</ele>
        <time>2022-06-05T09:52:49Z</time>
      </trkpt>
      <trkpt lat="45.02685" lon="5.84158">
        <ele>1418</ele>
        <time>2022-06-05T09:52:50Z</time>
      </trkpt>
      <trkpt lat="45.02685" lon="5.8416">
        <ele>1418</ele>
        <time>2022-06-05T09:52:51Z</time>
      </trkpt>
      <trkpt lat="45.02684" lon="5.84161">
        <ele>1418</ele>
        <time>2022-06-05T09:52:52Z</time>
      </trkpt>
      <trkpt lat="45.02684" lon="5.84162">
        <ele>1418</ele>
        <time>2022-06-05T09:52:53Z</time>
      </trkpt>
      <trkpt lat="45.02683" lon="5.84162">
        <ele>1418</ele>
        <time>2022-06-05T09:52:54Z</time>
      </trkpt>
      <trkpt lat="45.02683" lon="5.84163">
        <ele>1418</ele>
        <time>2022-06-05T09:52:55Z</time>
      </trkpt>
      <trkpt lat="45.02682" lon="5.84164">
        <ele>1417</ele>
        <time>2022-06-05T09:52:56Z</time>
      </trkpt>
      <trkpt lat="45.02681" lon="5.84165">
        <ele>1416</ele>
        <time>2022-06-05T09:52:57Z</time>
      </trkpt>
      <trkpt lat="45.02682" lon="5.84166">
        <ele>1416</ele>
        <time>2022-06-05T09:52:58Z</time>
      </trkpt>
      <trkpt lat="45.02682" lon="5.84166">
        <ele>1416</ele>
        <time>2022-06-05T09:52:59Z</time>
      </trkpt>
      <trkpt lat="45.02682" lon="5.84166">
        <ele>1416</ele>
        <time>2022-06-05T09:53:00Z</time>
      </trkpt>
      <trkpt lat="45.02682" lon="5.84165">
        <ele>1417</ele>
        <time>2022-06-05T09:53:01Z</time>
      </trkpt>
      <trkpt lat="45.02682" lon="5.84165">
        <ele>1417</ele>
        <time>2022-06-05T09:53:02Z</time>
      </trkpt>
      <trkpt lat="45.02682" lon="5.84165">
        <ele>1417</ele>
        <time>2022-06-05T09:53:02Z</time>
      </trkpt>
      <trkpt lat="45.02682" lon="5.84165">
        <ele>1417</ele>
        <time>2022-06-05T09:53:02Z</time>
      </trkpt>
      <trkpt lat="45.02676" lon="5.8417">
        <ele>1416</ele>
        <time>2022-06-05T09:53:25Z</time>
      </trkpt>
      <trkpt lat="45.02675" lon="5.8417">
        <ele>1416</ele>
        <time>2022-06-05T09:53:26Z</time>
      </trkpt>
      <trkpt lat="45.02674" lon="5.84171">
        <ele>1416</ele>
        <time>2022-06-05T09:53:27Z</time>
      </trkpt>
      <trkpt lat="45.02673" lon="5.84171">
        <ele>1416</ele>
        <time>2022-06-05T09:53:28Z</time>
      </trkpt>
      <trkpt lat="45.02672" lon="5.84172">
        <ele>1416</ele>
        <time>2022-06-05T09:53:29Z</time>
      </trkpt>
      <trkpt lat="45.02671" lon="5.84172">
        <ele>1416</ele>
        <time>2022-06-05T09:53:30Z</time>
      </trkpt>
      <trkpt lat="45.02671" lon="5.84173">
        <ele>1416</ele>
        <time>2022-06-05T09:53:31Z</time>
      </trkpt>
      <trkpt lat="45.0267" lon="5.84173">
        <ele>1416</ele>
        <time>2022-06-05T09:53:32Z</time>
      </trkpt>
      <trkpt lat="45.02669" lon="5.84174">
        <ele>1416</ele>
        <time>2022-06-05T09:53:33Z</time>
      </trkpt>
      <trkpt lat="45.02669" lon="5.84174">
        <ele>1416</ele>
        <time>2022-06-05T09:53:34Z</time>
      </trkpt>
      <trkpt lat="45.02668" lon="5.84175">
        <ele>1416</ele>
        <time>2022-06-05T09:53:35Z</time>
      </trkpt>
      <trkpt lat="45.02667" lon="5.84174">
        <ele>1416</ele>
        <time>2022-06-05T09:53:36Z</time>
      </trkpt>
      <trkpt lat="45.02667" lon="5.84174">
        <ele>1416</ele>
        <time>2022-06-05T09:53:37Z</time>
      </trkpt>
      <trkpt lat="45.02666" lon="5.84173">
        <ele>1416</ele>
        <time>2022-06-05T09:53:38Z</time>
      </trkpt>
      <trkpt lat="45.02665" lon="5.84173">
        <ele>1416</ele>
        <time>2022-06-05T09:53:39Z</time>
      </trkpt>
      <trkpt lat="45.02665" lon="5.84173">
        <ele>1416</ele>
        <time>2022-06-05T09:53:40Z</time>
      </trkpt>
      <trkpt lat="45.02664" lon="5.84173">
        <ele>1416</ele>
        <time>2022-06-05T09:53:41Z</time>
      </trkpt>
      <trkpt lat="45.02663" lon="5.84173">
        <ele>1416</ele>
        <time>2022-06-05T09:53:42Z</time>
      </trkpt>
      <trkpt lat="45.02663" lon="5.84172">
        <ele>1416</ele>
        <time>2022-06-05T09:53:43Z</time>
      </trkpt>
      <trkpt lat="45.02662" lon="5.84172">
        <ele>1416</ele>
        <time>2022-06-05T09:53:44Z</time>
      </trkpt>
      <trkpt lat="45.02661" lon="5.84173">
        <ele>1416</ele>
        <time>2022-06-05T09:53:45Z</time>
      </trkpt>
      <trkpt lat="45.0266" lon="5.84173">
        <ele>1415</ele>
        <time>2022-06-05T09:53:46Z</time>
      </trkpt>
      <trkpt lat="45.02659" lon="5.84173">
        <ele>1414</ele>
        <time>2022-06-05T09:53:47Z</time>
      </trkpt>
      <trkpt lat="45.02659" lon="5.84173">
        <ele>1413</ele>
        <time>2022-06-05T09:53:48Z</time>
      </trkpt>
      <trkpt lat="45.02657" lon="5.84173">
        <ele>1413</ele>
        <time>2022-06-05T09:53:49Z</time>
      </trkpt>
      <trkpt lat="45.02656" lon="5.84173">
        <ele>1412</ele>
        <time>2022-06-05T09:53:50Z</time>
      </trkpt>
      <trkpt lat="45.02655" lon="5.84173">
        <ele>1412</ele>
        <time>2022-06-05T09:53:51Z</time>
      </trkpt>
      <trkpt lat="45.02655" lon="5.84173">
        <ele>1412</ele>
        <time>2022-06-05T09:53:52Z</time>
      </trkpt>
      <trkpt lat="45.02654" lon="5.84174">
        <ele>1411</ele>
        <time>2022-06-05T09:53:53Z</time>
      </trkpt>
      <trkpt lat="45.02653" lon="5.84174">
        <ele>1411</ele>
        <time>2022-06-05T09:53:54Z</time>
      </trkpt>
      <trkpt lat="45.02652" lon="5.84174">
        <ele>1411</ele>
        <time>2022-06-05T09:53:55Z</time>
      </trkpt>
      <trkpt lat="45.02651" lon="5.84174">
        <ele>1410</ele>
        <time>2022-06-05T09:53:56Z</time>
      </trkpt>
      <trkpt lat="45.02651" lon="5.84175">
        <ele>1410</ele>
        <time>2022-06-05T09:53:57Z</time>
      </trkpt>
      <trkpt lat="45.0265" lon="5.84175">
        <ele>1409</ele>
        <time>2022-06-05T09:53:58Z</time>
      </trkpt>
      <trkpt lat="45.02649" lon="5.84176">
        <ele>1408</ele>
        <time>2022-06-05T09:53:59Z</time>
      </trkpt>
      <trkpt lat="45.02648" lon="5.84177">
        <ele>1409</ele>
        <time>2022-06-05T09:54:00Z</time>
      </trkpt>
      <trkpt lat="45.02647" lon="5.84178">
        <ele>1409</ele>
        <time>2022-06-05T09:54:01Z</time>
      </trkpt>
      <trkpt lat="45.02647" lon="5.84179">
        <ele>1409</ele>
        <time>2022-06-05T09:54:02Z</time>
      </trkpt>
      <trkpt lat="45.02646" lon="5.8418">
        <ele>1408</ele>
        <time>2022-06-05T09:54:03Z</time>
      </trkpt>
      <trkpt lat="45.02645" lon="5.8418">
        <ele>1408</ele>
        <time>2022-06-05T09:54:04Z</time>
      </trkpt>
      <trkpt lat="45.02644" lon="5.84181">
        <ele>1408</ele>
        <time>2022-06-05T09:54:05Z</time>
      </trkpt>
      <trkpt lat="45.02644" lon="5.84182">
        <ele>1408</ele>
        <time>2022-06-05T09:54:06Z</time>
      </trkpt>
      <trkpt lat="45.02643" lon="5.84183">
        <ele>1408</ele>
        <time>2022-06-05T09:54:07Z</time>
      </trkpt>
      <trkpt lat="45.02643" lon="5.84185">
        <ele>1409</ele>
        <time>2022-06-05T09:54:08Z</time>
      </trkpt>
      <trkpt lat="45.02642" lon="5.84187">
        <ele>1409</ele>
        <time>2022-06-05T09:54:09Z</time>
      </trkpt>
      <trkpt lat="45.02642" lon="5.84191">
        <ele>1409</ele>
        <time>2022-06-05T09:54:11Z</time>
      </trkpt>
      <trkpt lat="45.02643" lon="5.84192">
        <ele>1410</ele>
        <time>2022-06-05T09:54:12Z</time>
      </trkpt>
      <trkpt lat="45.02643" lon="5.84192">
        <ele>1411</ele>
        <time>2022-06-05T09:54:13Z</time>
      </trkpt>
      <trkpt lat="45.02642" lon="5.84192">
        <ele>1412</ele>
        <time>2022-06-05T09:54:14Z</time>
      </trkpt>
      <trkpt lat="45.02643" lon="5.84192">
        <ele>1412</ele>
        <time>2022-06-05T09:54:15Z</time>
      </trkpt>
      <trkpt lat="45.02644" lon="5.84192">
        <ele>1412</ele>
        <time>2022-06-05T09:54:16Z</time>
      </trkpt>
      <trkpt lat="45.02643" lon="5.84193">
        <ele>1412</ele>
        <time>2022-06-05T09:54:17Z</time>
      </trkpt>
      <trkpt lat="45.02643" lon="5.84194">
        <ele>1412</ele>
        <time>2022-06-05T09:54:18Z</time>
      </trkpt>
      <trkpt lat="45.02643" lon="5.84194">
        <ele>1412</ele>
        <time>2022-06-05T09:54:19Z</time>
      </trkpt>
      <trkpt lat="45.02643" lon="5.84194">
        <ele>1412</ele>
        <time>2022-06-05T09:54:20Z</time>
      </trkpt>
      <trkpt lat="45.02644" lon="5.84195">
        <ele>1413</ele>
        <time>2022-06-05T09:54:21Z</time>
      </trkpt>
      <trkpt lat="45.02644" lon="5.84195">
        <ele>1413</ele>
        <time>2022-06-05T09:54:22Z</time>
      </trkpt>
      <trkpt lat="45.02644" lon="5.84195">
        <ele>1413</ele>
        <time>2022-06-05T09:54:23Z</time>
      </trkpt>
      <trkpt lat="45.02644" lon="5.84195">
        <ele>1413</ele>
        <time>2022-06-05T09:54:23Z</time>
      </trkpt>
      <trkpt lat="45.02644" lon="5.84195">
        <ele>1413</ele>
        <time>2022-06-05T09:54:23Z</time>
      </trkpt>
      <trkpt lat="45.02643" lon="5.84202">
        <ele>1410</ele>
        <time>2022-06-05T09:54:35Z</time>
      </trkpt>
      <trkpt lat="45.02643" lon="5.84203">
        <ele>1410</ele>
        <time>2022-06-05T09:54:36Z</time>
      </trkpt>
      <trkpt lat="45.02644" lon="5.84206">
        <ele>1410</ele>
        <time>2022-06-05T09:54:37Z</time>
      </trkpt>
      <trkpt lat="45.02644" lon="5.84208">
        <ele>1409</ele>
        <time>2022-06-05T09:54:38Z</time>
      </trkpt>
      <trkpt lat="45.02644" lon="5.84209">
        <ele>1409</ele>
        <time>2022-06-05T09:54:39Z</time>
      </trkpt>
      <trkpt lat="45.02644" lon="5.8421">
        <ele>1409</ele>
        <time>2022-06-05T09:54:40Z</time>
      </trkpt>
      <trkpt lat="45.02644" lon="5.84212">
        <ele>1410</ele>
        <time>2022-06-05T09:54:41Z</time>
      </trkpt>
      <trkpt lat="45.02644" lon="5.84213">
        <ele>1410</ele>
        <time>2022-06-05T09:54:42Z</time>
      </trkpt>
      <trkpt lat="45.02644" lon="5.84215">
        <ele>1411</ele>
        <time>2022-06-05T09:54:43Z</time>
      </trkpt>
      <trkpt lat="45.02644" lon="5.84217">
        <ele>1411</ele>
        <time>2022-06-05T09:54:44Z</time>
      </trkpt>
      <trkpt lat="45.02644" lon="5.84219">
        <ele>1411</ele>
        <time>2022-06-05T09:54:45Z</time>
      </trkpt>
      <trkpt lat="45.02644" lon="5.84221">
        <ele>1411</ele>
        <time>2022-06-05T09:54:46Z</time>
      </trkpt>
      <trkpt lat="45.02644" lon="5.84222">
        <ele>1411</ele>
        <time>2022-06-05T09:54:47Z</time>
      </trkpt>
      <trkpt lat="45.02644" lon="5.84224">
        <ele>1411</ele>
        <time>2022-06-05T09:54:48Z</time>
      </trkpt>
      <trkpt lat="45.02645" lon="5.84225">
        <ele>1412</ele>
        <time>2022-06-05T09:54:49Z</time>
      </trkpt>
      <trkpt lat="45.02645" lon="5.84227">
        <ele>1412</ele>
        <time>2022-06-05T09:54:50Z</time>
      </trkpt>
      <trkpt lat="45.02646" lon="5.84229">
        <ele>1413</ele>
        <time>2022-06-05T09:54:51Z</time>
      </trkpt>
      <trkpt lat="45.02646" lon="5.8423">
        <ele>1413</ele>
        <time>2022-06-05T09:54:52Z</time>
      </trkpt>
      <trkpt lat="45.02645" lon="5.84231">
        <ele>1412</ele>
        <time>2022-06-05T09:54:53Z</time>
      </trkpt>
      <trkpt lat="45.02645" lon="5.84232">
        <ele>1413</ele>
        <time>2022-06-05T09:54:54Z</time>
      </trkpt>
      <trkpt lat="45.02644" lon="5.84234">
        <ele>1413</ele>
        <time>2022-06-05T09:54:55Z</time>
      </trkpt>
      <trkpt lat="45.02644" lon="5.84236">
        <ele>1414</ele>
        <time>2022-06-05T09:54:56Z</time>
      </trkpt>
      <trkpt lat="45.02644" lon="5.84237">
        <ele>1414</ele>
        <time>2022-06-05T09:54:57Z</time>
      </trkpt>
      <trkpt lat="45.02644" lon="5.84238">
        <ele>1414</ele>
        <time>2022-06-05T09:54:58Z</time>
      </trkpt>
      <trkpt lat="45.02644" lon="5.84239">
        <ele>1414</ele>
        <time>2022-06-05T09:54:59Z</time>
      </trkpt>
      <trkpt lat="45.02644" lon="5.84239">
        <ele>1415</ele>
        <time>2022-06-05T09:55:00Z</time>
      </trkpt>
      <trkpt lat="45.02644" lon="5.8424">
        <ele>1415</ele>
        <time>2022-06-05T09:55:01Z</time>
      </trkpt>
      <trkpt lat="45.02644" lon="5.8424">
        <ele>1415</ele>
        <time>2022-06-05T09:55:02Z</time>
      </trkpt>
      <trkpt lat="45.02644" lon="5.8424">
        <ele>1415</ele>
        <time>2022-06-05T09:55:03Z</time>
      </trkpt>
      <trkpt lat="45.02645" lon="5.84242">
        <ele>1416</ele>
        <time>2022-06-05T09:55:04Z</time>
      </trkpt>
      <trkpt lat="45.02644" lon="5.84242">
        <ele>1416</ele>
        <time>2022-06-05T09:55:05Z</time>
      </trkpt>
      <trkpt lat="45.02643" lon="5.84243">
        <ele>1416</ele>
        <time>2022-06-05T09:55:06Z</time>
      </trkpt>
      <trkpt lat="45.02643" lon="5.84244">
        <ele>1416</ele>
        <time>2022-06-05T09:55:07Z</time>
      </trkpt>
      <trkpt lat="45.02643" lon="5.84245">
        <ele>1417</ele>
        <time>2022-06-05T09:55:08Z</time>
      </trkpt>
      <trkpt lat="45.02642" lon="5.84247">
        <ele>1417</ele>
        <time>2022-06-05T09:55:09Z</time>
      </trkpt>
      <trkpt lat="45.02641" lon="5.84249">
        <ele>1417</ele>
        <time>2022-06-05T09:55:10Z</time>
      </trkpt>
      <trkpt lat="45.0264" lon="5.8425">
        <ele>1417</ele>
        <time>2022-06-05T09:55:11Z</time>
      </trkpt>
      <trkpt lat="45.0264" lon="5.84251">
        <ele>1418</ele>
        <time>2022-06-05T09:55:12Z</time>
      </trkpt>
      <trkpt lat="45.02639" lon="5.84252">
        <ele>1418</ele>
        <time>2022-06-05T09:55:13Z</time>
      </trkpt>
      <trkpt lat="45.02639" lon="5.84252">
        <ele>1418</ele>
        <time>2022-06-05T09:55:14Z</time>
      </trkpt>
      <trkpt lat="45.02638" lon="5.84253">
        <ele>1418</ele>
        <time>2022-06-05T09:55:15Z</time>
      </trkpt>
      <trkpt lat="45.02637" lon="5.84254">
        <ele>1419</ele>
        <time>2022-06-05T09:55:16Z</time>
      </trkpt>
      <trkpt lat="45.02637" lon="5.84255">
        <ele>1419</ele>
        <time>2022-06-05T09:55:17Z</time>
      </trkpt>
      <trkpt lat="45.02637" lon="5.84256">
        <ele>1419</ele>
        <time>2022-06-05T09:55:18Z</time>
      </trkpt>
      <trkpt lat="45.02637" lon="5.84257">
        <ele>1420</ele>
        <time>2022-06-05T09:55:19Z</time>
      </trkpt>
      <trkpt lat="45.02638" lon="5.84258">
        <ele>1419</ele>
        <time>2022-06-05T09:55:20Z</time>
      </trkpt>
      <trkpt lat="45.02638" lon="5.84259">
        <ele>1420</ele>
        <time>2022-06-05T09:55:21Z</time>
      </trkpt>
      <trkpt lat="45.02638" lon="5.8426">
        <ele>1419</ele>
        <time>2022-06-05T09:55:22Z</time>
      </trkpt>
      <trkpt lat="45.02637" lon="5.84261">
        <ele>1418</ele>
        <time>2022-06-05T09:55:23Z</time>
      </trkpt>
      <trkpt lat="45.02638" lon="5.84261">
        <ele>1419</ele>
        <time>2022-06-05T09:55:24Z</time>
      </trkpt>
      <trkpt lat="45.02638" lon="5.84261">
        <ele>1419</ele>
        <time>2022-06-05T09:55:25Z</time>
      </trkpt>
      <trkpt lat="45.02638" lon="5.84261">
        <ele>1419</ele>
        <time>2022-06-05T09:55:26Z</time>
      </trkpt>
      <trkpt lat="45.02638" lon="5.84266">
        <ele>1419</ele>
        <time>2022-06-05T09:55:27Z</time>
      </trkpt>
      <trkpt lat="45.02638" lon="5.84267">
        <ele>1419</ele>
        <time>2022-06-05T09:55:28Z</time>
      </trkpt>
      <trkpt lat="45.02638" lon="5.84269">
        <ele>1418</ele>
        <time>2022-06-05T09:55:29Z</time>
      </trkpt>
      <trkpt lat="45.02639" lon="5.8427">
        <ele>1418</ele>
        <time>2022-06-05T09:55:30Z</time>
      </trkpt>
      <trkpt lat="45.02639" lon="5.84271">
        <ele>1418</ele>
        <time>2022-06-05T09:55:31Z</time>
      </trkpt>
      <trkpt lat="45.02639" lon="5.84272">
        <ele>1417</ele>
        <time>2022-06-05T09:55:32Z</time>
      </trkpt>
      <trkpt lat="45.02639" lon="5.84273">
        <ele>1417</ele>
        <time>2022-06-05T09:55:33Z</time>
      </trkpt>
      <trkpt lat="45.02639" lon="5.84273">
        <ele>1417</ele>
        <time>2022-06-05T09:55:34Z</time>
      </trkpt>
      <trkpt lat="45.02639" lon="5.84273">
        <ele>1417</ele>
        <time>2022-06-05T09:55:35Z</time>
      </trkpt>
      <trkpt lat="45.0264" lon="5.84276">
        <ele>1418</ele>
        <time>2022-06-05T09:55:36Z</time>
      </trkpt>
      <trkpt lat="45.0264" lon="5.84277">
        <ele>1419</ele>
        <time>2022-06-05T09:55:37Z</time>
      </trkpt>
      <trkpt lat="45.02639" lon="5.84279">
        <ele>1419</ele>
        <time>2022-06-05T09:55:38Z</time>
      </trkpt>
      <trkpt lat="45.02639" lon="5.84281">
        <ele>1419</ele>
        <time>2022-06-05T09:55:39Z</time>
      </trkpt>
      <trkpt lat="45.02638" lon="5.84282">
        <ele>1420</ele>
        <time>2022-06-05T09:55:40Z</time>
      </trkpt>
      <trkpt lat="45.02638" lon="5.84284">
        <ele>1421</ele>
        <time>2022-06-05T09:55:41Z</time>
      </trkpt>
      <trkpt lat="45.02638" lon="5.84286">
        <ele>1420</ele>
        <time>2022-06-05T09:55:42Z</time>
      </trkpt>
      <trkpt lat="45.02638" lon="5.84288">
        <ele>1419</ele>
        <time>2022-06-05T09:55:43Z</time>
      </trkpt>
      <trkpt lat="45.02638" lon="5.84291">
        <ele>1419</ele>
        <time>2022-06-05T09:55:44Z</time>
      </trkpt>
      <trkpt lat="45.02638" lon="5.84293">
        <ele>1418</ele>
        <time>2022-06-05T09:55:45Z</time>
      </trkpt>
      <trkpt lat="45.02638" lon="5.84294">
        <ele>1417</ele>
        <time>2022-06-05T09:55:46Z</time>
      </trkpt>
      <trkpt lat="45.02638" lon="5.84296">
        <ele>1417</ele>
        <time>2022-06-05T09:55:47Z</time>
      </trkpt>
      <trkpt lat="45.02638" lon="5.84297">
        <ele>1418</ele>
        <time>2022-06-05T09:55:48Z</time>
      </trkpt>
      <trkpt lat="45.02638" lon="5.84299">
        <ele>1418</ele>
        <time>2022-06-05T09:55:49Z</time>
      </trkpt>
      <trkpt lat="45.02639" lon="5.843">
        <ele>1418</ele>
        <time>2022-06-05T09:55:50Z</time>
      </trkpt>
      <trkpt lat="45.02638" lon="5.84302">
        <ele>1418</ele>
        <time>2022-06-05T09:55:51Z</time>
      </trkpt>
      <trkpt lat="45.02639" lon="5.84303">
        <ele>1418</ele>
        <time>2022-06-05T09:55:52Z</time>
      </trkpt>
      <trkpt lat="45.02639" lon="5.84305">
        <ele>1418</ele>
        <time>2022-06-05T09:55:53Z</time>
      </trkpt>
      <trkpt lat="45.02641" lon="5.84306">
        <ele>1419</ele>
        <time>2022-06-05T09:55:54Z</time>
      </trkpt>
      <trkpt lat="45.02641" lon="5.84307">
        <ele>1419</ele>
        <time>2022-06-05T09:55:55Z</time>
      </trkpt>
      <trkpt lat="45.02641" lon="5.84309">
        <ele>1420</ele>
        <time>2022-06-05T09:55:56Z</time>
      </trkpt>
      <trkpt lat="45.02642" lon="5.8431">
        <ele>1420</ele>
        <time>2022-06-05T09:55:57Z</time>
      </trkpt>
      <trkpt lat="45.02642" lon="5.84311">
        <ele>1420</ele>
        <time>2022-06-05T09:55:58Z</time>
      </trkpt>
      <trkpt lat="45.02642" lon="5.84312">
        <ele>1421</ele>
        <time>2022-06-05T09:55:59Z</time>
      </trkpt>
      <trkpt lat="45.02642" lon="5.84313">
        <ele>1421</ele>
        <time>2022-06-05T09:56:00Z</time>
      </trkpt>
      <trkpt lat="45.02642" lon="5.84315">
        <ele>1422</ele>
        <time>2022-06-05T09:56:01Z</time>
      </trkpt>
      <trkpt lat="45.02642" lon="5.84316">
        <ele>1422</ele>
        <time>2022-06-05T09:56:02Z</time>
      </trkpt>
      <trkpt lat="45.02641" lon="5.84318">
        <ele>1423</ele>
        <time>2022-06-05T09:56:03Z</time>
      </trkpt>
      <trkpt lat="45.02641" lon="5.84319">
        <ele>1423</ele>
        <time>2022-06-05T09:56:04Z</time>
      </trkpt>
      <trkpt lat="45.02641" lon="5.84321">
        <ele>1423</ele>
        <time>2022-06-05T09:56:05Z</time>
      </trkpt>
      <trkpt lat="45.02642" lon="5.84321">
        <ele>1422</ele>
        <time>2022-06-05T09:56:06Z</time>
      </trkpt>
      <trkpt lat="45.02643" lon="5.84323">
        <ele>1423</ele>
        <time>2022-06-05T09:56:07Z</time>
      </trkpt>
      <trkpt lat="45.02643" lon="5.84324">
        <ele>1423</ele>
        <time>2022-06-05T09:56:08Z</time>
      </trkpt>
      <trkpt lat="45.02643" lon="5.84326">
        <ele>1423</ele>
        <time>2022-06-05T09:56:09Z</time>
      </trkpt>
      <trkpt lat="45.02643" lon="5.84328">
        <ele>1423</ele>
        <time>2022-06-05T09:56:10Z</time>
      </trkpt>
      <trkpt lat="45.02643" lon="5.8433">
        <ele>1423</ele>
        <time>2022-06-05T09:56:11Z</time>
      </trkpt>
      <trkpt lat="45.02644" lon="5.84332">
        <ele>1423</ele>
        <time>2022-06-05T09:56:12Z</time>
      </trkpt>
      <trkpt lat="45.02644" lon="5.84334">
        <ele>1423</ele>
        <time>2022-06-05T09:56:13Z</time>
      </trkpt>
      <trkpt lat="45.02644" lon="5.84336">
        <ele>1424</ele>
        <time>2022-06-05T09:56:14Z</time>
      </trkpt>
      <trkpt lat="45.02644" lon="5.84337">
        <ele>1424</ele>
        <time>2022-06-05T09:56:15Z</time>
      </trkpt>
      <trkpt lat="45.02644" lon="5.84339">
        <ele>1424</ele>
        <time>2022-06-05T09:56:16Z</time>
      </trkpt>
      <trkpt lat="45.02644" lon="5.8434">
        <ele>1424</ele>
        <time>2022-06-05T09:56:17Z</time>
      </trkpt>
      <trkpt lat="45.02644" lon="5.84341">
        <ele>1424</ele>
        <time>2022-06-05T09:56:18Z</time>
      </trkpt>
      <trkpt lat="45.02644" lon="5.84343">
        <ele>1423</ele>
        <time>2022-06-05T09:56:19Z</time>
      </trkpt>
      <trkpt lat="45.02644" lon="5.84344">
        <ele>1423</ele>
        <time>2022-06-05T09:56:20Z</time>
      </trkpt>
      <trkpt lat="45.02644" lon="5.84346">
        <ele>1424</ele>
        <time>2022-06-05T09:56:21Z</time>
      </trkpt>
      <trkpt lat="45.02644" lon="5.84348">
        <ele>1424</ele>
        <time>2022-06-05T09:56:22Z</time>
      </trkpt>
      <trkpt lat="45.02644" lon="5.84349">
        <ele>1424</ele>
        <time>2022-06-05T09:56:23Z</time>
      </trkpt>
      <trkpt lat="45.02645" lon="5.84351">
        <ele>1424</ele>
        <time>2022-06-05T09:56:24Z</time>
      </trkpt>
      <trkpt lat="45.02645" lon="5.84352">
        <ele>1424</ele>
        <time>2022-06-05T09:56:25Z</time>
      </trkpt>
      <trkpt lat="45.02646" lon="5.84353">
        <ele>1424</ele>
        <time>2022-06-05T09:56:26Z</time>
      </trkpt>
      <trkpt lat="45.02646" lon="5.84354">
        <ele>1424</ele>
        <time>2022-06-05T09:56:27Z</time>
      </trkpt>
      <trkpt lat="45.02646" lon="5.84355">
        <ele>1424</ele>
        <time>2022-06-05T09:56:28Z</time>
      </trkpt>
      <trkpt lat="45.02646" lon="5.84356">
        <ele>1424</ele>
        <time>2022-06-05T09:56:29Z</time>
      </trkpt>
      <trkpt lat="45.02646" lon="5.84357">
        <ele>1424</ele>
        <time>2022-06-05T09:56:30Z</time>
      </trkpt>
      <trkpt lat="45.02647" lon="5.84359">
        <ele>1424</ele>
        <time>2022-06-05T09:56:31Z</time>
      </trkpt>
      <trkpt lat="45.02646" lon="5.84361">
        <ele>1424</ele>
        <time>2022-06-05T09:56:32Z</time>
      </trkpt>
      <trkpt lat="45.02646" lon="5.84363">
        <ele>1425</ele>
        <time>2022-06-05T09:56:33Z</time>
      </trkpt>
      <trkpt lat="45.02646" lon="5.84363">
        <ele>1425</ele>
        <time>2022-06-05T09:56:34Z</time>
      </trkpt>
      <trkpt lat="45.02646" lon="5.84365">
        <ele>1424</ele>
        <time>2022-06-05T09:56:35Z</time>
      </trkpt>
      <trkpt lat="45.02646" lon="5.84366">
        <ele>1424</ele>
        <time>2022-06-05T09:56:36Z</time>
      </trkpt>
      <trkpt lat="45.02646" lon="5.84368">
        <ele>1424</ele>
        <time>2022-06-05T09:56:37Z</time>
      </trkpt>
      <trkpt lat="45.02646" lon="5.84369">
        <ele>1424</ele>
        <time>2022-06-05T09:56:38Z</time>
      </trkpt>
      <trkpt lat="45.02647" lon="5.8437">
        <ele>1423</ele>
        <time>2022-06-05T09:56:39Z</time>
      </trkpt>
      <trkpt lat="45.02647" lon="5.84371">
        <ele>1423</ele>
        <time>2022-06-05T09:56:40Z</time>
      </trkpt>
      <trkpt lat="45.02647" lon="5.84373">
        <ele>1423</ele>
        <time>2022-06-05T09:56:41Z</time>
      </trkpt>
      <trkpt lat="45.02647" lon="5.84374">
        <ele>1424</ele>
        <time>2022-06-05T09:56:42Z</time>
      </trkpt>
      <trkpt lat="45.02647" lon="5.84376">
        <ele>1425</ele>
        <time>2022-06-05T09:56:43Z</time>
      </trkpt>
      <trkpt lat="45.02647" lon="5.84377">
        <ele>1425</ele>
        <time>2022-06-05T09:56:44Z</time>
      </trkpt>
      <trkpt lat="45.02647" lon="5.84378">
        <ele>1425</ele>
        <time>2022-06-05T09:56:45Z</time>
      </trkpt>
      <trkpt lat="45.02647" lon="5.8438">
        <ele>1424</ele>
        <time>2022-06-05T09:56:46Z</time>
      </trkpt>
      <trkpt lat="45.02647" lon="5.84381">
        <ele>1424</ele>
        <time>2022-06-05T09:56:47Z</time>
      </trkpt>
      <trkpt lat="45.02647" lon="5.84382">
        <ele>1422</ele>
        <time>2022-06-05T09:56:48Z</time>
      </trkpt>
      <trkpt lat="45.02647" lon="5.84383">
        <ele>1422</ele>
        <time>2022-06-05T09:56:49Z</time>
      </trkpt>
      <trkpt lat="45.02647" lon="5.84385">
        <ele>1421</ele>
        <time>2022-06-05T09:56:50Z</time>
      </trkpt>
      <trkpt lat="45.02647" lon="5.84387">
        <ele>1422</ele>
        <time>2022-06-05T09:56:51Z</time>
      </trkpt>
      <trkpt lat="45.02647" lon="5.84389">
        <ele>1422</ele>
        <time>2022-06-05T09:56:52Z</time>
      </trkpt>
      <trkpt lat="45.02647" lon="5.8439">
        <ele>1422</ele>
        <time>2022-06-05T09:56:53Z</time>
      </trkpt>
      <trkpt lat="45.02647" lon="5.84392">
        <ele>1422</ele>
        <time>2022-06-05T09:56:54Z</time>
      </trkpt>
      <trkpt lat="45.02647" lon="5.84394">
        <ele>1423</ele>
        <time>2022-06-05T09:56:55Z</time>
      </trkpt>
      <trkpt lat="45.02647" lon="5.84395">
        <ele>1423</ele>
        <time>2022-06-05T09:56:56Z</time>
      </trkpt>
      <trkpt lat="45.02647" lon="5.84397">
        <ele>1423</ele>
        <time>2022-06-05T09:56:57Z</time>
      </trkpt>
      <trkpt lat="45.02647" lon="5.84399">
        <ele>1422</ele>
        <time>2022-06-05T09:56:58Z</time>
      </trkpt>
      <trkpt lat="45.02646" lon="5.844">
        <ele>1422</ele>
        <time>2022-06-05T09:56:59Z</time>
      </trkpt>
      <trkpt lat="45.02646" lon="5.84402">
        <ele>1422</ele>
        <time>2022-06-05T09:57:00Z</time>
      </trkpt>
      <trkpt lat="45.02646" lon="5.84404">
        <ele>1422</ele>
        <time>2022-06-05T09:57:01Z</time>
      </trkpt>
      <trkpt lat="45.02646" lon="5.84406">
        <ele>1422</ele>
        <time>2022-06-05T09:57:02Z</time>
      </trkpt>
      <trkpt lat="45.02646" lon="5.84407">
        <ele>1422</ele>
        <time>2022-06-05T09:57:03Z</time>
      </trkpt>
      <trkpt lat="45.02646" lon="5.84408">
        <ele>1423</ele>
        <time>2022-06-05T09:57:04Z</time>
      </trkpt>
      <trkpt lat="45.02646" lon="5.84409">
        <ele>1423</ele>
        <time>2022-06-05T09:57:05Z</time>
      </trkpt>
      <trkpt lat="45.02647" lon="5.84409">
        <ele>1423</ele>
        <time>2022-06-05T09:57:06Z</time>
      </trkpt>
      <trkpt lat="45.02646" lon="5.8441">
        <ele>1423</ele>
        <time>2022-06-05T09:57:07Z</time>
      </trkpt>
      <trkpt lat="45.02646" lon="5.84412">
        <ele>1422</ele>
        <time>2022-06-05T09:57:08Z</time>
      </trkpt>
      <trkpt lat="45.02647" lon="5.84413">
        <ele>1422</ele>
        <time>2022-06-05T09:57:09Z</time>
      </trkpt>
      <trkpt lat="45.02647" lon="5.84415">
        <ele>1422</ele>
        <time>2022-06-05T09:57:10Z</time>
      </trkpt>
      <trkpt lat="45.02648" lon="5.84416">
        <ele>1422</ele>
        <time>2022-06-05T09:57:11Z</time>
      </trkpt>
      <trkpt lat="45.02648" lon="5.84418">
        <ele>1421</ele>
        <time>2022-06-05T09:57:12Z</time>
      </trkpt>
      <trkpt lat="45.02649" lon="5.84418">
        <ele>1421</ele>
        <time>2022-06-05T09:57:13Z</time>
      </trkpt>
      <trkpt lat="45.02648" lon="5.8442">
        <ele>1422</ele>
        <time>2022-06-05T09:57:14Z</time>
      </trkpt>
      <trkpt lat="45.02649" lon="5.84421">
        <ele>1422</ele>
        <time>2022-06-05T09:57:15Z</time>
      </trkpt>
      <trkpt lat="45.02649" lon="5.84422">
        <ele>1422</ele>
        <time>2022-06-05T09:57:16Z</time>
      </trkpt>
      <trkpt lat="45.02649" lon="5.84423">
        <ele>1422</ele>
        <time>2022-06-05T09:57:17Z</time>
      </trkpt>
      <trkpt lat="45.02649" lon="5.84424">
        <ele>1423</ele>
        <time>2022-06-05T09:57:18Z</time>
      </trkpt>
      <trkpt lat="45.02649" lon="5.84425">
        <ele>1423</ele>
        <time>2022-06-05T09:57:19Z</time>
      </trkpt>
      <trkpt lat="45.02649" lon="5.84427">
        <ele>1424</ele>
        <time>2022-06-05T09:57:20Z</time>
      </trkpt>
      <trkpt lat="45.02649" lon="5.84428">
        <ele>1424</ele>
        <time>2022-06-05T09:57:21Z</time>
      </trkpt>
      <trkpt lat="45.02649" lon="5.8443">
        <ele>1424</ele>
        <time>2022-06-05T09:57:22Z</time>
      </trkpt>
      <trkpt lat="45.02649" lon="5.84431">
        <ele>1424</ele>
        <time>2022-06-05T09:57:23Z</time>
      </trkpt>
      <trkpt lat="45.02649" lon="5.84432">
        <ele>1424</ele>
        <time>2022-06-05T09:57:24Z</time>
      </trkpt>
      <trkpt lat="45.02649" lon="5.84434">
        <ele>1424</ele>
        <time>2022-06-05T09:57:25Z</time>
      </trkpt>
      <trkpt lat="45.02649" lon="5.84435">
        <ele>1423</ele>
        <time>2022-06-05T09:57:26Z</time>
      </trkpt>
      <trkpt lat="45.02649" lon="5.84437">
        <ele>1423</ele>
        <time>2022-06-05T09:57:27Z</time>
      </trkpt>
      <trkpt lat="45.0265" lon="5.84438">
        <ele>1423</ele>
        <time>2022-06-05T09:57:28Z</time>
      </trkpt>
      <trkpt lat="45.0265" lon="5.84439">
        <ele>1423</ele>
        <time>2022-06-05T09:57:29Z</time>
      </trkpt>
      <trkpt lat="45.02649" lon="5.84439">
        <ele>1422</ele>
        <time>2022-06-05T09:57:30Z</time>
      </trkpt>
      <trkpt lat="45.02649" lon="5.8444">
        <ele>1422</ele>
        <time>2022-06-05T09:57:31Z</time>
      </trkpt>
      <trkpt lat="45.02649" lon="5.84441">
        <ele>1424</ele>
        <time>2022-06-05T09:57:32Z</time>
      </trkpt>
      <trkpt lat="45.02649" lon="5.84441">
        <ele>1424</ele>
        <time>2022-06-05T09:57:33Z</time>
      </trkpt>
      <trkpt lat="45.02649" lon="5.84441">
        <ele>1424</ele>
        <time>2022-06-05T09:57:34Z</time>
      </trkpt>
      <trkpt lat="45.02649" lon="5.84441">
        <ele>1424</ele>
        <time>2022-06-05T09:57:34Z</time>
      </trkpt>
      <trkpt lat="45.02649" lon="5.84441">
        <ele>1424</ele>
        <time>2022-06-05T09:57:34Z</time>
      </trkpt>
      <trkpt lat="45.02649" lon="5.84446">
        <ele>1423</ele>
        <time>2022-06-05T09:57:49Z</time>
      </trkpt>
      <trkpt lat="45.02649" lon="5.84446">
        <ele>1423</ele>
        <time>2022-06-05T09:57:50Z</time>
      </trkpt>
      <trkpt lat="45.02649" lon="5.84446">
        <ele>1423</ele>
        <time>2022-06-05T09:57:51Z</time>
      </trkpt>
      <trkpt lat="45.02649" lon="5.84446">
        <ele>1423</ele>
        <time>2022-06-05T09:57:52Z</time>
      </trkpt>
      <trkpt lat="45.02649" lon="5.84446">
        <ele>1423</ele>
        <time>2022-06-05T09:57:53Z</time>
      </trkpt>
      <trkpt lat="45.02649" lon="5.84446">
        <ele>1423</ele>
        <time>2022-06-05T09:57:53Z</time>
      </trkpt>
      <trkpt lat="45.02649" lon="5.84446">
        <ele>1423</ele>
        <time>2022-06-05T09:57:53Z</time>
      </trkpt>
      <trkpt lat="45.0265" lon="5.84451">
        <ele>1423</ele>
        <time>2022-06-05T09:57:59Z</time>
      </trkpt>
      <trkpt lat="45.0265" lon="5.84453">
        <ele>1422</ele>
        <time>2022-06-05T09:58:00Z</time>
      </trkpt>
      <trkpt lat="45.0265" lon="5.84454">
        <ele>1423</ele>
        <time>2022-06-05T09:58:01Z</time>
      </trkpt>
      <trkpt lat="45.0265" lon="5.84455">
        <ele>1423</ele>
        <time>2022-06-05T09:58:02Z</time>
      </trkpt>
      <trkpt lat="45.02649" lon="5.84456">
        <ele>1423</ele>
        <time>2022-06-05T09:58:03Z</time>
      </trkpt>
      <trkpt lat="45.02649" lon="5.84457">
        <ele>1422</ele>
        <time>2022-06-05T09:58:04Z</time>
      </trkpt>
      <trkpt lat="45.02649" lon="5.84459">
        <ele>1422</ele>
        <time>2022-06-05T09:58:05Z</time>
      </trkpt>
      <trkpt lat="45.02649" lon="5.84459">
        <ele>1422</ele>
        <time>2022-06-05T09:58:06Z</time>
      </trkpt>
      <trkpt lat="45.02649" lon="5.84461">
        <ele>1421</ele>
        <time>2022-06-05T09:58:07Z</time>
      </trkpt>
      <trkpt lat="45.02649" lon="5.84462">
        <ele>1421</ele>
        <time>2022-06-05T09:58:08Z</time>
      </trkpt>
      <trkpt lat="45.02649" lon="5.84463">
        <ele>1421</ele>
        <time>2022-06-05T09:58:09Z</time>
      </trkpt>
      <trkpt lat="45.02649" lon="5.84464">
        <ele>1421</ele>
        <time>2022-06-05T09:58:10Z</time>
      </trkpt>
      <trkpt lat="45.02649" lon="5.84465">
        <ele>1420</ele>
        <time>2022-06-05T09:58:11Z</time>
      </trkpt>
      <trkpt lat="45.02649" lon="5.84466">
        <ele>1420</ele>
        <time>2022-06-05T09:58:12Z</time>
      </trkpt>
      <trkpt lat="45.02649" lon="5.84468">
        <ele>1420</ele>
        <time>2022-06-05T09:58:13Z</time>
      </trkpt>
      <trkpt lat="45.02649" lon="5.84469">
        <ele>1421</ele>
        <time>2022-06-05T09:58:14Z</time>
      </trkpt>
      <trkpt lat="45.02649" lon="5.8447">
        <ele>1421</ele>
        <time>2022-06-05T09:58:15Z</time>
      </trkpt>
      <trkpt lat="45.02649" lon="5.84471">
        <ele>1421</ele>
        <time>2022-06-05T09:58:16Z</time>
      </trkpt>
      <trkpt lat="45.02649" lon="5.84473">
        <ele>1422</ele>
        <time>2022-06-05T09:58:17Z</time>
      </trkpt>
      <trkpt lat="45.02649" lon="5.84474">
        <ele>1422</ele>
        <time>2022-06-05T09:58:18Z</time>
      </trkpt>
      <trkpt lat="45.02649" lon="5.84475">
        <ele>1422</ele>
        <time>2022-06-05T09:58:19Z</time>
      </trkpt>
      <trkpt lat="45.02649" lon="5.84477">
        <ele>1422</ele>
        <time>2022-06-05T09:58:20Z</time>
      </trkpt>
      <trkpt lat="45.02649" lon="5.84478">
        <ele>1422</ele>
        <time>2022-06-05T09:58:21Z</time>
      </trkpt>
      <trkpt lat="45.02649" lon="5.8448">
        <ele>1422</ele>
        <time>2022-06-05T09:58:22Z</time>
      </trkpt>
      <trkpt lat="45.02649" lon="5.84481">
        <ele>1422</ele>
        <time>2022-06-05T09:58:23Z</time>
      </trkpt>
      <trkpt lat="45.02649" lon="5.84483">
        <ele>1423</ele>
        <time>2022-06-05T09:58:24Z</time>
      </trkpt>
      <trkpt lat="45.02649" lon="5.84484">
        <ele>1424</ele>
        <time>2022-06-05T09:58:25Z</time>
      </trkpt>
      <trkpt lat="45.02649" lon="5.84485">
        <ele>1424</ele>
        <time>2022-06-05T09:58:26Z</time>
      </trkpt>
      <trkpt lat="45.02649" lon="5.84486">
        <ele>1423</ele>
        <time>2022-06-05T09:58:27Z</time>
      </trkpt>
      <trkpt lat="45.02649" lon="5.84487">
        <ele>1423</ele>
        <time>2022-06-05T09:58:28Z</time>
      </trkpt>
      <trkpt lat="45.02648" lon="5.84488">
        <ele>1423</ele>
        <time>2022-06-05T09:58:29Z</time>
      </trkpt>
      <trkpt lat="45.02648" lon="5.84489">
        <ele>1423</ele>
        <time>2022-06-05T09:58:30Z</time>
      </trkpt>
      <trkpt lat="45.02649" lon="5.8449">
        <ele>1424</ele>
        <time>2022-06-05T09:58:31Z</time>
      </trkpt>
      <trkpt lat="45.02649" lon="5.84492">
        <ele>1423</ele>
        <time>2022-06-05T09:58:32Z</time>
      </trkpt>
      <trkpt lat="45.02649" lon="5.84493">
        <ele>1424</ele>
        <time>2022-06-05T09:58:33Z</time>
      </trkpt>
      <trkpt lat="45.02649" lon="5.84495">
        <ele>1424</ele>
        <time>2022-06-05T09:58:34Z</time>
      </trkpt>
      <trkpt lat="45.02649" lon="5.84496">
        <ele>1424</ele>
        <time>2022-06-05T09:58:35Z</time>
      </trkpt>
      <trkpt lat="45.02649" lon="5.84497">
        <ele>1424</ele>
        <time>2022-06-05T09:58:36Z</time>
      </trkpt>
      <trkpt lat="45.02649" lon="5.84498">
        <ele>1423</ele>
        <time>2022-06-05T09:58:37Z</time>
      </trkpt>
      <trkpt lat="45.02649" lon="5.845">
        <ele>1423</ele>
        <time>2022-06-05T09:58:38Z</time>
      </trkpt>
      <trkpt lat="45.02649" lon="5.84501">
        <ele>1424</ele>
        <time>2022-06-05T09:58:39Z</time>
      </trkpt>
      <trkpt lat="45.02649" lon="5.84502">
        <ele>1424</ele>
        <time>2022-06-05T09:58:40Z</time>
      </trkpt>
      <trkpt lat="45.02649" lon="5.84503">
        <ele>1424</ele>
        <time>2022-06-05T09:58:41Z</time>
      </trkpt>
      <trkpt lat="45.02649" lon="5.84504">
        <ele>1424</ele>
        <time>2022-06-05T09:58:42Z</time>
      </trkpt>
      <trkpt lat="45.02649" lon="5.84506">
        <ele>1424</ele>
        <time>2022-06-05T09:58:43Z</time>
      </trkpt>
      <trkpt lat="45.02649" lon="5.84507">
        <ele>1424</ele>
        <time>2022-06-05T09:58:44Z</time>
      </trkpt>
      <trkpt lat="45.02649" lon="5.84508">
        <ele>1423</ele>
        <time>2022-06-05T09:58:45Z</time>
      </trkpt>
      <trkpt lat="45.02649" lon="5.84509">
        <ele>1423</ele>
        <time>2022-06-05T09:58:46Z</time>
      </trkpt>
      <trkpt lat="45.02649" lon="5.84511">
        <ele>1423</ele>
        <time>2022-06-05T09:58:47Z</time>
      </trkpt>
      <trkpt lat="45.02649" lon="5.84512">
        <ele>1423</ele>
        <time>2022-06-05T09:58:48Z</time>
      </trkpt>
      <trkpt lat="45.02649" lon="5.84514">
        <ele>1423</ele>
        <time>2022-06-05T09:58:49Z</time>
      </trkpt>
      <trkpt lat="45.02649" lon="5.84515">
        <ele>1423</ele>
        <time>2022-06-05T09:58:50Z</time>
      </trkpt>
      <trkpt lat="45.02649" lon="5.84516">
        <ele>1423</ele>
        <time>2022-06-05T09:58:51Z</time>
      </trkpt>
      <trkpt lat="45.02649" lon="5.84517">
        <ele>1423</ele>
        <time>2022-06-05T09:58:52Z</time>
      </trkpt>
      <trkpt lat="45.02649" lon="5.84519">
        <ele>1423</ele>
        <time>2022-06-05T09:58:53Z</time>
      </trkpt>
      <trkpt lat="45.02649" lon="5.8452">
        <ele>1422</ele>
        <time>2022-06-05T09:58:54Z</time>
      </trkpt>
      <trkpt lat="45.0265" lon="5.84521">
        <ele>1422</ele>
        <time>2022-06-05T09:58:55Z</time>
      </trkpt>
      <trkpt lat="45.0265" lon="5.84522">
        <ele>1421</ele>
        <time>2022-06-05T09:58:56Z</time>
      </trkpt>
      <trkpt lat="45.0265" lon="5.84523">
        <ele>1422</ele>
        <time>2022-06-05T09:58:57Z</time>
      </trkpt>
      <trkpt lat="45.0265" lon="5.84524">
        <ele>1423</ele>
        <time>2022-06-05T09:58:58Z</time>
      </trkpt>
      <trkpt lat="45.0265" lon="5.84526">
        <ele>1423</ele>
        <time>2022-06-05T09:58:59Z</time>
      </trkpt>
      <trkpt lat="45.0265" lon="5.84527">
        <ele>1424</ele>
        <time>2022-06-05T09:59:00Z</time>
      </trkpt>
      <trkpt lat="45.0265" lon="5.84528">
        <ele>1424</ele>
        <time>2022-06-05T09:59:01Z</time>
      </trkpt>
      <trkpt lat="45.02651" lon="5.8453">
        <ele>1424</ele>
        <time>2022-06-05T09:59:02Z</time>
      </trkpt>
      <trkpt lat="45.0265" lon="5.84531">
        <ele>1424</ele>
        <time>2022-06-05T09:59:03Z</time>
      </trkpt>
      <trkpt lat="45.02651" lon="5.84532">
        <ele>1424</ele>
        <time>2022-06-05T09:59:04Z</time>
      </trkpt>
      <trkpt lat="45.02651" lon="5.84533">
        <ele>1424</ele>
        <time>2022-06-05T09:59:05Z</time>
      </trkpt>
      <trkpt lat="45.02652" lon="5.84534">
        <ele>1424</ele>
        <time>2022-06-05T09:59:06Z</time>
      </trkpt>
      <trkpt lat="45.02652" lon="5.84535">
        <ele>1425</ele>
        <time>2022-06-05T09:59:07Z</time>
      </trkpt>
      <trkpt lat="45.02652" lon="5.84535">
        <ele>1424</ele>
        <time>2022-06-05T09:59:08Z</time>
      </trkpt>
      <trkpt lat="45.02653" lon="5.84536">
        <ele>1425</ele>
        <time>2022-06-05T09:59:09Z</time>
      </trkpt>
      <trkpt lat="45.02653" lon="5.84537">
        <ele>1425</ele>
        <time>2022-06-05T09:59:10Z</time>
      </trkpt>
      <trkpt lat="45.02653" lon="5.84539">
        <ele>1425</ele>
        <time>2022-06-05T09:59:11Z</time>
      </trkpt>
      <trkpt lat="45.02653" lon="5.8454">
        <ele>1425</ele>
        <time>2022-06-05T09:59:12Z</time>
      </trkpt>
      <trkpt lat="45.02654" lon="5.84542">
        <ele>1426</ele>
        <time>2022-06-05T09:59:13Z</time>
      </trkpt>
      <trkpt lat="45.02654" lon="5.84543">
        <ele>1425</ele>
        <time>2022-06-05T09:59:14Z</time>
      </trkpt>
      <trkpt lat="45.02654" lon="5.84544">
        <ele>1425</ele>
        <time>2022-06-05T09:59:15Z</time>
      </trkpt>
      <trkpt lat="45.02654" lon="5.84545">
        <ele>1426</ele>
        <time>2022-06-05T09:59:16Z</time>
      </trkpt>
      <trkpt lat="45.02654" lon="5.84547">
        <ele>1426</ele>
        <time>2022-06-05T09:59:17Z</time>
      </trkpt>
      <trkpt lat="45.02654" lon="5.84548">
        <ele>1427</ele>
        <time>2022-06-05T09:59:18Z</time>
      </trkpt>
      <trkpt lat="45.02655" lon="5.84549">
        <ele>1426</ele>
        <time>2022-06-05T09:59:19Z</time>
      </trkpt>
      <trkpt lat="45.02655" lon="5.8455">
        <ele>1426</ele>
        <time>2022-06-05T09:59:20Z</time>
      </trkpt>
      <trkpt lat="45.02655" lon="5.84551">
        <ele>1426</ele>
        <time>2022-06-05T09:59:21Z</time>
      </trkpt>
      <trkpt lat="45.02655" lon="5.84552">
        <ele>1426</ele>
        <time>2022-06-05T09:59:22Z</time>
      </trkpt>
      <trkpt lat="45.02655" lon="5.84553">
        <ele>1427</ele>
        <time>2022-06-05T09:59:23Z</time>
      </trkpt>
      <trkpt lat="45.02655" lon="5.84553">
        <ele>1427</ele>
        <time>2022-06-05T09:59:24Z</time>
      </trkpt>
      <trkpt lat="45.02656" lon="5.84555">
        <ele>1427</ele>
        <time>2022-06-05T09:59:25Z</time>
      </trkpt>
      <trkpt lat="45.02655" lon="5.84557">
        <ele>1427</ele>
        <time>2022-06-05T09:59:26Z</time>
      </trkpt>
      <trkpt lat="45.02656" lon="5.84557">
        <ele>1427</ele>
        <time>2022-06-05T09:59:27Z</time>
      </trkpt>
      <trkpt lat="45.02657" lon="5.84558">
        <ele>1426</ele>
        <time>2022-06-05T09:59:28Z</time>
      </trkpt>
      <trkpt lat="45.02657" lon="5.84559">
        <ele>1426</ele>
        <time>2022-06-05T09:59:29Z</time>
      </trkpt>
      <trkpt lat="45.02657" lon="5.8456">
        <ele>1426</ele>
        <time>2022-06-05T09:59:30Z</time>
      </trkpt>
      <trkpt lat="45.02657" lon="5.84562">
        <ele>1427</ele>
        <time>2022-06-05T09:59:31Z</time>
      </trkpt>
      <trkpt lat="45.02657" lon="5.84563">
        <ele>1426</ele>
        <time>2022-06-05T09:59:32Z</time>
      </trkpt>
      <trkpt lat="45.02657" lon="5.84564">
        <ele>1427</ele>
        <time>2022-06-05T09:59:33Z</time>
      </trkpt>
      <trkpt lat="45.02658" lon="5.84565">
        <ele>1426</ele>
        <time>2022-06-05T09:59:34Z</time>
      </trkpt>
      <trkpt lat="45.02658" lon="5.84567">
        <ele>1427</ele>
        <time>2022-06-05T09:59:35Z</time>
      </trkpt>
      <trkpt lat="45.02658" lon="5.84568">
        <ele>1427</ele>
        <time>2022-06-05T09:59:36Z</time>
      </trkpt>
      <trkpt lat="45.02658" lon="5.84569">
        <ele>1427</ele>
        <time>2022-06-05T09:59:37Z</time>
      </trkpt>
      <trkpt lat="45.02658" lon="5.8457">
        <ele>1428</ele>
        <time>2022-06-05T09:59:38Z</time>
      </trkpt>
      <trkpt lat="45.02658" lon="5.84571">
        <ele>1427</ele>
        <time>2022-06-05T09:59:39Z</time>
      </trkpt>
      <trkpt lat="45.02658" lon="5.84572">
        <ele>1427</ele>
        <time>2022-06-05T09:59:40Z</time>
      </trkpt>
      <trkpt lat="45.02658" lon="5.84573">
        <ele>1427</ele>
        <time>2022-06-05T09:59:41Z</time>
      </trkpt>
      <trkpt lat="45.02658" lon="5.84574">
        <ele>1428</ele>
        <time>2022-06-05T09:59:42Z</time>
      </trkpt>
      <trkpt lat="45.02658" lon="5.84575">
        <ele>1428</ele>
        <time>2022-06-05T09:59:43Z</time>
      </trkpt>
      <trkpt lat="45.02658" lon="5.84576">
        <ele>1427</ele>
        <time>2022-06-05T09:59:44Z</time>
      </trkpt>
      <trkpt lat="45.02659" lon="5.84578">
        <ele>1428</ele>
        <time>2022-06-05T09:59:45Z</time>
      </trkpt>
      <trkpt lat="45.02659" lon="5.84579">
        <ele>1428</ele>
        <time>2022-06-05T09:59:46Z</time>
      </trkpt>
      <trkpt lat="45.02659" lon="5.84581">
        <ele>1428</ele>
        <time>2022-06-05T09:59:47Z</time>
      </trkpt>
      <trkpt lat="45.0266" lon="5.84582">
        <ele>1428</ele>
        <time>2022-06-05T09:59:48Z</time>
      </trkpt>
      <trkpt lat="45.0266" lon="5.84583">
        <ele>1428</ele>
        <time>2022-06-05T09:59:49Z</time>
      </trkpt>
      <trkpt lat="45.0266" lon="5.84585">
        <ele>1429</ele>
        <time>2022-06-05T09:59:50Z</time>
      </trkpt>
      <trkpt lat="45.02661" lon="5.84586">
        <ele>1430</ele>
        <time>2022-06-05T09:59:51Z</time>
      </trkpt>
      <trkpt lat="45.02661" lon="5.84588">
        <ele>1431</ele>
        <time>2022-06-05T09:59:52Z</time>
      </trkpt>
      <trkpt lat="45.02661" lon="5.84589">
        <ele>1430</ele>
        <time>2022-06-05T09:59:53Z</time>
      </trkpt>
      <trkpt lat="45.02661" lon="5.8459">
        <ele>1430</ele>
        <time>2022-06-05T09:59:54Z</time>
      </trkpt>
      <trkpt lat="45.02661" lon="5.84591">
        <ele>1432</ele>
        <time>2022-06-05T09:59:55Z</time>
      </trkpt>
      <trkpt lat="45.02662" lon="5.84592">
        <ele>1432</ele>
        <time>2022-06-05T09:59:56Z</time>
      </trkpt>
      <trkpt lat="45.02662" lon="5.84593">
        <ele>1432</ele>
        <time>2022-06-05T09:59:57Z</time>
      </trkpt>
      <trkpt lat="45.02662" lon="5.84595">
        <ele>1431</ele>
        <time>2022-06-05T09:59:58Z</time>
      </trkpt>
      <trkpt lat="45.02662" lon="5.84596">
        <ele>1430</ele>
        <time>2022-06-05T09:59:59Z</time>
      </trkpt>
      <trkpt lat="45.02663" lon="5.84598">
        <ele>1431</ele>
        <time>2022-06-05T10:00:00Z</time>
      </trkpt>
      <trkpt lat="45.02663" lon="5.84598">
        <ele>1431</ele>
        <time>2022-06-05T10:00:01Z</time>
      </trkpt>
      <trkpt lat="45.02663" lon="5.846">
        <ele>1431</ele>
        <time>2022-06-05T10:00:02Z</time>
      </trkpt>
      <trkpt lat="45.02663" lon="5.84601">
        <ele>1431</ele>
        <time>2022-06-05T10:00:03Z</time>
      </trkpt>
      <trkpt lat="45.02663" lon="5.84603">
        <ele>1431</ele>
        <time>2022-06-05T10:00:04Z</time>
      </trkpt>
      <trkpt lat="45.02663" lon="5.84604">
        <ele>1431</ele>
        <time>2022-06-05T10:00:05Z</time>
      </trkpt>
      <trkpt lat="45.02664" lon="5.84605">
        <ele>1432</ele>
        <time>2022-06-05T10:00:06Z</time>
      </trkpt>
      <trkpt lat="45.02664" lon="5.84606">
        <ele>1432</ele>
        <time>2022-06-05T10:00:07Z</time>
      </trkpt>
      <trkpt lat="45.02664" lon="5.84608">
        <ele>1431</ele>
        <time>2022-06-05T10:00:08Z</time>
      </trkpt>
      <trkpt lat="45.02664" lon="5.8461">
        <ele>1431</ele>
        <time>2022-06-05T10:00:09Z</time>
      </trkpt>
      <trkpt lat="45.02664" lon="5.84611">
        <ele>1432</ele>
        <time>2022-06-05T10:00:10Z</time>
      </trkpt>
      <trkpt lat="45.02665" lon="5.84612">
        <ele>1431</ele>
        <time>2022-06-05T10:00:11Z</time>
      </trkpt>
      <trkpt lat="45.02665" lon="5.84613">
        <ele>1431</ele>
        <time>2022-06-05T10:00:12Z</time>
      </trkpt>
      <trkpt lat="45.02665" lon="5.84614">
        <ele>1431</ele>
        <time>2022-06-05T10:00:13Z</time>
      </trkpt>
      <trkpt lat="45.02666" lon="5.84615">
        <ele>1431</ele>
        <time>2022-06-05T10:00:14Z</time>
      </trkpt>
      <trkpt lat="45.02666" lon="5.84617">
        <ele>1432</ele>
        <time>2022-06-05T10:00:15Z</time>
      </trkpt>
      <trkpt lat="45.02666" lon="5.84618">
        <ele>1432</ele>
        <time>2022-06-05T10:00:16Z</time>
      </trkpt>
      <trkpt lat="45.02667" lon="5.84619">
        <ele>1432</ele>
        <time>2022-06-05T10:00:17Z</time>
      </trkpt>
      <trkpt lat="45.02667" lon="5.8462">
        <ele>1432</ele>
        <time>2022-06-05T10:00:18Z</time>
      </trkpt>
      <trkpt lat="45.02667" lon="5.84621">
        <ele>1432</ele>
        <time>2022-06-05T10:00:19Z</time>
      </trkpt>
      <trkpt lat="45.02667" lon="5.84622">
        <ele>1432</ele>
        <time>2022-06-05T10:00:20Z</time>
      </trkpt>
      <trkpt lat="45.02667" lon="5.84623">
        <ele>1432</ele>
        <time>2022-06-05T10:00:21Z</time>
      </trkpt>
      <trkpt lat="45.02668" lon="5.84623">
        <ele>1432</ele>
        <time>2022-06-05T10:00:22Z</time>
      </trkpt>
      <trkpt lat="45.02668" lon="5.84624">
        <ele>1432</ele>
        <time>2022-06-05T10:00:23Z</time>
      </trkpt>
      <trkpt lat="45.02668" lon="5.84624">
        <ele>1432</ele>
        <time>2022-06-05T10:00:24Z</time>
      </trkpt>
      <trkpt lat="45.02668" lon="5.84625">
        <ele>1433</ele>
        <time>2022-06-05T10:00:25Z</time>
      </trkpt>
      <trkpt lat="45.02668" lon="5.84625">
        <ele>1433</ele>
        <time>2022-06-05T10:00:26Z</time>
      </trkpt>
      <trkpt lat="45.02668" lon="5.84625">
        <ele>1433</ele>
        <time>2022-06-05T10:00:27Z</time>
      </trkpt>
      <trkpt lat="45.02668" lon="5.84624">
        <ele>1433</ele>
        <time>2022-06-05T10:00:28Z</time>
      </trkpt>
      <trkpt lat="45.02668" lon="5.84625">
        <ele>1433</ele>
        <time>2022-06-05T10:00:29Z</time>
      </trkpt>
      <trkpt lat="45.02668" lon="5.84626">
        <ele>1433</ele>
        <time>2022-06-05T10:00:30Z</time>
      </trkpt>
      <trkpt lat="45.02669" lon="5.84627">
        <ele>1434</ele>
        <time>2022-06-05T10:00:31Z</time>
      </trkpt>
      <trkpt lat="45.02669" lon="5.84628">
        <ele>1434</ele>
        <time>2022-06-05T10:00:32Z</time>
      </trkpt>
      <trkpt lat="45.02669" lon="5.84629">
        <ele>1434</ele>
        <time>2022-06-05T10:00:33Z</time>
      </trkpt>
      <trkpt lat="45.0267" lon="5.84629">
        <ele>1435</ele>
        <time>2022-06-05T10:00:34Z</time>
      </trkpt>
      <trkpt lat="45.0267" lon="5.8463">
        <ele>1435</ele>
        <time>2022-06-05T10:00:35Z</time>
      </trkpt>
      <trkpt lat="45.0267" lon="5.8463">
        <ele>1434</ele>
        <time>2022-06-05T10:00:36Z</time>
      </trkpt>
      <trkpt lat="45.0267" lon="5.8463">
        <ele>1434</ele>
        <time>2022-06-05T10:00:37Z</time>
      </trkpt>
      <trkpt lat="45.0267" lon="5.8463">
        <ele>1433</ele>
        <time>2022-06-05T10:00:38Z</time>
      </trkpt>
      <trkpt lat="45.0267" lon="5.84631">
        <ele>1434</ele>
        <time>2022-06-05T10:00:39Z</time>
      </trkpt>
      <trkpt lat="45.02671" lon="5.84633">
        <ele>1434</ele>
        <time>2022-06-05T10:00:40Z</time>
      </trkpt>
      <trkpt lat="45.02671" lon="5.84634">
        <ele>1434</ele>
        <time>2022-06-05T10:00:41Z</time>
      </trkpt>
      <trkpt lat="45.02671" lon="5.84635">
        <ele>1433</ele>
        <time>2022-06-05T10:00:42Z</time>
      </trkpt>
      <trkpt lat="45.02671" lon="5.84637">
        <ele>1434</ele>
        <time>2022-06-05T10:00:43Z</time>
      </trkpt>
      <trkpt lat="45.02672" lon="5.84638">
        <ele>1434</ele>
        <time>2022-06-05T10:00:44Z</time>
      </trkpt>
      <trkpt lat="45.02672" lon="5.84639">
        <ele>1433</ele>
        <time>2022-06-05T10:00:45Z</time>
      </trkpt>
      <trkpt lat="45.02673" lon="5.8464">
        <ele>1433</ele>
        <time>2022-06-05T10:00:46Z</time>
      </trkpt>
      <trkpt lat="45.02673" lon="5.84641">
        <ele>1433</ele>
        <time>2022-06-05T10:00:47Z</time>
      </trkpt>
      <trkpt lat="45.02673" lon="5.84642">
        <ele>1432</ele>
        <time>2022-06-05T10:00:48Z</time>
      </trkpt>
      <trkpt lat="45.02674" lon="5.84643">
        <ele>1432</ele>
        <time>2022-06-05T10:00:49Z</time>
      </trkpt>
      <trkpt lat="45.02674" lon="5.84645">
        <ele>1432</ele>
        <time>2022-06-05T10:00:50Z</time>
      </trkpt>
      <trkpt lat="45.02675" lon="5.84646">
        <ele>1433</ele>
        <time>2022-06-05T10:00:51Z</time>
      </trkpt>
      <trkpt lat="45.02675" lon="5.84647">
        <ele>1433</ele>
        <time>2022-06-05T10:00:52Z</time>
      </trkpt>
      <trkpt lat="45.02675" lon="5.84648">
        <ele>1433</ele>
        <time>2022-06-05T10:00:53Z</time>
      </trkpt>
      <trkpt lat="45.02676" lon="5.8465">
        <ele>1433</ele>
        <time>2022-06-05T10:00:54Z</time>
      </trkpt>
      <trkpt lat="45.02676" lon="5.8465">
        <ele>1433</ele>
        <time>2022-06-05T10:00:55Z</time>
      </trkpt>
      <trkpt lat="45.02676" lon="5.84651">
        <ele>1432</ele>
        <time>2022-06-05T10:00:56Z</time>
      </trkpt>
      <trkpt lat="45.02676" lon="5.84652">
        <ele>1432</ele>
        <time>2022-06-05T10:00:57Z</time>
      </trkpt>
      <trkpt lat="45.02676" lon="5.84653">
        <ele>1432</ele>
        <time>2022-06-05T10:00:58Z</time>
      </trkpt>
      <trkpt lat="45.02677" lon="5.84654">
        <ele>1431</ele>
        <time>2022-06-05T10:00:59Z</time>
      </trkpt>
      <trkpt lat="45.02677" lon="5.84654">
        <ele>1432</ele>
        <time>2022-06-05T10:01:00Z</time>
      </trkpt>
      <trkpt lat="45.02676" lon="5.84654">
        <ele>1433</ele>
        <time>2022-06-05T10:01:01Z</time>
      </trkpt>
      <trkpt lat="45.02676" lon="5.84654">
        <ele>1435</ele>
        <time>2022-06-05T10:01:02Z</time>
      </trkpt>
      <trkpt lat="45.02676" lon="5.84654">
        <ele>1435</ele>
        <time>2022-06-05T10:01:03Z</time>
      </trkpt>
      <trkpt lat="45.02676" lon="5.84654">
        <ele>1435</ele>
        <time>2022-06-05T10:01:03Z</time>
      </trkpt>
      <trkpt lat="45.02676" lon="5.84654">
        <ele>1435</ele>
        <time>2022-06-05T10:01:03Z</time>
      </trkpt>
      <trkpt lat="45.02678" lon="5.8466">
        <ele>1435</ele>
        <time>2022-06-05T10:01:13Z</time>
      </trkpt>
      <trkpt lat="45.02678" lon="5.84662">
        <ele>1435</ele>
        <time>2022-06-05T10:01:14Z</time>
      </trkpt>
      <trkpt lat="45.02678" lon="5.84662">
        <ele>1435</ele>
        <time>2022-06-05T10:01:15Z</time>
      </trkpt>
      <trkpt lat="45.02679" lon="5.84663">
        <ele>1435</ele>
        <time>2022-06-05T10:01:16Z</time>
      </trkpt>
      <trkpt lat="45.02679" lon="5.84664">
        <ele>1435</ele>
        <time>2022-06-05T10:01:17Z</time>
      </trkpt>
      <trkpt lat="45.0268" lon="5.84665">
        <ele>1435</ele>
        <time>2022-06-05T10:01:18Z</time>
      </trkpt>
      <trkpt lat="45.0268" lon="5.84666">
        <ele>1435</ele>
        <time>2022-06-05T10:01:19Z</time>
      </trkpt>
      <trkpt lat="45.02681" lon="5.84667">
        <ele>1435</ele>
        <time>2022-06-05T10:01:20Z</time>
      </trkpt>
      <trkpt lat="45.02681" lon="5.84668">
        <ele>1435</ele>
        <time>2022-06-05T10:01:21Z</time>
      </trkpt>
      <trkpt lat="45.02681" lon="5.84669">
        <ele>1434</ele>
        <time>2022-06-05T10:01:22Z</time>
      </trkpt>
      <trkpt lat="45.02681" lon="5.8467">
        <ele>1434</ele>
        <time>2022-06-05T10:01:23Z</time>
      </trkpt>
      <trkpt lat="45.02681" lon="5.84671">
        <ele>1435</ele>
        <time>2022-06-05T10:01:24Z</time>
      </trkpt>
      <trkpt lat="45.02681" lon="5.84673">
        <ele>1435</ele>
        <time>2022-06-05T10:01:25Z</time>
      </trkpt>
      <trkpt lat="45.02681" lon="5.84674">
        <ele>1435</ele>
        <time>2022-06-05T10:01:26Z</time>
      </trkpt>
      <trkpt lat="45.02681" lon="5.84676">
        <ele>1435</ele>
        <time>2022-06-05T10:01:27Z</time>
      </trkpt>
      <trkpt lat="45.02681" lon="5.84677">
        <ele>1435</ele>
        <time>2022-06-05T10:01:28Z</time>
      </trkpt>
      <trkpt lat="45.02681" lon="5.84679">
        <ele>1435</ele>
        <time>2022-06-05T10:01:29Z</time>
      </trkpt>
      <trkpt lat="45.02681" lon="5.8468">
        <ele>1435</ele>
        <time>2022-06-05T10:01:30Z</time>
      </trkpt>
      <trkpt lat="45.02682" lon="5.84681">
        <ele>1435</ele>
        <time>2022-06-05T10:01:31Z</time>
      </trkpt>
      <trkpt lat="45.02683" lon="5.84682">
        <ele>1435</ele>
        <time>2022-06-05T10:01:32Z</time>
      </trkpt>
      <trkpt lat="45.02683" lon="5.84683">
        <ele>1435</ele>
        <time>2022-06-05T10:01:33Z</time>
      </trkpt>
      <trkpt lat="45.02683" lon="5.84685">
        <ele>1435</ele>
        <time>2022-06-05T10:01:34Z</time>
      </trkpt>
      <trkpt lat="45.02683" lon="5.84686">
        <ele>1435</ele>
        <time>2022-06-05T10:01:35Z</time>
      </trkpt>
      <trkpt lat="45.02684" lon="5.84687">
        <ele>1435</ele>
        <time>2022-06-05T10:01:36Z</time>
      </trkpt>
      <trkpt lat="45.02684" lon="5.84689">
        <ele>1435</ele>
        <time>2022-06-05T10:01:37Z</time>
      </trkpt>
      <trkpt lat="45.02684" lon="5.84689">
        <ele>1435</ele>
        <time>2022-06-05T10:01:38Z</time>
      </trkpt>
      <trkpt lat="45.02684" lon="5.84691">
        <ele>1435</ele>
        <time>2022-06-05T10:01:39Z</time>
      </trkpt>
      <trkpt lat="45.02685" lon="5.84692">
        <ele>1435</ele>
        <time>2022-06-05T10:01:40Z</time>
      </trkpt>
      <trkpt lat="45.02685" lon="5.84693">
        <ele>1435</ele>
        <time>2022-06-05T10:01:41Z</time>
      </trkpt>
      <trkpt lat="45.02685" lon="5.84694">
        <ele>1435</ele>
        <time>2022-06-05T10:01:42Z</time>
      </trkpt>
      <trkpt lat="45.02685" lon="5.84696">
        <ele>1435</ele>
        <time>2022-06-05T10:01:43Z</time>
      </trkpt>
      <trkpt lat="45.02686" lon="5.84697">
        <ele>1435</ele>
        <time>2022-06-05T10:01:44Z</time>
      </trkpt>
      <trkpt lat="45.02686" lon="5.84699">
        <ele>1435</ele>
        <time>2022-06-05T10:01:45Z</time>
      </trkpt>
      <trkpt lat="45.02686" lon="5.847">
        <ele>1436</ele>
        <time>2022-06-05T10:01:46Z</time>
      </trkpt>
      <trkpt lat="45.02686" lon="5.84701">
        <ele>1435</ele>
        <time>2022-06-05T10:01:47Z</time>
      </trkpt>
      <trkpt lat="45.02687" lon="5.84702">
        <ele>1436</ele>
        <time>2022-06-05T10:01:48Z</time>
      </trkpt>
      <trkpt lat="45.02687" lon="5.84704">
        <ele>1436</ele>
        <time>2022-06-05T10:01:49Z</time>
      </trkpt>
      <trkpt lat="45.02687" lon="5.84705">
        <ele>1436</ele>
        <time>2022-06-05T10:01:50Z</time>
      </trkpt>
      <trkpt lat="45.02687" lon="5.84707">
        <ele>1436</ele>
        <time>2022-06-05T10:01:51Z</time>
      </trkpt>
      <trkpt lat="45.02687" lon="5.84708">
        <ele>1436</ele>
        <time>2022-06-05T10:01:52Z</time>
      </trkpt>
      <trkpt lat="45.02688" lon="5.84709">
        <ele>1437</ele>
        <time>2022-06-05T10:01:53Z</time>
      </trkpt>
      <trkpt lat="45.02688" lon="5.8471">
        <ele>1436</ele>
        <time>2022-06-05T10:01:54Z</time>
      </trkpt>
      <trkpt lat="45.02688" lon="5.84712">
        <ele>1436</ele>
        <time>2022-06-05T10:01:55Z</time>
      </trkpt>
      <trkpt lat="45.02688" lon="5.84713">
        <ele>1435</ele>
        <time>2022-06-05T10:01:56Z</time>
      </trkpt>
      <trkpt lat="45.02689" lon="5.84714">
        <ele>1435</ele>
        <time>2022-06-05T10:01:57Z</time>
      </trkpt>
      <trkpt lat="45.02689" lon="5.84716">
        <ele>1435</ele>
        <time>2022-06-05T10:01:58Z</time>
      </trkpt>
      <trkpt lat="45.0269" lon="5.84718">
        <ele>1434</ele>
        <time>2022-06-05T10:01:59Z</time>
      </trkpt>
      <trkpt lat="45.0269" lon="5.84719">
        <ele>1435</ele>
        <time>2022-06-05T10:02:00Z</time>
      </trkpt>
      <trkpt lat="45.0269" lon="5.8472">
        <ele>1435</ele>
        <time>2022-06-05T10:02:01Z</time>
      </trkpt>
      <trkpt lat="45.0269" lon="5.8472">
        <ele>1435</ele>
        <time>2022-06-05T10:02:02Z</time>
      </trkpt>
      <trkpt lat="45.02691" lon="5.84722">
        <ele>1435</ele>
        <time>2022-06-05T10:02:03Z</time>
      </trkpt>
      <trkpt lat="45.02691" lon="5.84723">
        <ele>1435</ele>
        <time>2022-06-05T10:02:04Z</time>
      </trkpt>
      <trkpt lat="45.02691" lon="5.84725">
        <ele>1434</ele>
        <time>2022-06-05T10:02:05Z</time>
      </trkpt>
      <trkpt lat="45.02691" lon="5.84726">
        <ele>1434</ele>
        <time>2022-06-05T10:02:06Z</time>
      </trkpt>
      <trkpt lat="45.02691" lon="5.84728">
        <ele>1434</ele>
        <time>2022-06-05T10:02:07Z</time>
      </trkpt>
      <trkpt lat="45.02691" lon="5.84729">
        <ele>1435</ele>
        <time>2022-06-05T10:02:08Z</time>
      </trkpt>
      <trkpt lat="45.02692" lon="5.8473">
        <ele>1435</ele>
        <time>2022-06-05T10:02:09Z</time>
      </trkpt>
      <trkpt lat="45.02692" lon="5.84732">
        <ele>1435</ele>
        <time>2022-06-05T10:02:10Z</time>
      </trkpt>
      <trkpt lat="45.02692" lon="5.84733">
        <ele>1435</ele>
        <time>2022-06-05T10:02:11Z</time>
      </trkpt>
      <trkpt lat="45.02692" lon="5.84734">
        <ele>1436</ele>
        <time>2022-06-05T10:02:12Z</time>
      </trkpt>
      <trkpt lat="45.02693" lon="5.84735">
        <ele>1435</ele>
        <time>2022-06-05T10:02:13Z</time>
      </trkpt>
      <trkpt lat="45.02693" lon="5.84736">
        <ele>1436</ele>
        <time>2022-06-05T10:02:14Z</time>
      </trkpt>
      <trkpt lat="45.02693" lon="5.84738">
        <ele>1436</ele>
        <time>2022-06-05T10:02:15Z</time>
      </trkpt>
      <trkpt lat="45.02694" lon="5.84739">
        <ele>1436</ele>
        <time>2022-06-05T10:02:16Z</time>
      </trkpt>
      <trkpt lat="45.02694" lon="5.8474">
        <ele>1436</ele>
        <time>2022-06-05T10:02:17Z</time>
      </trkpt>
      <trkpt lat="45.02694" lon="5.84742">
        <ele>1436</ele>
        <time>2022-06-05T10:02:18Z</time>
      </trkpt>
      <trkpt lat="45.02694" lon="5.84743">
        <ele>1436</ele>
        <time>2022-06-05T10:02:19Z</time>
      </trkpt>
      <trkpt lat="45.02694" lon="5.84744">
        <ele>1436</ele>
        <time>2022-06-05T10:02:20Z</time>
      </trkpt>
      <trkpt lat="45.02694" lon="5.84745">
        <ele>1436</ele>
        <time>2022-06-05T10:02:21Z</time>
      </trkpt>
      <trkpt lat="45.02694" lon="5.84747">
        <ele>1436</ele>
        <time>2022-06-05T10:02:22Z</time>
      </trkpt>
      <trkpt lat="45.02694" lon="5.84748">
        <ele>1436</ele>
        <time>2022-06-05T10:02:23Z</time>
      </trkpt>
      <trkpt lat="45.02694" lon="5.84748">
        <ele>1437</ele>
        <time>2022-06-05T10:02:24Z</time>
      </trkpt>
      <trkpt lat="45.02694" lon="5.84749">
        <ele>1436</ele>
        <time>2022-06-05T10:02:25Z</time>
      </trkpt>
      <trkpt lat="45.02695" lon="5.84751">
        <ele>1436</ele>
        <time>2022-06-05T10:02:26Z</time>
      </trkpt>
      <trkpt lat="45.02695" lon="5.84752">
        <ele>1436</ele>
        <time>2022-06-05T10:02:27Z</time>
      </trkpt>
      <trkpt lat="45.02695" lon="5.84754">
        <ele>1436</ele>
        <time>2022-06-05T10:02:28Z</time>
      </trkpt>
      <trkpt lat="45.02695" lon="5.84755">
        <ele>1437</ele>
        <time>2022-06-05T10:02:29Z</time>
      </trkpt>
      <trkpt lat="45.02695" lon="5.84756">
        <ele>1437</ele>
        <time>2022-06-05T10:02:30Z</time>
      </trkpt>
      <trkpt lat="45.02696" lon="5.84758">
        <ele>1438</ele>
        <time>2022-06-05T10:02:31Z</time>
      </trkpt>
      <trkpt lat="45.02696" lon="5.84759">
        <ele>1438</ele>
        <time>2022-06-05T10:02:32Z</time>
      </trkpt>
      <trkpt lat="45.02696" lon="5.8476">
        <ele>1439</ele>
        <time>2022-06-05T10:02:33Z</time>
      </trkpt>
      <trkpt lat="45.02696" lon="5.8476">
        <ele>1439</ele>
        <time>2022-06-05T10:02:34Z</time>
      </trkpt>
      <trkpt lat="45.02697" lon="5.84762">
        <ele>1439</ele>
        <time>2022-06-05T10:02:35Z</time>
      </trkpt>
      <trkpt lat="45.02697" lon="5.84762">
        <ele>1438</ele>
        <time>2022-06-05T10:02:36Z</time>
      </trkpt>
      <trkpt lat="45.02697" lon="5.84764">
        <ele>1439</ele>
        <time>2022-06-05T10:02:37Z</time>
      </trkpt>
      <trkpt lat="45.02697" lon="5.84765">
        <ele>1439</ele>
        <time>2022-06-05T10:02:38Z</time>
      </trkpt>
      <trkpt lat="45.02698" lon="5.84767">
        <ele>1438</ele>
        <time>2022-06-05T10:02:39Z</time>
      </trkpt>
      <trkpt lat="45.02698" lon="5.84768">
        <ele>1438</ele>
        <time>2022-06-05T10:02:40Z</time>
      </trkpt>
      <trkpt lat="45.02698" lon="5.8477">
        <ele>1438</ele>
        <time>2022-06-05T10:02:41Z</time>
      </trkpt>
      <trkpt lat="45.02697" lon="5.84772">
        <ele>1438</ele>
        <time>2022-06-05T10:02:42Z</time>
      </trkpt>
      <trkpt lat="45.02697" lon="5.84774">
        <ele>1437</ele>
        <time>2022-06-05T10:02:43Z</time>
      </trkpt>
      <trkpt lat="45.02697" lon="5.84775">
        <ele>1437</ele>
        <time>2022-06-05T10:02:44Z</time>
      </trkpt>
      <trkpt lat="45.02697" lon="5.84777">
        <ele>1437</ele>
        <time>2022-06-05T10:02:45Z</time>
      </trkpt>
      <trkpt lat="45.02697" lon="5.84779">
        <ele>1437</ele>
        <time>2022-06-05T10:02:46Z</time>
      </trkpt>
      <trkpt lat="45.02697" lon="5.84781">
        <ele>1437</ele>
        <time>2022-06-05T10:02:47Z</time>
      </trkpt>
      <trkpt lat="45.02698" lon="5.84782">
        <ele>1437</ele>
        <time>2022-06-05T10:02:48Z</time>
      </trkpt>
      <trkpt lat="45.02698" lon="5.84783">
        <ele>1437</ele>
        <time>2022-06-05T10:02:49Z</time>
      </trkpt>
      <trkpt lat="45.02699" lon="5.84784">
        <ele>1437</ele>
        <time>2022-06-05T10:02:50Z</time>
      </trkpt>
      <trkpt lat="45.02699" lon="5.84784">
        <ele>1437</ele>
        <time>2022-06-05T10:02:51Z</time>
      </trkpt>
      <trkpt lat="45.027" lon="5.84785">
        <ele>1437</ele>
        <time>2022-06-05T10:02:52Z</time>
      </trkpt>
      <trkpt lat="45.027" lon="5.84787">
        <ele>1437</ele>
        <time>2022-06-05T10:02:53Z</time>
      </trkpt>
      <trkpt lat="45.027" lon="5.84788">
        <ele>1436</ele>
        <time>2022-06-05T10:02:54Z</time>
      </trkpt>
      <trkpt lat="45.027" lon="5.8479">
        <ele>1436</ele>
        <time>2022-06-05T10:02:55Z</time>
      </trkpt>
      <trkpt lat="45.027" lon="5.84791">
        <ele>1436</ele>
        <time>2022-06-05T10:02:56Z</time>
      </trkpt>
      <trkpt lat="45.027" lon="5.84792">
        <ele>1437</ele>
        <time>2022-06-05T10:02:57Z</time>
      </trkpt>
      <trkpt lat="45.027" lon="5.84793">
        <ele>1437</ele>
        <time>2022-06-05T10:02:58Z</time>
      </trkpt>
      <trkpt lat="45.027" lon="5.84794">
        <ele>1437</ele>
        <time>2022-06-05T10:02:59Z</time>
      </trkpt>
      <trkpt lat="45.02701" lon="5.84795">
        <ele>1438</ele>
        <time>2022-06-05T10:03:00Z</time>
      </trkpt>
      <trkpt lat="45.02701" lon="5.84797">
        <ele>1437</ele>
        <time>2022-06-05T10:03:01Z</time>
      </trkpt>
      <trkpt lat="45.02701" lon="5.84798">
        <ele>1438</ele>
        <time>2022-06-05T10:03:02Z</time>
      </trkpt>
      <trkpt lat="45.02701" lon="5.848">
        <ele>1438</ele>
        <time>2022-06-05T10:03:03Z</time>
      </trkpt>
      <trkpt lat="45.02701" lon="5.84802">
        <ele>1438</ele>
        <time>2022-06-05T10:03:04Z</time>
      </trkpt>
      <trkpt lat="45.02701" lon="5.84803">
        <ele>1438</ele>
        <time>2022-06-05T10:03:05Z</time>
      </trkpt>
      <trkpt lat="45.02701" lon="5.84804">
        <ele>1438</ele>
        <time>2022-06-05T10:03:06Z</time>
      </trkpt>
      <trkpt lat="45.02701" lon="5.84806">
        <ele>1438</ele>
        <time>2022-06-05T10:03:07Z</time>
      </trkpt>
      <trkpt lat="45.02701" lon="5.84807">
        <ele>1438</ele>
        <time>2022-06-05T10:03:08Z</time>
      </trkpt>
      <trkpt lat="45.02701" lon="5.84808">
        <ele>1437</ele>
        <time>2022-06-05T10:03:09Z</time>
      </trkpt>
      <trkpt lat="45.02701" lon="5.84809">
        <ele>1437</ele>
        <time>2022-06-05T10:03:10Z</time>
      </trkpt>
      <trkpt lat="45.02702" lon="5.8481">
        <ele>1437</ele>
        <time>2022-06-05T10:03:11Z</time>
      </trkpt>
      <trkpt lat="45.02702" lon="5.84811">
        <ele>1438</ele>
        <time>2022-06-05T10:03:12Z</time>
      </trkpt>
      <trkpt lat="45.02702" lon="5.84813">
        <ele>1438</ele>
        <time>2022-06-05T10:03:13Z</time>
      </trkpt>
      <trkpt lat="45.02702" lon="5.84815">
        <ele>1438</ele>
        <time>2022-06-05T10:03:14Z</time>
      </trkpt>
      <trkpt lat="45.02702" lon="5.84817">
        <ele>1437</ele>
        <time>2022-06-05T10:03:15Z</time>
      </trkpt>
      <trkpt lat="45.02702" lon="5.84818">
        <ele>1437</ele>
        <time>2022-06-05T10:03:16Z</time>
      </trkpt>
      <trkpt lat="45.02702" lon="5.84819">
        <ele>1438</ele>
        <time>2022-06-05T10:03:17Z</time>
      </trkpt>
      <trkpt lat="45.02702" lon="5.84821">
        <ele>1438</ele>
        <time>2022-06-05T10:03:18Z</time>
      </trkpt>
      <trkpt lat="45.02701" lon="5.84823">
        <ele>1439</ele>
        <time>2022-06-05T10:03:19Z</time>
      </trkpt>
      <trkpt lat="45.02701" lon="5.84824">
        <ele>1439</ele>
        <time>2022-06-05T10:03:20Z</time>
      </trkpt>
      <trkpt lat="45.02701" lon="5.84826">
        <ele>1440</ele>
        <time>2022-06-05T10:03:21Z</time>
      </trkpt>
      <trkpt lat="45.02701" lon="5.84827">
        <ele>1440</ele>
        <time>2022-06-05T10:03:22Z</time>
      </trkpt>
      <trkpt lat="45.02701" lon="5.84829">
        <ele>1441</ele>
        <time>2022-06-05T10:03:23Z</time>
      </trkpt>
      <trkpt lat="45.027" lon="5.8483">
        <ele>1441</ele>
        <time>2022-06-05T10:03:24Z</time>
      </trkpt>
      <trkpt lat="45.02701" lon="5.84832">
        <ele>1442</ele>
        <time>2022-06-05T10:03:25Z</time>
      </trkpt>
      <trkpt lat="45.02701" lon="5.84833">
        <ele>1441</ele>
        <time>2022-06-05T10:03:26Z</time>
      </trkpt>
      <trkpt lat="45.02701" lon="5.84833">
        <ele>1442</ele>
        <time>2022-06-05T10:03:27Z</time>
      </trkpt>
      <trkpt lat="45.02702" lon="5.84834">
        <ele>1442</ele>
        <time>2022-06-05T10:03:28Z</time>
      </trkpt>
      <trkpt lat="45.02702" lon="5.84836">
        <ele>1442</ele>
        <time>2022-06-05T10:03:29Z</time>
      </trkpt>
      <trkpt lat="45.02702" lon="5.84837">
        <ele>1442</ele>
        <time>2022-06-05T10:03:30Z</time>
      </trkpt>
      <trkpt lat="45.02703" lon="5.84838">
        <ele>1442</ele>
        <time>2022-06-05T10:03:31Z</time>
      </trkpt>
      <trkpt lat="45.02703" lon="5.8484">
        <ele>1441</ele>
        <time>2022-06-05T10:03:32Z</time>
      </trkpt>
      <trkpt lat="45.02703" lon="5.84842">
        <ele>1442</ele>
        <time>2022-06-05T10:03:33Z</time>
      </trkpt>
      <trkpt lat="45.02703" lon="5.84843">
        <ele>1442</ele>
        <time>2022-06-05T10:03:34Z</time>
      </trkpt>
      <trkpt lat="45.02703" lon="5.84844">
        <ele>1442</ele>
        <time>2022-06-05T10:03:35Z</time>
      </trkpt>
      <trkpt lat="45.02704" lon="5.84845">
        <ele>1442</ele>
        <time>2022-06-05T10:03:36Z</time>
      </trkpt>
      <trkpt lat="45.02704" lon="5.84846">
        <ele>1442</ele>
        <time>2022-06-05T10:03:37Z</time>
      </trkpt>
      <trkpt lat="45.02704" lon="5.84847">
        <ele>1442</ele>
        <time>2022-06-05T10:03:38Z</time>
      </trkpt>
      <trkpt lat="45.02705" lon="5.84848">
        <ele>1442</ele>
        <time>2022-06-05T10:03:39Z</time>
      </trkpt>
      <trkpt lat="45.02706" lon="5.84847">
        <ele>1442</ele>
        <time>2022-06-05T10:03:40Z</time>
      </trkpt>
      <trkpt lat="45.02706" lon="5.84848">
        <ele>1441</ele>
        <time>2022-06-05T10:03:41Z</time>
      </trkpt>
      <trkpt lat="45.02706" lon="5.84849">
        <ele>1441</ele>
        <time>2022-06-05T10:03:42Z</time>
      </trkpt>
      <trkpt lat="45.02707" lon="5.8485">
        <ele>1441</ele>
        <time>2022-06-05T10:03:43Z</time>
      </trkpt>
      <trkpt lat="45.02707" lon="5.84851">
        <ele>1440</ele>
        <time>2022-06-05T10:03:44Z</time>
      </trkpt>
      <trkpt lat="45.02707" lon="5.84851">
        <ele>1440</ele>
        <time>2022-06-05T10:03:45Z</time>
      </trkpt>
      <trkpt lat="45.02707" lon="5.84852">
        <ele>1441</ele>
        <time>2022-06-05T10:03:46Z</time>
      </trkpt>
      <trkpt lat="45.02707" lon="5.84853">
        <ele>1441</ele>
        <time>2022-06-05T10:03:47Z</time>
      </trkpt>
      <trkpt lat="45.02708" lon="5.84854">
        <ele>1441</ele>
        <time>2022-06-05T10:03:48Z</time>
      </trkpt>
      <trkpt lat="45.02708" lon="5.84855">
        <ele>1441</ele>
        <time>2022-06-05T10:03:49Z</time>
      </trkpt>
      <trkpt lat="45.02708" lon="5.84856">
        <ele>1440</ele>
        <time>2022-06-05T10:03:50Z</time>
      </trkpt>
      <trkpt lat="45.02708" lon="5.84857">
        <ele>1441</ele>
        <time>2022-06-05T10:03:51Z</time>
      </trkpt>
      <trkpt lat="45.02708" lon="5.84858">
        <ele>1440</ele>
        <time>2022-06-05T10:03:52Z</time>
      </trkpt>
      <trkpt lat="45.02708" lon="5.8486">
        <ele>1440</ele>
        <time>2022-06-05T10:03:53Z</time>
      </trkpt>
      <trkpt lat="45.02709" lon="5.84861">
        <ele>1440</ele>
        <time>2022-06-05T10:03:54Z</time>
      </trkpt>
      <trkpt lat="45.02709" lon="5.84862">
        <ele>1440</ele>
        <time>2022-06-05T10:03:55Z</time>
      </trkpt>
      <trkpt lat="45.02709" lon="5.84864">
        <ele>1440</ele>
        <time>2022-06-05T10:03:56Z</time>
      </trkpt>
      <trkpt lat="45.02709" lon="5.84865">
        <ele>1440</ele>
        <time>2022-06-05T10:03:57Z</time>
      </trkpt>
      <trkpt lat="45.02708" lon="5.84866">
        <ele>1440</ele>
        <time>2022-06-05T10:03:58Z</time>
      </trkpt>
      <trkpt lat="45.02708" lon="5.84868">
        <ele>1440</ele>
        <time>2022-06-05T10:03:59Z</time>
      </trkpt>
      <trkpt lat="45.02708" lon="5.84869">
        <ele>1440</ele>
        <time>2022-06-05T10:04:00Z</time>
      </trkpt>
      <trkpt lat="45.02708" lon="5.8487">
        <ele>1440</ele>
        <time>2022-06-05T10:04:01Z</time>
      </trkpt>
      <trkpt lat="45.02709" lon="5.84871">
        <ele>1440</ele>
        <time>2022-06-05T10:04:02Z</time>
      </trkpt>
      <trkpt lat="45.02709" lon="5.84872">
        <ele>1439</ele>
        <time>2022-06-05T10:04:03Z</time>
      </trkpt>
      <trkpt lat="45.02709" lon="5.84873">
        <ele>1439</ele>
        <time>2022-06-05T10:04:04Z</time>
      </trkpt>
      <trkpt lat="45.02709" lon="5.84875">
        <ele>1439</ele>
        <time>2022-06-05T10:04:05Z</time>
      </trkpt>
      <trkpt lat="45.02709" lon="5.84875">
        <ele>1440</ele>
        <time>2022-06-05T10:04:06Z</time>
      </trkpt>
      <trkpt lat="45.02709" lon="5.84877">
        <ele>1441</ele>
        <time>2022-06-05T10:04:07Z</time>
      </trkpt>
      <trkpt lat="45.02708" lon="5.84878">
        <ele>1441</ele>
        <time>2022-06-05T10:04:08Z</time>
      </trkpt>
      <trkpt lat="45.02708" lon="5.84879">
        <ele>1441</ele>
        <time>2022-06-05T10:04:09Z</time>
      </trkpt>
      <trkpt lat="45.02708" lon="5.84879">
        <ele>1441</ele>
        <time>2022-06-05T10:04:10Z</time>
      </trkpt>
      <trkpt lat="45.02708" lon="5.84879">
        <ele>1440</ele>
        <time>2022-06-05T10:04:11Z</time>
      </trkpt>
      <trkpt lat="45.02708" lon="5.84879">
        <ele>1438</ele>
        <time>2022-06-05T10:04:12Z</time>
      </trkpt>
      <trkpt lat="45.02708" lon="5.84879">
        <ele>1438</ele>
        <time>2022-06-05T10:04:13Z</time>
      </trkpt>
      <trkpt lat="45.02709" lon="5.84881">
        <ele>1437</ele>
        <time>2022-06-05T10:04:14Z</time>
      </trkpt>
      <trkpt lat="45.02709" lon="5.84882">
        <ele>1437</ele>
        <time>2022-06-05T10:04:15Z</time>
      </trkpt>
      <trkpt lat="45.0271" lon="5.84883">
        <ele>1437</ele>
        <time>2022-06-05T10:04:16Z</time>
      </trkpt>
      <trkpt lat="45.0271" lon="5.84884">
        <ele>1438</ele>
        <time>2022-06-05T10:04:17Z</time>
      </trkpt>
      <trkpt lat="45.0271" lon="5.84884">
        <ele>1438</ele>
        <time>2022-06-05T10:04:18Z</time>
      </trkpt>
      <trkpt lat="45.02711" lon="5.84885">
        <ele>1439</ele>
        <time>2022-06-05T10:04:19Z</time>
      </trkpt>
      <trkpt lat="45.02711" lon="5.84885">
        <ele>1439</ele>
        <time>2022-06-05T10:04:20Z</time>
      </trkpt>
      <trkpt lat="45.02711" lon="5.84885">
        <ele>1439</ele>
        <time>2022-06-05T10:04:21Z</time>
      </trkpt>
      <trkpt lat="45.02712" lon="5.84888">
        <ele>1438</ele>
        <time>2022-06-05T10:04:22Z</time>
      </trkpt>
      <trkpt lat="45.02712" lon="5.8489">
        <ele>1438</ele>
        <time>2022-06-05T10:04:23Z</time>
      </trkpt>
      <trkpt lat="45.02712" lon="5.84892">
        <ele>1438</ele>
        <time>2022-06-05T10:04:24Z</time>
      </trkpt>
      <trkpt lat="45.02712" lon="5.84893">
        <ele>1438</ele>
        <time>2022-06-05T10:04:25Z</time>
      </trkpt>
      <trkpt lat="45.02711" lon="5.84894">
        <ele>1438</ele>
        <time>2022-06-05T10:04:26Z</time>
      </trkpt>
      <trkpt lat="45.02711" lon="5.84894">
        <ele>1439</ele>
        <time>2022-06-05T10:04:27Z</time>
      </trkpt>
      <trkpt lat="45.02711" lon="5.84894">
        <ele>1439</ele>
        <time>2022-06-05T10:04:28Z</time>
      </trkpt>
      <trkpt lat="45.02711" lon="5.84894">
        <ele>1439</ele>
        <time>2022-06-05T10:04:29Z</time>
      </trkpt>
      <trkpt lat="45.02712" lon="5.84893">
        <ele>1438</ele>
        <time>2022-06-05T10:04:30Z</time>
      </trkpt>
      <trkpt lat="45.02712" lon="5.84893">
        <ele>1438</ele>
        <time>2022-06-05T10:04:30Z</time>
      </trkpt>
      <trkpt lat="45.02712" lon="5.84893">
        <ele>1438</ele>
        <time>2022-06-05T10:04:30Z</time>
      </trkpt>
      <trkpt lat="45.02715" lon="5.84897">
        <ele>1438</ele>
        <time>2022-06-05T10:04:47Z</time>
      </trkpt>
      <trkpt lat="45.02715" lon="5.84898">
        <ele>1438</ele>
        <time>2022-06-05T10:04:48Z</time>
      </trkpt>
      <trkpt lat="45.02715" lon="5.84899">
        <ele>1438</ele>
        <time>2022-06-05T10:04:49Z</time>
      </trkpt>
      <trkpt lat="45.02716" lon="5.849">
        <ele>1439</ele>
        <time>2022-06-05T10:04:50Z</time>
      </trkpt>
      <trkpt lat="45.02716" lon="5.84902">
        <ele>1439</ele>
        <time>2022-06-05T10:04:51Z</time>
      </trkpt>
      <trkpt lat="45.02717" lon="5.84903">
        <ele>1440</ele>
        <time>2022-06-05T10:04:52Z</time>
      </trkpt>
      <trkpt lat="45.02718" lon="5.84904">
        <ele>1440</ele>
        <time>2022-06-05T10:04:53Z</time>
      </trkpt>
      <trkpt lat="45.02718" lon="5.84904">
        <ele>1441</ele>
        <time>2022-06-05T10:04:54Z</time>
      </trkpt>
      <trkpt lat="45.02718" lon="5.84904">
        <ele>1441</ele>
        <time>2022-06-05T10:04:55Z</time>
      </trkpt>
      <trkpt lat="45.02718" lon="5.84904">
        <ele>1441</ele>
        <time>2022-06-05T10:04:56Z</time>
      </trkpt>
      <trkpt lat="45.02719" lon="5.84904">
        <ele>1441</ele>
        <time>2022-06-05T10:04:57Z</time>
      </trkpt>
      <trkpt lat="45.0272" lon="5.84905">
        <ele>1441</ele>
        <time>2022-06-05T10:04:58Z</time>
      </trkpt>
      <trkpt lat="45.0272" lon="5.84906">
        <ele>1441</ele>
        <time>2022-06-05T10:04:59Z</time>
      </trkpt>
      <trkpt lat="45.0272" lon="5.84907">
        <ele>1441</ele>
        <time>2022-06-05T10:05:00Z</time>
      </trkpt>
      <trkpt lat="45.0272" lon="5.84909">
        <ele>1441</ele>
        <time>2022-06-05T10:05:01Z</time>
      </trkpt>
      <trkpt lat="45.02721" lon="5.8491">
        <ele>1441</ele>
        <time>2022-06-05T10:05:02Z</time>
      </trkpt>
      <trkpt lat="45.02721" lon="5.84911">
        <ele>1441</ele>
        <time>2022-06-05T10:05:03Z</time>
      </trkpt>
      <trkpt lat="45.02721" lon="5.84912">
        <ele>1441</ele>
        <time>2022-06-05T10:05:04Z</time>
      </trkpt>
      <trkpt lat="45.02721" lon="5.84914">
        <ele>1441</ele>
        <time>2022-06-05T10:05:05Z</time>
      </trkpt>
      <trkpt lat="45.02721" lon="5.84915">
        <ele>1441</ele>
        <time>2022-06-05T10:05:06Z</time>
      </trkpt>
      <trkpt lat="45.02721" lon="5.84917">
        <ele>1442</ele>
        <time>2022-06-05T10:05:07Z</time>
      </trkpt>
      <trkpt lat="45.02722" lon="5.84918">
        <ele>1442</ele>
        <time>2022-06-05T10:05:08Z</time>
      </trkpt>
      <trkpt lat="45.02722" lon="5.84919">
        <ele>1442</ele>
        <time>2022-06-05T10:05:09Z</time>
      </trkpt>
      <trkpt lat="45.02723" lon="5.8492">
        <ele>1442</ele>
        <time>2022-06-05T10:05:10Z</time>
      </trkpt>
      <trkpt lat="45.02723" lon="5.84921">
        <ele>1442</ele>
        <time>2022-06-05T10:05:11Z</time>
      </trkpt>
      <trkpt lat="45.02723" lon="5.84923">
        <ele>1443</ele>
        <time>2022-06-05T10:05:12Z</time>
      </trkpt>
      <trkpt lat="45.02724" lon="5.84924">
        <ele>1443</ele>
        <time>2022-06-05T10:05:13Z</time>
      </trkpt>
      <trkpt lat="45.02724" lon="5.84925">
        <ele>1443</ele>
        <time>2022-06-05T10:05:14Z</time>
      </trkpt>
      <trkpt lat="45.02725" lon="5.84927">
        <ele>1442</ele>
        <time>2022-06-05T10:05:15Z</time>
      </trkpt>
      <trkpt lat="45.02725" lon="5.84928">
        <ele>1442</ele>
        <time>2022-06-05T10:05:16Z</time>
      </trkpt>
      <trkpt lat="45.02725" lon="5.8493">
        <ele>1442</ele>
        <time>2022-06-05T10:05:17Z</time>
      </trkpt>
      <trkpt lat="45.02725" lon="5.84931">
        <ele>1442</ele>
        <time>2022-06-05T10:05:18Z</time>
      </trkpt>
      <trkpt lat="45.02726" lon="5.84932">
        <ele>1442</ele>
        <time>2022-06-05T10:05:19Z</time>
      </trkpt>
      <trkpt lat="45.02726" lon="5.84933">
        <ele>1442</ele>
        <time>2022-06-05T10:05:20Z</time>
      </trkpt>
      <trkpt lat="45.02727" lon="5.84934">
        <ele>1443</ele>
        <time>2022-06-05T10:05:21Z</time>
      </trkpt>
      <trkpt lat="45.02728" lon="5.84935">
        <ele>1442</ele>
        <time>2022-06-05T10:05:22Z</time>
      </trkpt>
      <trkpt lat="45.02728" lon="5.84936">
        <ele>1442</ele>
        <time>2022-06-05T10:05:23Z</time>
      </trkpt>
      <trkpt lat="45.02728" lon="5.84937">
        <ele>1442</ele>
        <time>2022-06-05T10:05:24Z</time>
      </trkpt>
      <trkpt lat="45.02728" lon="5.84938">
        <ele>1441</ele>
        <time>2022-06-05T10:05:25Z</time>
      </trkpt>
      <trkpt lat="45.02729" lon="5.84939">
        <ele>1441</ele>
        <time>2022-06-05T10:05:26Z</time>
      </trkpt>
      <trkpt lat="45.02729" lon="5.8494">
        <ele>1441</ele>
        <time>2022-06-05T10:05:27Z</time>
      </trkpt>
      <trkpt lat="45.02729" lon="5.84941">
        <ele>1441</ele>
        <time>2022-06-05T10:05:28Z</time>
      </trkpt>
      <trkpt lat="45.0273" lon="5.84942">
        <ele>1441</ele>
        <time>2022-06-05T10:05:29Z</time>
      </trkpt>
      <trkpt lat="45.02731" lon="5.84943">
        <ele>1441</ele>
        <time>2022-06-05T10:05:30Z</time>
      </trkpt>
      <trkpt lat="45.02732" lon="5.84944">
        <ele>1440</ele>
        <time>2022-06-05T10:05:31Z</time>
      </trkpt>
      <trkpt lat="45.02733" lon="5.84944">
        <ele>1440</ele>
        <time>2022-06-05T10:05:32Z</time>
      </trkpt>
      <trkpt lat="45.02733" lon="5.84945">
        <ele>1440</ele>
        <time>2022-06-05T10:05:33Z</time>
      </trkpt>
      <trkpt lat="45.02734" lon="5.84946">
        <ele>1440</ele>
        <time>2022-06-05T10:05:34Z</time>
      </trkpt>
      <trkpt lat="45.02735" lon="5.84947">
        <ele>1440</ele>
        <time>2022-06-05T10:05:35Z</time>
      </trkpt>
      <trkpt lat="45.02735" lon="5.84948">
        <ele>1440</ele>
        <time>2022-06-05T10:05:36Z</time>
      </trkpt>
      <trkpt lat="45.02736" lon="5.84949">
        <ele>1440</ele>
        <time>2022-06-05T10:05:37Z</time>
      </trkpt>
      <trkpt lat="45.02736" lon="5.84951">
        <ele>1440</ele>
        <time>2022-06-05T10:05:38Z</time>
      </trkpt>
      <trkpt lat="45.02737" lon="5.84952">
        <ele>1440</ele>
        <time>2022-06-05T10:05:39Z</time>
      </trkpt>
      <trkpt lat="45.02737" lon="5.84954">
        <ele>1440</ele>
        <time>2022-06-05T10:05:40Z</time>
      </trkpt>
      <trkpt lat="45.02739" lon="5.84955">
        <ele>1439</ele>
        <time>2022-06-05T10:05:41Z</time>
      </trkpt>
      <trkpt lat="45.02739" lon="5.84955">
        <ele>1439</ele>
        <time>2022-06-05T10:05:42Z</time>
      </trkpt>
      <trkpt lat="45.0274" lon="5.84956">
        <ele>1439</ele>
        <time>2022-06-05T10:05:43Z</time>
      </trkpt>
      <trkpt lat="45.0274" lon="5.84957">
        <ele>1440</ele>
        <time>2022-06-05T10:05:44Z</time>
      </trkpt>
      <trkpt lat="45.02741" lon="5.84958">
        <ele>1440</ele>
        <time>2022-06-05T10:05:45Z</time>
      </trkpt>
      <trkpt lat="45.02742" lon="5.84959">
        <ele>1440</ele>
        <time>2022-06-05T10:05:46Z</time>
      </trkpt>
      <trkpt lat="45.02742" lon="5.8496">
        <ele>1440</ele>
        <time>2022-06-05T10:05:47Z</time>
      </trkpt>
      <trkpt lat="45.02743" lon="5.84961">
        <ele>1440</ele>
        <time>2022-06-05T10:05:48Z</time>
      </trkpt>
      <trkpt lat="45.02744" lon="5.84962">
        <ele>1440</ele>
        <time>2022-06-05T10:05:49Z</time>
      </trkpt>
      <trkpt lat="45.02745" lon="5.84963">
        <ele>1441</ele>
        <time>2022-06-05T10:05:50Z</time>
      </trkpt>
      <trkpt lat="45.02745" lon="5.84964">
        <ele>1441</ele>
        <time>2022-06-05T10:05:51Z</time>
      </trkpt>
      <trkpt lat="45.02746" lon="5.84965">
        <ele>1440</ele>
        <time>2022-06-05T10:05:52Z</time>
      </trkpt>
      <trkpt lat="45.02747" lon="5.84967">
        <ele>1440</ele>
        <time>2022-06-05T10:05:53Z</time>
      </trkpt>
      <trkpt lat="45.02747" lon="5.84968">
        <ele>1440</ele>
        <time>2022-06-05T10:05:54Z</time>
      </trkpt>
      <trkpt lat="45.02748" lon="5.84968">
        <ele>1440</ele>
        <time>2022-06-05T10:05:55Z</time>
      </trkpt>
      <trkpt lat="45.02749" lon="5.84969">
        <ele>1441</ele>
        <time>2022-06-05T10:05:56Z</time>
      </trkpt>
      <trkpt lat="45.0275" lon="5.8497">
        <ele>1441</ele>
        <time>2022-06-05T10:05:57Z</time>
      </trkpt>
      <trkpt lat="45.02751" lon="5.84971">
        <ele>1440</ele>
        <time>2022-06-05T10:05:58Z</time>
      </trkpt>
      <trkpt lat="45.02751" lon="5.84971">
        <ele>1440</ele>
        <time>2022-06-05T10:05:59Z</time>
      </trkpt>
      <trkpt lat="45.02752" lon="5.84972">
        <ele>1440</ele>
        <time>2022-06-05T10:06:00Z</time>
      </trkpt>
      <trkpt lat="45.02753" lon="5.84973">
        <ele>1439</ele>
        <time>2022-06-05T10:06:01Z</time>
      </trkpt>
      <trkpt lat="45.02754" lon="5.84974">
        <ele>1439</ele>
        <time>2022-06-05T10:06:02Z</time>
      </trkpt>
      <trkpt lat="45.02754" lon="5.84975">
        <ele>1439</ele>
        <time>2022-06-05T10:06:03Z</time>
      </trkpt>
      <trkpt lat="45.02755" lon="5.84976">
        <ele>1440</ele>
        <time>2022-06-05T10:06:04Z</time>
      </trkpt>
      <trkpt lat="45.02756" lon="5.84977">
        <ele>1440</ele>
        <time>2022-06-05T10:06:05Z</time>
      </trkpt>
      <trkpt lat="45.02757" lon="5.84978">
        <ele>1440</ele>
        <time>2022-06-05T10:06:06Z</time>
      </trkpt>
      <trkpt lat="45.02757" lon="5.84979">
        <ele>1440</ele>
        <time>2022-06-05T10:06:07Z</time>
      </trkpt>
      <trkpt lat="45.02758" lon="5.8498">
        <ele>1440</ele>
        <time>2022-06-05T10:06:08Z</time>
      </trkpt>
      <trkpt lat="45.02758" lon="5.84981">
        <ele>1440</ele>
        <time>2022-06-05T10:06:09Z</time>
      </trkpt>
      <trkpt lat="45.02759" lon="5.84982">
        <ele>1440</ele>
        <time>2022-06-05T10:06:10Z</time>
      </trkpt>
      <trkpt lat="45.0276" lon="5.84983">
        <ele>1440</ele>
        <time>2022-06-05T10:06:11Z</time>
      </trkpt>
      <trkpt lat="45.0276" lon="5.84984">
        <ele>1439</ele>
        <time>2022-06-05T10:06:12Z</time>
      </trkpt>
      <trkpt lat="45.02761" lon="5.84985">
        <ele>1439</ele>
        <time>2022-06-05T10:06:13Z</time>
      </trkpt>
      <trkpt lat="45.02762" lon="5.84986">
        <ele>1439</ele>
        <time>2022-06-05T10:06:14Z</time>
      </trkpt>
      <trkpt lat="45.02762" lon="5.84987">
        <ele>1439</ele>
        <time>2022-06-05T10:06:15Z</time>
      </trkpt>
      <trkpt lat="45.02763" lon="5.84987">
        <ele>1438</ele>
        <time>2022-06-05T10:06:16Z</time>
      </trkpt>
      <trkpt lat="45.02764" lon="5.84988">
        <ele>1438</ele>
        <time>2022-06-05T10:06:17Z</time>
      </trkpt>
      <trkpt lat="45.02765" lon="5.84989">
        <ele>1438</ele>
        <time>2022-06-05T10:06:18Z</time>
      </trkpt>
      <trkpt lat="45.02765" lon="5.84991">
        <ele>1438</ele>
        <time>2022-06-05T10:06:19Z</time>
      </trkpt>
      <trkpt lat="45.02766" lon="5.84992">
        <ele>1438</ele>
        <time>2022-06-05T10:06:20Z</time>
      </trkpt>
      <trkpt lat="45.02766" lon="5.84993">
        <ele>1438</ele>
        <time>2022-06-05T10:06:21Z</time>
      </trkpt>
      <trkpt lat="45.02767" lon="5.84995">
        <ele>1438</ele>
        <time>2022-06-05T10:06:22Z</time>
      </trkpt>
      <trkpt lat="45.02768" lon="5.84995">
        <ele>1438</ele>
        <time>2022-06-05T10:06:23Z</time>
      </trkpt>
      <trkpt lat="45.02768" lon="5.84996">
        <ele>1438</ele>
        <time>2022-06-05T10:06:24Z</time>
      </trkpt>
      <trkpt lat="45.02769" lon="5.84997">
        <ele>1439</ele>
        <time>2022-06-05T10:06:25Z</time>
      </trkpt>
      <trkpt lat="45.0277" lon="5.84998">
        <ele>1439</ele>
        <time>2022-06-05T10:06:26Z</time>
      </trkpt>
      <trkpt lat="45.0277" lon="5.84999">
        <ele>1439</ele>
        <time>2022-06-05T10:06:27Z</time>
      </trkpt>
      <trkpt lat="45.02771" lon="5.85">
        <ele>1439</ele>
        <time>2022-06-05T10:06:28Z</time>
      </trkpt>
      <trkpt lat="45.02771" lon="5.85001">
        <ele>1439</ele>
        <time>2022-06-05T10:06:29Z</time>
      </trkpt>
      <trkpt lat="45.02772" lon="5.85002">
        <ele>1439</ele>
        <time>2022-06-05T10:06:30Z</time>
      </trkpt>
      <trkpt lat="45.02773" lon="5.85003">
        <ele>1439</ele>
        <time>2022-06-05T10:06:31Z</time>
      </trkpt>
      <trkpt lat="45.02773" lon="5.85004">
        <ele>1439</ele>
        <time>2022-06-05T10:06:32Z</time>
      </trkpt>
      <trkpt lat="45.02774" lon="5.85005">
        <ele>1439</ele>
        <time>2022-06-05T10:06:33Z</time>
      </trkpt>
      <trkpt lat="45.02774" lon="5.85006">
        <ele>1439</ele>
        <time>2022-06-05T10:06:34Z</time>
      </trkpt>
      <trkpt lat="45.02775" lon="5.85007">
        <ele>1439</ele>
        <time>2022-06-05T10:06:35Z</time>
      </trkpt>
      <trkpt lat="45.02776" lon="5.85008">
        <ele>1438</ele>
        <time>2022-06-05T10:06:36Z</time>
      </trkpt>
      <trkpt lat="45.02776" lon="5.85009">
        <ele>1438</ele>
        <time>2022-06-05T10:06:37Z</time>
      </trkpt>
      <trkpt lat="45.02776" lon="5.8501">
        <ele>1438</ele>
        <time>2022-06-05T10:06:38Z</time>
      </trkpt>
      <trkpt lat="45.02777" lon="5.85012">
        <ele>1438</ele>
        <time>2022-06-05T10:06:39Z</time>
      </trkpt>
      <trkpt lat="45.02777" lon="5.85013">
        <ele>1438</ele>
        <time>2022-06-05T10:06:40Z</time>
      </trkpt>
      <trkpt lat="45.02778" lon="5.85014">
        <ele>1438</ele>
        <time>2022-06-05T10:06:41Z</time>
      </trkpt>
      <trkpt lat="45.02778" lon="5.85015">
        <ele>1438</ele>
        <time>2022-06-05T10:06:42Z</time>
      </trkpt>
      <trkpt lat="45.02779" lon="5.85016">
        <ele>1438</ele>
        <time>2022-06-05T10:06:43Z</time>
      </trkpt>
      <trkpt lat="45.02779" lon="5.85017">
        <ele>1438</ele>
        <time>2022-06-05T10:06:44Z</time>
      </trkpt>
      <trkpt lat="45.02779" lon="5.85019">
        <ele>1438</ele>
        <time>2022-06-05T10:06:45Z</time>
      </trkpt>
      <trkpt lat="45.0278" lon="5.85019">
        <ele>1438</ele>
        <time>2022-06-05T10:06:46Z</time>
      </trkpt>
      <trkpt lat="45.0278" lon="5.8502">
        <ele>1438</ele>
        <time>2022-06-05T10:06:47Z</time>
      </trkpt>
      <trkpt lat="45.02781" lon="5.85021">
        <ele>1437</ele>
        <time>2022-06-05T10:06:48Z</time>
      </trkpt>
      <trkpt lat="45.02782" lon="5.85022">
        <ele>1437</ele>
        <time>2022-06-05T10:06:49Z</time>
      </trkpt>
      <trkpt lat="45.02782" lon="5.85023">
        <ele>1437</ele>
        <time>2022-06-05T10:06:50Z</time>
      </trkpt>
      <trkpt lat="45.02782" lon="5.85024">
        <ele>1436</ele>
        <time>2022-06-05T10:06:51Z</time>
      </trkpt>
      <trkpt lat="45.02782" lon="5.85025">
        <ele>1436</ele>
        <time>2022-06-05T10:06:52Z</time>
      </trkpt>
      <trkpt lat="45.02783" lon="5.85027">
        <ele>1435</ele>
        <time>2022-06-05T10:06:53Z</time>
      </trkpt>
      <trkpt lat="45.02783" lon="5.85029">
        <ele>1435</ele>
        <time>2022-06-05T10:06:54Z</time>
      </trkpt>
      <trkpt lat="45.02783" lon="5.85031">
        <ele>1435</ele>
        <time>2022-06-05T10:06:55Z</time>
      </trkpt>
      <trkpt lat="45.02784" lon="5.85032">
        <ele>1435</ele>
        <time>2022-06-05T10:06:56Z</time>
      </trkpt>
      <trkpt lat="45.02784" lon="5.85034">
        <ele>1435</ele>
        <time>2022-06-05T10:06:57Z</time>
      </trkpt>
      <trkpt lat="45.02784" lon="5.85035">
        <ele>1434</ele>
        <time>2022-06-05T10:06:58Z</time>
      </trkpt>
      <trkpt lat="45.02784" lon="5.85036">
        <ele>1434</ele>
        <time>2022-06-05T10:06:59Z</time>
      </trkpt>
      <trkpt lat="45.02785" lon="5.85037">
        <ele>1434</ele>
        <time>2022-06-05T10:07:00Z</time>
      </trkpt>
      <trkpt lat="45.02785" lon="5.85038">
        <ele>1434</ele>
        <time>2022-06-05T10:07:01Z</time>
      </trkpt>
      <trkpt lat="45.02785" lon="5.85039">
        <ele>1433</ele>
        <time>2022-06-05T10:07:02Z</time>
      </trkpt>
      <trkpt lat="45.02785" lon="5.8504">
        <ele>1434</ele>
        <time>2022-06-05T10:07:03Z</time>
      </trkpt>
      <trkpt lat="45.02785" lon="5.85041">
        <ele>1433</ele>
        <time>2022-06-05T10:07:04Z</time>
      </trkpt>
      <trkpt lat="45.02785" lon="5.85042">
        <ele>1432</ele>
        <time>2022-06-05T10:07:05Z</time>
      </trkpt>
      <trkpt lat="45.02786" lon="5.85043">
        <ele>1432</ele>
        <time>2022-06-05T10:07:06Z</time>
      </trkpt>
      <trkpt lat="45.02786" lon="5.85044">
        <ele>1432</ele>
        <time>2022-06-05T10:07:07Z</time>
      </trkpt>
      <trkpt lat="45.02786" lon="5.85045">
        <ele>1432</ele>
        <time>2022-06-05T10:07:08Z</time>
      </trkpt>
      <trkpt lat="45.02786" lon="5.85046">
        <ele>1432</ele>
        <time>2022-06-05T10:07:09Z</time>
      </trkpt>
      <trkpt lat="45.02786" lon="5.85047">
        <ele>1432</ele>
        <time>2022-06-05T10:07:10Z</time>
      </trkpt>
      <trkpt lat="45.02786" lon="5.85047">
        <ele>1432</ele>
        <time>2022-06-05T10:07:11Z</time>
      </trkpt>
      <trkpt lat="45.02786" lon="5.85048">
        <ele>1431</ele>
        <time>2022-06-05T10:07:12Z</time>
      </trkpt>
      <trkpt lat="45.02786" lon="5.85049">
        <ele>1431</ele>
        <time>2022-06-05T10:07:13Z</time>
      </trkpt>
      <trkpt lat="45.02786" lon="5.8505">
        <ele>1430</ele>
        <time>2022-06-05T10:07:14Z</time>
      </trkpt>
      <trkpt lat="45.02786" lon="5.85051">
        <ele>1430</ele>
        <time>2022-06-05T10:07:15Z</time>
      </trkpt>
      <trkpt lat="45.02786" lon="5.85052">
        <ele>1430</ele>
        <time>2022-06-05T10:07:16Z</time>
      </trkpt>
      <trkpt lat="45.02786" lon="5.85053">
        <ele>1430</ele>
        <time>2022-06-05T10:07:17Z</time>
      </trkpt>
      <trkpt lat="45.02786" lon="5.85055">
        <ele>1430</ele>
        <time>2022-06-05T10:07:18Z</time>
      </trkpt>
      <trkpt lat="45.02786" lon="5.85056">
        <ele>1430</ele>
        <time>2022-06-05T10:07:19Z</time>
      </trkpt>
      <trkpt lat="45.02785" lon="5.85057">
        <ele>1429</ele>
        <time>2022-06-05T10:07:20Z</time>
      </trkpt>
      <trkpt lat="45.02785" lon="5.85058">
        <ele>1428</ele>
        <time>2022-06-05T10:07:21Z</time>
      </trkpt>
      <trkpt lat="45.02784" lon="5.85058">
        <ele>1428</ele>
        <time>2022-06-05T10:07:22Z</time>
      </trkpt>
      <trkpt lat="45.02784" lon="5.85059">
        <ele>1428</ele>
        <time>2022-06-05T10:07:23Z</time>
      </trkpt>
      <trkpt lat="45.02784" lon="5.8506">
        <ele>1428</ele>
        <time>2022-06-05T10:07:24Z</time>
      </trkpt>
      <trkpt lat="45.02783" lon="5.85061">
        <ele>1428</ele>
        <time>2022-06-05T10:07:25Z</time>
      </trkpt>
      <trkpt lat="45.02783" lon="5.85062">
        <ele>1429</ele>
        <time>2022-06-05T10:07:26Z</time>
      </trkpt>
      <trkpt lat="45.02782" lon="5.85063">
        <ele>1429</ele>
        <time>2022-06-05T10:07:27Z</time>
      </trkpt>
      <trkpt lat="45.02782" lon="5.85064">
        <ele>1429</ele>
        <time>2022-06-05T10:07:28Z</time>
      </trkpt>
      <trkpt lat="45.02781" lon="5.85065">
        <ele>1428</ele>
        <time>2022-06-05T10:07:29Z</time>
      </trkpt>
      <trkpt lat="45.02781" lon="5.85066">
        <ele>1428</ele>
        <time>2022-06-05T10:07:30Z</time>
      </trkpt>
      <trkpt lat="45.0278" lon="5.85067">
        <ele>1427</ele>
        <time>2022-06-05T10:07:31Z</time>
      </trkpt>
      <trkpt lat="45.0278" lon="5.85068">
        <ele>1427</ele>
        <time>2022-06-05T10:07:32Z</time>
      </trkpt>
      <trkpt lat="45.02779" lon="5.8507">
        <ele>1427</ele>
        <time>2022-06-05T10:07:33Z</time>
      </trkpt>
      <trkpt lat="45.0278" lon="5.85071">
        <ele>1426</ele>
        <time>2022-06-05T10:07:34Z</time>
      </trkpt>
      <trkpt lat="45.0278" lon="5.85072">
        <ele>1426</ele>
        <time>2022-06-05T10:07:35Z</time>
      </trkpt>
      <trkpt lat="45.0278" lon="5.85073">
        <ele>1426</ele>
        <time>2022-06-05T10:07:36Z</time>
      </trkpt>
      <trkpt lat="45.02779" lon="5.85074">
        <ele>1426</ele>
        <time>2022-06-05T10:07:37Z</time>
      </trkpt>
      <trkpt lat="45.02779" lon="5.85076">
        <ele>1426</ele>
        <time>2022-06-05T10:07:38Z</time>
      </trkpt>
      <trkpt lat="45.02779" lon="5.85077">
        <ele>1426</ele>
        <time>2022-06-05T10:07:39Z</time>
      </trkpt>
      <trkpt lat="45.0278" lon="5.85077">
        <ele>1425</ele>
        <time>2022-06-05T10:07:40Z</time>
      </trkpt>
      <trkpt lat="45.02779" lon="5.85077">
        <ele>1424</ele>
        <time>2022-06-05T10:07:41Z</time>
      </trkpt>
      <trkpt lat="45.02779" lon="5.85077">
        <ele>1424</ele>
        <time>2022-06-05T10:07:42Z</time>
      </trkpt>
      <trkpt lat="45.02779" lon="5.85078">
        <ele>1424</ele>
        <time>2022-06-05T10:07:43Z</time>
      </trkpt>
      <trkpt lat="45.02779" lon="5.8508">
        <ele>1425</ele>
        <time>2022-06-05T10:07:44Z</time>
      </trkpt>
      <trkpt lat="45.02779" lon="5.85081">
        <ele>1425</ele>
        <time>2022-06-05T10:07:45Z</time>
      </trkpt>
      <trkpt lat="45.02779" lon="5.85082">
        <ele>1425</ele>
        <time>2022-06-05T10:07:46Z</time>
      </trkpt>
      <trkpt lat="45.02779" lon="5.85084">
        <ele>1425</ele>
        <time>2022-06-05T10:07:47Z</time>
      </trkpt>
      <trkpt lat="45.02779" lon="5.85085">
        <ele>1425</ele>
        <time>2022-06-05T10:07:48Z</time>
      </trkpt>
      <trkpt lat="45.02779" lon="5.85086">
        <ele>1424</ele>
        <time>2022-06-05T10:07:49Z</time>
      </trkpt>
      <trkpt lat="45.02778" lon="5.85088">
        <ele>1424</ele>
        <time>2022-06-05T10:07:50Z</time>
      </trkpt>
      <trkpt lat="45.02778" lon="5.85088">
        <ele>1423</ele>
        <time>2022-06-05T10:07:51Z</time>
      </trkpt>
      <trkpt lat="45.02778" lon="5.8509">
        <ele>1423</ele>
        <time>2022-06-05T10:07:52Z</time>
      </trkpt>
      <trkpt lat="45.02778" lon="5.85091">
        <ele>1423</ele>
        <time>2022-06-05T10:07:53Z</time>
      </trkpt>
      <trkpt lat="45.02778" lon="5.85092">
        <ele>1423</ele>
        <time>2022-06-05T10:07:54Z</time>
      </trkpt>
      <trkpt lat="45.02778" lon="5.85093">
        <ele>1423</ele>
        <time>2022-06-05T10:07:55Z</time>
      </trkpt>
      <trkpt lat="45.02778" lon="5.85094">
        <ele>1422</ele>
        <time>2022-06-05T10:07:56Z</time>
      </trkpt>
      <trkpt lat="45.02778" lon="5.85095">
        <ele>1422</ele>
        <time>2022-06-05T10:07:57Z</time>
      </trkpt>
      <trkpt lat="45.02778" lon="5.85095">
        <ele>1422</ele>
        <time>2022-06-05T10:07:58Z</time>
      </trkpt>
      <trkpt lat="45.02778" lon="5.85095">
        <ele>1421</ele>
        <time>2022-06-05T10:07:59Z</time>
      </trkpt>
      <trkpt lat="45.02779" lon="5.85097">
        <ele>1422</ele>
        <time>2022-06-05T10:08:00Z</time>
      </trkpt>
      <trkpt lat="45.02779" lon="5.85098">
        <ele>1422</ele>
        <time>2022-06-05T10:08:01Z</time>
      </trkpt>
      <trkpt lat="45.02779" lon="5.85099">
        <ele>1422</ele>
        <time>2022-06-05T10:08:02Z</time>
      </trkpt>
      <trkpt lat="45.02778" lon="5.851">
        <ele>1422</ele>
        <time>2022-06-05T10:08:03Z</time>
      </trkpt>
      <trkpt lat="45.02778" lon="5.85102">
        <ele>1421</ele>
        <time>2022-06-05T10:08:04Z</time>
      </trkpt>
      <trkpt lat="45.02778" lon="5.85103">
        <ele>1422</ele>
        <time>2022-06-05T10:08:05Z</time>
      </trkpt>
      <trkpt lat="45.02778" lon="5.85104">
        <ele>1422</ele>
        <time>2022-06-05T10:08:06Z</time>
      </trkpt>
      <trkpt lat="45.02778" lon="5.85105">
        <ele>1422</ele>
        <time>2022-06-05T10:08:07Z</time>
      </trkpt>
      <trkpt lat="45.02778" lon="5.85106">
        <ele>1421</ele>
        <time>2022-06-05T10:08:08Z</time>
      </trkpt>
      <trkpt lat="45.02778" lon="5.85106">
        <ele>1421</ele>
        <time>2022-06-05T10:08:09Z</time>
      </trkpt>
      <trkpt lat="45.02777" lon="5.85105">
        <ele>1420</ele>
        <time>2022-06-05T10:08:10Z</time>
      </trkpt>
      <trkpt lat="45.02777" lon="5.85105">
        <ele>1421</ele>
        <time>2022-06-05T10:08:11Z</time>
      </trkpt>
      <trkpt lat="45.02777" lon="5.85106">
        <ele>1420</ele>
        <time>2022-06-05T10:08:12Z</time>
      </trkpt>
      <trkpt lat="45.02777" lon="5.85108">
        <ele>1421</ele>
        <time>2022-06-05T10:08:13Z</time>
      </trkpt>
      <trkpt lat="45.02777" lon="5.85109">
        <ele>1420</ele>
        <time>2022-06-05T10:08:14Z</time>
      </trkpt>
      <trkpt lat="45.02777" lon="5.8511">
        <ele>1421</ele>
        <time>2022-06-05T10:08:15Z</time>
      </trkpt>
      <trkpt lat="45.02777" lon="5.85111">
        <ele>1420</ele>
        <time>2022-06-05T10:08:16Z</time>
      </trkpt>
      <trkpt lat="45.02777" lon="5.85112">
        <ele>1420</ele>
        <time>2022-06-05T10:08:17Z</time>
      </trkpt>
      <trkpt lat="45.02777" lon="5.85114">
        <ele>1420</ele>
        <time>2022-06-05T10:08:18Z</time>
      </trkpt>
      <trkpt lat="45.02777" lon="5.85115">
        <ele>1420</ele>
        <time>2022-06-05T10:08:19Z</time>
      </trkpt>
      <trkpt lat="45.02777" lon="5.85116">
        <ele>1419</ele>
        <time>2022-06-05T10:08:20Z</time>
      </trkpt>
      <trkpt lat="45.02778" lon="5.85117">
        <ele>1419</ele>
        <time>2022-06-05T10:08:21Z</time>
      </trkpt>
      <trkpt lat="45.02778" lon="5.85119">
        <ele>1418</ele>
        <time>2022-06-05T10:08:22Z</time>
      </trkpt>
      <trkpt lat="45.02777" lon="5.8512">
        <ele>1418</ele>
        <time>2022-06-05T10:08:23Z</time>
      </trkpt>
      <trkpt lat="45.02777" lon="5.85121">
        <ele>1418</ele>
        <time>2022-06-05T10:08:24Z</time>
      </trkpt>
      <trkpt lat="45.02777" lon="5.85122">
        <ele>1418</ele>
        <time>2022-06-05T10:08:25Z</time>
      </trkpt>
      <trkpt lat="45.02778" lon="5.85123">
        <ele>1418</ele>
        <time>2022-06-05T10:08:26Z</time>
      </trkpt>
      <trkpt lat="45.02777" lon="5.85124">
        <ele>1418</ele>
        <time>2022-06-05T10:08:27Z</time>
      </trkpt>
      <trkpt lat="45.02777" lon="5.85125">
        <ele>1418</ele>
        <time>2022-06-05T10:08:28Z</time>
      </trkpt>
      <trkpt lat="45.02777" lon="5.85127">
        <ele>1419</ele>
        <time>2022-06-05T10:08:29Z</time>
      </trkpt>
      <trkpt lat="45.02778" lon="5.85128">
        <ele>1419</ele>
        <time>2022-06-05T10:08:30Z</time>
      </trkpt>
      <trkpt lat="45.02778" lon="5.85129">
        <ele>1419</ele>
        <time>2022-06-05T10:08:31Z</time>
      </trkpt>
      <trkpt lat="45.02778" lon="5.8513">
        <ele>1418</ele>
        <time>2022-06-05T10:08:32Z</time>
      </trkpt>
      <trkpt lat="45.02778" lon="5.85131">
        <ele>1418</ele>
        <time>2022-06-05T10:08:33Z</time>
      </trkpt>
      <trkpt lat="45.02778" lon="5.85132">
        <ele>1418</ele>
        <time>2022-06-05T10:08:34Z</time>
      </trkpt>
      <trkpt lat="45.02779" lon="5.85133">
        <ele>1417</ele>
        <time>2022-06-05T10:08:35Z</time>
      </trkpt>
      <trkpt lat="45.02778" lon="5.85134">
        <ele>1416</ele>
        <time>2022-06-05T10:08:36Z</time>
      </trkpt>
      <trkpt lat="45.02778" lon="5.85135">
        <ele>1416</ele>
        <time>2022-06-05T10:08:37Z</time>
      </trkpt>
      <trkpt lat="45.02778" lon="5.85137">
        <ele>1416</ele>
        <time>2022-06-05T10:08:38Z</time>
      </trkpt>
      <trkpt lat="45.02778" lon="5.85138">
        <ele>1416</ele>
        <time>2022-06-05T10:08:39Z</time>
      </trkpt>
      <trkpt lat="45.02778" lon="5.85139">
        <ele>1416</ele>
        <time>2022-06-05T10:08:40Z</time>
      </trkpt>
      <trkpt lat="45.02777" lon="5.85141">
        <ele>1416</ele>
        <time>2022-06-05T10:08:41Z</time>
      </trkpt>
      <trkpt lat="45.02777" lon="5.85142">
        <ele>1417</ele>
        <time>2022-06-05T10:08:42Z</time>
      </trkpt>
      <trkpt lat="45.02777" lon="5.85143">
        <ele>1417</ele>
        <time>2022-06-05T10:08:43Z</time>
      </trkpt>
      <trkpt lat="45.02776" lon="5.85145">
        <ele>1417</ele>
        <time>2022-06-05T10:08:44Z</time>
      </trkpt>
      <trkpt lat="45.02776" lon="5.85146">
        <ele>1417</ele>
        <time>2022-06-05T10:08:45Z</time>
      </trkpt>
      <trkpt lat="45.02776" lon="5.85148">
        <ele>1418</ele>
        <time>2022-06-05T10:08:46Z</time>
      </trkpt>
      <trkpt lat="45.02776" lon="5.85149">
        <ele>1418</ele>
        <time>2022-06-05T10:08:47Z</time>
      </trkpt>
      <trkpt lat="45.02776" lon="5.85151">
        <ele>1418</ele>
        <time>2022-06-05T10:08:48Z</time>
      </trkpt>
      <trkpt lat="45.02775" lon="5.85152">
        <ele>1418</ele>
        <time>2022-06-05T10:08:49Z</time>
      </trkpt>
      <trkpt lat="45.02776" lon="5.85153">
        <ele>1418</ele>
        <time>2022-06-05T10:08:50Z</time>
      </trkpt>
      <trkpt lat="45.02775" lon="5.85154">
        <ele>1419</ele>
        <time>2022-06-05T10:08:51Z</time>
      </trkpt>
      <trkpt lat="45.02775" lon="5.85155">
        <ele>1419</ele>
        <time>2022-06-05T10:08:52Z</time>
      </trkpt>
      <trkpt lat="45.02775" lon="5.85157">
        <ele>1419</ele>
        <time>2022-06-05T10:08:53Z</time>
      </trkpt>
      <trkpt lat="45.02775" lon="5.85158">
        <ele>1418</ele>
        <time>2022-06-05T10:08:54Z</time>
      </trkpt>
      <trkpt lat="45.02775" lon="5.85159">
        <ele>1418</ele>
        <time>2022-06-05T10:08:55Z</time>
      </trkpt>
      <trkpt lat="45.02775" lon="5.8516">
        <ele>1418</ele>
        <time>2022-06-05T10:08:56Z</time>
      </trkpt>
      <trkpt lat="45.02775" lon="5.85162">
        <ele>1417</ele>
        <time>2022-06-05T10:08:57Z</time>
      </trkpt>
      <trkpt lat="45.02775" lon="5.85163">
        <ele>1417</ele>
        <time>2022-06-05T10:08:58Z</time>
      </trkpt>
      <trkpt lat="45.02774" lon="5.85164">
        <ele>1416</ele>
        <time>2022-06-05T10:08:59Z</time>
      </trkpt>
      <trkpt lat="45.02774" lon="5.85165">
        <ele>1416</ele>
        <time>2022-06-05T10:09:00Z</time>
      </trkpt>
      <trkpt lat="45.02773" lon="5.85167">
        <ele>1416</ele>
        <time>2022-06-05T10:09:01Z</time>
      </trkpt>
      <trkpt lat="45.02773" lon="5.85168">
        <ele>1417</ele>
        <time>2022-06-05T10:09:02Z</time>
      </trkpt>
      <trkpt lat="45.02773" lon="5.8517">
        <ele>1417</ele>
        <time>2022-06-05T10:09:03Z</time>
      </trkpt>
      <trkpt lat="45.02773" lon="5.85172">
        <ele>1417</ele>
        <time>2022-06-05T10:09:04Z</time>
      </trkpt>
      <trkpt lat="45.02774" lon="5.85174">
        <ele>1417</ele>
        <time>2022-06-05T10:09:05Z</time>
      </trkpt>
      <trkpt lat="45.02773" lon="5.85175">
        <ele>1418</ele>
        <time>2022-06-05T10:09:06Z</time>
      </trkpt>
      <trkpt lat="45.02773" lon="5.85177">
        <ele>1419</ele>
        <time>2022-06-05T10:09:07Z</time>
      </trkpt>
      <trkpt lat="45.02773" lon="5.85178">
        <ele>1419</ele>
        <time>2022-06-05T10:09:08Z</time>
      </trkpt>
      <trkpt lat="45.02773" lon="5.8518">
        <ele>1419</ele>
        <time>2022-06-05T10:09:09Z</time>
      </trkpt>
      <trkpt lat="45.02773" lon="5.8518">
        <ele>1419</ele>
        <time>2022-06-05T10:09:10Z</time>
      </trkpt>
      <trkpt lat="45.02773" lon="5.85182">
        <ele>1419</ele>
        <time>2022-06-05T10:09:11Z</time>
      </trkpt>
      <trkpt lat="45.02773" lon="5.85183">
        <ele>1418</ele>
        <time>2022-06-05T10:09:12Z</time>
      </trkpt>
      <trkpt lat="45.02773" lon="5.85185">
        <ele>1417</ele>
        <time>2022-06-05T10:09:13Z</time>
      </trkpt>
      <trkpt lat="45.02773" lon="5.85186">
        <ele>1417</ele>
        <time>2022-06-05T10:09:14Z</time>
      </trkpt>
      <trkpt lat="45.02773" lon="5.85188">
        <ele>1417</ele>
        <time>2022-06-05T10:09:15Z</time>
      </trkpt>
      <trkpt lat="45.02773" lon="5.8519">
        <ele>1417</ele>
        <time>2022-06-05T10:09:16Z</time>
      </trkpt>
      <trkpt lat="45.02773" lon="5.85191">
        <ele>1417</ele>
        <time>2022-06-05T10:09:17Z</time>
      </trkpt>
      <trkpt lat="45.02773" lon="5.85192">
        <ele>1417</ele>
        <time>2022-06-05T10:09:18Z</time>
      </trkpt>
      <trkpt lat="45.02773" lon="5.85193">
        <ele>1416</ele>
        <time>2022-06-05T10:09:19Z</time>
      </trkpt>
      <trkpt lat="45.02773" lon="5.85194">
        <ele>1416</ele>
        <time>2022-06-05T10:09:20Z</time>
      </trkpt>
      <trkpt lat="45.02773" lon="5.85196">
        <ele>1416</ele>
        <time>2022-06-05T10:09:21Z</time>
      </trkpt>
      <trkpt lat="45.02773" lon="5.85197">
        <ele>1415</ele>
        <time>2022-06-05T10:09:22Z</time>
      </trkpt>
      <trkpt lat="45.02773" lon="5.85199">
        <ele>1415</ele>
        <time>2022-06-05T10:09:23Z</time>
      </trkpt>
      <trkpt lat="45.02772" lon="5.852">
        <ele>1415</ele>
        <time>2022-06-05T10:09:24Z</time>
      </trkpt>
      <trkpt lat="45.02772" lon="5.85202">
        <ele>1415</ele>
        <time>2022-06-05T10:09:25Z</time>
      </trkpt>
      <trkpt lat="45.02772" lon="5.85203">
        <ele>1415</ele>
        <time>2022-06-05T10:09:26Z</time>
      </trkpt>
      <trkpt lat="45.02772" lon="5.85205">
        <ele>1415</ele>
        <time>2022-06-05T10:09:27Z</time>
      </trkpt>
      <trkpt lat="45.02771" lon="5.85206">
        <ele>1414</ele>
        <time>2022-06-05T10:09:28Z</time>
      </trkpt>
      <trkpt lat="45.02771" lon="5.85208">
        <ele>1414</ele>
        <time>2022-06-05T10:09:29Z</time>
      </trkpt>
      <trkpt lat="45.02772" lon="5.85209">
        <ele>1415</ele>
        <time>2022-06-05T10:09:30Z</time>
      </trkpt>
      <trkpt lat="45.02772" lon="5.85211">
        <ele>1414</ele>
        <time>2022-06-05T10:09:31Z</time>
      </trkpt>
      <trkpt lat="45.02772" lon="5.85212">
        <ele>1414</ele>
        <time>2022-06-05T10:09:32Z</time>
      </trkpt>
      <trkpt lat="45.02772" lon="5.85214">
        <ele>1413</ele>
        <time>2022-06-05T10:09:33Z</time>
      </trkpt>
      <trkpt lat="45.02771" lon="5.85216">
        <ele>1413</ele>
        <time>2022-06-05T10:09:34Z</time>
      </trkpt>
      <trkpt lat="45.02771" lon="5.85217">
        <ele>1413</ele>
        <time>2022-06-05T10:09:35Z</time>
      </trkpt>
      <trkpt lat="45.02771" lon="5.85219">
        <ele>1413</ele>
        <time>2022-06-05T10:09:36Z</time>
      </trkpt>
      <trkpt lat="45.02772" lon="5.8522">
        <ele>1414</ele>
        <time>2022-06-05T10:09:37Z</time>
      </trkpt>
      <trkpt lat="45.02772" lon="5.85221">
        <ele>1414</ele>
        <time>2022-06-05T10:09:38Z</time>
      </trkpt>
      <trkpt lat="45.02772" lon="5.85222">
        <ele>1414</ele>
        <time>2022-06-05T10:09:39Z</time>
      </trkpt>
      <trkpt lat="45.02772" lon="5.85224">
        <ele>1413</ele>
        <time>2022-06-05T10:09:40Z</time>
      </trkpt>
      <trkpt lat="45.02772" lon="5.85225">
        <ele>1414</ele>
        <time>2022-06-05T10:09:41Z</time>
      </trkpt>
      <trkpt lat="45.02772" lon="5.85226">
        <ele>1414</ele>
        <time>2022-06-05T10:09:42Z</time>
      </trkpt>
      <trkpt lat="45.02772" lon="5.85228">
        <ele>1414</ele>
        <time>2022-06-05T10:09:43Z</time>
      </trkpt>
      <trkpt lat="45.02772" lon="5.85229">
        <ele>1414</ele>
        <time>2022-06-05T10:09:44Z</time>
      </trkpt>
      <trkpt lat="45.02772" lon="5.85231">
        <ele>1414</ele>
        <time>2022-06-05T10:09:45Z</time>
      </trkpt>
      <trkpt lat="45.02772" lon="5.85232">
        <ele>1414</ele>
        <time>2022-06-05T10:09:46Z</time>
      </trkpt>
      <trkpt lat="45.02772" lon="5.85234">
        <ele>1414</ele>
        <time>2022-06-05T10:09:47Z</time>
      </trkpt>
      <trkpt lat="45.02773" lon="5.85234">
        <ele>1413</ele>
        <time>2022-06-05T10:09:48Z</time>
      </trkpt>
      <trkpt lat="45.02773" lon="5.85235">
        <ele>1413</ele>
        <time>2022-06-05T10:09:49Z</time>
      </trkpt>
      <trkpt lat="45.02773" lon="5.85237">
        <ele>1413</ele>
        <time>2022-06-05T10:09:50Z</time>
      </trkpt>
      <trkpt lat="45.02773" lon="5.85239">
        <ele>1413</ele>
        <time>2022-06-05T10:09:51Z</time>
      </trkpt>
      <trkpt lat="45.02773" lon="5.8524">
        <ele>1413</ele>
        <time>2022-06-05T10:09:52Z</time>
      </trkpt>
      <trkpt lat="45.02774" lon="5.8524">
        <ele>1413</ele>
        <time>2022-06-05T10:09:53Z</time>
      </trkpt>
      <trkpt lat="45.02774" lon="5.85241">
        <ele>1412</ele>
        <time>2022-06-05T10:09:54Z</time>
      </trkpt>
      <trkpt lat="45.02774" lon="5.85243">
        <ele>1412</ele>
        <time>2022-06-05T10:09:55Z</time>
      </trkpt>
      <trkpt lat="45.02774" lon="5.85245">
        <ele>1413</ele>
        <time>2022-06-05T10:09:56Z</time>
      </trkpt>
      <trkpt lat="45.02775" lon="5.85246">
        <ele>1412</ele>
        <time>2022-06-05T10:09:57Z</time>
      </trkpt>
      <trkpt lat="45.02776" lon="5.85248">
        <ele>1412</ele>
        <time>2022-06-05T10:09:58Z</time>
      </trkpt>
      <trkpt lat="45.02776" lon="5.85249">
        <ele>1413</ele>
        <time>2022-06-05T10:09:59Z</time>
      </trkpt>
      <trkpt lat="45.02775" lon="5.8525">
        <ele>1413</ele>
        <time>2022-06-05T10:10:00Z</time>
      </trkpt>
      <trkpt lat="45.02775" lon="5.85251">
        <ele>1413</ele>
        <time>2022-06-05T10:10:01Z</time>
      </trkpt>
      <trkpt lat="45.02774" lon="5.85253">
        <ele>1413</ele>
        <time>2022-06-05T10:10:02Z</time>
      </trkpt>
      <trkpt lat="45.02774" lon="5.85254">
        <ele>1413</ele>
        <time>2022-06-05T10:10:03Z</time>
      </trkpt>
      <trkpt lat="45.02774" lon="5.85255">
        <ele>1412</ele>
        <time>2022-06-05T10:10:04Z</time>
      </trkpt>
      <trkpt lat="45.02775" lon="5.85257">
        <ele>1412</ele>
        <time>2022-06-05T10:10:05Z</time>
      </trkpt>
      <trkpt lat="45.02775" lon="5.85258">
        <ele>1412</ele>
        <time>2022-06-05T10:10:06Z</time>
      </trkpt>
      <trkpt lat="45.02774" lon="5.8526">
        <ele>1411</ele>
        <time>2022-06-05T10:10:07Z</time>
      </trkpt>
      <trkpt lat="45.02774" lon="5.85261">
        <ele>1411</ele>
        <time>2022-06-05T10:10:08Z</time>
      </trkpt>
      <trkpt lat="45.02774" lon="5.85263">
        <ele>1411</ele>
        <time>2022-06-05T10:10:09Z</time>
      </trkpt>
      <trkpt lat="45.02774" lon="5.85264">
        <ele>1411</ele>
        <time>2022-06-05T10:10:10Z</time>
      </trkpt>
      <trkpt lat="45.02774" lon="5.85266">
        <ele>1411</ele>
        <time>2022-06-05T10:10:11Z</time>
      </trkpt>
      <trkpt lat="45.02774" lon="5.85267">
        <ele>1411</ele>
        <time>2022-06-05T10:10:12Z</time>
      </trkpt>
      <trkpt lat="45.02774" lon="5.85269">
        <ele>1411</ele>
        <time>2022-06-05T10:10:13Z</time>
      </trkpt>
      <trkpt lat="45.02774" lon="5.8527">
        <ele>1411</ele>
        <time>2022-06-05T10:10:14Z</time>
      </trkpt>
      <trkpt lat="45.02774" lon="5.85271">
        <ele>1411</ele>
        <time>2022-06-05T10:10:15Z</time>
      </trkpt>
      <trkpt lat="45.02775" lon="5.85272">
        <ele>1410</ele>
        <time>2022-06-05T10:10:16Z</time>
      </trkpt>
      <trkpt lat="45.02775" lon="5.85273">
        <ele>1410</ele>
        <time>2022-06-05T10:10:17Z</time>
      </trkpt>
      <trkpt lat="45.02775" lon="5.85274">
        <ele>1410</ele>
        <time>2022-06-05T10:10:18Z</time>
      </trkpt>
      <trkpt lat="45.02775" lon="5.85276">
        <ele>1411</ele>
        <time>2022-06-05T10:10:19Z</time>
      </trkpt>
      <trkpt lat="45.02775" lon="5.85277">
        <ele>1411</ele>
        <time>2022-06-05T10:10:20Z</time>
      </trkpt>
      <trkpt lat="45.02775" lon="5.85277">
        <ele>1410</ele>
        <time>2022-06-05T10:10:21Z</time>
      </trkpt>
      <trkpt lat="45.02775" lon="5.85279">
        <ele>1411</ele>
        <time>2022-06-05T10:10:22Z</time>
      </trkpt>
      <trkpt lat="45.02775" lon="5.8528">
        <ele>1411</ele>
        <time>2022-06-05T10:10:23Z</time>
      </trkpt>
      <trkpt lat="45.02774" lon="5.85281">
        <ele>1410</ele>
        <time>2022-06-05T10:10:24Z</time>
      </trkpt>
      <trkpt lat="45.02774" lon="5.85281">
        <ele>1410</ele>
        <time>2022-06-05T10:10:25Z</time>
      </trkpt>
      <trkpt lat="45.02774" lon="5.85282">
        <ele>1410</ele>
        <time>2022-06-05T10:10:26Z</time>
      </trkpt>
      <trkpt lat="45.02774" lon="5.85283">
        <ele>1410</ele>
        <time>2022-06-05T10:10:27Z</time>
      </trkpt>
      <trkpt lat="45.02774" lon="5.85284">
        <ele>1409</ele>
        <time>2022-06-05T10:10:28Z</time>
      </trkpt>
      <trkpt lat="45.02774" lon="5.85285">
        <ele>1410</ele>
        <time>2022-06-05T10:10:29Z</time>
      </trkpt>
      <trkpt lat="45.02774" lon="5.85287">
        <ele>1410</ele>
        <time>2022-06-05T10:10:30Z</time>
      </trkpt>
      <trkpt lat="45.02773" lon="5.85288">
        <ele>1410</ele>
        <time>2022-06-05T10:10:31Z</time>
      </trkpt>
      <trkpt lat="45.02773" lon="5.8529">
        <ele>1410</ele>
        <time>2022-06-05T10:10:32Z</time>
      </trkpt>
      <trkpt lat="45.02773" lon="5.85291">
        <ele>1410</ele>
        <time>2022-06-05T10:10:33Z</time>
      </trkpt>
      <trkpt lat="45.02772" lon="5.85292">
        <ele>1410</ele>
        <time>2022-06-05T10:10:34Z</time>
      </trkpt>
      <trkpt lat="45.02771" lon="5.85293">
        <ele>1410</ele>
        <time>2022-06-05T10:10:35Z</time>
      </trkpt>
      <trkpt lat="45.02771" lon="5.85294">
        <ele>1410</ele>
        <time>2022-06-05T10:10:36Z</time>
      </trkpt>
      <trkpt lat="45.02771" lon="5.85295">
        <ele>1410</ele>
        <time>2022-06-05T10:10:37Z</time>
      </trkpt>
      <trkpt lat="45.02772" lon="5.85296">
        <ele>1410</ele>
        <time>2022-06-05T10:10:38Z</time>
      </trkpt>
      <trkpt lat="45.02773" lon="5.85297">
        <ele>1409</ele>
        <time>2022-06-05T10:10:39Z</time>
      </trkpt>
      <trkpt lat="45.02773" lon="5.85299">
        <ele>1408</ele>
        <time>2022-06-05T10:10:40Z</time>
      </trkpt>
      <trkpt lat="45.02773" lon="5.853">
        <ele>1407</ele>
        <time>2022-06-05T10:10:41Z</time>
      </trkpt>
      <trkpt lat="45.02773" lon="5.85301">
        <ele>1407</ele>
        <time>2022-06-05T10:10:42Z</time>
      </trkpt>
      <trkpt lat="45.02773" lon="5.85303">
        <ele>1406</ele>
        <time>2022-06-05T10:10:43Z</time>
      </trkpt>
      <trkpt lat="45.02773" lon="5.85303">
        <ele>1406</ele>
        <time>2022-06-05T10:10:44Z</time>
      </trkpt>
      <trkpt lat="45.02773" lon="5.85304">
        <ele>1406</ele>
        <time>2022-06-05T10:10:45Z</time>
      </trkpt>
      <trkpt lat="45.02773" lon="5.85306">
        <ele>1406</ele>
        <time>2022-06-05T10:10:46Z</time>
      </trkpt>
      <trkpt lat="45.02773" lon="5.85307">
        <ele>1405</ele>
        <time>2022-06-05T10:10:47Z</time>
      </trkpt>
      <trkpt lat="45.02772" lon="5.85308">
        <ele>1405</ele>
        <time>2022-06-05T10:10:48Z</time>
      </trkpt>
      <trkpt lat="45.02772" lon="5.85309">
        <ele>1404</ele>
        <time>2022-06-05T10:10:49Z</time>
      </trkpt>
      <trkpt lat="45.02771" lon="5.8531">
        <ele>1405</ele>
        <time>2022-06-05T10:10:50Z</time>
      </trkpt>
      <trkpt lat="45.02771" lon="5.85311">
        <ele>1404</ele>
        <time>2022-06-05T10:10:51Z</time>
      </trkpt>
      <trkpt lat="45.0277" lon="5.85312">
        <ele>1405</ele>
        <time>2022-06-05T10:10:52Z</time>
      </trkpt>
      <trkpt lat="45.0277" lon="5.85313">
        <ele>1405</ele>
        <time>2022-06-05T10:10:53Z</time>
      </trkpt>
      <trkpt lat="45.0277" lon="5.85314">
        <ele>1405</ele>
        <time>2022-06-05T10:10:54Z</time>
      </trkpt>
      <trkpt lat="45.0277" lon="5.85315">
        <ele>1405</ele>
        <time>2022-06-05T10:10:55Z</time>
      </trkpt>
      <trkpt lat="45.0277" lon="5.85316">
        <ele>1405</ele>
        <time>2022-06-05T10:10:56Z</time>
      </trkpt>
      <trkpt lat="45.0277" lon="5.85317">
        <ele>1405</ele>
        <time>2022-06-05T10:10:57Z</time>
      </trkpt>
      <trkpt lat="45.02769" lon="5.85318">
        <ele>1404</ele>
        <time>2022-06-05T10:10:58Z</time>
      </trkpt>
      <trkpt lat="45.02768" lon="5.85319">
        <ele>1404</ele>
        <time>2022-06-05T10:10:59Z</time>
      </trkpt>
      <trkpt lat="45.02768" lon="5.8532">
        <ele>1404</ele>
        <time>2022-06-05T10:11:00Z</time>
      </trkpt>
      <trkpt lat="45.02767" lon="5.85321">
        <ele>1403</ele>
        <time>2022-06-05T10:11:01Z</time>
      </trkpt>
      <trkpt lat="45.02767" lon="5.85323">
        <ele>1403</ele>
        <time>2022-06-05T10:11:02Z</time>
      </trkpt>
      <trkpt lat="45.02766" lon="5.85325">
        <ele>1403</ele>
        <time>2022-06-05T10:11:03Z</time>
      </trkpt>
      <trkpt lat="45.02766" lon="5.85326">
        <ele>1402</ele>
        <time>2022-06-05T10:11:04Z</time>
      </trkpt>
      <trkpt lat="45.02766" lon="5.85327">
        <ele>1402</ele>
        <time>2022-06-05T10:11:05Z</time>
      </trkpt>
      <trkpt lat="45.02766" lon="5.85328">
        <ele>1402</ele>
        <time>2022-06-05T10:11:06Z</time>
      </trkpt>
      <trkpt lat="45.02765" lon="5.8533">
        <ele>1401</ele>
        <time>2022-06-05T10:11:07Z</time>
      </trkpt>
      <trkpt lat="45.02765" lon="5.85331">
        <ele>1401</ele>
        <time>2022-06-05T10:11:08Z</time>
      </trkpt>
      <trkpt lat="45.02765" lon="5.85332">
        <ele>1401</ele>
        <time>2022-06-05T10:11:09Z</time>
      </trkpt>
      <trkpt lat="45.02765" lon="5.85333">
        <ele>1400</ele>
        <time>2022-06-05T10:11:10Z</time>
      </trkpt>
      <trkpt lat="45.02764" lon="5.85334">
        <ele>1400</ele>
        <time>2022-06-05T10:11:11Z</time>
      </trkpt>
      <trkpt lat="45.02764" lon="5.85335">
        <ele>1400</ele>
        <time>2022-06-05T10:11:12Z</time>
      </trkpt>
      <trkpt lat="45.02763" lon="5.85336">
        <ele>1400</ele>
        <time>2022-06-05T10:11:13Z</time>
      </trkpt>
      <trkpt lat="45.02763" lon="5.85337">
        <ele>1400</ele>
        <time>2022-06-05T10:11:14Z</time>
      </trkpt>
      <trkpt lat="45.02763" lon="5.85339">
        <ele>1400</ele>
        <time>2022-06-05T10:11:15Z</time>
      </trkpt>
      <trkpt lat="45.02763" lon="5.8534">
        <ele>1400</ele>
        <time>2022-06-05T10:11:16Z</time>
      </trkpt>
      <trkpt lat="45.02762" lon="5.85342">
        <ele>1400</ele>
        <time>2022-06-05T10:11:17Z</time>
      </trkpt>
      <trkpt lat="45.02762" lon="5.85343">
        <ele>1400</ele>
        <time>2022-06-05T10:11:18Z</time>
      </trkpt>
      <trkpt lat="45.02762" lon="5.85344">
        <ele>1400</ele>
        <time>2022-06-05T10:11:19Z</time>
      </trkpt>
      <trkpt lat="45.02761" lon="5.85345">
        <ele>1400</ele>
        <time>2022-06-05T10:11:20Z</time>
      </trkpt>
      <trkpt lat="45.02761" lon="5.85346">
        <ele>1400</ele>
        <time>2022-06-05T10:11:21Z</time>
      </trkpt>
      <trkpt lat="45.0276" lon="5.85348">
        <ele>1400</ele>
        <time>2022-06-05T10:11:22Z</time>
      </trkpt>
      <trkpt lat="45.0276" lon="5.85349">
        <ele>1400</ele>
        <time>2022-06-05T10:11:23Z</time>
      </trkpt>
      <trkpt lat="45.0276" lon="5.8535">
        <ele>1401</ele>
        <time>2022-06-05T10:11:24Z</time>
      </trkpt>
      <trkpt lat="45.0276" lon="5.85351">
        <ele>1401</ele>
        <time>2022-06-05T10:11:25Z</time>
      </trkpt>
      <trkpt lat="45.0276" lon="5.85352">
        <ele>1402</ele>
        <time>2022-06-05T10:11:26Z</time>
      </trkpt>
      <trkpt lat="45.0276" lon="5.85354">
        <ele>1402</ele>
        <time>2022-06-05T10:11:27Z</time>
      </trkpt>
      <trkpt lat="45.02759" lon="5.85356">
        <ele>1403</ele>
        <time>2022-06-05T10:11:28Z</time>
      </trkpt>
      <trkpt lat="45.02759" lon="5.85357">
        <ele>1403</ele>
        <time>2022-06-05T10:11:29Z</time>
      </trkpt>
      <trkpt lat="45.02759" lon="5.85359">
        <ele>1403</ele>
        <time>2022-06-05T10:11:30Z</time>
      </trkpt>
      <trkpt lat="45.02759" lon="5.8536">
        <ele>1404</ele>
        <time>2022-06-05T10:11:31Z</time>
      </trkpt>
      <trkpt lat="45.02759" lon="5.85362">
        <ele>1405</ele>
        <time>2022-06-05T10:11:32Z</time>
      </trkpt>
      <trkpt lat="45.02758" lon="5.85363">
        <ele>1405</ele>
        <time>2022-06-05T10:11:33Z</time>
      </trkpt>
      <trkpt lat="45.02758" lon="5.85364">
        <ele>1404</ele>
        <time>2022-06-05T10:11:34Z</time>
      </trkpt>
      <trkpt lat="45.02758" lon="5.85365">
        <ele>1404</ele>
        <time>2022-06-05T10:11:35Z</time>
      </trkpt>
      <trkpt lat="45.02758" lon="5.85366">
        <ele>1404</ele>
        <time>2022-06-05T10:11:36Z</time>
      </trkpt>
      <trkpt lat="45.02757" lon="5.85367">
        <ele>1404</ele>
        <time>2022-06-05T10:11:37Z</time>
      </trkpt>
      <trkpt lat="45.02757" lon="5.85368">
        <ele>1404</ele>
        <time>2022-06-05T10:11:38Z</time>
      </trkpt>
      <trkpt lat="45.02757" lon="5.85369">
        <ele>1404</ele>
        <time>2022-06-05T10:11:39Z</time>
      </trkpt>
      <trkpt lat="45.02756" lon="5.8537">
        <ele>1405</ele>
        <time>2022-06-05T10:11:40Z</time>
      </trkpt>
      <trkpt lat="45.02755" lon="5.85371">
        <ele>1405</ele>
        <time>2022-06-05T10:11:41Z</time>
      </trkpt>
      <trkpt lat="45.02755" lon="5.85372">
        <ele>1405</ele>
        <time>2022-06-05T10:11:42Z</time>
      </trkpt>
      <trkpt lat="45.02754" lon="5.85373">
        <ele>1405</ele>
        <time>2022-06-05T10:11:43Z</time>
      </trkpt>
      <trkpt lat="45.02754" lon="5.85375">
        <ele>1405</ele>
        <time>2022-06-05T10:11:44Z</time>
      </trkpt>
      <trkpt lat="45.02753" lon="5.85376">
        <ele>1405</ele>
        <time>2022-06-05T10:11:45Z</time>
      </trkpt>
      <trkpt lat="45.02753" lon="5.85377">
        <ele>1405</ele>
        <time>2022-06-05T10:11:46Z</time>
      </trkpt>
      <trkpt lat="45.02753" lon="5.85379">
        <ele>1405</ele>
        <time>2022-06-05T10:11:47Z</time>
      </trkpt>
      <trkpt lat="45.02752" lon="5.85379">
        <ele>1404</ele>
        <time>2022-06-05T10:11:48Z</time>
      </trkpt>
      <trkpt lat="45.02752" lon="5.8538">
        <ele>1404</ele>
        <time>2022-06-05T10:11:49Z</time>
      </trkpt>
      <trkpt lat="45.02751" lon="5.85382">
        <ele>1404</ele>
        <time>2022-06-05T10:11:50Z</time>
      </trkpt>
      <trkpt lat="45.02751" lon="5.85383">
        <ele>1403</ele>
        <time>2022-06-05T10:11:51Z</time>
      </trkpt>
      <trkpt lat="45.0275" lon="5.85384">
        <ele>1403</ele>
        <time>2022-06-05T10:11:52Z</time>
      </trkpt>
      <trkpt lat="45.0275" lon="5.85386">
        <ele>1403</ele>
        <time>2022-06-05T10:11:53Z</time>
      </trkpt>
      <trkpt lat="45.02749" lon="5.85387">
        <ele>1403</ele>
        <time>2022-06-05T10:11:54Z</time>
      </trkpt>
      <trkpt lat="45.02749" lon="5.85388">
        <ele>1403</ele>
        <time>2022-06-05T10:11:55Z</time>
      </trkpt>
      <trkpt lat="45.02748" lon="5.8539">
        <ele>1403</ele>
        <time>2022-06-05T10:11:56Z</time>
      </trkpt>
      <trkpt lat="45.02747" lon="5.85392">
        <ele>1403</ele>
        <time>2022-06-05T10:11:57Z</time>
      </trkpt>
      <trkpt lat="45.02747" lon="5.85394">
        <ele>1403</ele>
        <time>2022-06-05T10:11:58Z</time>
      </trkpt>
      <trkpt lat="45.02747" lon="5.85395">
        <ele>1403</ele>
        <time>2022-06-05T10:11:59Z</time>
      </trkpt>
      <trkpt lat="45.02746" lon="5.85396">
        <ele>1403</ele>
        <time>2022-06-05T10:12:00Z</time>
      </trkpt>
      <trkpt lat="45.02745" lon="5.85397">
        <ele>1403</ele>
        <time>2022-06-05T10:12:01Z</time>
      </trkpt>
      <trkpt lat="45.02745" lon="5.85398">
        <ele>1403</ele>
        <time>2022-06-05T10:12:02Z</time>
      </trkpt>
      <trkpt lat="45.02745" lon="5.85399">
        <ele>1402</ele>
        <time>2022-06-05T10:12:03Z</time>
      </trkpt>
      <trkpt lat="45.02745" lon="5.85401">
        <ele>1402</ele>
        <time>2022-06-05T10:12:04Z</time>
      </trkpt>
      <trkpt lat="45.02744" lon="5.85402">
        <ele>1403</ele>
        <time>2022-06-05T10:12:05Z</time>
      </trkpt>
      <trkpt lat="45.02744" lon="5.85403">
        <ele>1403</ele>
        <time>2022-06-05T10:12:06Z</time>
      </trkpt>
      <trkpt lat="45.02743" lon="5.85404">
        <ele>1403</ele>
        <time>2022-06-05T10:12:07Z</time>
      </trkpt>
      <trkpt lat="45.02742" lon="5.85406">
        <ele>1404</ele>
        <time>2022-06-05T10:12:08Z</time>
      </trkpt>
      <trkpt lat="45.02742" lon="5.85407">
        <ele>1404</ele>
        <time>2022-06-05T10:12:09Z</time>
      </trkpt>
      <trkpt lat="45.02742" lon="5.85409">
        <ele>1405</ele>
        <time>2022-06-05T10:12:10Z</time>
      </trkpt>
      <trkpt lat="45.02741" lon="5.8541">
        <ele>1405</ele>
        <time>2022-06-05T10:12:11Z</time>
      </trkpt>
      <trkpt lat="45.02741" lon="5.85411">
        <ele>1405</ele>
        <time>2022-06-05T10:12:12Z</time>
      </trkpt>
      <trkpt lat="45.02741" lon="5.85413">
        <ele>1405</ele>
        <time>2022-06-05T10:12:13Z</time>
      </trkpt>
      <trkpt lat="45.02741" lon="5.85415">
        <ele>1404</ele>
        <time>2022-06-05T10:12:14Z</time>
      </trkpt>
      <trkpt lat="45.02741" lon="5.85415">
        <ele>1404</ele>
        <time>2022-06-05T10:12:15Z</time>
      </trkpt>
      <trkpt lat="45.02741" lon="5.85415">
        <ele>1404</ele>
        <time>2022-06-05T10:12:16Z</time>
      </trkpt>
      <trkpt lat="45.02741" lon="5.85415">
        <ele>1404</ele>
        <time>2022-06-05T10:12:17Z</time>
      </trkpt>
      <trkpt lat="45.02741" lon="5.85415">
        <ele>1404</ele>
        <time>2022-06-05T10:12:17Z</time>
      </trkpt>
      <trkpt lat="45.02741" lon="5.85415">
        <ele>1404</ele>
        <time>2022-06-05T10:12:17Z</time>
      </trkpt>
      <trkpt lat="45.02738" lon="5.85418">
        <ele>1404</ele>
        <time>2022-06-05T10:12:27Z</time>
      </trkpt>
      <trkpt lat="45.02737" lon="5.85418">
        <ele>1404</ele>
        <time>2022-06-05T10:12:28Z</time>
      </trkpt>
      <trkpt lat="45.02737" lon="5.85419">
        <ele>1404</ele>
        <time>2022-06-05T10:12:29Z</time>
      </trkpt>
      <trkpt lat="45.02736" lon="5.8542">
        <ele>1405</ele>
        <time>2022-06-05T10:12:30Z</time>
      </trkpt>
      <trkpt lat="45.02736" lon="5.85422">
        <ele>1405</ele>
        <time>2022-06-05T10:12:31Z</time>
      </trkpt>
      <trkpt lat="45.02736" lon="5.85423">
        <ele>1405</ele>
        <time>2022-06-05T10:12:32Z</time>
      </trkpt>
      <trkpt lat="45.02735" lon="5.85424">
        <ele>1405</ele>
        <time>2022-06-05T10:12:33Z</time>
      </trkpt>
      <trkpt lat="45.02734" lon="5.85425">
        <ele>1405</ele>
        <time>2022-06-05T10:12:34Z</time>
      </trkpt>
      <trkpt lat="45.02733" lon="5.85426">
        <ele>1404</ele>
        <time>2022-06-05T10:12:35Z</time>
      </trkpt>
      <trkpt lat="45.02733" lon="5.85427">
        <ele>1404</ele>
        <time>2022-06-05T10:12:36Z</time>
      </trkpt>
      <trkpt lat="45.02733" lon="5.85428">
        <ele>1403</ele>
        <time>2022-06-05T10:12:37Z</time>
      </trkpt>
      <trkpt lat="45.02732" lon="5.85429">
        <ele>1403</ele>
        <time>2022-06-05T10:12:38Z</time>
      </trkpt>
      <trkpt lat="45.02732" lon="5.8543">
        <ele>1402</ele>
        <time>2022-06-05T10:12:39Z</time>
      </trkpt>
      <trkpt lat="45.02731" lon="5.8543">
        <ele>1402</ele>
        <time>2022-06-05T10:12:40Z</time>
      </trkpt>
      <trkpt lat="45.02731" lon="5.85432">
        <ele>1402</ele>
        <time>2022-06-05T10:12:41Z</time>
      </trkpt>
      <trkpt lat="45.02731" lon="5.85433">
        <ele>1402</ele>
        <time>2022-06-05T10:12:42Z</time>
      </trkpt>
      <trkpt lat="45.02731" lon="5.85434">
        <ele>1402</ele>
        <time>2022-06-05T10:12:43Z</time>
      </trkpt>
      <trkpt lat="45.02731" lon="5.85435">
        <ele>1401</ele>
        <time>2022-06-05T10:12:44Z</time>
      </trkpt>
      <trkpt lat="45.02732" lon="5.85435">
        <ele>1400</ele>
        <time>2022-06-05T10:12:45Z</time>
      </trkpt>
      <trkpt lat="45.02732" lon="5.85435">
        <ele>1399</ele>
        <time>2022-06-05T10:12:46Z</time>
      </trkpt>
      <trkpt lat="45.02732" lon="5.85435">
        <ele>1399</ele>
        <time>2022-06-05T10:12:47Z</time>
      </trkpt>
      <trkpt lat="45.02732" lon="5.85435">
        <ele>1399</ele>
        <time>2022-06-05T10:12:48Z</time>
      </trkpt>
      <trkpt lat="45.02732" lon="5.85435">
        <ele>1399</ele>
        <time>2022-06-05T10:12:48Z</time>
      </trkpt>
      <trkpt lat="45.02732" lon="5.85435">
        <ele>1399</ele>
        <time>2022-06-05T10:12:48Z</time>
      </trkpt>
      <trkpt lat="45.0273" lon="5.8544">
        <ele>1399</ele>
        <time>2022-06-05T10:13:33Z</time>
      </trkpt>
      <trkpt lat="45.02729" lon="5.85442">
        <ele>1399</ele>
        <time>2022-06-05T10:13:34Z</time>
      </trkpt>
      <trkpt lat="45.02728" lon="5.85442">
        <ele>1399</ele>
        <time>2022-06-05T10:13:35Z</time>
      </trkpt>
      <trkpt lat="45.02728" lon="5.85444">
        <ele>1399</ele>
        <time>2022-06-05T10:13:36Z</time>
      </trkpt>
      <trkpt lat="45.02728" lon="5.85445">
        <ele>1400</ele>
        <time>2022-06-05T10:13:37Z</time>
      </trkpt>
      <trkpt lat="45.02728" lon="5.85446">
        <ele>1400</ele>
        <time>2022-06-05T10:13:38Z</time>
      </trkpt>
      <trkpt lat="45.02727" lon="5.85448">
        <ele>1400</ele>
        <time>2022-06-05T10:13:39Z</time>
      </trkpt>
      <trkpt lat="45.02726" lon="5.85449">
        <ele>1400</ele>
        <time>2022-06-05T10:13:40Z</time>
      </trkpt>
      <trkpt lat="45.02725" lon="5.8545">
        <ele>1400</ele>
        <time>2022-06-05T10:13:41Z</time>
      </trkpt>
      <trkpt lat="45.02724" lon="5.85451">
        <ele>1400</ele>
        <time>2022-06-05T10:13:42Z</time>
      </trkpt>
      <trkpt lat="45.02724" lon="5.85453">
        <ele>1400</ele>
        <time>2022-06-05T10:13:43Z</time>
      </trkpt>
      <trkpt lat="45.02723" lon="5.85453">
        <ele>1399</ele>
        <time>2022-06-05T10:13:44Z</time>
      </trkpt>
      <trkpt lat="45.02723" lon="5.85454">
        <ele>1399</ele>
        <time>2022-06-05T10:13:45Z</time>
      </trkpt>
      <trkpt lat="45.02722" lon="5.85456">
        <ele>1399</ele>
        <time>2022-06-05T10:13:46Z</time>
      </trkpt>
      <trkpt lat="45.02721" lon="5.85456">
        <ele>1399</ele>
        <time>2022-06-05T10:13:47Z</time>
      </trkpt>
      <trkpt lat="45.0272" lon="5.85458">
        <ele>1399</ele>
        <time>2022-06-05T10:13:48Z</time>
      </trkpt>
      <trkpt lat="45.0272" lon="5.85458">
        <ele>1399</ele>
        <time>2022-06-05T10:13:49Z</time>
      </trkpt>
      <trkpt lat="45.02719" lon="5.85459">
        <ele>1398</ele>
        <time>2022-06-05T10:13:50Z</time>
      </trkpt>
      <trkpt lat="45.02718" lon="5.8546">
        <ele>1398</ele>
        <time>2022-06-05T10:13:51Z</time>
      </trkpt>
      <trkpt lat="45.02717" lon="5.85461">
        <ele>1398</ele>
        <time>2022-06-05T10:13:52Z</time>
      </trkpt>
      <trkpt lat="45.02717" lon="5.85462">
        <ele>1399</ele>
        <time>2022-06-05T10:13:53Z</time>
      </trkpt>
      <trkpt lat="45.02717" lon="5.85464">
        <ele>1399</ele>
        <time>2022-06-05T10:13:54Z</time>
      </trkpt>
      <trkpt lat="45.02716" lon="5.85465">
        <ele>1399</ele>
        <time>2022-06-05T10:13:55Z</time>
      </trkpt>
      <trkpt lat="45.02716" lon="5.85465">
        <ele>1399</ele>
        <time>2022-06-05T10:13:56Z</time>
      </trkpt>
      <trkpt lat="45.02715" lon="5.85467">
        <ele>1399</ele>
        <time>2022-06-05T10:13:57Z</time>
      </trkpt>
      <trkpt lat="45.02715" lon="5.85468">
        <ele>1399</ele>
        <time>2022-06-05T10:13:58Z</time>
      </trkpt>
      <trkpt lat="45.02715" lon="5.8547">
        <ele>1399</ele>
        <time>2022-06-05T10:13:59Z</time>
      </trkpt>
      <trkpt lat="45.02714" lon="5.85471">
        <ele>1399</ele>
        <time>2022-06-05T10:14:00Z</time>
      </trkpt>
      <trkpt lat="45.02714" lon="5.85472">
        <ele>1399</ele>
        <time>2022-06-05T10:14:01Z</time>
      </trkpt>
      <trkpt lat="45.02713" lon="5.85473">
        <ele>1398</ele>
        <time>2022-06-05T10:14:02Z</time>
      </trkpt>
      <trkpt lat="45.02713" lon="5.85474">
        <ele>1397</ele>
        <time>2022-06-05T10:14:03Z</time>
      </trkpt>
      <trkpt lat="45.02712" lon="5.85475">
        <ele>1397</ele>
        <time>2022-06-05T10:14:04Z</time>
      </trkpt>
      <trkpt lat="45.02711" lon="5.85476">
        <ele>1397</ele>
        <time>2022-06-05T10:14:05Z</time>
      </trkpt>
      <trkpt lat="45.0271" lon="5.85477">
        <ele>1396</ele>
        <time>2022-06-05T10:14:06Z</time>
      </trkpt>
      <trkpt lat="45.0271" lon="5.85478">
        <ele>1396</ele>
        <time>2022-06-05T10:14:07Z</time>
      </trkpt>
      <trkpt lat="45.0271" lon="5.8548">
        <ele>1396</ele>
        <time>2022-06-05T10:14:08Z</time>
      </trkpt>
      <trkpt lat="45.0271" lon="5.85481">
        <ele>1396</ele>
        <time>2022-06-05T10:14:09Z</time>
      </trkpt>
      <trkpt lat="45.02709" lon="5.85483">
        <ele>1397</ele>
        <time>2022-06-05T10:14:10Z</time>
      </trkpt>
      <trkpt lat="45.02709" lon="5.85484">
        <ele>1397</ele>
        <time>2022-06-05T10:14:11Z</time>
      </trkpt>
      <trkpt lat="45.02708" lon="5.85485">
        <ele>1397</ele>
        <time>2022-06-05T10:14:12Z</time>
      </trkpt>
      <trkpt lat="45.02708" lon="5.85487">
        <ele>1397</ele>
        <time>2022-06-05T10:14:13Z</time>
      </trkpt>
      <trkpt lat="45.02708" lon="5.85488">
        <ele>1397</ele>
        <time>2022-06-05T10:14:14Z</time>
      </trkpt>
      <trkpt lat="45.02708" lon="5.85489">
        <ele>1397</ele>
        <time>2022-06-05T10:14:15Z</time>
      </trkpt>
      <trkpt lat="45.02707" lon="5.85491">
        <ele>1396</ele>
        <time>2022-06-05T10:14:16Z</time>
      </trkpt>
      <trkpt lat="45.02707" lon="5.85492">
        <ele>1395</ele>
        <time>2022-06-05T10:14:17Z</time>
      </trkpt>
      <trkpt lat="45.02707" lon="5.85493">
        <ele>1395</ele>
        <time>2022-06-05T10:14:18Z</time>
      </trkpt>
      <trkpt lat="45.02707" lon="5.85494">
        <ele>1396</ele>
        <time>2022-06-05T10:14:19Z</time>
      </trkpt>
      <trkpt lat="45.02706" lon="5.85496">
        <ele>1396</ele>
        <time>2022-06-05T10:14:20Z</time>
      </trkpt>
      <trkpt lat="45.02706" lon="5.85497">
        <ele>1395</ele>
        <time>2022-06-05T10:14:21Z</time>
      </trkpt>
      <trkpt lat="45.02705" lon="5.85498">
        <ele>1394</ele>
        <time>2022-06-05T10:14:22Z</time>
      </trkpt>
      <trkpt lat="45.02705" lon="5.85499">
        <ele>1394</ele>
        <time>2022-06-05T10:14:23Z</time>
      </trkpt>
      <trkpt lat="45.02705" lon="5.85501">
        <ele>1394</ele>
        <time>2022-06-05T10:14:24Z</time>
      </trkpt>
      <trkpt lat="45.02705" lon="5.85502">
        <ele>1393</ele>
        <time>2022-06-05T10:14:25Z</time>
      </trkpt>
      <trkpt lat="45.02705" lon="5.85505">
        <ele>1393</ele>
        <time>2022-06-05T10:14:26Z</time>
      </trkpt>
      <trkpt lat="45.02705" lon="5.85506">
        <ele>1393</ele>
        <time>2022-06-05T10:14:27Z</time>
      </trkpt>
      <trkpt lat="45.02705" lon="5.85508">
        <ele>1393</ele>
        <time>2022-06-05T10:14:28Z</time>
      </trkpt>
      <trkpt lat="45.02705" lon="5.8551">
        <ele>1393</ele>
        <time>2022-06-05T10:14:29Z</time>
      </trkpt>
      <trkpt lat="45.02705" lon="5.85511">
        <ele>1393</ele>
        <time>2022-06-05T10:14:30Z</time>
      </trkpt>
      <trkpt lat="45.02705" lon="5.85513">
        <ele>1394</ele>
        <time>2022-06-05T10:14:31Z</time>
      </trkpt>
      <trkpt lat="45.02705" lon="5.85515">
        <ele>1394</ele>
        <time>2022-06-05T10:14:32Z</time>
      </trkpt>
      <trkpt lat="45.02705" lon="5.85516">
        <ele>1394</ele>
        <time>2022-06-05T10:14:33Z</time>
      </trkpt>
      <trkpt lat="45.02705" lon="5.85518">
        <ele>1394</ele>
        <time>2022-06-05T10:14:34Z</time>
      </trkpt>
      <trkpt lat="45.02705" lon="5.85519">
        <ele>1394</ele>
        <time>2022-06-05T10:14:35Z</time>
      </trkpt>
      <trkpt lat="45.02705" lon="5.8552">
        <ele>1395</ele>
        <time>2022-06-05T10:14:36Z</time>
      </trkpt>
      <trkpt lat="45.02705" lon="5.85521">
        <ele>1395</ele>
        <time>2022-06-05T10:14:37Z</time>
      </trkpt>
      <trkpt lat="45.02705" lon="5.85523">
        <ele>1396</ele>
        <time>2022-06-05T10:14:38Z</time>
      </trkpt>
      <trkpt lat="45.02705" lon="5.85525">
        <ele>1397</ele>
        <time>2022-06-05T10:14:39Z</time>
      </trkpt>
      <trkpt lat="45.02705" lon="5.85526">
        <ele>1397</ele>
        <time>2022-06-05T10:14:40Z</time>
      </trkpt>
      <trkpt lat="45.02704" lon="5.85527">
        <ele>1397</ele>
        <time>2022-06-05T10:14:41Z</time>
      </trkpt>
      <trkpt lat="45.02704" lon="5.85529">
        <ele>1397</ele>
        <time>2022-06-05T10:14:42Z</time>
      </trkpt>
      <trkpt lat="45.02705" lon="5.8553">
        <ele>1396</ele>
        <time>2022-06-05T10:14:43Z</time>
      </trkpt>
      <trkpt lat="45.02705" lon="5.85532">
        <ele>1396</ele>
        <time>2022-06-05T10:14:44Z</time>
      </trkpt>
      <trkpt lat="45.02705" lon="5.85534">
        <ele>1396</ele>
        <time>2022-06-05T10:14:45Z</time>
      </trkpt>
      <trkpt lat="45.02705" lon="5.85535">
        <ele>1397</ele>
        <time>2022-06-05T10:14:46Z</time>
      </trkpt>
      <trkpt lat="45.02705" lon="5.85537">
        <ele>1397</ele>
        <time>2022-06-05T10:14:47Z</time>
      </trkpt>
      <trkpt lat="45.02705" lon="5.85538">
        <ele>1397</ele>
        <time>2022-06-05T10:14:48Z</time>
      </trkpt>
      <trkpt lat="45.02705" lon="5.8554">
        <ele>1397</ele>
        <time>2022-06-05T10:14:49Z</time>
      </trkpt>
      <trkpt lat="45.02705" lon="5.85541">
        <ele>1397</ele>
        <time>2022-06-05T10:14:50Z</time>
      </trkpt>
      <trkpt lat="45.02705" lon="5.85543">
        <ele>1398</ele>
        <time>2022-06-05T10:14:51Z</time>
      </trkpt>
      <trkpt lat="45.02705" lon="5.85544">
        <ele>1398</ele>
        <time>2022-06-05T10:14:52Z</time>
      </trkpt>
      <trkpt lat="45.02705" lon="5.85546">
        <ele>1398</ele>
        <time>2022-06-05T10:14:53Z</time>
      </trkpt>
      <trkpt lat="45.02705" lon="5.85548">
        <ele>1399</ele>
        <time>2022-06-05T10:14:54Z</time>
      </trkpt>
      <trkpt lat="45.02705" lon="5.85549">
        <ele>1398</ele>
        <time>2022-06-05T10:14:55Z</time>
      </trkpt>
      <trkpt lat="45.02705" lon="5.85551">
        <ele>1399</ele>
        <time>2022-06-05T10:14:56Z</time>
      </trkpt>
      <trkpt lat="45.02705" lon="5.85552">
        <ele>1398</ele>
        <time>2022-06-05T10:14:57Z</time>
      </trkpt>
      <trkpt lat="45.02706" lon="5.85554">
        <ele>1398</ele>
        <time>2022-06-05T10:14:58Z</time>
      </trkpt>
      <trkpt lat="45.02706" lon="5.85555">
        <ele>1398</ele>
        <time>2022-06-05T10:14:59Z</time>
      </trkpt>
      <trkpt lat="45.02706" lon="5.85557">
        <ele>1398</ele>
        <time>2022-06-05T10:15:00Z</time>
      </trkpt>
      <trkpt lat="45.02706" lon="5.85559">
        <ele>1398</ele>
        <time>2022-06-05T10:15:01Z</time>
      </trkpt>
      <trkpt lat="45.02706" lon="5.8556">
        <ele>1398</ele>
        <time>2022-06-05T10:15:02Z</time>
      </trkpt>
      <trkpt lat="45.02706" lon="5.85561">
        <ele>1398</ele>
        <time>2022-06-05T10:15:03Z</time>
      </trkpt>
      <trkpt lat="45.02706" lon="5.85563">
        <ele>1397</ele>
        <time>2022-06-05T10:15:04Z</time>
      </trkpt>
      <trkpt lat="45.02706" lon="5.85564">
        <ele>1398</ele>
        <time>2022-06-05T10:15:05Z</time>
      </trkpt>
      <trkpt lat="45.02706" lon="5.85566">
        <ele>1398</ele>
        <time>2022-06-05T10:15:06Z</time>
      </trkpt>
      <trkpt lat="45.02705" lon="5.85567">
        <ele>1398</ele>
        <time>2022-06-05T10:15:07Z</time>
      </trkpt>
      <trkpt lat="45.02705" lon="5.85568">
        <ele>1398</ele>
        <time>2022-06-05T10:15:08Z</time>
      </trkpt>
      <trkpt lat="45.02706" lon="5.8557">
        <ele>1398</ele>
        <time>2022-06-05T10:15:09Z</time>
      </trkpt>
      <trkpt lat="45.02706" lon="5.85571">
        <ele>1398</ele>
        <time>2022-06-05T10:15:10Z</time>
      </trkpt>
      <trkpt lat="45.02706" lon="5.85572">
        <ele>1398</ele>
        <time>2022-06-05T10:15:11Z</time>
      </trkpt>
      <trkpt lat="45.02706" lon="5.85574">
        <ele>1398</ele>
        <time>2022-06-05T10:15:12Z</time>
      </trkpt>
      <trkpt lat="45.02706" lon="5.85576">
        <ele>1399</ele>
        <time>2022-06-05T10:15:13Z</time>
      </trkpt>
      <trkpt lat="45.02706" lon="5.85578">
        <ele>1399</ele>
        <time>2022-06-05T10:15:14Z</time>
      </trkpt>
      <trkpt lat="45.02706" lon="5.85579">
        <ele>1399</ele>
        <time>2022-06-05T10:15:15Z</time>
      </trkpt>
      <trkpt lat="45.02706" lon="5.85581">
        <ele>1400</ele>
        <time>2022-06-05T10:15:16Z</time>
      </trkpt>
      <trkpt lat="45.02706" lon="5.85583">
        <ele>1400</ele>
        <time>2022-06-05T10:15:17Z</time>
      </trkpt>
      <trkpt lat="45.02706" lon="5.85584">
        <ele>1400</ele>
        <time>2022-06-05T10:15:18Z</time>
      </trkpt>
      <trkpt lat="45.02706" lon="5.85585">
        <ele>1400</ele>
        <time>2022-06-05T10:15:19Z</time>
      </trkpt>
      <trkpt lat="45.02706" lon="5.85587">
        <ele>1400</ele>
        <time>2022-06-05T10:15:20Z</time>
      </trkpt>
      <trkpt lat="45.02706" lon="5.85588">
        <ele>1400</ele>
        <time>2022-06-05T10:15:21Z</time>
      </trkpt>
      <trkpt lat="45.02706" lon="5.8559">
        <ele>1400</ele>
        <time>2022-06-05T10:15:22Z</time>
      </trkpt>
      <trkpt lat="45.02706" lon="5.85592">
        <ele>1400</ele>
        <time>2022-06-05T10:15:23Z</time>
      </trkpt>
      <trkpt lat="45.02706" lon="5.85593">
        <ele>1400</ele>
        <time>2022-06-05T10:15:24Z</time>
      </trkpt>
      <trkpt lat="45.02706" lon="5.85595">
        <ele>1399</ele>
        <time>2022-06-05T10:15:25Z</time>
      </trkpt>
      <trkpt lat="45.02706" lon="5.85597">
        <ele>1399</ele>
        <time>2022-06-05T10:15:26Z</time>
      </trkpt>
      <trkpt lat="45.02706" lon="5.85599">
        <ele>1399</ele>
        <time>2022-06-05T10:15:27Z</time>
      </trkpt>
      <trkpt lat="45.02705" lon="5.856">
        <ele>1399</ele>
        <time>2022-06-05T10:15:28Z</time>
      </trkpt>
      <trkpt lat="45.02705" lon="5.85601">
        <ele>1399</ele>
        <time>2022-06-05T10:15:29Z</time>
      </trkpt>
      <trkpt lat="45.02705" lon="5.85602">
        <ele>1398</ele>
        <time>2022-06-05T10:15:30Z</time>
      </trkpt>
      <trkpt lat="45.02706" lon="5.85603">
        <ele>1398</ele>
        <time>2022-06-05T10:15:31Z</time>
      </trkpt>
      <trkpt lat="45.02705" lon="5.85604">
        <ele>1399</ele>
        <time>2022-06-05T10:15:32Z</time>
      </trkpt>
      <trkpt lat="45.02705" lon="5.85605">
        <ele>1398</ele>
        <time>2022-06-05T10:15:33Z</time>
      </trkpt>
      <trkpt lat="45.02705" lon="5.85606">
        <ele>1398</ele>
        <time>2022-06-05T10:15:34Z</time>
      </trkpt>
      <trkpt lat="45.02705" lon="5.85608">
        <ele>1398</ele>
        <time>2022-06-05T10:15:35Z</time>
      </trkpt>
      <trkpt lat="45.02705" lon="5.85609">
        <ele>1398</ele>
        <time>2022-06-05T10:15:36Z</time>
      </trkpt>
      <trkpt lat="45.02705" lon="5.85611">
        <ele>1397</ele>
        <time>2022-06-05T10:15:37Z</time>
      </trkpt>
      <trkpt lat="45.02704" lon="5.85612">
        <ele>1397</ele>
        <time>2022-06-05T10:15:38Z</time>
      </trkpt>
      <trkpt lat="45.02704" lon="5.85614">
        <ele>1398</ele>
        <time>2022-06-05T10:15:39Z</time>
      </trkpt>
      <trkpt lat="45.02704" lon="5.85615">
        <ele>1398</ele>
        <time>2022-06-05T10:15:40Z</time>
      </trkpt>
      <trkpt lat="45.02704" lon="5.85617">
        <ele>1398</ele>
        <time>2022-06-05T10:15:41Z</time>
      </trkpt>
      <trkpt lat="45.02704" lon="5.85618">
        <ele>1398</ele>
        <time>2022-06-05T10:15:42Z</time>
      </trkpt>
      <trkpt lat="45.02704" lon="5.85619">
        <ele>1398</ele>
        <time>2022-06-05T10:15:43Z</time>
      </trkpt>
      <trkpt lat="45.02704" lon="5.8562">
        <ele>1398</ele>
        <time>2022-06-05T10:15:44Z</time>
      </trkpt>
      <trkpt lat="45.02703" lon="5.85622">
        <ele>1398</ele>
        <time>2022-06-05T10:15:45Z</time>
      </trkpt>
      <trkpt lat="45.02703" lon="5.85624">
        <ele>1398</ele>
        <time>2022-06-05T10:15:46Z</time>
      </trkpt>
      <trkpt lat="45.02703" lon="5.85625">
        <ele>1398</ele>
        <time>2022-06-05T10:15:47Z</time>
      </trkpt>
      <trkpt lat="45.02702" lon="5.85627">
        <ele>1398</ele>
        <time>2022-06-05T10:15:48Z</time>
      </trkpt>
      <trkpt lat="45.02702" lon="5.85628">
        <ele>1398</ele>
        <time>2022-06-05T10:15:49Z</time>
      </trkpt>
      <trkpt lat="45.02702" lon="5.85629">
        <ele>1398</ele>
        <time>2022-06-05T10:15:50Z</time>
      </trkpt>
      <trkpt lat="45.02701" lon="5.8563">
        <ele>1397</ele>
        <time>2022-06-05T10:15:51Z</time>
      </trkpt>
      <trkpt lat="45.02701" lon="5.85632">
        <ele>1397</ele>
        <time>2022-06-05T10:15:52Z</time>
      </trkpt>
      <trkpt lat="45.02701" lon="5.85633">
        <ele>1397</ele>
        <time>2022-06-05T10:15:53Z</time>
      </trkpt>
      <trkpt lat="45.02701" lon="5.85634">
        <ele>1397</ele>
        <time>2022-06-05T10:15:54Z</time>
      </trkpt>
      <trkpt lat="45.02701" lon="5.85635">
        <ele>1397</ele>
        <time>2022-06-05T10:15:55Z</time>
      </trkpt>
      <trkpt lat="45.02701" lon="5.85637">
        <ele>1397</ele>
        <time>2022-06-05T10:15:56Z</time>
      </trkpt>
      <trkpt lat="45.02701" lon="5.85639">
        <ele>1396</ele>
        <time>2022-06-05T10:15:57Z</time>
      </trkpt>
      <trkpt lat="45.027" lon="5.8564">
        <ele>1397</ele>
        <time>2022-06-05T10:15:58Z</time>
      </trkpt>
      <trkpt lat="45.027" lon="5.85642">
        <ele>1397</ele>
        <time>2022-06-05T10:15:59Z</time>
      </trkpt>
      <trkpt lat="45.027" lon="5.85643">
        <ele>1397</ele>
        <time>2022-06-05T10:16:00Z</time>
      </trkpt>
      <trkpt lat="45.02699" lon="5.85644">
        <ele>1397</ele>
        <time>2022-06-05T10:16:01Z</time>
      </trkpt>
      <trkpt lat="45.02699" lon="5.85645">
        <ele>1397</ele>
        <time>2022-06-05T10:16:02Z</time>
      </trkpt>
      <trkpt lat="45.02699" lon="5.85646">
        <ele>1396</ele>
        <time>2022-06-05T10:16:03Z</time>
      </trkpt>
      <trkpt lat="45.02699" lon="5.85647">
        <ele>1397</ele>
        <time>2022-06-05T10:16:04Z</time>
      </trkpt>
      <trkpt lat="45.02698" lon="5.85649">
        <ele>1397</ele>
        <time>2022-06-05T10:16:05Z</time>
      </trkpt>
      <trkpt lat="45.02699" lon="5.8565">
        <ele>1397</ele>
        <time>2022-06-05T10:16:06Z</time>
      </trkpt>
      <trkpt lat="45.02698" lon="5.85652">
        <ele>1397</ele>
        <time>2022-06-05T10:16:07Z</time>
      </trkpt>
      <trkpt lat="45.02698" lon="5.85653">
        <ele>1396</ele>
        <time>2022-06-05T10:16:08Z</time>
      </trkpt>
      <trkpt lat="45.02697" lon="5.85654">
        <ele>1396</ele>
        <time>2022-06-05T10:16:09Z</time>
      </trkpt>
      <trkpt lat="45.02697" lon="5.85655">
        <ele>1396</ele>
        <time>2022-06-05T10:16:10Z</time>
      </trkpt>
      <trkpt lat="45.02697" lon="5.85657">
        <ele>1396</ele>
        <time>2022-06-05T10:16:11Z</time>
      </trkpt>
      <trkpt lat="45.02697" lon="5.85659">
        <ele>1396</ele>
        <time>2022-06-05T10:16:12Z</time>
      </trkpt>
      <trkpt lat="45.02696" lon="5.8566">
        <ele>1396</ele>
        <time>2022-06-05T10:16:13Z</time>
      </trkpt>
      <trkpt lat="45.02696" lon="5.85662">
        <ele>1396</ele>
        <time>2022-06-05T10:16:14Z</time>
      </trkpt>
      <trkpt lat="45.02696" lon="5.85663">
        <ele>1396</ele>
        <time>2022-06-05T10:16:15Z</time>
      </trkpt>
      <trkpt lat="45.02695" lon="5.85664">
        <ele>1396</ele>
        <time>2022-06-05T10:16:16Z</time>
      </trkpt>
      <trkpt lat="45.02695" lon="5.85666">
        <ele>1396</ele>
        <time>2022-06-05T10:16:17Z</time>
      </trkpt>
      <trkpt lat="45.02695" lon="5.85667">
        <ele>1396</ele>
        <time>2022-06-05T10:16:18Z</time>
      </trkpt>
      <trkpt lat="45.02695" lon="5.85668">
        <ele>1395</ele>
        <time>2022-06-05T10:16:19Z</time>
      </trkpt>
      <trkpt lat="45.02694" lon="5.85669">
        <ele>1395</ele>
        <time>2022-06-05T10:16:20Z</time>
      </trkpt>
      <trkpt lat="45.02694" lon="5.8567">
        <ele>1396</ele>
        <time>2022-06-05T10:16:21Z</time>
      </trkpt>
      <trkpt lat="45.02694" lon="5.85671">
        <ele>1397</ele>
        <time>2022-06-05T10:16:22Z</time>
      </trkpt>
      <trkpt lat="45.02694" lon="5.85673">
        <ele>1397</ele>
        <time>2022-06-05T10:16:23Z</time>
      </trkpt>
      <trkpt lat="45.02694" lon="5.85674">
        <ele>1398</ele>
        <time>2022-06-05T10:16:24Z</time>
      </trkpt>
      <trkpt lat="45.02693" lon="5.85675">
        <ele>1399</ele>
        <time>2022-06-05T10:16:25Z</time>
      </trkpt>
      <trkpt lat="45.02693" lon="5.85677">
        <ele>1399</ele>
        <time>2022-06-05T10:16:26Z</time>
      </trkpt>
      <trkpt lat="45.02693" lon="5.85678">
        <ele>1399</ele>
        <time>2022-06-05T10:16:27Z</time>
      </trkpt>
      <trkpt lat="45.02693" lon="5.85679">
        <ele>1399</ele>
        <time>2022-06-05T10:16:28Z</time>
      </trkpt>
      <trkpt lat="45.02693" lon="5.85681">
        <ele>1399</ele>
        <time>2022-06-05T10:16:29Z</time>
      </trkpt>
      <trkpt lat="45.02692" lon="5.85683">
        <ele>1399</ele>
        <time>2022-06-05T10:16:30Z</time>
      </trkpt>
      <trkpt lat="45.02692" lon="5.85684">
        <ele>1399</ele>
        <time>2022-06-05T10:16:31Z</time>
      </trkpt>
      <trkpt lat="45.02692" lon="5.85686">
        <ele>1400</ele>
        <time>2022-06-05T10:16:32Z</time>
      </trkpt>
      <trkpt lat="45.02691" lon="5.85687">
        <ele>1399</ele>
        <time>2022-06-05T10:16:33Z</time>
      </trkpt>
      <trkpt lat="45.02691" lon="5.85688">
        <ele>1400</ele>
        <time>2022-06-05T10:16:34Z</time>
      </trkpt>
      <trkpt lat="45.02691" lon="5.8569">
        <ele>1400</ele>
        <time>2022-06-05T10:16:35Z</time>
      </trkpt>
      <trkpt lat="45.02691" lon="5.85691">
        <ele>1400</ele>
        <time>2022-06-05T10:16:36Z</time>
      </trkpt>
      <trkpt lat="45.02691" lon="5.85692">
        <ele>1400</ele>
        <time>2022-06-05T10:16:37Z</time>
      </trkpt>
      <trkpt lat="45.02691" lon="5.85694">
        <ele>1400</ele>
        <time>2022-06-05T10:16:38Z</time>
      </trkpt>
      <trkpt lat="45.02691" lon="5.85696">
        <ele>1401</ele>
        <time>2022-06-05T10:16:39Z</time>
      </trkpt>
      <trkpt lat="45.02691" lon="5.85697">
        <ele>1400</ele>
        <time>2022-06-05T10:16:40Z</time>
      </trkpt>
      <trkpt lat="45.0269" lon="5.85699">
        <ele>1400</ele>
        <time>2022-06-05T10:16:41Z</time>
      </trkpt>
      <trkpt lat="45.0269" lon="5.857">
        <ele>1400</ele>
        <time>2022-06-05T10:16:42Z</time>
      </trkpt>
      <trkpt lat="45.02689" lon="5.85702">
        <ele>1400</ele>
        <time>2022-06-05T10:16:43Z</time>
      </trkpt>
      <trkpt lat="45.02689" lon="5.85704">
        <ele>1399</ele>
        <time>2022-06-05T10:16:44Z</time>
      </trkpt>
      <trkpt lat="45.02689" lon="5.85706">
        <ele>1399</ele>
        <time>2022-06-05T10:16:45Z</time>
      </trkpt>
      <trkpt lat="45.02689" lon="5.85707">
        <ele>1399</ele>
        <time>2022-06-05T10:16:46Z</time>
      </trkpt>
      <trkpt lat="45.02688" lon="5.85709">
        <ele>1398</ele>
        <time>2022-06-05T10:16:47Z</time>
      </trkpt>
      <trkpt lat="45.02688" lon="5.85711">
        <ele>1398</ele>
        <time>2022-06-05T10:16:48Z</time>
      </trkpt>
      <trkpt lat="45.02688" lon="5.85712">
        <ele>1398</ele>
        <time>2022-06-05T10:16:49Z</time>
      </trkpt>
      <trkpt lat="45.02688" lon="5.85713">
        <ele>1397</ele>
        <time>2022-06-05T10:16:50Z</time>
      </trkpt>
      <trkpt lat="45.02688" lon="5.85715">
        <ele>1397</ele>
        <time>2022-06-05T10:16:51Z</time>
      </trkpt>
      <trkpt lat="45.02688" lon="5.85716">
        <ele>1396</ele>
        <time>2022-06-05T10:16:52Z</time>
      </trkpt>
      <trkpt lat="45.02688" lon="5.85719">
        <ele>1396</ele>
        <time>2022-06-05T10:16:53Z</time>
      </trkpt>
      <trkpt lat="45.02688" lon="5.8572">
        <ele>1396</ele>
        <time>2022-06-05T10:16:54Z</time>
      </trkpt>
      <trkpt lat="45.02688" lon="5.85721">
        <ele>1397</ele>
        <time>2022-06-05T10:16:55Z</time>
      </trkpt>
      <trkpt lat="45.02688" lon="5.85723">
        <ele>1397</ele>
        <time>2022-06-05T10:16:56Z</time>
      </trkpt>
      <trkpt lat="45.02688" lon="5.85725">
        <ele>1397</ele>
        <time>2022-06-05T10:16:57Z</time>
      </trkpt>
      <trkpt lat="45.02688" lon="5.85726">
        <ele>1397</ele>
        <time>2022-06-05T10:16:58Z</time>
      </trkpt>
      <trkpt lat="45.02688" lon="5.85728">
        <ele>1397</ele>
        <time>2022-06-05T10:16:59Z</time>
      </trkpt>
      <trkpt lat="45.02688" lon="5.8573">
        <ele>1398</ele>
        <time>2022-06-05T10:17:00Z</time>
      </trkpt>
      <trkpt lat="45.02688" lon="5.85732">
        <ele>1398</ele>
        <time>2022-06-05T10:17:01Z</time>
      </trkpt>
      <trkpt lat="45.02688" lon="5.85734">
        <ele>1398</ele>
        <time>2022-06-05T10:17:02Z</time>
      </trkpt>
      <trkpt lat="45.02688" lon="5.85736">
        <ele>1398</ele>
        <time>2022-06-05T10:17:03Z</time>
      </trkpt>
      <trkpt lat="45.02688" lon="5.85737">
        <ele>1398</ele>
        <time>2022-06-05T10:17:04Z</time>
      </trkpt>
      <trkpt lat="45.02688" lon="5.85738">
        <ele>1397</ele>
        <time>2022-06-05T10:17:05Z</time>
      </trkpt>
      <trkpt lat="45.02688" lon="5.8574">
        <ele>1397</ele>
        <time>2022-06-05T10:17:06Z</time>
      </trkpt>
      <trkpt lat="45.02688" lon="5.85741">
        <ele>1396</ele>
        <time>2022-06-05T10:17:07Z</time>
      </trkpt>
      <trkpt lat="45.02688" lon="5.85743">
        <ele>1396</ele>
        <time>2022-06-05T10:17:08Z</time>
      </trkpt>
      <trkpt lat="45.02688" lon="5.85745">
        <ele>1396</ele>
        <time>2022-06-05T10:17:09Z</time>
      </trkpt>
      <trkpt lat="45.02687" lon="5.85749">
        <ele>1396</ele>
        <time>2022-06-05T10:17:11Z</time>
      </trkpt>
      <trkpt lat="45.02687" lon="5.85752">
        <ele>1396</ele>
        <time>2022-06-05T10:17:13Z</time>
      </trkpt>
      <trkpt lat="45.02687" lon="5.85754">
        <ele>1396</ele>
        <time>2022-06-05T10:17:14Z</time>
      </trkpt>
      <trkpt lat="45.02688" lon="5.85755">
        <ele>1397</ele>
        <time>2022-06-05T10:17:15Z</time>
      </trkpt>
      <trkpt lat="45.02688" lon="5.85757">
        <ele>1397</ele>
        <time>2022-06-05T10:17:16Z</time>
      </trkpt>
      <trkpt lat="45.02688" lon="5.85758">
        <ele>1397</ele>
        <time>2022-06-05T10:17:17Z</time>
      </trkpt>
      <trkpt lat="45.02687" lon="5.8576">
        <ele>1397</ele>
        <time>2022-06-05T10:17:18Z</time>
      </trkpt>
      <trkpt lat="45.02688" lon="5.85761">
        <ele>1397</ele>
        <time>2022-06-05T10:17:19Z</time>
      </trkpt>
      <trkpt lat="45.02688" lon="5.85763">
        <ele>1397</ele>
        <time>2022-06-05T10:17:20Z</time>
      </trkpt>
      <trkpt lat="45.02688" lon="5.85765">
        <ele>1397</ele>
        <time>2022-06-05T10:17:21Z</time>
      </trkpt>
      <trkpt lat="45.02688" lon="5.85766">
        <ele>1396</ele>
        <time>2022-06-05T10:17:22Z</time>
      </trkpt>
      <trkpt lat="45.02689" lon="5.85767">
        <ele>1397</ele>
        <time>2022-06-05T10:17:23Z</time>
      </trkpt>
      <trkpt lat="45.02688" lon="5.85768">
        <ele>1396</ele>
        <time>2022-06-05T10:17:24Z</time>
      </trkpt>
      <trkpt lat="45.02688" lon="5.8577">
        <ele>1396</ele>
        <time>2022-06-05T10:17:25Z</time>
      </trkpt>
      <trkpt lat="45.02688" lon="5.85771">
        <ele>1396</ele>
        <time>2022-06-05T10:17:26Z</time>
      </trkpt>
      <trkpt lat="45.02689" lon="5.85772">
        <ele>1396</ele>
        <time>2022-06-05T10:17:27Z</time>
      </trkpt>
      <trkpt lat="45.02688" lon="5.85773">
        <ele>1396</ele>
        <time>2022-06-05T10:17:28Z</time>
      </trkpt>
      <trkpt lat="45.02688" lon="5.85775">
        <ele>1396</ele>
        <time>2022-06-05T10:17:29Z</time>
      </trkpt>
      <trkpt lat="45.02688" lon="5.85776">
        <ele>1395</ele>
        <time>2022-06-05T10:17:30Z</time>
      </trkpt>
      <trkpt lat="45.02688" lon="5.85778">
        <ele>1395</ele>
        <time>2022-06-05T10:17:31Z</time>
      </trkpt>
      <trkpt lat="45.02689" lon="5.85779">
        <ele>1396</ele>
        <time>2022-06-05T10:17:32Z</time>
      </trkpt>
      <trkpt lat="45.02689" lon="5.85781">
        <ele>1396</ele>
        <time>2022-06-05T10:17:33Z</time>
      </trkpt>
      <trkpt lat="45.02689" lon="5.85782">
        <ele>1396</ele>
        <time>2022-06-05T10:17:34Z</time>
      </trkpt>
      <trkpt lat="45.02689" lon="5.85784">
        <ele>1396</ele>
        <time>2022-06-05T10:17:35Z</time>
      </trkpt>
      <trkpt lat="45.0269" lon="5.85786">
        <ele>1396</ele>
        <time>2022-06-05T10:17:36Z</time>
      </trkpt>
      <trkpt lat="45.0269" lon="5.85787">
        <ele>1395</ele>
        <time>2022-06-05T10:17:37Z</time>
      </trkpt>
      <trkpt lat="45.02691" lon="5.85789">
        <ele>1396</ele>
        <time>2022-06-05T10:17:38Z</time>
      </trkpt>
      <trkpt lat="45.02691" lon="5.85791">
        <ele>1397</ele>
        <time>2022-06-05T10:17:39Z</time>
      </trkpt>
      <trkpt lat="45.02692" lon="5.85793">
        <ele>1397</ele>
        <time>2022-06-05T10:17:40Z</time>
      </trkpt>
      <trkpt lat="45.02692" lon="5.85795">
        <ele>1397</ele>
        <time>2022-06-05T10:17:41Z</time>
      </trkpt>
      <trkpt lat="45.02693" lon="5.85796">
        <ele>1397</ele>
        <time>2022-06-05T10:17:42Z</time>
      </trkpt>
      <trkpt lat="45.02694" lon="5.85798">
        <ele>1397</ele>
        <time>2022-06-05T10:17:43Z</time>
      </trkpt>
      <trkpt lat="45.02694" lon="5.85799">
        <ele>1397</ele>
        <time>2022-06-05T10:17:44Z</time>
      </trkpt>
      <trkpt lat="45.02695" lon="5.858">
        <ele>1397</ele>
        <time>2022-06-05T10:17:45Z</time>
      </trkpt>
      <trkpt lat="45.02695" lon="5.85801">
        <ele>1396</ele>
        <time>2022-06-05T10:17:46Z</time>
      </trkpt>
      <trkpt lat="45.02696" lon="5.85802">
        <ele>1396</ele>
        <time>2022-06-05T10:17:47Z</time>
      </trkpt>
      <trkpt lat="45.02697" lon="5.85803">
        <ele>1396</ele>
        <time>2022-06-05T10:17:48Z</time>
      </trkpt>
      <trkpt lat="45.02697" lon="5.85803">
        <ele>1396</ele>
        <time>2022-06-05T10:17:49Z</time>
      </trkpt>
      <trkpt lat="45.02698" lon="5.85804">
        <ele>1396</ele>
        <time>2022-06-05T10:17:50Z</time>
      </trkpt>
      <trkpt lat="45.02699" lon="5.85805">
        <ele>1396</ele>
        <time>2022-06-05T10:17:51Z</time>
      </trkpt>
      <trkpt lat="45.02699" lon="5.85805">
        <ele>1396</ele>
        <time>2022-06-05T10:17:52Z</time>
      </trkpt>
      <trkpt lat="45.027" lon="5.85806">
        <ele>1397</ele>
        <time>2022-06-05T10:17:53Z</time>
      </trkpt>
      <trkpt lat="45.02701" lon="5.85806">
        <ele>1398</ele>
        <time>2022-06-05T10:17:54Z</time>
      </trkpt>
      <trkpt lat="45.02702" lon="5.85806">
        <ele>1397</ele>
        <time>2022-06-05T10:17:55Z</time>
      </trkpt>
      <trkpt lat="45.02703" lon="5.85806">
        <ele>1397</ele>
        <time>2022-06-05T10:17:56Z</time>
      </trkpt>
      <trkpt lat="45.02704" lon="5.85805">
        <ele>1398</ele>
        <time>2022-06-05T10:17:57Z</time>
      </trkpt>
      <trkpt lat="45.02705" lon="5.85805">
        <ele>1399</ele>
        <time>2022-06-05T10:17:58Z</time>
      </trkpt>
      <trkpt lat="45.02707" lon="5.85804">
        <ele>1400</ele>
        <time>2022-06-05T10:17:59Z</time>
      </trkpt>
      <trkpt lat="45.02708" lon="5.85804">
        <ele>1401</ele>
        <time>2022-06-05T10:18:00Z</time>
      </trkpt>
      <trkpt lat="45.02708" lon="5.85803">
        <ele>1402</ele>
        <time>2022-06-05T10:18:01Z</time>
      </trkpt>
      <trkpt lat="45.0271" lon="5.85802">
        <ele>1402</ele>
        <time>2022-06-05T10:18:02Z</time>
      </trkpt>
      <trkpt lat="45.02711" lon="5.85802">
        <ele>1402</ele>
        <time>2022-06-05T10:18:03Z</time>
      </trkpt>
      <trkpt lat="45.02712" lon="5.85801">
        <ele>1402</ele>
        <time>2022-06-05T10:18:04Z</time>
      </trkpt>
      <trkpt lat="45.02713" lon="5.85801">
        <ele>1402</ele>
        <time>2022-06-05T10:18:05Z</time>
      </trkpt>
      <trkpt lat="45.02714" lon="5.85801">
        <ele>1401</ele>
        <time>2022-06-05T10:18:06Z</time>
      </trkpt>
      <trkpt lat="45.02715" lon="5.85801">
        <ele>1402</ele>
        <time>2022-06-05T10:18:07Z</time>
      </trkpt>
      <trkpt lat="45.02716" lon="5.85801">
        <ele>1403</ele>
        <time>2022-06-05T10:18:08Z</time>
      </trkpt>
      <trkpt lat="45.02717" lon="5.85801">
        <ele>1404</ele>
        <time>2022-06-05T10:18:09Z</time>
      </trkpt>
      <trkpt lat="45.02718" lon="5.85801">
        <ele>1403</ele>
        <time>2022-06-05T10:18:10Z</time>
      </trkpt>
      <trkpt lat="45.02719" lon="5.85801">
        <ele>1403</ele>
        <time>2022-06-05T10:18:11Z</time>
      </trkpt>
      <trkpt lat="45.0272" lon="5.85801">
        <ele>1403</ele>
        <time>2022-06-05T10:18:12Z</time>
      </trkpt>
      <trkpt lat="45.02721" lon="5.858">
        <ele>1404</ele>
        <time>2022-06-05T10:18:13Z</time>
      </trkpt>
      <trkpt lat="45.02723" lon="5.858">
        <ele>1404</ele>
        <time>2022-06-05T10:18:14Z</time>
      </trkpt>
      <trkpt lat="45.02724" lon="5.85799">
        <ele>1404</ele>
        <time>2022-06-05T10:18:15Z</time>
      </trkpt>
      <trkpt lat="45.02725" lon="5.85798">
        <ele>1405</ele>
        <time>2022-06-05T10:18:16Z</time>
      </trkpt>
      <trkpt lat="45.02726" lon="5.85797">
        <ele>1405</ele>
        <time>2022-06-05T10:18:17Z</time>
      </trkpt>
      <trkpt lat="45.02728" lon="5.85797">
        <ele>1404</ele>
        <time>2022-06-05T10:18:18Z</time>
      </trkpt>
      <trkpt lat="45.02729" lon="5.85798">
        <ele>1404</ele>
        <time>2022-06-05T10:18:19Z</time>
      </trkpt>
      <trkpt lat="45.02731" lon="5.85799">
        <ele>1403</ele>
        <time>2022-06-05T10:18:20Z</time>
      </trkpt>
      <trkpt lat="45.02731" lon="5.858">
        <ele>1403</ele>
        <time>2022-06-05T10:18:21Z</time>
      </trkpt>
      <trkpt lat="45.02733" lon="5.85801">
        <ele>1402</ele>
        <time>2022-06-05T10:18:22Z</time>
      </trkpt>
      <trkpt lat="45.02733" lon="5.85802">
        <ele>1403</ele>
        <time>2022-06-05T10:18:23Z</time>
      </trkpt>
      <trkpt lat="45.02734" lon="5.85802">
        <ele>1403</ele>
        <time>2022-06-05T10:18:24Z</time>
      </trkpt>
      <trkpt lat="45.02735" lon="5.85802">
        <ele>1402</ele>
        <time>2022-06-05T10:18:25Z</time>
      </trkpt>
      <trkpt lat="45.02736" lon="5.85802">
        <ele>1402</ele>
        <time>2022-06-05T10:18:26Z</time>
      </trkpt>
      <trkpt lat="45.02737" lon="5.85802">
        <ele>1402</ele>
        <time>2022-06-05T10:18:27Z</time>
      </trkpt>
      <trkpt lat="45.02738" lon="5.85802">
        <ele>1402</ele>
        <time>2022-06-05T10:18:28Z</time>
      </trkpt>
      <trkpt lat="45.02739" lon="5.85802">
        <ele>1401</ele>
        <time>2022-06-05T10:18:29Z</time>
      </trkpt>
      <trkpt lat="45.02741" lon="5.85802">
        <ele>1401</ele>
        <time>2022-06-05T10:18:30Z</time>
      </trkpt>
      <trkpt lat="45.02741" lon="5.85801">
        <ele>1400</ele>
        <time>2022-06-05T10:18:31Z</time>
      </trkpt>
      <trkpt lat="45.02742" lon="5.85801">
        <ele>1400</ele>
        <time>2022-06-05T10:18:32Z</time>
      </trkpt>
      <trkpt lat="45.02744" lon="5.85801">
        <ele>1400</ele>
        <time>2022-06-05T10:18:33Z</time>
      </trkpt>
      <trkpt lat="45.02744" lon="5.85801">
        <ele>1399</ele>
        <time>2022-06-05T10:18:34Z</time>
      </trkpt>
      <trkpt lat="45.02745" lon="5.85803">
        <ele>1399</ele>
        <time>2022-06-05T10:18:35Z</time>
      </trkpt>
      <trkpt lat="45.02747" lon="5.85803">
        <ele>1400</ele>
        <time>2022-06-05T10:18:36Z</time>
      </trkpt>
      <trkpt lat="45.02748" lon="5.85803">
        <ele>1401</ele>
        <time>2022-06-05T10:18:37Z</time>
      </trkpt>
      <trkpt lat="45.02749" lon="5.85803">
        <ele>1401</ele>
        <time>2022-06-05T10:18:38Z</time>
      </trkpt>
      <trkpt lat="45.02749" lon="5.85804">
        <ele>1402</ele>
        <time>2022-06-05T10:18:39Z</time>
      </trkpt>
      <trkpt lat="45.0275" lon="5.85804">
        <ele>1402</ele>
        <time>2022-06-05T10:18:40Z</time>
      </trkpt>
      <trkpt lat="45.02752" lon="5.85804">
        <ele>1402</ele>
        <time>2022-06-05T10:18:41Z</time>
      </trkpt>
      <trkpt lat="45.02752" lon="5.85804">
        <ele>1402</ele>
        <time>2022-06-05T10:18:42Z</time>
      </trkpt>
      <trkpt lat="45.02753" lon="5.85804">
        <ele>1403</ele>
        <time>2022-06-05T10:18:43Z</time>
      </trkpt>
      <trkpt lat="45.02754" lon="5.85804">
        <ele>1403</ele>
        <time>2022-06-05T10:18:44Z</time>
      </trkpt>
      <trkpt lat="45.02755" lon="5.85804">
        <ele>1404</ele>
        <time>2022-06-05T10:18:45Z</time>
      </trkpt>
      <trkpt lat="45.02756" lon="5.85805">
        <ele>1405</ele>
        <time>2022-06-05T10:18:46Z</time>
      </trkpt>
      <trkpt lat="45.02757" lon="5.85804">
        <ele>1406</ele>
        <time>2022-06-05T10:18:47Z</time>
      </trkpt>
      <trkpt lat="45.02757" lon="5.85804">
        <ele>1406</ele>
        <time>2022-06-05T10:18:48Z</time>
      </trkpt>
      <trkpt lat="45.02758" lon="5.85804">
        <ele>1406</ele>
        <time>2022-06-05T10:18:49Z</time>
      </trkpt>
      <trkpt lat="45.02758" lon="5.85804">
        <ele>1407</ele>
        <time>2022-06-05T10:18:50Z</time>
      </trkpt>
      <trkpt lat="45.02759" lon="5.85803">
        <ele>1407</ele>
        <time>2022-06-05T10:18:51Z</time>
      </trkpt>
      <trkpt lat="45.0276" lon="5.85802">
        <ele>1407</ele>
        <time>2022-06-05T10:18:52Z</time>
      </trkpt>
      <trkpt lat="45.02762" lon="5.85801">
        <ele>1407</ele>
        <time>2022-06-05T10:18:53Z</time>
      </trkpt>
      <trkpt lat="45.02763" lon="5.85801">
        <ele>1407</ele>
        <time>2022-06-05T10:18:54Z</time>
      </trkpt>
      <trkpt lat="45.02763" lon="5.858">
        <ele>1407</ele>
        <time>2022-06-05T10:18:55Z</time>
      </trkpt>
      <trkpt lat="45.02765" lon="5.85799">
        <ele>1407</ele>
        <time>2022-06-05T10:18:56Z</time>
      </trkpt>
      <trkpt lat="45.02766" lon="5.85799">
        <ele>1407</ele>
        <time>2022-06-05T10:18:57Z</time>
      </trkpt>
      <trkpt lat="45.02767" lon="5.85798">
        <ele>1407</ele>
        <time>2022-06-05T10:18:58Z</time>
      </trkpt>
      <trkpt lat="45.02767" lon="5.85798">
        <ele>1406</ele>
        <time>2022-06-05T10:18:59Z</time>
      </trkpt>
      <trkpt lat="45.02767" lon="5.85798">
        <ele>1406</ele>
        <time>2022-06-05T10:19:00Z</time>
      </trkpt>
      <trkpt lat="45.02767" lon="5.85798">
        <ele>1406</ele>
        <time>2022-06-05T10:19:01Z</time>
      </trkpt>
      <trkpt lat="45.02767" lon="5.85798">
        <ele>1406</ele>
        <time>2022-06-05T10:19:02Z</time>
      </trkpt>
      <trkpt lat="45.02767" lon="5.85798">
        <ele>1406</ele>
        <time>2022-06-05T10:19:02Z</time>
      </trkpt>
      <trkpt lat="45.02767" lon="5.85798">
        <ele>1406</ele>
        <time>2022-06-05T10:19:02Z</time>
      </trkpt>
      <trkpt lat="45.02771" lon="5.85796">
        <ele>1407</ele>
        <time>2022-06-05T10:19:08Z</time>
      </trkpt>
      <trkpt lat="45.02773" lon="5.85796">
        <ele>1408</ele>
        <time>2022-06-05T10:19:09Z</time>
      </trkpt>
      <trkpt lat="45.02773" lon="5.85796">
        <ele>1409</ele>
        <time>2022-06-05T10:19:10Z</time>
      </trkpt>
      <trkpt lat="45.02774" lon="5.85794">
        <ele>1409</ele>
        <time>2022-06-05T10:19:11Z</time>
      </trkpt>
      <trkpt lat="45.02775" lon="5.85793">
        <ele>1408</ele>
        <time>2022-06-05T10:19:12Z</time>
      </trkpt>
      <trkpt lat="45.02776" lon="5.85793">
        <ele>1409</ele>
        <time>2022-06-05T10:19:13Z</time>
      </trkpt>
      <trkpt lat="45.02776" lon="5.85792">
        <ele>1409</ele>
        <time>2022-06-05T10:19:14Z</time>
      </trkpt>
      <trkpt lat="45.02778" lon="5.8579">
        <ele>1409</ele>
        <time>2022-06-05T10:19:15Z</time>
      </trkpt>
      <trkpt lat="45.02778" lon="5.85789">
        <ele>1409</ele>
        <time>2022-06-05T10:19:16Z</time>
      </trkpt>
      <trkpt lat="45.02779" lon="5.85788">
        <ele>1409</ele>
        <time>2022-06-05T10:19:17Z</time>
      </trkpt>
      <trkpt lat="45.0278" lon="5.85787">
        <ele>1410</ele>
        <time>2022-06-05T10:19:18Z</time>
      </trkpt>
      <trkpt lat="45.0278" lon="5.85786">
        <ele>1410</ele>
        <time>2022-06-05T10:19:19Z</time>
      </trkpt>
      <trkpt lat="45.02781" lon="5.85785">
        <ele>1410</ele>
        <time>2022-06-05T10:19:20Z</time>
      </trkpt>
      <trkpt lat="45.02781" lon="5.85784">
        <ele>1410</ele>
        <time>2022-06-05T10:19:21Z</time>
      </trkpt>
      <trkpt lat="45.02782" lon="5.85783">
        <ele>1411</ele>
        <time>2022-06-05T10:19:22Z</time>
      </trkpt>
      <trkpt lat="45.02783" lon="5.85782">
        <ele>1411</ele>
        <time>2022-06-05T10:19:23Z</time>
      </trkpt>
      <trkpt lat="45.02784" lon="5.85781">
        <ele>1411</ele>
        <time>2022-06-05T10:19:24Z</time>
      </trkpt>
      <trkpt lat="45.02785" lon="5.8578">
        <ele>1411</ele>
        <time>2022-06-05T10:19:25Z</time>
      </trkpt>
      <trkpt lat="45.02786" lon="5.85778">
        <ele>1412</ele>
        <time>2022-06-05T10:19:26Z</time>
      </trkpt>
      <trkpt lat="45.02786" lon="5.85777">
        <ele>1412</ele>
        <time>2022-06-05T10:19:27Z</time>
      </trkpt>
      <trkpt lat="45.02787" lon="5.85776">
        <ele>1413</ele>
        <time>2022-06-05T10:19:28Z</time>
      </trkpt>
      <trkpt lat="45.02787" lon="5.85775">
        <ele>1413</ele>
        <time>2022-06-05T10:19:29Z</time>
      </trkpt>
      <trkpt lat="45.02789" lon="5.85773">
        <ele>1413</ele>
        <time>2022-06-05T10:19:30Z</time>
      </trkpt>
      <trkpt lat="45.02789" lon="5.85772">
        <ele>1412</ele>
        <time>2022-06-05T10:19:31Z</time>
      </trkpt>
      <trkpt lat="45.0279" lon="5.85771">
        <ele>1413</ele>
        <time>2022-06-05T10:19:32Z</time>
      </trkpt>
      <trkpt lat="45.0279" lon="5.85769">
        <ele>1412</ele>
        <time>2022-06-05T10:19:33Z</time>
      </trkpt>
      <trkpt lat="45.02791" lon="5.85768">
        <ele>1412</ele>
        <time>2022-06-05T10:19:34Z</time>
      </trkpt>
      <trkpt lat="45.02791" lon="5.85766">
        <ele>1412</ele>
        <time>2022-06-05T10:19:35Z</time>
      </trkpt>
      <trkpt lat="45.02792" lon="5.85765">
        <ele>1412</ele>
        <time>2022-06-05T10:19:36Z</time>
      </trkpt>
      <trkpt lat="45.02792" lon="5.85764">
        <ele>1411</ele>
        <time>2022-06-05T10:19:37Z</time>
      </trkpt>
      <trkpt lat="45.02793" lon="5.85763">
        <ele>1412</ele>
        <time>2022-06-05T10:19:38Z</time>
      </trkpt>
      <trkpt lat="45.02793" lon="5.85763">
        <ele>1413</ele>
        <time>2022-06-05T10:19:39Z</time>
      </trkpt>
      <trkpt lat="45.02794" lon="5.85762">
        <ele>1412</ele>
        <time>2022-06-05T10:19:40Z</time>
      </trkpt>
      <trkpt lat="45.02794" lon="5.85761">
        <ele>1412</ele>
        <time>2022-06-05T10:19:41Z</time>
      </trkpt>
      <trkpt lat="45.02794" lon="5.8576">
        <ele>1411</ele>
        <time>2022-06-05T10:19:42Z</time>
      </trkpt>
      <trkpt lat="45.02795" lon="5.85758">
        <ele>1411</ele>
        <time>2022-06-05T10:19:43Z</time>
      </trkpt>
      <trkpt lat="45.02796" lon="5.85757">
        <ele>1412</ele>
        <time>2022-06-05T10:19:44Z</time>
      </trkpt>
      <trkpt lat="45.02797" lon="5.85755">
        <ele>1411</ele>
        <time>2022-06-05T10:19:45Z</time>
      </trkpt>
      <trkpt lat="45.02798" lon="5.85754">
        <ele>1410</ele>
        <time>2022-06-05T10:19:46Z</time>
      </trkpt>
      <trkpt lat="45.02799" lon="5.85753">
        <ele>1409</ele>
        <time>2022-06-05T10:19:47Z</time>
      </trkpt>
      <trkpt lat="45.02799" lon="5.85752">
        <ele>1409</ele>
        <time>2022-06-05T10:19:48Z</time>
      </trkpt>
      <trkpt lat="45.02799" lon="5.85751">
        <ele>1409</ele>
        <time>2022-06-05T10:19:49Z</time>
      </trkpt>
      <trkpt lat="45.02799" lon="5.8575">
        <ele>1409</ele>
        <time>2022-06-05T10:19:50Z</time>
      </trkpt>
      <trkpt lat="45.02799" lon="5.85749">
        <ele>1408</ele>
        <time>2022-06-05T10:19:51Z</time>
      </trkpt>
      <trkpt lat="45.028" lon="5.85749">
        <ele>1408</ele>
        <time>2022-06-05T10:19:52Z</time>
      </trkpt>
      <trkpt lat="45.02801" lon="5.85747">
        <ele>1408</ele>
        <time>2022-06-05T10:19:53Z</time>
      </trkpt>
      <trkpt lat="45.02802" lon="5.85746">
        <ele>1407</ele>
        <time>2022-06-05T10:19:54Z</time>
      </trkpt>
      <trkpt lat="45.02803" lon="5.85746">
        <ele>1407</ele>
        <time>2022-06-05T10:19:55Z</time>
      </trkpt>
      <trkpt lat="45.02804" lon="5.85745">
        <ele>1407</ele>
        <time>2022-06-05T10:19:56Z</time>
      </trkpt>
      <trkpt lat="45.02804" lon="5.85745">
        <ele>1407</ele>
        <time>2022-06-05T10:19:57Z</time>
      </trkpt>
      <trkpt lat="45.02805" lon="5.85743">
        <ele>1407</ele>
        <time>2022-06-05T10:19:58Z</time>
      </trkpt>
      <trkpt lat="45.02806" lon="5.85741">
        <ele>1407</ele>
        <time>2022-06-05T10:19:59Z</time>
      </trkpt>
      <trkpt lat="45.02807" lon="5.8574">
        <ele>1407</ele>
        <time>2022-06-05T10:20:00Z</time>
      </trkpt>
      <trkpt lat="45.02808" lon="5.85738">
        <ele>1407</ele>
        <time>2022-06-05T10:20:01Z</time>
      </trkpt>
      <trkpt lat="45.02808" lon="5.85737">
        <ele>1407</ele>
        <time>2022-06-05T10:20:02Z</time>
      </trkpt>
      <trkpt lat="45.02809" lon="5.85737">
        <ele>1407</ele>
        <time>2022-06-05T10:20:03Z</time>
      </trkpt>
      <trkpt lat="45.0281" lon="5.85737">
        <ele>1407</ele>
        <time>2022-06-05T10:20:04Z</time>
      </trkpt>
      <trkpt lat="45.0281" lon="5.85737">
        <ele>1407</ele>
        <time>2022-06-05T10:20:05Z</time>
      </trkpt>
      <trkpt lat="45.0281" lon="5.85737">
        <ele>1407</ele>
        <time>2022-06-05T10:20:06Z</time>
      </trkpt>
      <trkpt lat="45.0281" lon="5.85737">
        <ele>1407</ele>
        <time>2022-06-05T10:20:06Z</time>
      </trkpt>
      <trkpt lat="45.0281" lon="5.85737">
        <ele>1407</ele>
        <time>2022-06-05T10:20:06Z</time>
      </trkpt>
      <trkpt lat="45.02809" lon="5.85738">
        <ele>1403</ele>
        <time>2022-06-05T10:20:17Z</time>
      </trkpt>
      <trkpt lat="45.02809" lon="5.85738">
        <ele>1404</ele>
        <time>2022-06-05T10:20:18Z</time>
      </trkpt>
      <trkpt lat="45.02809" lon="5.85738">
        <ele>1404</ele>
        <time>2022-06-05T10:20:19Z</time>
      </trkpt>
      <trkpt lat="45.02809" lon="5.85738">
        <ele>1404</ele>
        <time>2022-06-05T10:20:20Z</time>
      </trkpt>
      <trkpt lat="45.02809" lon="5.85738">
        <ele>1404</ele>
        <time>2022-06-05T10:20:21Z</time>
      </trkpt>
      <trkpt lat="45.02809" lon="5.85738">
        <ele>1404</ele>
        <time>2022-06-05T10:20:21Z</time>
      </trkpt>
      <trkpt lat="45.02809" lon="5.85738">
        <ele>1404</ele>
        <time>2022-06-05T10:20:21Z</time>
      </trkpt>
      <trkpt lat="45.02809" lon="5.85745">
        <ele>1403</ele>
        <time>2022-06-05T10:20:34Z</time>
      </trkpt>
      <trkpt lat="45.02808" lon="5.85746">
        <ele>1402</ele>
        <time>2022-06-05T10:20:35Z</time>
      </trkpt>
      <trkpt lat="45.02808" lon="5.85747">
        <ele>1403</ele>
        <time>2022-06-05T10:20:36Z</time>
      </trkpt>
      <trkpt lat="45.02809" lon="5.85746">
        <ele>1404</ele>
        <time>2022-06-05T10:20:37Z</time>
      </trkpt>
      <trkpt lat="45.02809" lon="5.85746">
        <ele>1403</ele>
        <time>2022-06-05T10:20:38Z</time>
      </trkpt>
      <trkpt lat="45.0281" lon="5.85745">
        <ele>1403</ele>
        <time>2022-06-05T10:20:39Z</time>
      </trkpt>
      <trkpt lat="45.0281" lon="5.85745">
        <ele>1403</ele>
        <time>2022-06-05T10:20:40Z</time>
      </trkpt>
      <trkpt lat="45.02811" lon="5.85744">
        <ele>1403</ele>
        <time>2022-06-05T10:20:41Z</time>
      </trkpt>
      <trkpt lat="45.02811" lon="5.85743">
        <ele>1403</ele>
        <time>2022-06-05T10:20:42Z</time>
      </trkpt>
      <trkpt lat="45.02811" lon="5.85741">
        <ele>1403</ele>
        <time>2022-06-05T10:20:43Z</time>
      </trkpt>
      <trkpt lat="45.02812" lon="5.8574">
        <ele>1403</ele>
        <time>2022-06-05T10:20:44Z</time>
      </trkpt>
      <trkpt lat="45.02813" lon="5.85738">
        <ele>1403</ele>
        <time>2022-06-05T10:20:45Z</time>
      </trkpt>
      <trkpt lat="45.02813" lon="5.85737">
        <ele>1403</ele>
        <time>2022-06-05T10:20:46Z</time>
      </trkpt>
      <trkpt lat="45.02814" lon="5.85737">
        <ele>1404</ele>
        <time>2022-06-05T10:20:47Z</time>
      </trkpt>
      <trkpt lat="45.02814" lon="5.85737">
        <ele>1405</ele>
        <time>2022-06-05T10:20:48Z</time>
      </trkpt>
      <trkpt lat="45.02815" lon="5.85736">
        <ele>1405</ele>
        <time>2022-06-05T10:20:49Z</time>
      </trkpt>
      <trkpt lat="45.02815" lon="5.85736">
        <ele>1405</ele>
        <time>2022-06-05T10:20:50Z</time>
      </trkpt>
      <trkpt lat="45.02816" lon="5.85735">
        <ele>1405</ele>
        <time>2022-06-05T10:20:51Z</time>
      </trkpt>
      <trkpt lat="45.02817" lon="5.85734">
        <ele>1405</ele>
        <time>2022-06-05T10:20:52Z</time>
      </trkpt>
      <trkpt lat="45.02817" lon="5.85733">
        <ele>1405</ele>
        <time>2022-06-05T10:20:53Z</time>
      </trkpt>
      <trkpt lat="45.02818" lon="5.85733">
        <ele>1406</ele>
        <time>2022-06-05T10:20:54Z</time>
      </trkpt>
      <trkpt lat="45.02819" lon="5.85732">
        <ele>1407</ele>
        <time>2022-06-05T10:20:55Z</time>
      </trkpt>
      <trkpt lat="45.0282" lon="5.85731">
        <ele>1407</ele>
        <time>2022-06-05T10:20:56Z</time>
      </trkpt>
      <trkpt lat="45.02821" lon="5.85731">
        <ele>1408</ele>
        <time>2022-06-05T10:20:57Z</time>
      </trkpt>
      <trkpt lat="45.02821" lon="5.85731">
        <ele>1409</ele>
        <time>2022-06-05T10:20:58Z</time>
      </trkpt>
      <trkpt lat="45.02822" lon="5.8573">
        <ele>1409</ele>
        <time>2022-06-05T10:20:59Z</time>
      </trkpt>
      <trkpt lat="45.02822" lon="5.8573">
        <ele>1410</ele>
        <time>2022-06-05T10:21:00Z</time>
      </trkpt>
      <trkpt lat="45.02823" lon="5.85729">
        <ele>1410</ele>
        <time>2022-06-05T10:21:01Z</time>
      </trkpt>
      <trkpt lat="45.02824" lon="5.85728">
        <ele>1410</ele>
        <time>2022-06-05T10:21:02Z</time>
      </trkpt>
      <trkpt lat="45.02824" lon="5.85728">
        <ele>1410</ele>
        <time>2022-06-05T10:21:03Z</time>
      </trkpt>
      <trkpt lat="45.02826" lon="5.85727">
        <ele>1409</ele>
        <time>2022-06-05T10:21:04Z</time>
      </trkpt>
      <trkpt lat="45.02827" lon="5.85726">
        <ele>1409</ele>
        <time>2022-06-05T10:21:05Z</time>
      </trkpt>
      <trkpt lat="45.02827" lon="5.85725">
        <ele>1410</ele>
        <time>2022-06-05T10:21:06Z</time>
      </trkpt>
      <trkpt lat="45.02827" lon="5.85725">
        <ele>1410</ele>
        <time>2022-06-05T10:21:07Z</time>
      </trkpt>
      <trkpt lat="45.02827" lon="5.85725">
        <ele>1410</ele>
        <time>2022-06-05T10:21:08Z</time>
      </trkpt>
      <trkpt lat="45.02827" lon="5.85725">
        <ele>1410</ele>
        <time>2022-06-05T10:21:09Z</time>
      </trkpt>
      <trkpt lat="45.02827" lon="5.85725">
        <ele>1410</ele>
        <time>2022-06-05T10:21:09Z</time>
      </trkpt>
    </trkseg>
  </trk>
</gpx>